
Distance (Route):
Temperature : 15.3°C
Humidity : 81.1%
Pressure : 0hPa| Receiver | Frames | First received | Last received |
|---|---|---|---|
| OE3JTB-15 | 331 | 2026-09-01 02:17:04 | 2026-09-01 04:22:08 |
| OM5KV | 328 | 2026-09-01 02:38:35 | 2026-09-01 03:28:59 |
| OE5MMP-10 | 299 | 2026-09-01 02:18:47 | 2026-09-01 03:18:30 |
| PETON7-10 | 233 | 2026-09-01 02:27:15 | 2026-09-01 03:29:37 |
| DO3MHA-12 | 200 | 2026-09-01 02:24:38 | 2026-09-01 03:16:42 |
| OE5DRO-10 | 155 | 2026-09-01 02:15:04 | 2026-09-01 03:27:51 |
| OE5WHR-10 | 154 | 2026-09-01 02:15:17 | 2026-09-01 03:28:44 |
| PG1ADW-2 | 136 | 2026-09-01 02:16:19 | 2026-09-01 03:29:01 |
| OE5FHM-15 | 82 | 2026-09-01 02:18:27 | 2026-09-01 03:09:29 |
| OE5DXL-15 | 79 | 2026-09-01 02:18:33 | 2026-09-01 03:23:09 |
| OE8JPQ-2 | 56 | 2026-09-01 02:46:47 | 2026-09-01 03:07:28 |
| OE5HKT-10 | 53 | 2026-09-01 02:16:02 | 2026-09-01 02:43:46 |
| S52SK | 51 | 2026-09-01 02:27:02 | 2026-09-01 03:24:26 |
| OE3OSB-13 | 51 | 2026-09-01 02:38:46 | 2026-09-01 03:27:58 |
| DG1MFX-10 | 28 | 2026-09-01 02:43:27 | 2026-09-01 03:06:38 |
| OK1ALN | 10 | 2026-09-01 02:48:18 | 2026-09-01 03:03:32 |
| DB0NH | 8 | 2026-09-01 02:41:02 | 2026-09-01 02:44:36 |
| IN3HCDX | 1 | 2026-09-01 02:57:05 | 2026-09-01 02:57:05 |
| Receiver | Date | Latitude | Longitude | Direction | Speed | Altitude | Climb | Temperature | Humidity | Pressure | Voltage | Killtimer | Uptime | BKT | XDATA |
|---|---|---|---|---|---|---|---|---|---|---|---|---|---|---|---|
| OE3JTB-15 | 2026-09-01 04:22:08 | 48.16926 | 15.64979 | 0° | 0km/h | 344m | -0.0m/s | 15.3°C | 81.1% | 0hPa | 2.9V | 00:00:00 | 00:00:00 | 00:00:00 | |
| OE3JTB-15 | 2026-09-01 04:21:39 | 48.16926 | 15.64979 | 0° | 0km/h | 344m | -0.0m/s | 15.8°C | 78.4% | 0hPa | 2.9V | 00:00:00 | 00:00:00 | 00:00:00 | |
| OE3JTB-15 | 2026-09-01 04:21:10 | 48.16926 | 15.64979 | 0° | 0km/h | 345m | 0.1m/s | 15.8°C | 77.9% | 0hPa | 2.9V | 00:00:00 | 02:32:08 | 00:00:00 | |
| OE3JTB-15 | 2026-09-01 04:20:41 | 48.16926 | 15.64979 | 0° | 0km/h | 344m | 0.0m/s | 15.8°C | 78.1% | 0hPa | 2.9V | 00:00:00 | 00:00:00 | 00:00:00 | |
| OE3JTB-15 | 2026-09-01 04:20:12 | 48.16926 | 15.64980 | 0° | 0km/h | 345m | -0.0m/s | 15.6°C | 79.5% | 0hPa | 2.9V | 00:00:00 | 00:00:00 | 00:00:00 | |
| OE3JTB-15 | 2026-09-01 04:19:43 | 48.16926 | 15.64979 | 0° | 0km/h | 345m | -0.0m/s | 15.6°C | 80.8% | 0hPa | 2.9V | 00:00:00 | 02:30:41 | 00:00:00 | |
| OE3JTB-15 | 2026-09-01 04:19:14 | 48.16926 | 15.64980 | 0° | 0km/h | 344m | -0.0m/s | 16.0°C | 76.5% | 0hPa | 2.9V | 07:13:00 | 00:00:00 | 00:00:00 | |
| OE3JTB-15 | 2026-09-01 04:18:45 | 48.16926 | 15.64979 | 0° | 0km/h | 345m | 0.0m/s | 15.5°C | 80.4% | 0hPa | 2.9V | 00:00:00 | 00:00:00 | 00:00:00 | |
| OE3JTB-15 | 2026-09-01 04:18:16 | 48.16926 | 15.64980 | 0° | 0km/h | 345m | 0.0m/s | 16.0°C | 75.4% | 0hPa | 2.9V | 00:00:00 | 02:29:14 | 00:00:00 | |
| OE3JTB-15 | 2026-09-01 04:17:47 | 48.16926 | 15.64980 | 0° | 0km/h | 345m | 0.0m/s | 16.1°C | 75.3% | 0hPa | 2.9V | 00:00:00 | 00:00:00 | 00:00:00 | |
| OE3JTB-15 | 2026-09-01 04:17:18 | 48.16926 | 15.64979 | 0° | 0km/h | 345m | 0.0m/s | 15.6°C | 78.8% | 0hPa | 2.9V | 00:00:00 | 00:00:00 | 00:00:00 | |
| OE3JTB-15 | 2026-09-01 04:16:49 | 48.16926 | 15.64980 | 0° | 0km/h | 344m | 0.0m/s | 15.5°C | 79.4% | 0hPa | 2.9V | 00:00:00 | 02:27:47 | 00:00:00 | |
| OE3JTB-15 | 2026-09-01 04:16:20 | 48.16926 | 15.64979 | 0° | 0km/h | 344m | -0.1m/s | 15.7°C | 78.9% | 0hPa | 2.9V | 00:00:00 | 00:00:00 | 00:00:00 | |
| OE3JTB-15 | 2026-09-01 04:15:51 | 48.16926 | 15.64980 | 0° | 0km/h | 345m | 0.0m/s | 15.7°C | 78.1% | 0hPa | 2.9V | 00:00:00 | 00:00:00 | 00:00:00 | |
| OE3JTB-15 | 2026-09-01 04:15:22 | 48.16926 | 15.64979 | 0° | 0km/h | 344m | 0.0m/s | 15.2°C | 82.5% | 0hPa | 2.9V | 07:17:00 | 02:26:20 | 00:00:00 | |
| OE3JTB-15 | 2026-09-01 04:14:53 | 48.16926 | 15.64979 | 0° | 0km/h | 344m | 0.0m/s | 15.7°C | 78.7% | 0hPa | 2.9V | 00:00:00 | 00:00:00 | 00:00:00 | |
| OE3JTB-15 | 2026-09-01 04:14:24 | 48.16926 | 15.64979 | 0° | 0km/h | 344m | 0.0m/s | 15.8°C | 77.0% | 0hPa | 2.9V | 00:00:00 | 00:00:00 | 00:00:00 | |
| OE3JTB-15 | 2026-09-01 04:13:55 | 48.16926 | 15.64980 | 0° | 0km/h | 344m | -0.0m/s | 15.3°C | 81.3% | 0hPa | 2.9V | 00:00:00 | 02:24:53 | 00:00:00 | |
| OE3JTB-15 | 2026-09-01 04:13:26 | 48.16926 | 15.64980 | 0° | 0km/h | 344m | 0.0m/s | 15.8°C | 78.1% | 0hPa | 2.9V | 00:00:00 | 00:00:00 | 00:00:00 | |
| OE3JTB-15 | 2026-09-01 04:12:57 | 48.16926 | 15.64980 | 0° | 0km/h | 344m | 0.0m/s | 15.3°C | 81.9% | 0hPa | 2.9V | 00:00:00 | 00:00:00 | 00:00:00 | |
| OE3JTB-15 | 2026-09-01 04:12:28 | 48.16926 | 15.64980 | 0° | 0km/h | 344m | -0.0m/s | 15.6°C | 78.9% | 0hPa | 2.9V | 00:00:00 | 02:23:26 | 00:00:00 | |
| OE3JTB-15 | 2026-09-01 04:11:59 | 48.16926 | 15.64980 | 0° | 0km/h | 344m | 0.0m/s | 15.6°C | 79.8% | 0hPa | 2.9V | 00:00:00 | 00:00:00 | 00:00:00 | |
| OE3JTB-15 | 2026-09-01 04:11:30 | 48.16926 | 15.64980 | 0° | 0km/h | 344m | 0.0m/s | 15.6°C | 77.6% | 0hPa | 2.9V | 07:21:00 | 00:00:00 | 00:00:00 | |
| OE3JTB-15 | 2026-09-01 04:11:01 | 48.16926 | 15.64980 | 0° | 0km/h | 344m | 0.0m/s | 15.6°C | 80.0% | 0hPa | 2.9V | 00:00:00 | 02:21:59 | 00:00:00 | |
| OE3JTB-15 | 2026-09-01 04:10:32 | 48.16926 | 15.64980 | 0° | 0km/h | 344m | 0.0m/s | 15.7°C | 80.0% | 0hPa | 2.9V | 00:00:00 | 00:00:00 | 00:00:00 | |
| OE3JTB-15 | 2026-09-01 04:10:03 | 48.16926 | 15.64980 | 0° | 0km/h | 344m | 0.0m/s | 15.4°C | 81.2% | 0hPa | 2.9V | 00:00:00 | 00:00:00 | 00:00:00 | |
| OE3JTB-15 | 2026-09-01 04:09:34 | 48.16926 | 15.64980 | 0° | 0km/h | 345m | -0.0m/s | 15.8°C | 77.7% | 0hPa | 2.9V | 00:00:00 | 02:20:32 | 00:00:00 | |
| OE3JTB-15 | 2026-09-01 04:09:05 | 48.16926 | 15.64980 | 0° | 0km/h | 344m | 0.0m/s | 16.0°C | 75.1% | 0hPa | 2.9V | 00:00:00 | 00:00:00 | 00:00:00 | |
| OE3JTB-15 | 2026-09-01 04:08:36 | 48.16926 | 15.64980 | 0° | 0km/h | 344m | 0.0m/s | 15.8°C | 79.0% | 0hPa | 2.9V | 00:00:00 | 00:00:00 | 00:00:00 | |
| OE3JTB-15 | 2026-09-01 04:08:07 | 48.16926 | 15.64980 | 0° | 0km/h | 344m | -0.0m/s | 15.6°C | 79.9% | 0hPa | 2.9V | 00:00:00 | 02:19:05 | 00:00:00 | |
| OE3JTB-15 | 2026-09-01 04:07:38 | 48.16926 | 15.64979 | 0° | 0km/h | 344m | -0.0m/s | 15.7°C | 79.5% | 0hPa | 2.9V | 07:25:00 | 00:00:00 | 00:00:00 | |
| OE3JTB-15 | 2026-09-01 04:07:09 | 48.16926 | 15.64980 | 0° | 0km/h | 344m | -0.0m/s | 15.3°C | 81.8% | 0hPa | 2.9V | 00:00:00 | 00:00:00 | 00:00:00 | |
| OE3JTB-15 | 2026-09-01 04:06:40 | 48.16926 | 15.64979 | 0° | 0km/h | 345m | -0.0m/s | 15.5°C | 80.4% | 0hPa | 2.9V | 00:00:00 | 02:17:38 | 00:00:00 | |
| OE3JTB-15 | 2026-09-01 04:06:11 | 48.16926 | 15.64979 | 0° | 0km/h | 345m | 0.0m/s | 15.5°C | 81.0% | 0hPa | 2.9V | 00:00:00 | 00:00:00 | 00:00:00 | |
| OE3JTB-15 | 2026-09-01 04:05:42 | 48.16926 | 15.64980 | 0° | 0km/h | 345m | 0.0m/s | 16.0°C | 76.0% | 0hPa | 2.9V | 00:00:00 | 00:00:00 | 00:00:00 | |
| OE3JTB-15 | 2026-09-01 04:05:13 | 48.16926 | 15.64980 | 0° | 0km/h | 345m | -0.0m/s | 15.1°C | 82.2% | 0hPa | 2.9V | 00:00:00 | 02:16:11 | 00:00:00 | |
| OE3JTB-15 | 2026-09-01 04:04:44 | 48.16926 | 15.64980 | 0° | 0km/h | 345m | 0.0m/s | 15.7°C | 78.8% | 0hPa | 2.9V | 00:00:00 | 00:00:00 | 00:00:00 | |
| OE3JTB-15 | 2026-09-01 04:04:15 | 48.16926 | 15.64979 | 0° | 0km/h | 345m | -0.0m/s | 15.6°C | 79.9% | 0hPa | 2.9V | 00:00:00 | 00:00:00 | 00:00:00 | |
| OE3JTB-15 | 2026-09-01 04:03:46 | 48.16926 | 15.64980 | 0° | 0km/h | 345m | -0.0m/s | 15.4°C | 80.8% | 0hPa | 2.9V | 07:29:00 | 02:14:44 | 00:00:00 | |
| OE3JTB-15 | 2026-09-01 04:03:17 | 48.16926 | 15.64980 | 0° | 0km/h | 345m | -0.0m/s | 15.9°C | 76.7% | 0hPa | 2.9V | 00:00:00 | 00:00:00 | 00:00:00 | |
| OE3JTB-15 | 2026-09-01 04:02:48 | 48.16926 | 15.64980 | 0° | 0km/h | 345m | 0.0m/s | 15.6°C | 79.6% | 0hPa | 2.9V | 00:00:00 | 00:00:00 | 00:00:00 | |
| OE3JTB-15 | 2026-09-01 04:02:19 | 48.16926 | 15.64980 | 0° | 0km/h | 345m | -0.0m/s | 15.2°C | 83.3% | 0hPa | 2.9V | 00:00:00 | 02:13:17 | 00:00:00 | |
| OE3JTB-15 | 2026-09-01 04:01:50 | 48.16926 | 15.64980 | 0° | 0km/h | 345m | -0.0m/s | 15.8°C | 79.0% | 0hPa | 2.9V | 00:00:00 | 00:00:00 | 00:00:00 | |
| OE3JTB-15 | 2026-09-01 04:01:21 | 48.16926 | 15.64980 | 0° | 0km/h | 345m | -0.0m/s | 15.7°C | 77.5% | 0hPa | 2.9V | 00:00:00 | 00:00:00 | 00:00:00 | |
| OE3JTB-15 | 2026-09-01 04:00:52 | 48.16926 | 15.64980 | 0° | 0km/h | 345m | 0.0m/s | 15.7°C | 77.6% | 0hPa | 2.9V | 00:00:00 | 02:11:50 | 00:00:00 | |
| OE3JTB-15 | 2026-09-01 04:00:23 | 48.16926 | 15.64980 | 0° | 0km/h | 345m | 0.0m/s | 15.3°C | 81.7% | 0hPa | 2.9V | 00:00:00 | 00:00:00 | 00:00:00 | |
| OE3JTB-15 | 2026-09-01 03:59:54 | 48.16926 | 15.64980 | 0° | 0km/h | 344m | 0.0m/s | 15.2°C | 83.1% | 0hPa | 2.9V | 07:33:00 | 00:00:00 | 00:00:00 | |
| OE3JTB-15 | 2026-09-01 03:59:25 | 48.16926 | 15.64980 | 0° | 0km/h | 345m | -0.0m/s | 15.4°C | 79.3% | 0hPa | 2.9V | 00:00:00 | 02:10:23 | 00:00:00 | |
| OE3JTB-15 | 2026-09-01 03:58:56 | 48.16926 | 15.64980 | 0° | 0km/h | 344m | -0.0m/s | 15.3°C | 81.4% | 0hPa | 2.9V | 00:00:00 | 00:00:00 | 00:00:00 | |
| OE3JTB-15 | 2026-09-01 03:58:27 | 48.16926 | 15.64980 | 0° | 0km/h | 345m | 0.0m/s | 15.3°C | 81.2% | 0hPa | 2.9V | 00:00:00 | 00:00:00 | 00:00:00 | |
| OE3JTB-15 | 2026-09-01 03:57:58 | 48.16926 | 15.64980 | 0° | 0km/h | 345m | -0.0m/s | 15.5°C | 80.2% | 0hPa | 2.9V | 00:00:00 | 02:08:56 | 00:00:00 | |
| OE3JTB-15 | 2026-09-01 03:57:29 | 48.16926 | 15.64980 | 0° | 0km/h | 344m | -0.0m/s | 15.6°C | 79.3% | 0hPa | 2.9V | 00:00:00 | 00:00:00 | 00:00:00 | |
| OE3JTB-15 | 2026-09-01 03:57:00 | 48.16926 | 15.64980 | 0° | 0km/h | 344m | -0.0m/s | 16.0°C | 77.3% | 0hPa | 2.9V | 00:00:00 | 00:00:00 | 00:00:00 | |
| OE3JTB-15 | 2026-09-01 03:56:31 | 48.16926 | 15.64980 | 0° | 0km/h | 344m | -0.0m/s | 16.3°C | 74.4% | 0hPa | 2.9V | 00:00:00 | 02:07:29 | 00:00:00 | |
| OE3JTB-15 | 2026-09-01 03:56:02 | 48.16925 | 15.64980 | 0° | 0km/h | 345m | 0.0m/s | 15.3°C | 82.6% | 0hPa | 2.9V | 07:37:00 | 00:00:00 | 00:00:00 | |
| OE3JTB-15 | 2026-09-01 03:55:33 | 48.16925 | 15.64981 | 0° | 0km/h | 344m | 0.0m/s | 15.8°C | 78.6% | 0hPa | 2.9V | 00:00:00 | 00:00:00 | 00:00:00 | |
| OE3JTB-15 | 2026-09-01 03:55:04 | 48.16925 | 15.64980 | 0° | 0km/h | 345m | 0.0m/s | 16.0°C | 74.8% | 0hPa | 2.9V | 00:00:00 | 02:06:02 | 00:00:00 | |
| OE3JTB-15 | 2026-09-01 03:54:35 | 48.16925 | 15.64980 | 0° | 0km/h | 345m | 0.0m/s | 15.5°C | 79.7% | 0hPa | 2.9V | 00:00:00 | 00:00:00 | 00:00:00 | |
| OE3JTB-15 | 2026-09-01 03:54:06 | 48.16925 | 15.64980 | 0° | 0km/h | 345m | -0.0m/s | 15.9°C | 76.8% | 0hPa | 2.9V | 00:00:00 | 00:00:00 | 00:00:00 | |
| OE3JTB-15 | 2026-09-01 03:53:37 | 48.16926 | 15.64980 | 0° | 0km/h | 345m | 0.0m/s | 15.7°C | 79.0% | 0hPa | 2.9V | 00:00:00 | 02:04:35 | 00:00:00 | |
| OE3JTB-15 | 2026-09-01 03:53:08 | 48.16925 | 15.64980 | 0° | 0km/h | 345m | -0.0m/s | 15.6°C | 81.0% | 0hPa | 2.9V | 00:00:00 | 00:00:00 | 00:00:00 | |
| OE3JTB-15 | 2026-09-01 03:52:39 | 48.16925 | 15.64980 | 0° | 0km/h | 345m | 0.0m/s | 15.7°C | 77.7% | 0hPa | 2.9V | 00:00:00 | 00:00:00 | 00:00:00 | |
| OE3JTB-15 | 2026-09-01 03:52:10 | 48.16925 | 15.64980 | 0° | 0km/h | 345m | -0.0m/s | 15.7°C | 79.5% | 0hPa | 2.9V | 07:40:00 | 02:03:08 | 00:00:00 | |
| OE3JTB-15 | 2026-09-01 03:51:41 | 48.16925 | 15.64980 | 0° | 0km/h | 345m | 0.0m/s | 15.8°C | 78.9% | 0hPa | 2.9V | 00:00:00 | 00:00:00 | 00:00:00 | |
| OE3JTB-15 | 2026-09-01 03:51:12 | 48.16925 | 15.64980 | 0° | 0km/h | 344m | -0.0m/s | 15.7°C | 79.3% | 0hPa | 2.9V | 00:00:00 | 00:00:00 | 00:00:00 | |
| OE3JTB-15 | 2026-09-01 03:50:43 | 48.16925 | 15.64980 | 0° | 0km/h | 345m | 0.0m/s | 15.7°C | 79.7% | 0hPa | 2.9V | 00:00:00 | 02:01:41 | 00:00:00 | |
| OE3JTB-15 | 2026-09-01 03:50:14 | 48.16925 | 15.64980 | 0° | 0km/h | 346m | 0.0m/s | 15.9°C | 77.7% | 0hPa | 2.9V | 00:00:00 | 00:00:00 | 00:00:00 | |
| OE3JTB-15 | 2026-09-01 03:49:45 | 48.16925 | 15.64980 | 0° | 0km/h | 345m | -0.0m/s | 15.9°C | 76.5% | 0hPa | 2.7V | 00:00:00 | 00:00:00 | 00:00:00 | |
| OE3JTB-15 | 2026-09-01 03:49:16 | 48.16925 | 15.64980 | 0° | 0km/h | 345m | 0.0m/s | 16.0°C | 77.2% | 0hPa | 2.7V | 00:00:00 | 02:00:14 | 00:00:00 | |
| OE3JTB-15 | 2026-09-01 03:48:47 | 48.16925 | 15.64980 | 0° | 0km/h | 345m | -0.0m/s | 16.1°C | 75.7% | 0hPa | 2.7V | 00:00:00 | 00:00:00 | 00:00:00 | |
| OE3JTB-15 | 2026-09-01 03:48:18 | 48.16925 | 15.64980 | 0° | 0km/h | 345m | 0.0m/s | 16.3°C | 75.2% | 0hPa | 2.7V | 07:44:00 | 00:00:00 | 00:00:00 | |
| OE3JTB-15 | 2026-09-01 03:47:49 | 48.16926 | 15.64980 | 0° | 0km/h | 345m | 0.0m/s | 15.7°C | 79.4% | 0hPa | 2.7V | 00:00:00 | 01:58:47 | 00:00:00 | |
| OE3JTB-15 | 2026-09-01 03:47:20 | 48.16926 | 15.64980 | 0° | 0km/h | 345m | 0.0m/s | 15.7°C | 80.8% | 0hPa | 2.7V | 00:00:00 | 00:00:00 | 00:00:00 | |
| OE3JTB-15 | 2026-09-01 03:46:51 | 48.16925 | 15.64980 | 0° | 0km/h | 345m | 0.0m/s | 15.8°C | 79.4% | 0hPa | 2.7V | 00:00:00 | 00:00:00 | 00:00:00 | |
| OE3JTB-15 | 2026-09-01 03:46:22 | 48.16925 | 15.64981 | 0° | 0km/h | 345m | 0.1m/s | 16.1°C | 77.2% | 0hPa | 2.7V | 00:00:00 | 01:57:20 | 00:00:00 | |
| OE3JTB-15 | 2026-09-01 03:45:53 | 48.16925 | 15.64980 | 0° | 0km/h | 345m | 0.0m/s | 15.7°C | 80.0% | 0hPa | 2.7V | 00:00:00 | 00:00:00 | 00:00:00 | |
| OE3JTB-15 | 2026-09-01 03:45:24 | 48.16925 | 15.64980 | 0° | 0km/h | 345m | 0.0m/s | 16.2°C | 74.4% | 0hPa | 2.7V | 00:00:00 | 00:00:00 | 00:00:00 | |
| OE3JTB-15 | 2026-09-01 03:44:55 | 48.16925 | 15.64980 | 0° | 0km/h | 344m | -0.0m/s | 15.9°C | 78.2% | 0hPa | 2.7V | 00:00:00 | 01:55:53 | 00:00:00 | |
| OE3JTB-15 | 2026-09-01 03:44:26 | 48.16925 | 15.64980 | 0° | 0km/h | 345m | 0.0m/s | 16.0°C | 78.0% | 0hPa | 2.7V | 07:48:00 | 00:00:00 | 00:00:00 | |
| OE3JTB-15 | 2026-09-01 03:43:57 | 48.16925 | 15.64980 | 0° | 0km/h | 344m | 0.0m/s | 15.4°C | 83.0% | 0hPa | 2.7V | 00:00:00 | 00:00:00 | 00:00:00 | |
| OE3JTB-15 | 2026-09-01 03:43:28 | 48.16925 | 15.64980 | 0° | 0km/h | 344m | -0.0m/s | 15.8°C | 79.0% | 0hPa | 2.7V | 00:00:00 | 01:54:26 | 00:00:00 | |
| OE3JTB-15 | 2026-09-01 03:42:59 | 48.16925 | 15.64980 | 0° | 0km/h | 345m | 0.0m/s | 16.0°C | 76.4% | 0hPa | 2.7V | 00:00:00 | 00:00:00 | 00:00:00 | |
| OE3JTB-15 | 2026-09-01 03:42:30 | 48.16925 | 15.64980 | 0° | 0km/h | 345m | 0.0m/s | 15.9°C | 78.7% | 0hPa | 2.7V | 00:00:00 | 00:00:00 | 00:00:00 | |
| OE3JTB-15 | 2026-09-01 03:42:01 | 48.16925 | 15.64981 | 0° | 0km/h | 345m | -0.0m/s | 15.7°C | 79.8% | 0hPa | 2.7V | 00:00:00 | 01:52:59 | 00:00:00 | |
| OE3JTB-15 | 2026-09-01 03:41:32 | 48.16925 | 15.64981 | 0° | 0km/h | 345m | -0.0m/s | 16.0°C | 77.1% | 0hPa | 2.7V | 00:00:00 | 00:00:00 | 00:00:00 | |
| OE3JTB-15 | 2026-09-01 03:40:34 | 48.16925 | 15.64980 | 0° | 0km/h | 345m | -0.0m/s | 15.9°C | 77.2% | 0hPa | 2.7V | 07:52:00 | 01:51:32 | 00:00:00 | |
| OE3JTB-15 | 2026-09-01 03:40:05 | 48.16925 | 15.64981 | 0° | 0km/h | 345m | 0.0m/s | 15.8°C | 77.0% | 0hPa | 2.7V | 00:00:00 | 00:00:00 | 00:00:00 | |
| OE3JTB-15 | 2026-09-01 03:39:36 | 48.16925 | 15.64980 | 0° | 0km/h | 345m | 0.0m/s | 15.9°C | 77.2% | 0hPa | 2.7V | 00:00:00 | 00:00:00 | 00:00:00 | |
| OE3JTB-15 | 2026-09-01 03:39:07 | 48.16925 | 15.64980 | 0° | 0km/h | 345m | 0.0m/s | 15.9°C | 77.2% | 0hPa | 2.7V | 00:00:00 | 01:50:05 | 00:00:00 | |
| OE3JTB-15 | 2026-09-01 03:38:38 | 48.16925 | 15.64980 | 0° | 0km/h | 345m | -0.0m/s | 15.5°C | 80.4% | 0hPa | 2.7V | 00:00:00 | 00:00:00 | 00:00:00 | |
| OE3JTB-15 | 2026-09-01 03:38:09 | 48.16925 | 15.64980 | 0° | 0km/h | 345m | 0.0m/s | 15.7°C | 79.8% | 0hPa | 2.7V | 00:00:00 | 00:00:00 | 00:00:00 | |
| OE3JTB-15 | 2026-09-01 03:37:40 | 48.16925 | 15.64980 | 0° | 0km/h | 345m | 0.0m/s | 16.0°C | 78.4% | 0hPa | 2.7V | 00:00:00 | 01:48:38 | 00:00:00 | |
| OE3JTB-15 | 2026-09-01 03:37:11 | 48.16925 | 15.64981 | 0° | 0km/h | 344m | -0.0m/s | 15.8°C | 78.3% | 0hPa | 2.7V | 00:00:00 | 00:00:00 | 00:00:00 | |
| OE3JTB-15 | 2026-09-01 03:36:42 | 48.16926 | 15.64981 | 0° | 0km/h | 344m | -0.0m/s | 15.3°C | 82.9% | 0hPa | 2.7V | 07:56:00 | 00:00:00 | 00:00:00 | |
| OE3JTB-15 | 2026-09-01 03:36:13 | 48.16925 | 15.64981 | 0° | 0km/h | 344m | -0.0m/s | 15.8°C | 76.9% | 0hPa | 2.7V | 00:00:00 | 01:47:11 | 00:00:00 | |
| OE3JTB-15 | 2026-09-01 03:35:44 | 48.16925 | 15.64981 | 0° | 0km/h | 345m | -0.0m/s | 15.6°C | 80.1% | 0hPa | 2.7V | 00:00:00 | 00:00:00 | 00:00:00 | |
| OE3JTB-15 | 2026-09-01 03:35:15 | 48.16925 | 15.64981 | 0° | 0km/h | 345m | -0.0m/s | 15.4°C | 83.0% | 0hPa | 2.7V | 00:00:00 | 00:00:00 | 00:00:00 | |
| OE3JTB-15 | 2026-09-01 03:34:46 | 48.16925 | 15.64980 | 0° | 0km/h | 345m | 0.0m/s | 15.8°C | 78.3% | 0hPa | 2.7V | 00:00:00 | 01:45:44 | 00:00:00 | |
| OE3JTB-15 | 2026-09-01 03:34:17 | 48.16925 | 15.64981 | 0° | 0km/h | 344m | -0.0m/s | 15.7°C | 80.4% | 0hPa | 2.7V | 00:00:00 | 00:00:00 | 00:00:00 | |
| OE3JTB-15 | 2026-09-01 03:33:48 | 48.16926 | 15.64980 | 0° | 0km/h | 344m | -0.0m/s | 15.8°C | 80.1% | 0hPa | 2.7V | 00:00:00 | 00:00:00 | 00:00:00 | |
| OE3JTB-15 | 2026-09-01 03:33:19 | 48.16925 | 15.64980 | 0° | 0km/h | 344m | 0.0m/s | 15.9°C | 78.7% | 0hPa | 2.7V | 00:00:00 | 01:44:17 | 00:00:00 | |
| OE3JTB-15 | 2026-09-01 03:32:50 | 48.16925 | 15.64981 | 235° | 0km/h | 344m | 0.0m/s | 15.6°C | 79.4% | 0hPa | 2.7V | 08:00:00 | 00:00:00 | 00:00:00 | |
| OE3JTB-15 | 2026-09-01 03:32:21 | 48.16924 | 15.64976 | 42° | 5km/h | 341m | -1.2m/s | 15.2°C | 83.1% | 0hPa | 2.7V | 00:00:00 | 00:00:00 | 00:00:00 | |
| OE3JTB-15 | 2026-09-01 03:32:19 | 48.16917 | 15.64962 | 55° | 29km/h | 350m | -4.8m/s | 17.6°C | 65.7% | 0hPa | 2.7V | 00:00:00 | 01:43:17 | 00:00:00 | |
| OE3JTB-15 | 2026-09-01 03:32:17 | 48.16910 | 15.64943 | 63° | 31km/h | 360m | -5.8m/s | 17.7°C | 65.3% | 0hPa | 2.7V | 00:00:00 | 00:00:00 | 00:00:00 | |
| OE3JTB-15 | 2026-09-01 03:32:15 | 48.16903 | 15.64923 | 60° | 29km/h | 371m | -5.6m/s | 17.6°C | 65.0% | 0hPa | 2.7V | 00:00:00 | 00:00:00 | 00:00:00 | |
| OE3JTB-15 | 2026-09-01 03:32:13 | 48.16896 | 15.64903 | 68° | 29km/h | 382m | -4.9m/s | 17.6°C | 65.0% | 0hPa | 2.7V | 00:00:00 | 01:43:11 | 00:00:00 | |
| OE3JTB-15 | 2026-09-01 03:32:11 | 48.16890 | 15.64881 | 71° | 35km/h | 391m | -6.2m/s | 17.5°C | 65.5% | 0hPa | 2.7V | 00:00:00 | 00:00:00 | 00:00:00 | |
| OE3JTB-15 | 2026-09-01 03:32:09 | 48.16883 | 15.64857 | 64° | 35km/h | 404m | -6.7m/s | 17.7°C | 63.6% | 0hPa | 2.7V | 00:00:00 | 00:00:00 | 00:00:00 | |
| OE3JTB-15 | 2026-09-01 03:32:07 | 48.16875 | 15.64832 | 69° | 40km/h | 416m | -7.3m/s | 17.9°C | 62.1% | 0hPa | 2.7V | 00:00:00 | 01:43:05 | 00:00:00 | |
| OE3JTB-15 | 2026-09-01 03:32:03 | 48.16858 | 15.64778 | 64° | 38km/h | 439m | -5.4m/s | 17.7°C | 62.8% | 0hPa | 2.7V | 00:00:00 | 00:00:00 | 00:00:00 | |
| OE3JTB-15 | 2026-09-01 03:32:01 | 48.16850 | 15.64752 | 64° | 40km/h | 449m | -5.1m/s | 17.6°C | 63.0% | 0hPa | 2.7V | 00:00:00 | 01:42:59 | 00:00:00 | |
| OE3JTB-15 | 2026-09-01 03:31:59 | 48.16841 | 15.64724 | 65° | 42km/h | 459m | -4.9m/s | 17.5°C | 63.4% | 0hPa | 2.7V | 00:00:00 | 00:00:00 | 00:00:00 | |
| OE3JTB-15 | 2026-09-01 03:31:57 | 48.16832 | 15.64695 | 65° | 46km/h | 469m | -5.1m/s | 17.5°C | 63.4% | 0hPa | 2.7V | 00:00:00 | 00:00:00 | 00:00:00 | |
| OE3JTB-15 | 2026-09-01 03:31:55 | 48.16822 | 15.64663 | 68° | 46km/h | 479m | -5.1m/s | 17.3°C | 64.0% | 0hPa | 2.7V | 00:00:00 | 01:42:53 | 00:00:00 | |
| OE3JTB-15 | 2026-09-01 03:31:53 | 48.16814 | 15.64631 | 69° | 47km/h | 489m | -5.8m/s | 17.2°C | 64.2% | 0hPa | 2.7V | 00:00:00 | 00:00:00 | 00:00:00 | |
| OE3JTB-15 | 2026-09-01 03:31:51 | 48.16804 | 15.64597 | 67° | 49km/h | 501m | -7.1m/s | 17.2°C | 63.8% | 0hPa | 2.7V | 00:00:00 | 00:00:00 | 00:00:00 | |
| OE3JTB-15 | 2026-09-01 03:31:49 | 48.16794 | 15.64564 | 66° | 47km/h | 515m | -6.7m/s | 17.2°C | 63.5% | 0hPa | 2.7V | 00:00:00 | 01:42:47 | 00:00:00 | |
| OE3JTB-15 | 2026-09-01 03:31:47 | 48.16785 | 15.64530 | 69° | 49km/h | 529m | -6.7m/s | 17.1°C | 64.1% | 0hPa | 2.7V | 08:01:00 | 00:00:00 | 00:00:00 | |
| OE3JTB-15 | 2026-09-01 03:31:45 | 48.16776 | 15.64494 | 72° | 53km/h | 542m | -6.6m/s | 17.2°C | 63.0% | 0hPa | 2.7V | 00:00:00 | 00:00:00 | 00:00:00 | |
| OE3JTB-15 | 2026-09-01 03:31:43 | 48.16768 | 15.64455 | 73° | 53km/h | 555m | -6.2m/s | 17.1°C | 63.3% | 0hPa | 2.7V | 00:00:00 | 01:42:41 | 00:00:00 | |
| OE3JTB-15 | 2026-09-01 03:31:41 | 48.16760 | 15.64417 | 74° | 51km/h | 567m | -5.9m/s | 17.0°C | 63.4% | 0hPa | 2.7V | 00:00:00 | 00:00:00 | 00:00:00 | |
| OE3JTB-15 | 2026-09-01 03:31:39 | 48.16753 | 15.64380 | 73° | 51km/h | 579m | -6.7m/s | 16.8°C | 64.2% | 0hPa | 2.7V | 00:00:00 | 00:00:00 | 00:00:00 | |
| OE3JTB-15 | 2026-09-01 03:31:37 | 48.16745 | 15.64342 | 75° | 53km/h | 593m | -6.3m/s | 16.7°C | 64.4% | 0hPa | 2.7V | 00:00:00 | 01:42:35 | 00:00:00 | |
| OE3JTB-15 | 2026-09-01 03:31:35 | 48.16740 | 15.64303 | 78° | 57km/h | 607m | -7.1m/s | 16.7°C | 64.3% | 0hPa | 2.7V | 00:00:00 | 00:00:00 | 00:00:00 | |
| OE3JTB-15 | 2026-09-01 03:31:33 | 48.16734 | 15.64262 | 76° | 53km/h | 620m | -6.6m/s | 16.5°C | 64.8% | 0hPa | 2.7V | 00:00:00 | 00:00:00 | 00:00:00 | |
| OE3JTB-15 | 2026-09-01 03:31:31 | 48.16728 | 15.64223 | 79° | 55km/h | 634m | -6.8m/s | 16.4°C | 65.0% | 0hPa | 2.7V | 00:00:00 | 01:42:29 | 00:00:00 | |
| OE3JTB-15 | 2026-09-01 03:31:29 | 48.16722 | 15.64183 | 80° | 55km/h | 647m | -6.2m/s | 16.3°C | 65.2% | 0hPa | 2.7V | 08:01:00 | 00:00:00 | 00:00:00 | |
| OE3JTB-15 | 2026-09-01 03:31:27 | 48.16716 | 15.64142 | 80° | 55km/h | 659m | -5.7m/s | 16.2°C | 65.6% | 0hPa | 2.7V | 00:00:00 | 00:00:00 | 00:00:00 | |
| OE3JTB-15 | 2026-09-01 03:31:25 | 48.16711 | 15.64101 | 82° | 55km/h | 670m | -4.9m/s | 16.1°C | 66.0% | 0hPa | 2.7V | 00:00:00 | 01:42:23 | 00:00:00 | |
| OE3JTB-15 | 2026-09-01 03:31:23 | 48.16707 | 15.64060 | 82° | 55km/h | 682m | -6.3m/s | 16.1°C | 65.9% | 0hPa | 2.7V | 00:00:00 | 00:00:00 | 00:00:00 | |
| OE3JTB-15 | 2026-09-01 03:31:21 | 48.16703 | 15.64019 | 84° | 55km/h | 694m | -5.6m/s | 16.0°C | 65.9% | 0hPa | 2.7V | 00:00:00 | 00:00:00 | 00:00:00 | |
| OE3JTB-15 | 2026-09-01 03:31:19 | 48.16699 | 15.63978 | 84° | 55km/h | 705m | -5.7m/s | 16.0°C | 65.0% | 0hPa | 2.7V | 00:00:00 | 01:42:17 | 00:00:00 | |
| OE3JTB-15 | 2026-09-01 03:31:17 | 48.16697 | 15.63937 | 84° | 55km/h | 716m | -6.8m/s | 16.2°C | 63.4% | 0hPa | 2.7V | 00:00:00 | 00:00:00 | 00:00:00 | |
| OE3JTB-15 | 2026-09-01 03:31:15 | 48.16694 | 15.63896 | 85° | 55km/h | 729m | -5.9m/s | 16.1°C | 63.2% | 0hPa | 2.7V | 00:00:00 | 00:00:00 | 00:00:00 | |
| OE3JTB-15 | 2026-09-01 03:31:13 | 48.16691 | 15.63854 | 83° | 53km/h | 741m | -5.9m/s | 16.0°C | 63.4% | 0hPa | 2.7V | 00:00:00 | 01:42:11 | 00:00:00 | |
| OE3JTB-15 | 2026-09-01 03:31:11 | 48.16688 | 15.63814 | 85° | 55km/h | 753m | -6.4m/s | 16.0°C | 63.5% | 0hPa | 2.7V | 08:01:00 | 00:00:00 | 00:00:00 | |
| OE3JTB-15 | 2026-09-01 03:31:09 | 48.16685 | 15.63773 | 85° | 55km/h | 766m | -5.2m/s | 15.9°C | 63.2% | 0hPa | 2.7V | 00:00:00 | 00:00:00 | 00:00:00 | |
| OE3JTB-15 | 2026-09-01 03:31:07 | 48.16682 | 15.63732 | 83° | 53km/h | 778m | -5.9m/s | 15.8°C | 63.5% | 0hPa | 2.7V | 00:00:00 | 01:42:05 | 00:00:00 | |
| OE3JTB-15 | 2026-09-01 03:31:05 | 48.16679 | 15.63692 | 86° | 55km/h | 789m | -5.7m/s | 15.7°C | 63.8% | 0hPa | 2.7V | 00:00:00 | 00:00:00 | 00:00:00 | |
| OE3JTB-15 | 2026-09-01 03:31:03 | 48.16676 | 15.63651 | 86° | 55km/h | 801m | -5.7m/s | 15.6°C | 64.0% | 0hPa | 2.7V | 00:00:00 | 00:00:00 | 00:00:00 | |
| OE3JTB-15 | 2026-09-01 03:31:01 | 48.16673 | 15.63610 | 85° | 55km/h | 814m | -6.5m/s | 15.5°C | 64.3% | 0hPa | 2.7V | 00:00:00 | 01:41:59 | 00:00:00 | |
| OE3JTB-15 | 2026-09-01 03:30:59 | 48.16671 | 15.63569 | 84° | 53km/h | 826m | -6.4m/s | 15.4°C | 64.7% | 0hPa | 2.7V | 00:00:00 | 00:00:00 | 00:00:00 | |
| OE3JTB-15 | 2026-09-01 03:30:57 | 48.16668 | 15.63529 | 84° | 53km/h | 838m | -6.0m/s | 15.3°C | 65.0% | 0hPa | 2.7V | 00:00:00 | 00:00:00 | 00:00:00 | |
| OE3JTB-15 | 2026-09-01 03:30:55 | 48.16664 | 15.63489 | 85° | 55km/h | 849m | -5.4m/s | 15.2°C | 65.1% | 0hPa | 2.7V | 00:00:00 | 01:41:53 | 00:00:00 | |
| OE3JTB-15 | 2026-09-01 03:30:53 | 48.16661 | 15.63449 | 83° | 53km/h | 861m | -5.9m/s | 15.1°C | 65.4% | 0hPa | 2.7V | 08:02:00 | 00:00:00 | 00:00:00 | |
| OE3JTB-15 | 2026-09-01 03:30:51 | 48.16658 | 15.63408 | 83° | 53km/h | 873m | -6.3m/s | 15.0°C | 65.5% | 0hPa | 2.7V | 00:00:00 | 00:00:00 | 00:00:00 | |
| OE3JTB-15 | 2026-09-01 03:30:49 | 48.16656 | 15.63368 | 85° | 53km/h | 885m | -6.6m/s | 14.9°C | 65.8% | 0hPa | 2.7V | 00:00:00 | 01:41:47 | 00:00:00 | |
| OE3JTB-15 | 2026-09-01 03:30:47 | 48.16653 | 15.63328 | 84° | 53km/h | 897m | -6.0m/s | 14.7°C | 66.2% | 0hPa | 2.7V | 00:00:00 | 00:00:00 | 00:00:00 | |
| OE3JTB-15 | 2026-09-01 03:30:45 | 48.16650 | 15.63288 | 87° | 53km/h | 909m | -5.3m/s | 14.6°C | 66.6% | 0hPa | 2.7V | 00:00:00 | 00:00:00 | 00:00:00 | |
| OE3JTB-15 | 2026-09-01 03:30:43 | 48.16648 | 15.63249 | 86° | 53km/h | 922m | -5.7m/s | 14.5°C | 66.9% | 0hPa | 2.7V | 00:00:00 | 01:41:41 | 00:00:00 | |
| OE3JTB-15 | 2026-09-01 03:30:41 | 48.16645 | 15.63209 | 83° | 51km/h | 934m | -6.0m/s | 14.4°C | 67.3% | 0hPa | 2.7V | 00:00:00 | 00:00:00 | 00:00:00 | |
| OE3JTB-15 | 2026-09-01 03:30:39 | 48.16642 | 15.63169 | 85° | 53km/h | 946m | -6.4m/s | 14.3°C | 67.4% | 0hPa | 2.7V | 00:00:00 | 00:00:00 | 00:00:00 | |
| OE3JTB-15 | 2026-09-01 03:30:37 | 48.16640 | 15.63130 | 87° | 53km/h | 958m | -5.6m/s | 14.2°C | 67.8% | 0hPa | 2.7V | 00:00:00 | 01:41:35 | 00:00:00 | |
| OE3JTB-15 | 2026-09-01 03:30:35 | 48.16638 | 15.63091 | 83° | 51km/h | 970m | -4.8m/s | 14.1°C | 68.3% | 0hPa | 2.7V | 08:02:00 | 00:00:00 | 00:00:00 | |
| OE3JTB-15 | 2026-09-01 03:30:33 | 48.16635 | 15.63052 | 84° | 51km/h | 981m | -6.2m/s | 14.0°C | 68.8% | 0hPa | 2.7V | 00:00:00 | 00:00:00 | 00:00:00 | |
| OE3JTB-15 | 2026-09-01 03:30:31 | 48.16633 | 15.63014 | 87° | 51km/h | 995m | -6.6m/s | 13.9°C | 69.2% | 0hPa | 2.7V | 00:00:00 | 01:41:29 | 00:00:00 | |
| OE3JTB-15 | 2026-09-01 03:30:29 | 48.16630 | 15.62975 | 84° | 51km/h | 1007m | -5.6m/s | 13.7°C | 69.6% | 0hPa | 2.7V | 00:00:00 | 00:00:00 | 00:00:00 | |
| OE3JTB-15 | 2026-09-01 03:30:27 | 48.16629 | 15.62937 | 87° | 53km/h | 1019m | -6.0m/s | 13.6°C | 69.9% | 0hPa | 2.7V | 00:00:00 | 00:00:00 | 00:00:00 | |
| OE3JTB-15 | 2026-09-01 03:30:25 | 48.16627 | 15.62897 | 88° | 53km/h | 1032m | -5.2m/s | 13.5°C | 70.3% | 0hPa | 2.7V | 00:00:00 | 01:41:23 | 00:00:00 | |
| OE3JTB-15 | 2026-09-01 03:30:23 | 48.16625 | 15.62858 | 87° | 49km/h | 1043m | -5.4m/s | 13.5°C | 70.5% | 0hPa | 2.7V | 00:00:00 | 00:00:00 | 00:00:00 | |
| OE3JTB-15 | 2026-09-01 03:30:21 | 48.16624 | 15.62821 | 90° | 51km/h | 1054m | -4.5m/s | 13.4°C | 70.8% | 0hPa | 2.7V | 00:00:00 | 00:00:00 | 00:00:00 | |
| OE3JTB-15 | 2026-09-01 03:30:19 | 48.16623 | 15.62783 | 90° | 51km/h | 1063m | -4.6m/s | 13.3°C | 71.0% | 0hPa | 2.7V | 00:00:00 | 01:41:17 | 00:00:00 | |
| OE3JTB-15 | 2026-09-01 03:30:17 | 48.16623 | 15.62745 | 89° | 53km/h | 1072m | -5.2m/s | 13.2°C | 71.2% | 0hPa | 2.7V | 08:02:00 | 00:00:00 | 00:00:00 | |
| OE3JTB-15 | 2026-09-01 03:30:15 | 48.16622 | 15.62706 | 89° | 53km/h | 1083m | -6.0m/s | 13.2°C | 71.2% | 0hPa | 2.7V | 00:00:00 | 00:00:00 | 00:00:00 | |
| OE3JTB-15 | 2026-09-01 03:30:13 | 48.16621 | 15.62666 | 89° | 53km/h | 1095m | -5.6m/s | 13.1°C | 71.5% | 0hPa | 2.7V | 00:00:00 | 01:41:11 | 00:00:00 | |
| OE3JTB-15 | 2026-09-01 03:30:11 | 48.16620 | 15.62627 | 91° | 51km/h | 1105m | -4.3m/s | 13.0°C | 71.8% | 0hPa | 2.7V | 00:00:00 | 00:00:00 | 00:00:00 | |
| OE3JTB-15 | 2026-09-01 03:30:09 | 48.16621 | 15.62588 | 91° | 53km/h | 1114m | -4.9m/s | 12.9°C | 71.9% | 0hPa | 2.7V | 00:00:00 | 00:00:00 | 00:00:00 | |
| OE3JTB-15 | 2026-09-01 03:30:07 | 48.16621 | 15.62548 | 89° | 53km/h | 1123m | -5.3m/s | 12.9°C | 71.9% | 0hPa | 2.7V | 00:00:00 | 01:41:05 | 00:00:00 | |
| OE3JTB-15 | 2026-09-01 03:30:05 | 48.16620 | 15.62508 | 87° | 51km/h | 1134m | -5.3m/s | 12.9°C | 70.6% | 0hPa | 2.7V | 00:00:00 | 00:00:00 | 00:00:00 | |
| OE3JTB-15 | 2026-09-01 03:30:01 | 48.16621 | 15.62429 | 90° | 51km/h | 1158m | -6.2m/s | 12.7°C | 71.2% | 0hPa | 2.7V | 00:00:00 | 01:40:59 | 00:00:00 | |
| OE3JTB-15 | 2026-09-01 03:29:59 | 48.16621 | 15.62391 | 93° | 53km/h | 1170m | -5.4m/s | 12.6°C | 71.6% | 0hPa | 2.7V | 08:03:00 | 00:00:00 | 00:00:00 | |
| OE3JTB-15 | 2026-09-01 03:29:57 | 48.16622 | 15.62350 | 92° | 53km/h | 1181m | -6.4m/s | 12.5°C | 72.0% | 0hPa | 2.7V | 00:00:00 | 00:00:00 | 00:00:00 | |
| OE3JTB-15 | 2026-09-01 03:29:55 | 48.16622 | 15.62310 | 92° | 51km/h | 1194m | -5.8m/s | 12.4°C | 72.4% | 0hPa | 2.7V | 00:00:00 | 01:40:53 | 00:00:00 | |
| OE3JTB-15 | 2026-09-01 03:29:51 | 48.16625 | 15.62231 | 91° | 53km/h | 1216m | -6.6m/s | 12.1°C | 73.7% | 0hPa | 2.7V | 00:00:00 | 00:00:00 | 00:00:00 | |
| OE3JTB-15 | 2026-09-01 03:29:49 | 48.16625 | 15.62192 | 90° | 49km/h | 1230m | -6.3m/s | 12.0°C | 74.0% | 0hPa | 2.7V | 00:00:00 | 01:40:47 | 00:00:00 | |
| OE3JTB-15 | 2026-09-01 03:29:47 | 48.16626 | 15.62154 | 96° | 51km/h | 1242m | -5.1m/s | 11.9°C | 74.4% | 0hPa | 2.7V | 00:00:00 | 00:00:00 | 00:00:00 | |
| OE3JTB-15 | 2026-09-01 03:29:45 | 48.16629 | 15.62115 | 96° | 51km/h | 1253m | -6.1m/s | 11.8°C | 74.6% | 0hPa | 2.7V | 00:00:00 | 00:00:00 | 00:00:00 | |
| OE3JTB-15 | 2026-09-01 03:29:43 | 48.16631 | 15.62076 | 96° | 53km/h | 1266m | -5.7m/s | 11.7°C | 75.0% | 0hPa | 2.7V | 00:00:00 | 01:40:41 | 00:00:00 | |
| OE3JTB-15 | 2026-09-01 03:29:41 | 48.16634 | 15.62036 | 96° | 53km/h | 1276m | -5.2m/s | 11.6°C | 75.6% | 0hPa | 2.7V | 08:03:00 | 00:00:00 | 00:00:00 | |
| OE3JTB-15 | 2026-09-01 03:29:39 | 48.16638 | 15.61997 | 98° | 51km/h | 1287m | -5.7m/s | 11.5°C | 76.0% | 0hPa | 2.7V | 00:00:00 | 00:00:00 | 00:00:00 | |
| OE3JTB-15 | 2026-09-01 03:29:37 | 48.16641 | 15.61959 | 97° | 51km/h | 1298m | -6.1m/s | 11.4°C | 76.6% | 0hPa | 2.7V | 00:00:00 | 01:40:35 | 00:00:00 | |
| PETON7-10 | 2026-09-01 03:29:37 | 48.16641 | 15.61959 | 97° | 49km/h | 1298m | -6.1m/s | 11.4°C | 76.6% | 0hPa | 2.7V | 00:00:00 | 00:00:00 | 00:00:00 | |
| OE3JTB-15 | 2026-09-01 03:29:35 | 48.16644 | 15.61921 | 97° | 51km/h | 1310m | -5.6m/s | 11.3°C | 76.7% | 0hPa | 2.7V | 00:00:00 | 00:00:00 | 00:00:00 | |
| PETON7-10 | 2026-09-01 03:29:35 | 48.16644 | 15.61921 | 97° | 51km/h | 1310m | -5.6m/s | 11.3°C | 76.7% | 0hPa | 2.7V | 00:00:00 | 01:40:33 | 00:00:00 | |
| PETON7-10 | 2026-09-01 03:29:34 | 48.16646 | 15.61902 | 100° | 53km/h | 1315m | -5.9m/s | 11.4°C | 75.5% | 0hPa | 2.7V | 00:00:00 | 00:00:00 | 00:00:00 | |
| OE3JTB-15 | 2026-09-01 03:29:33 | 48.16648 | 15.61882 | 99° | 53km/h | 1321m | -5.6m/s | 11.4°C | 75.1% | 0hPa | 2.7V | 00:00:00 | 00:00:00 | 00:00:00 | |
| PETON7-10 | 2026-09-01 03:29:32 | 48.16650 | 15.61862 | 98° | 51km/h | 1326m | -5.4m/s | 11.3°C | 75.2% | 0hPa | 2.7V | 00:00:00 | 00:00:00 | 00:00:00 | |
| OE3JTB-15 | 2026-09-01 03:29:31 | 48.16652 | 15.61842 | 99° | 53km/h | 1332m | -5.6m/s | 11.3°C | 75.2% | 0hPa | 2.7V | 00:00:00 | 01:40:29 | 00:00:00 | |
| PETON7-10 | 2026-09-01 03:29:31 | 48.16652 | 15.61842 | 99° | 55km/h | 1332m | -5.6m/s | 11.3°C | 75.2% | 0hPa | 2.7V | 00:00:00 | 01:40:29 | 00:00:00 | |
| OE3JTB-15 | 2026-09-01 03:29:29 | 48.16656 | 15.61803 | 100° | 55km/h | 1343m | -5.6m/s | 11.3°C | 74.4% | 0hPa | 2.7V | 00:00:00 | 00:00:00 | 00:00:00 | |
| OE3JTB-15 | 2026-09-01 03:29:27 | 48.16660 | 15.61762 | 100° | 55km/h | 1354m | -5.1m/s | 11.3°C | 73.2% | 0hPa | 2.7V | 00:00:00 | 00:00:00 | 00:00:00 | |
| PETON7-10 | 2026-09-01 03:29:27 | 48.16660 | 15.61762 | 100° | 55km/h | 1354m | -5.1m/s | 11.3°C | 73.2% | 0hPa | 2.7V | 08:03:00 | 00:00:00 | 00:00:00 | |
| OE3JTB-15 | 2026-09-01 03:29:25 | 48.16665 | 15.61721 | 98° | 57km/h | 1364m | -5.8m/s | 11.3°C | 72.2% | 0hPa | 2.7V | 00:00:00 | 01:40:23 | 00:00:00 | |
| OE3JTB-15 | 2026-09-01 03:29:23 | 48.16669 | 15.61679 | 100° | 58km/h | 1376m | -6.0m/s | 11.3°C | 72.0% | 0hPa | 2.7V | 08:03:00 | 00:00:00 | 00:00:00 | |
| PETON7-10 | 2026-09-01 03:29:22 | 48.16672 | 15.61657 | 100° | 57km/h | 1382m | -6.4m/s | 11.2°C | 71.9% | 0hPa | 2.7V | 00:00:00 | 00:00:00 | 00:00:00 | |
| OE3JTB-15 | 2026-09-01 03:29:21 | 48.16674 | 15.61636 | 99° | 55km/h | 1388m | -5.8m/s | 11.2°C | 71.9% | 0hPa | 2.7V | 00:00:00 | 00:00:00 | 00:00:00 | |
| OE3JTB-15 | 2026-09-01 03:29:19 | 48.16679 | 15.61594 | 102° | 58km/h | 1399m | -5.5m/s | 11.2°C | 71.0% | 0hPa | 2.7V | 00:00:00 | 01:40:17 | 00:00:00 | |
| OE3JTB-15 | 2026-09-01 03:29:17 | 48.16685 | 15.61550 | 100° | 58km/h | 1411m | -6.0m/s | 11.2°C | 70.0% | 0hPa | 2.7V | 00:00:00 | 00:00:00 | 00:00:00 | |
| PETON7-10 | 2026-09-01 03:29:17 | 48.16685 | 15.61550 | 100° | 58km/h | 1411m | -6.0m/s | 11.2°C | 70.0% | 0hPa | 2.7V | 00:00:00 | 01:40:15 | 00:00:00 | |
| OE3JTB-15 | 2026-09-01 03:29:15 | 48.16691 | 15.61506 | 102° | 60km/h | 1422m | -6.6m/s | 11.2°C | 69.3% | 0hPa | 2.7V | 00:00:00 | 00:00:00 | 00:00:00 | |
| OE3JTB-15 | 2026-09-01 03:29:13 | 48.16696 | 15.61462 | 103° | 62km/h | 1434m | -5.2m/s | 11.2°C | 68.3% | 0hPa | 2.7V | 00:00:00 | 01:40:11 | 00:00:00 | |
| OE3JTB-15 | 2026-09-01 03:29:11 | 48.16702 | 15.61417 | 101° | 60km/h | 1446m | -6.0m/s | 11.2°C | 67.7% | 0hPa | 2.7V | 00:00:00 | 00:00:00 | 00:00:00 | |
| OE3JTB-15 | 2026-09-01 03:29:09 | 48.16708 | 15.61371 | 100° | 62km/h | 1458m | -6.0m/s | 11.1°C | 68.0% | 0hPa | 2.7V | 00:00:00 | 00:00:00 | 00:00:00 | |
| OE3JTB-15 | 2026-09-01 03:29:07 | 48.16714 | 15.61324 | 101° | 62km/h | 1469m | -6.0m/s | 11.0°C | 68.4% | 0hPa | 2.7V | 00:00:00 | 01:40:05 | 00:00:00 | |
| OE3JTB-15 | 2026-09-01 03:29:05 | 48.16720 | 15.61278 | 102° | 64km/h | 1481m | -5.3m/s | 10.9°C | 68.4% | 0hPa | 2.7V | 08:04:00 | 00:00:00 | 00:00:00 | |
| PG1ADW-2 | 2026-09-01 03:29:01 | 48.16732 | 15.61184 | 101° | 66km/h | 1504m | -6.1m/s | 10.7°C | 69.0% | 0hPa | 2.7V | 08:04:00 | 00:00:00 | 00:00:00 | |
| OE3JTB-15 | 2026-09-01 03:29:01 | 48.16732 | 15.61184 | 101° | 64km/h | 1504m | -6.1m/s | 10.7°C | 69.0% | 0hPa | 2.7V | 00:00:00 | 01:39:59 | 00:00:00 | |
| OM5KV | 2026-09-01 03:28:59 | 48.16735 | 15.61161 | 101° | 62km/h | 1509m | -5.3m/s | 10.7°C | 69.8% | 0hPa | 2.7V | 08:04:00 | 00:00:00 | 00:00:00 | |
| OE3JTB-15 | 2026-09-01 03:28:59 | 48.16738 | 15.61138 | 102° | 64km/h | 1514m | -5.1m/s | 10.7°C | 68.8% | 0hPa | 2.7V | 00:00:00 | 00:00:00 | 00:00:00 | |
| OM5KV | 2026-09-01 03:28:57 | 48.16741 | 15.61114 | 100° | 64km/h | 1520m | -6.5m/s | 10.7°C | 69.5% | 0hPa | 2.7V | 08:04:00 | 00:00:00 | 00:00:00 | |
| OE3JTB-15 | 2026-09-01 03:28:57 | 48.16744 | 15.61090 | 102° | 66km/h | 1526m | -5.5m/s | 10.6°C | 69.0% | 0hPa | 2.7V | 00:00:00 | 00:00:00 | 00:00:00 | |
| OE3JTB-15 | 2026-09-01 03:28:55 | 48.16750 | 15.61042 | 101° | 66km/h | 1538m | -5.7m/s | 10.5°C | 69.1% | 0hPa | 2.7V | 00:00:00 | 01:39:53 | 00:00:00 | |
| OM5KV | 2026-09-01 03:28:54 | 48.16749 | 15.61042 | 101° | 64km/h | 1538m | -5.7m/s | 10.5°C | 69.8% | 0hPa | 2.7V | 08:04:00 | 00:00:00 | 00:00:00 | |
| PG1ADW-2 | 2026-09-01 03:28:53 | 48.16755 | 15.60993 | 99° | 66km/h | 1549m | -5.5m/s | 10.4°C | 69.3% | 0hPa | 2.7V | 00:00:00 | 00:00:00 | 00:00:00 | |
| OE3JTB-15 | 2026-09-01 03:28:53 | 48.16755 | 15.60993 | 99° | 64km/h | 1549m | -5.5m/s | 10.4°C | 69.3% | 0hPa | 2.7V | 00:00:00 | 00:00:00 | 00:00:00 | |
| PETON7-10 | 2026-09-01 03:28:53 | 48.16755 | 15.60993 | 99° | 66km/h | 1549m | -5.5m/s | 10.4°C | 69.3% | 0hPa | 2.7V | 00:00:00 | 00:00:00 | 00:00:00 | |
| OE3JTB-15 | 2026-09-01 03:28:51 | 48.16761 | 15.60945 | 99° | 66km/h | 1560m | -5.7m/s | 10.3°C | 69.6% | 0hPa | 2.7V | 00:00:00 | 00:00:00 | 00:00:00 | |
| OM5KV | 2026-09-01 03:28:49 | 48.16764 | 15.60921 | 102° | 68km/h | 1565m | -5.7m/s | 10.3°C | 70.6% | 0hPa | 2.7V | 08:04:00 | 00:00:00 | 00:00:00 | |
| OE3JTB-15 | 2026-09-01 03:28:49 | 48.16767 | 15.60896 | 100° | 66km/h | 1571m | -6.1m/s | 10.2°C | 70.0% | 0hPa | 2.7V | 00:00:00 | 01:39:47 | 00:00:00 | |
| OM5KV | 2026-09-01 03:28:48 | 48.16767 | 15.60896 | 100° | 64km/h | 1571m | -6.2m/s | 10.3°C | 70.7% | 0hPa | 2.7V | 08:04:00 | 00:00:00 | 00:00:00 | |
| PETON7-10 | 2026-09-01 03:28:48 | 48.16769 | 15.60871 | 100° | 66km/h | 1577m | -5.9m/s | 10.2°C | 70.2% | 0hPa | 2.7V | 00:00:00 | 00:00:00 | 00:00:00 | |
| OE3JTB-15 | 2026-09-01 03:28:47 | 48.16772 | 15.60847 | 100° | 66km/h | 1582m | -5.8m/s | 10.1°C | 70.4% | 0hPa | 2.7V | 08:04:00 | 00:00:00 | 00:00:00 | |
| PG1ADW-2 | 2026-09-01 03:28:46 | 48.16775 | 15.60823 | 99° | 66km/h | 1588m | -5.5m/s | 10.0°C | 70.6% | 0hPa | 2.7V | 00:00:00 | 00:00:00 | 00:00:00 | |
| OE3JTB-15 | 2026-09-01 03:28:45 | 48.16777 | 15.60798 | 101° | 66km/h | 1593m | -5.3m/s | 10.0°C | 70.8% | 0hPa | 2.7V | 00:00:00 | 00:00:00 | 00:00:00 | |
| OE5WHR-10 | 2026-09-01 03:28:44 | 48.16780 | 15.60774 | 99° | 68km/h | 1598m | -6.1m/s | 9.9°C | 71.0% | 0hPa | 2.7V | 00:00:00 | 00:00:00 | 00:00:00 | |
| OM5KV | 2026-09-01 03:28:43 | 48.16780 | 15.60774 | 99° | 66km/h | 1598m | -6.1m/s | 10.0°C | 71.7% | 0hPa | 2.7V | 08:04:00 | 00:00:00 | 00:00:00 | |
| OE3JTB-15 | 2026-09-01 03:28:43 | 48.16783 | 15.60749 | 100° | 66km/h | 1604m | -5.5m/s | 9.9°C | 71.1% | 0hPa | 2.7V | 00:00:00 | 01:39:41 | 00:00:00 | |
| PETON7-10 | 2026-09-01 03:28:43 | 48.16783 | 15.60749 | 100° | 66km/h | 1604m | -5.5m/s | 9.9°C | 71.1% | 0hPa | 2.7V | 00:00:00 | 01:39:41 | 00:00:00 | |
| OE3JTB-15 | 2026-09-01 03:28:41 | 48.16788 | 15.60700 | 99° | 66km/h | 1615m | -5.8m/s | 9.8°C | 71.7% | 0hPa | 2.7V | 00:00:00 | 00:00:00 | 00:00:00 | |
| PG1ADW-2 | 2026-09-01 03:28:40 | 48.16790 | 15.60675 | 99° | 68km/h | 1621m | -5.6m/s | 9.7°C | 71.9% | 0hPa | 2.7V | 00:00:00 | 01:39:38 | 00:00:00 | |
| OE3JTB-15 | 2026-09-01 03:28:39 | 48.16793 | 15.60650 | 99° | 68km/h | 1627m | -6.3m/s | 9.7°C | 72.0% | 0hPa | 2.7V | 00:00:00 | 00:00:00 | 00:00:00 | |
| OE5WHR-10 | 2026-09-01 03:28:38 | 48.16795 | 15.60625 | 100° | 68km/h | 1633m | -6.0m/s | 9.6°C | 72.2% | 0hPa | 2.7V | 00:00:00 | 01:39:36 | 00:00:00 | |
| PETON7-10 | 2026-09-01 03:28:38 | 48.16795 | 15.60625 | 100° | 68km/h | 1633m | -6.0m/s | 9.6°C | 72.2% | 0hPa | 2.7V | 00:00:00 | 00:00:00 | 00:00:00 | |
| OM5KV | 2026-09-01 03:28:37 | 48.16795 | 15.60625 | 101° | 66km/h | 1633m | -6.1m/s | 9.7°C | 73.0% | 0hPa | 2.7V | 08:04:00 | 00:00:00 | 00:00:00 | |
| OE3JTB-15 | 2026-09-01 03:28:37 | 48.16798 | 15.60600 | 99° | 68km/h | 1639m | -6.2m/s | 9.6°C | 72.5% | 0hPa | 2.7V | 00:00:00 | 01:39:35 | 00:00:00 | |
| OE3JTB-15 | 2026-09-01 03:28:35 | 48.16803 | 15.60550 | 98° | 68km/h | 1650m | -5.7m/s | 9.5°C | 72.9% | 0hPa | 2.7V | 00:00:00 | 00:00:00 | 00:00:00 | |
| PG1ADW-2 | 2026-09-01 03:28:34 | 48.16806 | 15.60525 | 100° | 66km/h | 1655m | -5.5m/s | 9.4°C | 73.1% | 0hPa | 2.7V | 00:00:00 | 00:00:00 | 00:00:00 | |
| OE3JTB-15 | 2026-09-01 03:28:33 | 48.16808 | 15.60500 | 98° | 66km/h | 1661m | -6.2m/s | 9.3°C | 73.4% | 0hPa | 2.7V | 00:00:00 | 00:00:00 | 00:00:00 | |
| PETON7-10 | 2026-09-01 03:28:33 | 48.16808 | 15.60500 | 98° | 66km/h | 1661m | -6.2m/s | 9.3°C | 73.4% | 0hPa | 2.7V | 00:00:00 | 00:00:00 | 00:00:00 | |
| OE5WHR-10 | 2026-09-01 03:28:32 | 48.16811 | 15.60475 | 100° | 68km/h | 1667m | -5.2m/s | 9.3°C | 73.7% | 0hPa | 2.7V | 00:00:00 | 00:00:00 | 00:00:00 | |
| OM5KV | 2026-09-01 03:28:31 | 48.16811 | 15.60475 | 100° | 68km/h | 1667m | -5.2m/s | 9.3°C | 74.4% | 0hPa | 2.7V | 08:04:00 | 00:00:00 | 00:00:00 | |
| OE3JTB-15 | 2026-09-01 03:28:31 | 48.16813 | 15.60450 | 97° | 66km/h | 1672m | -5.9m/s | 9.2°C | 73.9% | 0hPa | 2.7V | 00:00:00 | 01:39:29 | 00:00:00 | |
| OM5KV | 2026-09-01 03:28:30 | 48.16813 | 15.60450 | 98° | 66km/h | 1672m | -6.0m/s | 9.3°C | 74.6% | 0hPa | 2.7V | 08:04:00 | 00:00:00 | 00:00:00 | |
| OE3JTB-15 | 2026-09-01 03:28:29 | 48.16818 | 15.60400 | 96° | 68km/h | 1683m | -6.4m/s | 9.1°C | 74.4% | 0hPa | 2.7V | 08:04:00 | 00:00:00 | 00:00:00 | |
| PG1ADW-2 | 2026-09-01 03:28:28 | 48.16820 | 15.60375 | 97° | 68km/h | 1689m | -6.1m/s | 9.1°C | 74.6% | 0hPa | 2.7V | 00:00:00 | 00:00:00 | 00:00:00 | |
| PETON7-10 | 2026-09-01 03:28:28 | 48.16820 | 15.60375 | 97° | 68km/h | 1689m | -6.1m/s | 9.1°C | 74.6% | 0hPa | 2.7V | 00:00:00 | 01:39:26 | 00:00:00 | |
| OE3JTB-15 | 2026-09-01 03:28:27 | 48.16822 | 15.60350 | 96° | 68km/h | 1695m | -6.0m/s | 9.0°C | 74.9% | 0hPa | 2.7V | 00:00:00 | 00:00:00 | 00:00:00 | |
| OE5WHR-10 | 2026-09-01 03:28:26 | 48.16824 | 15.60325 | 97° | 68km/h | 1700m | -5.9m/s | 9.0°C | 75.2% | 0hPa | 2.7V | 00:00:00 | 00:00:00 | 00:00:00 | |
| OE3JTB-15 | 2026-09-01 03:28:25 | 48.16826 | 15.60299 | 97° | 68km/h | 1706m | -5.6m/s | 8.9°C | 75.4% | 0hPa | 2.7V | 00:00:00 | 01:39:23 | 00:00:00 | |
| OM5KV | 2026-09-01 03:28:23 | 48.16828 | 15.60273 | 98° | 69km/h | 1712m | -5.9m/s | 8.9°C | 76.4% | 0hPa | 2.7V | 00:00:00 | 00:00:00 | 00:00:00 | |
| OE3JTB-15 | 2026-09-01 03:28:23 | 48.16830 | 15.60248 | 97° | 68km/h | 1717m | -5.9m/s | 8.8°C | 76.3% | 0hPa | 2.7V | 00:00:00 | 00:00:00 | 00:00:00 | |
| PETON7-10 | 2026-09-01 03:28:23 | 48.16830 | 15.60248 | 97° | 68km/h | 1717m | -5.9m/s | 8.8°C | 76.3% | 0hPa | 2.7V | 08:04:00 | 00:00:00 | 00:00:00 | |
| PG1ADW-2 | 2026-09-01 03:28:22 | 48.16832 | 15.60222 | 97° | 69km/h | 1723m | -6.3m/s | 8.8°C | 76.5% | 0hPa | 2.7V | 00:00:00 | 00:00:00 | 00:00:00 | |
| OE3JTB-15 | 2026-09-01 03:28:21 | 48.16834 | 15.60197 | 98° | 68km/h | 1729m | -5.6m/s | 8.7°C | 76.4% | 0hPa | 2.7V | 00:00:00 | 00:00:00 | 00:00:00 | |
| OE5WHR-10 | 2026-09-01 03:28:20 | 48.16836 | 15.60171 | 96° | 69km/h | 1734m | -6.1m/s | 8.7°C | 77.3% | 0hPa | 2.7V | 00:00:00 | 01:39:18 | 00:00:00 | |
| OM5KV | 2026-09-01 03:28:19 | 48.16836 | 15.60171 | 97° | 69km/h | 1734m | -6.2m/s | 8.7°C | 78.0% | 0hPa | 2.7V | 00:00:00 | 00:00:00 | 00:00:00 | |
| OE3JTB-15 | 2026-09-01 03:28:19 | 48.16838 | 15.60145 | 97° | 68km/h | 1740m | -5.2m/s | 8.6°C | 77.8% | 0hPa | 2.7V | 00:00:00 | 01:39:17 | 00:00:00 | |
| PETON7-10 | 2026-09-01 03:28:18 | 48.16840 | 15.60119 | 95° | 68km/h | 1745m | -6.1m/s | 8.6°C | 80.9% | 0hPa | 2.7V | 00:00:00 | 00:00:00 | 00:00:00 | |
| OM5KV | 2026-09-01 03:28:17 | 48.16840 | 15.60119 | 95° | 66km/h | 1745m | -6.1m/s | 8.6°C | 81.7% | 0hPa | 2.7V | 00:00:00 | 00:00:00 | 00:00:00 | |
| OE3JTB-15 | 2026-09-01 03:28:17 | 48.16842 | 15.60094 | 97° | 69km/h | 1751m | -6.0m/s | 8.5°C | 82.2% | 0hPa | 2.7V | 00:00:00 | 00:00:00 | 00:00:00 | |
| PG1ADW-2 | 2026-09-01 03:28:16 | 48.16844 | 15.60068 | 98° | 68km/h | 1757m | -5.6m/s | 8.5°C | 82.5% | 0hPa | 2.7V | 00:00:00 | 01:39:14 | 00:00:00 | |
| OE3JTB-15 | 2026-09-01 03:28:15 | 48.16846 | 15.60042 | 95° | 68km/h | 1763m | -6.3m/s | 8.4°C | 83.6% | 0hPa | 2.7V | 00:00:00 | 00:00:00 | 00:00:00 | |
| OM5KV | 2026-09-01 03:28:13 | 48.16847 | 15.60017 | 97° | 71km/h | 1769m | -6.4m/s | 8.4°C | 87.0% | 0hPa | 2.7V | 00:00:00 | 00:00:00 | 00:00:00 | |
| OE3JTB-15 | 2026-09-01 03:28:13 | 48.16849 | 15.59991 | 97° | 69km/h | 1775m | -6.0m/s | 8.3°C | 87.3% | 0hPa | 2.7V | 00:00:00 | 01:39:11 | 00:00:00 | |
| OE5WHR-10 | 2026-09-01 03:28:13 | 48.16849 | 15.59991 | 97° | 69km/h | 1775m | -6.0m/s | 8.3°C | 87.3% | 0hPa | 2.7V | 00:00:00 | 00:00:00 | 00:00:00 | |
| PETON7-10 | 2026-09-01 03:28:13 | 48.16849 | 15.59991 | 97° | 68km/h | 1775m | -6.0m/s | 8.3°C | 87.3% | 0hPa | 2.7V | 00:00:00 | 01:39:11 | 00:00:00 | |
| OM5KV | 2026-09-01 03:28:11 | 48.16851 | 15.59966 | 97° | 69km/h | 1781m | -6.6m/s | 8.3°C | 90.2% | 0hPa | 2.7V | 00:00:00 | 00:00:00 | 00:00:00 | |
| OE3JTB-15 | 2026-09-01 03:28:11 | 48.16853 | 15.59940 | 97° | 68km/h | 1786m | -5.2m/s | 8.2°C | 90.4% | 0hPa | 2.7V | 08:04:00 | 00:00:00 | 00:00:00 | |
| PG1ADW-2 | 2026-09-01 03:28:10 | 48.16855 | 15.59914 | 96° | 68km/h | 1792m | -6.2m/s | 8.2°C | 90.9% | 0hPa | 2.7V | 00:00:00 | 00:00:00 | 00:00:00 | |
| OE3JTB-15 | 2026-09-01 03:28:09 | 48.16857 | 15.59889 | 97° | 68km/h | 1798m | -5.8m/s | 8.1°C | 91.6% | 0hPa | 2.7V | 00:00:00 | 00:00:00 | 00:00:00 | |
| PETON7-10 | 2026-09-01 03:28:08 | 48.16859 | 15.59863 | 96° | 69km/h | 1804m | -6.6m/s | 8.1°C | 92.0% | 0hPa | 2.7V | 00:00:00 | 00:00:00 | 00:00:00 | |
| OM5KV | 2026-09-01 03:28:07 | 48.16859 | 15.59863 | 96° | 69km/h | 1804m | -6.6m/s | 8.1°C | 92.8% | 0hPa | 2.7V | 00:00:00 | 00:00:00 | 00:00:00 | |
| OE3JTB-15 | 2026-09-01 03:28:07 | 48.16860 | 15.59838 | 96° | 68km/h | 1810m | -5.9m/s | 8.1°C | 91.6% | 0hPa | 2.7V | 00:00:00 | 01:39:05 | 00:00:00 | |
| OM5KV | 2026-09-01 03:28:05 | 48.16862 | 15.59812 | 96° | 69km/h | 1815m | -6.0m/s | 8.1°C | 92.6% | 0hPa | 2.7V | 00:00:00 | 00:00:00 | 00:00:00 | |
| OE3JTB-15 | 2026-09-01 03:28:05 | 48.16864 | 15.59787 | 96° | 68km/h | 1821m | -5.6m/s | 8.0°C | 91.6% | 0hPa | 2.7V | 00:00:00 | 00:00:00 | 00:00:00 | |
| PG1ADW-2 | 2026-09-01 03:28:04 | 48.16866 | 15.59761 | 96° | 68km/h | 1826m | -5.9m/s | 8.0°C | 90.2% | 0hPa | 2.7V | 08:05:00 | 00:00:00 | 00:00:00 | |
| OE3JTB-15 | 2026-09-01 03:28:03 | 48.16868 | 15.59736 | 97° | 68km/h | 1832m | -5.6m/s | 8.1°C | 88.8% | 0hPa | 2.7V | 00:00:00 | 00:00:00 | 00:00:00 | |
| PETON7-10 | 2026-09-01 03:28:03 | 48.16868 | 15.59736 | 97° | 68km/h | 1832m | -5.6m/s | 8.1°C | 88.8% | 0hPa | 2.7V | 00:00:00 | 00:00:00 | 00:00:00 | |
| OM5KV | 2026-09-01 03:28:01 | 48.16869 | 15.59710 | 97° | 69km/h | 1838m | -5.9m/s | 8.2°C | 86.0% | 0hPa | 2.7V | 00:00:00 | 00:00:00 | 00:00:00 | |
| OE3OSB-13 | 2026-09-01 03:27:58 | 48.16879 | 15.59584 | 97° | 66km/h | 1867m | -5.5m/s | 8.1°C | 79.1% | -1.0hPa | 2.7V | 00:00:00 | 00:00:00 | 00:00:00 | |
| OE3JTB-15 | 2026-09-01 03:27:57 | 48.16879 | 15.59584 | 98° | 68km/h | 1867m | -5.5m/s | 8.1°C | 78.4% | 0hPa | 2.7V | 00:00:00 | 00:00:00 | 00:00:00 | |
| OE3JTB-15 | 2026-09-01 03:27:54 | 48.16885 | 15.59508 | 96° | 66km/h | 1884m | -6.2m/s | 8.1°C | 76.3% | 0hPa | 2.7V | 00:00:00 | 01:38:52 | 00:00:00 | |
| OM5KV | 2026-09-01 03:27:53 | 48.16885 | 15.59508 | 97° | 68km/h | 1884m | -6.2m/s | 8.1°C | 77.0% | 0hPa | 2.7V | 00:00:00 | 00:00:00 | 00:00:00 | |
| PETON7-10 | 2026-09-01 03:27:53 | 48.16887 | 15.59484 | 97° | 66km/h | 1890m | -5.2m/s | 8.0°C | 73.9% | 0hPa | 2.7V | 00:00:00 | 00:00:00 | 00:00:00 | |
| PG1ADW-2 | 2026-09-01 03:27:52 | 48.16889 | 15.59459 | 96° | 64km/h | 1895m | -5.9m/s | 8.0°C | 74.4% | 0hPa | 2.7V | 00:00:00 | 01:38:50 | 00:00:00 | |
| OE5DRO-10 | 2026-09-01 03:27:51 | 48.16891 | 15.59434 | 98° | 66km/h | 1901m | -5.6m/s | 8.0°C | 74.6% | 0hPa | 2.7V | 00:00:00 | 00:00:00 | 00:00:00 | |
| OM5KV | 2026-09-01 03:27:50 | 48.16891 | 15.59434 | 98° | 66km/h | 1901m | -5.6m/s | 8.0°C | 75.3% | 0hPa | 2.7V | 00:00:00 | 00:00:00 | 00:00:00 | |
| OE3JTB-15 | 2026-09-01 03:27:45 | 48.16901 | 15.59286 | 97° | 64km/h | 1936m | -5.9m/s | 7.8°C | 72.6% | 0hPa | 2.7V | 08:05:00 | 00:00:00 | 00:00:00 | |
| OE5DRO-10 | 2026-09-01 03:27:36 | 48.16916 | 15.59071 | 95° | 62km/h | 1985m | -5.9m/s | 7.4°C | 73.7% | 0hPa | 2.6V | 00:00:00 | 00:00:00 | 00:00:00 | |
| OE3JTB-15 | 2026-09-01 03:27:36 | 48.16916 | 15.59071 | 95° | 62km/h | 1985m | -5.9m/s | 7.4°C | 73.7% | 0hPa | 2.6V | 00:00:00 | 00:00:00 | 00:00:00 | |
| PETON7-10 | 2026-09-01 03:27:33 | 48.16921 | 15.58999 | 97° | 62km/h | 2002m | -6.0m/s | 7.2°C | 74.0% | 0hPa | 2.6V | 00:00:00 | 01:38:31 | 00:00:00 | |
| PG1ADW-2 | 2026-09-01 03:27:32 | 48.16923 | 15.58975 | 96° | 62km/h | 2008m | -6.5m/s | 7.2°C | 74.1% | 0hPa | 2.6V | 00:00:00 | 00:00:00 | 00:00:00 | |
| OE5DRO-10 | 2026-09-01 03:27:29 | 48.16928 | 15.58904 | 95° | 62km/h | 2026m | -6.2m/s | 7.2°C | 72.7% | 0hPa | 2.7V | 00:00:00 | 00:00:00 | 00:00:00 | |
| OE3JTB-15 | 2026-09-01 03:27:27 | 48.16932 | 15.58858 | 97° | 62km/h | 2037m | -6.1m/s | 7.1°C | 71.0% | 0hPa | 2.7V | 00:00:00 | 01:38:25 | 00:00:00 | |
| OM5KV | 2026-09-01 03:27:26 | 48.16932 | 15.58858 | 98° | 64km/h | 2037m | -6.1m/s | 7.1°C | 71.6% | 0hPa | 2.7V | 08:06:00 | 00:00:00 | 00:00:00 | |
| OM5KV | 2026-09-01 03:27:24 | 48.16935 | 15.58812 | 98° | 60km/h | 2049m | -6.4m/s | 7.1°C | 71.5% | 0hPa | 2.7V | 08:06:00 | 00:00:00 | 00:00:00 | |
| PETON7-10 | 2026-09-01 03:27:23 | 48.16939 | 15.58765 | 96° | 60km/h | 2061m | -6.0m/s | 6.9°C | 70.9% | 0hPa | 2.7V | 08:05:00 | 00:00:00 | 00:00:00 | |
| OE5DRO-10 | 2026-09-01 03:27:22 | 48.16941 | 15.58742 | 99° | 60km/h | 2067m | -5.4m/s | 6.9°C | 70.7% | 0hPa | 2.7V | 00:00:00 | 00:00:00 | 00:00:00 | |
| OM5KV | 2026-09-01 03:27:20 | 48.16943 | 15.58720 | 98° | 60km/h | 2072m | -6.4m/s | 6.9°C | 71.2% | 0hPa | 2.7V | 08:06:00 | 00:00:00 | 00:00:00 | |
| OE3JTB-15 | 2026-09-01 03:27:18 | 48.16950 | 15.58651 | 99° | 60km/h | 2091m | -6.5m/s | 6.7°C | 69.5% | 0hPa | 2.7V | 00:00:00 | 00:00:00 | 00:00:00 | |
| OE5DRO-10 | 2026-09-01 03:27:15 | 48.16956 | 15.58584 | 98° | 60km/h | 2110m | -6.3m/s | 6.6°C | 67.7% | 0hPa | 2.7V | 00:00:00 | 00:00:00 | 00:00:00 | |
| OM5KV | 2026-09-01 03:27:14 | 48.16956 | 15.58584 | 98° | 58km/h | 2110m | -6.4m/s | 6.6°C | 68.2% | 0hPa | 2.7V | 08:06:00 | 00:00:00 | 00:00:00 | |
| PETON7-10 | 2026-09-01 03:27:13 | 48.16961 | 15.58539 | 100° | 60km/h | 2123m | -6.6m/s | 6.5°C | 67.5% | 0hPa | 2.7V | 00:00:00 | 00:00:00 | 00:00:00 | |
| PG1ADW-2 | 2026-09-01 03:27:12 | 48.16964 | 15.58517 | 101° | 60km/h | 2129m | -6.9m/s | 6.4°C | 67.6% | 0hPa | 2.7V | 00:00:00 | 00:00:00 | 00:00:00 | |
| OE3JTB-15 | 2026-09-01 03:27:09 | 48.16973 | 15.58450 | 103° | 60km/h | 2148m | -6.0m/s | 6.3°C | 68.3% | 0hPa | 2.7V | 00:00:00 | 00:00:00 | 00:00:00 | |
| OE5DRO-10 | 2026-09-01 03:27:08 | 48.16976 | 15.58427 | 102° | 60km/h | 2154m | -6.5m/s | 6.2°C | 68.5% | 0hPa | 2.7V | 00:00:00 | 00:00:00 | 00:00:00 | |
| OM5KV | 2026-09-01 03:27:06 | 48.16979 | 15.58405 | 102° | 58km/h | 2160m | -5.8m/s | 6.2°C | 69.3% | 0hPa | 2.7V | 08:06:00 | 00:00:00 | 00:00:00 | |
| PETON7-10 | 2026-09-01 03:27:03 | 48.16992 | 15.58316 | 105° | 60km/h | 2184m | -5.7m/s | 6.0°C | 69.0% | 0hPa | 2.7V | 00:00:00 | 01:38:01 | 00:00:00 | |
| OE3OSB-13 | 2026-09-01 03:26:55 | 48.17024 | 15.58142 | 106° | 60km/h | 2232m | -6.0m/s | 5.8°C | 70.0% | -1.0hPa | 2.7V | 00:00:00 | 00:00:00 | 00:00:00 | |
| OE5DRO-10 | 2026-09-01 03:26:54 | 48.17028 | 15.58120 | 108° | 60km/h | 2238m | -5.3m/s | 5.7°C | 70.5% | 0hPa | 2.7V | 00:00:00 | 00:00:00 | 00:00:00 | |
| PETON7-10 | 2026-09-01 03:26:53 | 48.17032 | 15.58098 | 106° | 60km/h | 2243m | -6.2m/s | 5.6°C | 70.5% | 0hPa | 2.7V | 00:00:00 | 00:00:00 | 00:00:00 | |
| PG1ADW-2 | 2026-09-01 03:26:52 | 48.17036 | 15.58077 | 109° | 60km/h | 2249m | -5.2m/s | 5.6°C | 70.6% | 0hPa | 2.7V | 00:00:00 | 00:00:00 | 00:00:00 | |
| OE3JTB-15 | 2026-09-01 03:26:50 | 48.17046 | 15.58034 | 109° | 60km/h | 2260m | -5.5m/s | 5.5°C | 70.6% | 0hPa | 2.7V | 00:00:00 | 00:00:00 | 00:00:00 | |
| OM5KV | 2026-09-01 03:26:49 | 48.17046 | 15.58034 | 109° | 60km/h | 2260m | -5.6m/s | 5.6°C | 71.1% | 0hPa | 2.6V | 08:06:00 | 00:00:00 | 00:00:00 | |
| OE5DRO-10 | 2026-09-01 03:26:47 | 48.17060 | 15.57968 | 111° | 60km/h | 2276m | -5.1m/s | 5.6°C | 63.1% | 0hPa | 2.6V | 00:00:00 | 00:00:00 | 00:00:00 | |
| PETON7-10 | 2026-09-01 03:26:43 | 48.17080 | 15.57884 | 111° | 60km/h | 2299m | -6.2m/s | 5.5°C | 55.8% | 0hPa | 2.6V | 00:00:00 | 00:00:00 | 00:00:00 | |
| OE3JTB-15 | 2026-09-01 03:26:41 | 48.17092 | 15.57842 | 114° | 60km/h | 2310m | -5.5m/s | 5.7°C | 49.3% | 0hPa | 2.6V | 00:00:00 | 00:00:00 | 00:00:00 | |
| OE5DRO-10 | 2026-09-01 03:26:40 | 48.17098 | 15.57821 | 113° | 60km/h | 2316m | -6.1m/s | 5.8°C | 47.9% | 0hPa | 2.6V | 08:06:00 | 00:00:00 | 00:00:00 | |
| OM5KV | 2026-09-01 03:26:37 | 48.17110 | 15.57779 | 116° | 60km/h | 2327m | -5.4m/s | 5.8°C | 50.1% | 0hPa | 2.7V | 08:07:00 | 00:00:00 | 00:00:00 | |
| OM5KV | 2026-09-01 03:26:34 | 48.17129 | 15.57717 | 115° | 62km/h | 2345m | -6.8m/s | 5.6°C | 54.2% | 0hPa | 2.7V | 08:07:00 | 00:00:00 | 00:00:00 | |
| PETON7-10 | 2026-09-01 03:26:33 | 48.17142 | 15.57676 | 114° | 62km/h | 2358m | -6.6m/s | 5.5°C | 54.6% | 0hPa | 2.7V | 00:00:00 | 01:37:31 | 00:00:00 | |
| PG1ADW-2 | 2026-09-01 03:26:32 | 48.17148 | 15.57655 | 117° | 62km/h | 2364m | -5.9m/s | 5.4°C | 54.8% | 0hPa | 2.7V | 00:00:00 | 01:37:30 | 00:00:00 | |
| OE3JTB-15 | 2026-09-01 03:26:31 | 48.17155 | 15.57634 | 115° | 62km/h | 2370m | -6.9m/s | 5.4°C | 57.1% | 0hPa | 2.6V | 00:00:00 | 01:37:29 | 00:00:00 | |
| OM5KV | 2026-09-01 03:26:28 | 48.17168 | 15.57593 | 116° | 58km/h | 2382m | -6.3m/s | 5.5°C | 58.4% | 0hPa | 2.6V | 08:07:00 | 00:00:00 | 00:00:00 | |
| OM5KV | 2026-09-01 03:26:26 | 48.17182 | 15.57552 | 118° | 60km/h | 2395m | -5.8m/s | 5.4°C | 58.0% | 0hPa | 2.6V | 08:07:00 | 00:00:00 | 00:00:00 | |
| OE3OSB-13 | 2026-09-01 03:26:24 | 48.17203 | 15.57489 | 113° | 58km/h | 2413m | -7.2m/s | 5.3°C | 57.8% | -1.0hPa | 2.6V | 00:00:00 | 00:00:00 | 00:00:00 | |
| OM5KV | 2026-09-01 03:26:22 | 48.17209 | 15.57468 | 116° | 64km/h | 2420m | -6.4m/s | 5.3°C | 57.6% | 0hPa | 2.6V | 08:07:00 | 00:00:00 | 00:00:00 | |
| OM5KV | 2026-09-01 03:26:20 | 48.17223 | 15.57426 | 116° | 60km/h | 2432m | -6.6m/s | 5.2°C | 57.0% | 0hPa | 2.6V | 08:07:00 | 00:00:00 | 00:00:00 | |
| PETON7-10 | 2026-09-01 03:26:19 | 48.17236 | 15.57384 | 117° | 64km/h | 2445m | -6.4m/s | 5.0°C | 56.4% | 0hPa | 2.6V | 00:00:00 | 00:00:00 | 00:00:00 | |
| OE5DRO-10 | 2026-09-01 03:26:17 | 48.17250 | 15.57342 | 115° | 64km/h | 2458m | -7.0m/s | 4.9°C | 56.3% | 0hPa | 2.7V | 00:00:00 | 00:00:00 | 00:00:00 | |
| OM5KV | 2026-09-01 03:26:16 | 48.17250 | 15.57342 | 116° | 64km/h | 2458m | -7.1m/s | 5.0°C | 56.7% | 0hPa | 2.7V | 08:07:00 | 00:00:00 | 00:00:00 | |
| OM5KV | 2026-09-01 03:26:14 | 48.17264 | 15.57299 | 116° | 60km/h | 2471m | -6.5m/s | 4.8°C | 57.2% | 0hPa | 2.7V | 08:07:00 | 00:00:00 | 00:00:00 | |
| PG1ADW-2 | 2026-09-01 03:26:12 | 48.17284 | 15.57236 | 114° | 66km/h | 2490m | -6.9m/s | 4.6°C | 57.6% | 0hPa | 2.7V | 00:00:00 | 00:00:00 | 00:00:00 | |
| OM5KV | 2026-09-01 03:26:11 | 48.17285 | 15.57236 | 115° | 62km/h | 2490m | -7.0m/s | 4.7°C | 57.9% | 0hPa | 2.7V | 08:07:00 | 00:00:00 | 00:00:00 | |
| OM5KV | 2026-09-01 03:26:09 | 48.17299 | 15.57192 | 115° | 64km/h | 2503m | -6.7m/s | 4.5°C | 58.5% | 0hPa | 2.7V | 08:07:00 | 00:00:00 | 00:00:00 | |
| OM5KV | 2026-09-01 03:26:05 | 48.17326 | 15.57104 | 116° | 64km/h | 2529m | -6.5m/s | 4.3°C | 59.4% | 0hPa | 2.7V | 08:07:00 | 00:00:00 | 00:00:00 | |
| PETON7-10 | 2026-09-01 03:26:04 | 48.17340 | 15.57060 | 114° | 68km/h | 2541m | -6.7m/s | 4.1°C | 59.8% | 0hPa | 2.7V | 00:00:00 | 00:00:00 | 00:00:00 | |
| OM5KV | 2026-09-01 03:26:03 | 48.17340 | 15.57060 | 115° | 66km/h | 2541m | -6.8m/s | 4.2°C | 60.1% | 0hPa | 2.7V | 08:07:00 | 00:00:00 | 00:00:00 | |
| OE5DRO-10 | 2026-09-01 03:26:01 | 48.17360 | 15.56993 | 116° | 68km/h | 2560m | -6.0m/s | 4.0°C | 60.3% | 0hPa | 2.7V | 00:00:00 | 00:00:00 | 00:00:00 | |
| OM5KV | 2026-09-01 03:25:59 | 48.17367 | 15.56970 | 115° | 68km/h | 2566m | -7.3m/s | 4.0°C | 61.3% | 0hPa | 2.7V | 08:07:00 | 00:00:00 | 00:00:00 | |
| OM5KV | 2026-09-01 03:25:57 | 48.17380 | 15.56925 | 116° | 66km/h | 2579m | -6.7m/s | 3.8°C | 61.9% | 0hPa | 2.7V | 08:07:00 | 00:00:00 | 00:00:00 | |
| OE3JTB-15 | 2026-09-01 03:25:53 | 48.17414 | 15.56808 | 114° | 69km/h | 2613m | -6.9m/s | 3.5°C | 63.9% | 0hPa | 2.7V | 00:00:00 | 00:00:00 | 00:00:00 | |
| PG1ADW-2 | 2026-09-01 03:25:52 | 48.17421 | 15.56784 | 112° | 69km/h | 2620m | -7.1m/s | 3.4°C | 64.2% | 0hPa | 2.7V | 00:00:00 | 00:00:00 | 00:00:00 | |
| OM5KV | 2026-09-01 03:25:50 | 48.17428 | 15.56760 | 114° | 68km/h | 2627m | -6.8m/s | 3.4°C | 64.7% | 0hPa | 2.7V | 08:08:00 | 00:00:00 | 00:00:00 | |
| PETON7-10 | 2026-09-01 03:25:49 | 48.17441 | 15.56712 | 113° | 69km/h | 2641m | -7.1m/s | 3.3°C | 64.7% | 0hPa | 2.7V | 00:00:00 | 01:36:47 | 00:00:00 | |
| OE5WHR-10 | 2026-09-01 03:25:48 | 48.17448 | 15.56687 | 113° | 69km/h | 2648m | -7.8m/s | 3.2°C | 64.8% | 0hPa | 2.7V | 00:00:00 | 00:00:00 | 00:00:00 | |
| OE5DRO-10 | 2026-09-01 03:25:45 | 48.17468 | 15.56614 | 113° | 69km/h | 2669m | -6.7m/s | 3.1°C | 65.1% | 0hPa | 2.7V | 00:00:00 | 00:00:00 | 00:00:00 | |
| OM5KV | 2026-09-01 03:25:44 | 48.17468 | 15.56614 | 114° | 69km/h | 2669m | -6.8m/s | 3.1°C | 65.4% | 0hPa | 2.7V | 08:08:00 | 00:00:00 | 00:00:00 | |
| OM5KV | 2026-09-01 03:25:36 | 48.17520 | 15.56417 | 111° | 68km/h | 2724m | -7.1m/s | 2.9°C | 64.1% | 0hPa | 2.7V | 08:08:00 | 00:00:00 | 00:00:00 | |
| PETON7-10 | 2026-09-01 03:25:34 | 48.17539 | 15.56342 | 110° | 68km/h | 2745m | -7.5m/s | 2.6°C | 64.4% | 0hPa | 2.7V | 08:07:00 | 00:00:00 | 00:00:00 | |
| PG1ADW-2 | 2026-09-01 03:25:32 | 48.17552 | 15.56292 | 112° | 68km/h | 2760m | -7.9m/s | 2.5°C | 64.3% | 0hPa | 2.6V | 08:07:00 | 00:00:00 | 00:00:00 | |
| OM5KV | 2026-09-01 03:25:31 | 48.17552 | 15.56292 | 112° | 71km/h | 2760m | -7.9m/s | 2.6°C | 64.6% | 0hPa | 2.7V | 08:08:00 | 00:00:00 | 00:00:00 | |
| OE5DRO-10 | 2026-09-01 03:25:29 | 48.17571 | 15.56220 | 111° | 68km/h | 2782m | -8.1m/s | 2.4°C | 62.1% | 0hPa | 2.7V | 00:00:00 | 00:00:00 | 00:00:00 | |
| OM5KV | 2026-09-01 03:25:27 | 48.17577 | 15.56195 | 113° | 69km/h | 2790m | -7.0m/s | 2.4°C | 62.3% | 0hPa | 2.7V | 08:08:00 | 00:00:00 | 00:00:00 | |
| OM5KV | 2026-09-01 03:25:25 | 48.17590 | 15.56147 | 112° | 71km/h | 2804m | -7.7m/s | 2.3°C | 62.0% | 0hPa | 2.7V | 08:08:00 | 00:00:00 | 00:00:00 | |
| OE3OSB-13 | 2026-09-01 03:25:22 | 48.17615 | 15.56052 | 109° | 64km/h | 2832m | -7.2m/s | 2.1°C | 61.4% | -1.0hPa | 2.7V | 00:00:00 | 00:00:00 | 00:00:00 | |
| OM5KV | 2026-09-01 03:25:21 | 48.17615 | 15.56051 | 111° | 66km/h | 2833m | -7.2m/s | 2.1°C | 61.4% | 0hPa | 2.7V | 08:08:00 | 00:00:00 | 00:00:00 | |
| PETON7-10 | 2026-09-01 03:25:19 | 48.17633 | 15.55980 | 111° | 66km/h | 2853m | -7.4m/s | 1.9°C | 61.1% | 0hPa | 2.7V | 00:00:00 | 00:00:00 | 00:00:00 | |
| OE3JTB-15 | 2026-09-01 03:25:15 | 48.17658 | 15.55886 | 111° | 64km/h | 2882m | -8.0m/s | 1.8°C | 59.9% | 0hPa | 2.7V | 00:00:00 | 00:00:00 | 00:00:00 | |
| OE5DRO-10 | 2026-09-01 03:25:13 | 48.17671 | 15.55839 | 111° | 64km/h | 2896m | -7.7m/s | 1.8°C | 57.1% | 0hPa | 2.6V | 00:00:00 | 00:00:00 | 00:00:00 | |
| PG1ADW-2 | 2026-09-01 03:25:12 | 48.17677 | 15.55816 | 112° | 64km/h | 2904m | -7.8m/s | 1.8°C | 55.5% | 0hPa | 2.7V | 00:00:00 | 01:36:10 | 00:00:00 | |
| OE5WHR-10 | 2026-09-01 03:25:09 | 48.17695 | 15.55747 | 112° | 66km/h | 2926m | -7.9m/s | 1.6°C | 55.4% | 0hPa | 2.7V | 00:00:00 | 01:36:07 | 00:00:00 | |
| OM5KV | 2026-09-01 03:25:07 | 48.17702 | 15.55724 | 113° | 68km/h | 2934m | -7.7m/s | 1.6°C | 55.9% | 0hPa | 2.7V | 08:08:00 | 00:00:00 | 00:00:00 | |
| PETON7-10 | 2026-09-01 03:25:04 | 48.17726 | 15.55634 | 112° | 64km/h | 2964m | -8.1m/s | 1.5°C | 52.9% | 0hPa | 2.7V | 00:00:00 | 01:36:02 | 00:00:00 | |
| OM5KV | 2026-09-01 03:25:02 | 48.17732 | 15.55612 | 114° | 64km/h | 2971m | -7.4m/s | 1.5°C | 53.1% | 0hPa | 2.7V | 08:08:00 | 00:00:00 | 00:00:00 | |
| OE3OSB-13 | 2026-09-01 03:24:51 | 48.17807 | 15.55346 | 113° | 64km/h | 3062m | -7.6m/s | 0.6°C | 55.3% | -1.0hPa | 2.7V | 00:00:00 | 00:00:00 | 00:00:00 | |
| OM5KV | 2026-09-01 03:24:50 | 48.17807 | 15.55345 | 114° | 66km/h | 3062m | -7.6m/s | 0.6°C | 55.3% | 0hPa | 2.7V | 08:08:00 | 00:00:00 | 00:00:00 | |
| PETON7-10 | 2026-09-01 03:24:49 | 48.17820 | 15.55302 | 113° | 62km/h | 3077m | -7.9m/s | 0.4°C | 55.7% | 0hPa | 2.7V | 00:00:00 | 00:00:00 | 00:00:00 | |
| OM5KV | 2026-09-01 03:24:45 | 48.17838 | 15.55235 | 115° | 64km/h | 3102m | -7.6m/s | 0.3°C | 54.2% | 0hPa | 2.7V | 08:08:00 | 00:00:00 | 00:00:00 | |
| OM5KV | 2026-09-01 03:24:44 | 48.17844 | 15.55214 | 114° | 60km/h | 3109m | -7.6m/s | 0.3°C | 52.4% | 0hPa | 2.7V | 08:08:00 | 00:00:00 | 00:00:00 | |
| OE5DRO-10 | 2026-09-01 03:24:41 | 48.17868 | 15.55127 | 115° | 60km/h | 3140m | -7.7m/s | 0.0°C | 55.0% | 0hPa | 2.7V | 00:00:00 | 00:00:00 | 00:00:00 | |
| OM5KV | 2026-09-01 03:24:39 | 48.17875 | 15.55106 | 113° | 60km/h | 3148m | -8.4m/s | 0.0°C | 54.5% | 0hPa | 2.7V | 08:08:00 | 00:00:00 | 00:00:00 | |
| OM5KV | 2026-09-01 03:24:38 | 48.17880 | 15.55084 | 113° | 62km/h | 3157m | -8.5m/s | 0.1°C | 53.1% | 0hPa | 2.7V | 08:08:00 | 00:00:00 | 00:00:00 | |
| OE3JTB-15 | 2026-09-01 03:24:37 | 48.17893 | 15.55041 | 115° | 58km/h | 3173m | -7.9m/s | 0.0°C | 51.7% | 0hPa | 2.7V | 00:00:00 | 01:35:35 | 00:00:00 | |
| PETON7-10 | 2026-09-01 03:24:34 | 48.17912 | 15.54977 | 115° | 58km/h | 3196m | -7.8m/s | -0.0°C | 48.2% | 0hPa | 2.7V | 00:00:00 | 00:00:00 | 00:00:00 | |
| OM5KV | 2026-09-01 03:24:33 | 48.17912 | 15.54977 | 115° | 62km/h | 3196m | -7.9m/s | -0.1°C | 48.4% | 0hPa | 2.7V | 08:08:00 | 00:00:00 | 00:00:00 | |
| PG1ADW-2 | 2026-09-01 03:24:32 | 48.17923 | 15.54936 | 113° | 57km/h | 3212m | -8.2m/s | -0.0°C | 47.8% | 0hPa | 2.7V | 00:00:00 | 00:00:00 | 00:00:00 | |
| OM5KV | 2026-09-01 03:24:28 | 48.17941 | 15.54873 | 116° | 58km/h | 3236m | -7.4m/s | -0.2°C | 48.5% | 0hPa | 2.7V | 08:08:00 | 00:00:00 | 00:00:00 | |
| OM5KV | 2026-09-01 03:24:27 | 48.17947 | 15.54853 | 113° | 58km/h | 3243m | -8.3m/s | -0.3°C | 48.5% | 0hPa | 2.7V | 08:08:00 | 00:00:00 | 00:00:00 | |
| S52SK | 2026-09-01 03:24:26 | 48.17953 | 15.54833 | 115° | 60km/h | 3251m | -7.8m/s | -0.3°C | 48.1% | 0hPa | 2.7V | 00:00:00 | 00:00:00 | 00:00:00 | |
| OE5DRO-10 | 2026-09-01 03:24:25 | 48.17965 | 15.54793 | 114° | 55km/h | 3266m | -8.0m/s | -0.2°C | 45.6% | 0hPa | 2.7V | 08:08:00 | 00:00:00 | 00:00:00 | |
| OM5KV | 2026-09-01 03:24:23 | 48.17971 | 15.54773 | 115° | 57km/h | 3274m | -7.8m/s | -0.3°C | 45.7% | 0hPa | 2.6V | 08:08:00 | 00:00:00 | 00:00:00 | |
| OM5KV | 2026-09-01 03:24:21 | 48.17983 | 15.54732 | 115° | 58km/h | 3289m | -7.5m/s | -0.2°C | 44.7% | 0hPa | 2.6V | 08:08:00 | 00:00:00 | 00:00:00 | |
| OE3OSB-13 | 2026-09-01 03:24:20 | 48.17995 | 15.54693 | 113° | 57km/h | 3304m | -8.2m/s | -0.2°C | 41.9% | -1.0hPa | 2.6V | 00:00:00 | 00:00:00 | 00:00:00 | |
| PETON7-10 | 2026-09-01 03:24:19 | 48.18000 | 15.54674 | 112° | 53km/h | 3312m | -8.0m/s | -0.1°C | 40.4% | 0hPa | 2.6V | 00:00:00 | 01:35:17 | 00:00:00 | |
| OE3JTB-15 | 2026-09-01 03:24:18 | 48.18006 | 15.54654 | 113° | 53km/h | 3320m | -7.8m/s | -0.2°C | 39.4% | 0hPa | 2.6V | 00:00:00 | 00:00:00 | 00:00:00 | |
| S52SK | 2026-09-01 03:24:15 | 48.18016 | 15.54616 | 113° | 57km/h | 3335m | -8.1m/s | -0.1°C | 35.3% | 0hPa | 2.7V | 00:00:00 | 00:00:00 | 00:00:00 | |
| PG1ADW-2 | 2026-09-01 03:24:12 | 48.18037 | 15.54540 | 111° | 53km/h | 3366m | -7.9m/s | -0.1°C | 32.4% | 0hPa | 2.7V | 00:00:00 | 00:00:00 | 00:00:00 | |
| OE5DRO-10 | 2026-09-01 03:24:09 | 48.18052 | 15.54483 | 110° | 53km/h | 3389m | -8.4m/s | -0.0°C | 29.3% | 0hPa | 2.7V | 00:00:00 | 00:00:00 | 00:00:00 | |
| OM5KV | 2026-09-01 03:24:07 | 48.18056 | 15.54464 | 112° | 53km/h | 3397m | -7.5m/s | -0.0°C | 28.7% | 0hPa | 2.7V | 08:09:00 | 00:00:00 | 00:00:00 | |
| PETON7-10 | 2026-09-01 03:24:04 | 48.18075 | 15.54390 | 109° | 51km/h | 3427m | -8.2m/s | -0.0°C | 28.4% | 0hPa | 2.7V | 00:00:00 | 00:00:00 | 00:00:00 | |
| OM5KV | 2026-09-01 03:24:03 | 48.18075 | 15.54390 | 109° | 53km/h | 3427m | -8.3m/s | -0.1°C | 28.4% | 0hPa | 2.6V | 08:09:00 | 00:00:00 | 00:00:00 | |
| OM5KV | 2026-09-01 03:23:58 | 48.18096 | 15.54298 | 109° | 53km/h | 3466m | -8.6m/s | -0.3°C | 27.9% | 0hPa | 2.6V | 08:09:00 | 00:00:00 | 00:00:00 | |
| OM5KV | 2026-09-01 03:23:56 | 48.18104 | 15.54260 | 111° | 51km/h | 3481m | -7.2m/s | -0.4°C | 27.6% | 0hPa | 2.6V | 08:09:00 | 00:00:00 | 00:00:00 | |
| OE3JTB-15 | 2026-09-01 03:23:53 | 48.18120 | 15.54187 | 108° | 51km/h | 3512m | -8.3m/s | -0.4°C | 27.2% | 0hPa | 2.6V | 00:00:00 | 00:00:00 | 00:00:00 | |
| PG1ADW-2 | 2026-09-01 03:23:52 | 48.18125 | 15.54168 | 109° | 51km/h | 3520m | -7.9m/s | -0.5°C | 27.8% | 0hPa | 2.6V | 00:00:00 | 01:34:50 | 00:00:00 | |
| PETON7-10 | 2026-09-01 03:23:49 | 48.18136 | 15.54112 | 107° | 51km/h | 3543m | -8.7m/s | -0.5°C | 33.4% | 0hPa | 2.6V | 00:00:00 | 00:00:00 | 00:00:00 | |
| OM5KV | 2026-09-01 03:23:47 | 48.18140 | 15.54093 | 108° | 55km/h | 3552m | -8.3m/s | -0.5°C | 32.6% | 0hPa | 2.6V | 08:09:00 | 00:00:00 | 00:00:00 | |
| OM5KV | 2026-09-01 03:23:44 | 48.18153 | 15.54037 | 108° | 49km/h | 3575m | -8.0m/s | -0.7°C | 32.3% | 0hPa | 2.6V | 08:09:00 | 00:00:00 | 00:00:00 | |
| OM5KV | 2026-09-01 03:23:40 | 48.18169 | 15.53963 | 110° | 51km/h | 3606m | -7.6m/s | -0.9°C | 31.0% | 0hPa | 2.6V | 08:09:00 | 00:00:00 | 00:00:00 | |
| OM5KV | 2026-09-01 03:23:39 | 48.18173 | 15.53945 | 108° | 49km/h | 3614m | -7.7m/s | -1.0°C | 30.6% | 0hPa | 2.6V | 08:09:00 | 00:00:00 | 00:00:00 | |
| OE5DRO-10 | 2026-09-01 03:23:37 | 48.18184 | 15.53890 | 107° | 49km/h | 3637m | -8.3m/s | -1.0°C | 29.7% | 0hPa | 2.6V | 00:00:00 | 00:00:00 | 00:00:00 | |
| PETON7-10 | 2026-09-01 03:23:34 | 48.18194 | 15.53835 | 106° | 49km/h | 3661m | -7.8m/s | -1.1°C | 28.5% | 0hPa | 2.6V | 00:00:00 | 01:34:32 | 00:00:00 | |
| OM5KV | 2026-09-01 03:23:33 | 48.18195 | 15.53835 | 107° | 51km/h | 3661m | -7.9m/s | -1.2°C | 28.5% | 0hPa | 2.6V | 08:09:00 | 00:00:00 | 00:00:00 | |
| PG1ADW-2 | 2026-09-01 03:23:32 | 48.18202 | 15.53798 | 109° | 49km/h | 3676m | -7.4m/s | -1.2°C | 27.8% | 0hPa | 2.6V | 00:00:00 | 00:00:00 | 00:00:00 | |
| OM5KV | 2026-09-01 03:23:28 | 48.18213 | 15.53745 | 107° | 53km/h | 3698m | -8.5m/s | -1.1°C | 24.5% | 0hPa | 2.6V | 08:09:00 | 00:00:00 | 00:00:00 | |
| OM5KV | 2026-09-01 03:23:27 | 48.18217 | 15.53726 | 108° | 51km/h | 3707m | -7.7m/s | -1.2°C | 24.5% | 0hPa | 2.6V | 08:09:00 | 00:00:00 | 00:00:00 | |
| OE3JTB-15 | 2026-09-01 03:23:24 | 48.18232 | 15.53655 | 107° | 49km/h | 3736m | -8.0m/s | -1.3°C | 23.7% | 0hPa | 2.6V | 00:00:00 | 01:34:22 | 00:00:00 | |
| OM5KV | 2026-09-01 03:23:22 | 48.18235 | 15.53637 | 109° | 51km/h | 3743m | -7.2m/s | -1.3°C | 22.7% | 0hPa | 2.6V | 08:09:00 | 00:00:00 | 00:00:00 | |
| OE5DRO-10 | 2026-09-01 03:23:21 | 48.18243 | 15.53602 | 107° | 49km/h | 3757m | -7.6m/s | -1.4°C | 22.6% | 0hPa | 2.6V | 00:00:00 | 00:00:00 | 00:00:00 | |
| PETON7-10 | 2026-09-01 03:23:19 | 48.18250 | 15.53566 | 107° | 49km/h | 3772m | -7.9m/s | -1.5°C | 23.0% | 0hPa | 2.6V | 08:09:00 | 00:00:00 | 00:00:00 | |
| OM5KV | 2026-09-01 03:23:17 | 48.18253 | 15.53548 | 107° | 51km/h | 3780m | -7.8m/s | -1.6°C | 23.1% | 0hPa | 2.7V | 08:10:00 | 00:00:00 | 00:00:00 | |
| PG1ADW-2 | 2026-09-01 03:23:12 | 48.18275 | 15.53440 | 108° | 51km/h | 3823m | -7.1m/s | -2.0°C | 23.7% | 0hPa | 2.7V | 00:00:00 | 00:00:00 | 00:00:00 | |
| OM5KV | 2026-09-01 03:23:11 | 48.18275 | 15.53440 | 108° | 49km/h | 3823m | -7.1m/s | -2.0°C | 23.7% | 0hPa | 2.7V | 08:10:00 | 00:00:00 | 00:00:00 | |
| OE5DXL-15 | 2026-09-01 03:23:09 | 48.18285 | 15.53386 | 105° | 51km/h | 3845m | -7.8m/s | -2.2°C | 24.1% | 0hPa | 2.7V | 00:00:00 | 00:00:00 | 00:00:00 | |
| OE5DRO-10 | 2026-09-01 03:23:05 | 48.18299 | 15.53313 | 105° | 51km/h | 3874m | -7.8m/s | -2.5°C | 24.4% | 0hPa | 2.7V | 00:00:00 | 00:00:00 | 00:00:00 | |
| PETON7-10 | 2026-09-01 03:23:04 | 48.18302 | 15.53294 | 106° | 51km/h | 3882m | -7.2m/s | -2.5°C | 24.4% | 0hPa | 2.7V | 00:00:00 | 00:00:00 | 00:00:00 | |
| OE3OSB-13 | 2026-09-01 03:22:47 | 48.18364 | 15.52963 | 104° | 49km/h | 4007m | -7.3m/s | -3.7°C | 26.6% | -1.0hPa | 2.7V | 00:00:00 | 00:00:00 | 00:00:00 | |
| OM5KV | 2026-09-01 03:22:42 | 48.18375 | 15.52906 | 109° | 53km/h | 4028m | -6.8m/s | -3.9°C | 27.2% | 0hPa | 2.7V | 08:10:00 | 00:00:00 | 00:00:00 | |
| OE5DXL-15 | 2026-09-01 03:22:39 | 48.18390 | 15.52831 | 106° | 51km/h | 4055m | -7.3m/s | -4.1°C | 28.5% | 0hPa | 2.7V | 00:00:00 | 00:00:00 | 00:00:00 | |
| PETON7-10 | 2026-09-01 03:22:34 | 48.18408 | 15.52738 | 106° | 51km/h | 4089m | -7.0m/s | -4.4°C | 29.6% | 0hPa | 2.7V | 00:00:00 | 00:00:00 | 00:00:00 | |
| OE5DRO-10 | 2026-09-01 03:22:33 | 48.18412 | 15.52719 | 107° | 51km/h | 4095m | -6.6m/s | -4.5°C | 29.7% | 0hPa | 2.7V | 00:00:00 | 00:00:00 | 00:00:00 | |
| PG1ADW-2 | 2026-09-01 03:22:32 | 48.18415 | 15.52701 | 103° | 51km/h | 4101m | -7.0m/s | -4.5°C | 29.7% | 0hPa | 2.7V | 08:10:00 | 01:33:30 | 00:00:00 | |
| OM5KV | 2026-09-01 03:22:30 | 48.18418 | 15.52682 | 106° | 55km/h | 4108m | -7.4m/s | -4.6°C | 29.2% | 0hPa | 2.6V | 08:11:00 | 00:00:00 | 00:00:00 | |
| OE3JTB-15 | 2026-09-01 03:22:26 | 48.18435 | 15.52586 | 104° | 49km/h | 4142m | -6.6m/s | -4.8°C | 29.9% | 0hPa | 2.6V | 00:00:00 | 00:00:00 | 00:00:00 | |
| OM5KV | 2026-09-01 03:22:24 | 48.18438 | 15.52567 | 105° | 53km/h | 4148m | -7.3m/s | -4.9°C | 29.9% | 0hPa | 2.6V | 08:11:00 | 00:00:00 | 00:00:00 | |
| OM5KV | 2026-09-01 03:22:20 | 48.18451 | 15.52493 | 104° | 49km/h | 4174m | -6.7m/s | -4.9°C | 27.7% | 0hPa | 2.6V | 08:11:00 | 00:00:00 | 00:00:00 | |
| PETON7-10 | 2026-09-01 03:22:19 | 48.18455 | 15.52456 | 101° | 49km/h | 4188m | -7.1m/s | -4.8°C | 25.6% | 0hPa | 2.6V | 00:00:00 | 00:00:00 | 00:00:00 | |
| OE5DRO-10 | 2026-09-01 03:22:17 | 48.18460 | 15.52419 | 99° | 49km/h | 4201m | -6.8m/s | -4.9°C | 25.2% | 0hPa | 2.6V | 00:00:00 | 00:00:00 | 00:00:00 | |
| OE3OSB-13 | 2026-09-01 03:22:16 | 48.18464 | 15.52381 | 100° | 51km/h | 4214m | -6.8m/s | -5.1°C | 26.1% | -1.0hPa | 2.6V | 00:00:00 | 00:00:00 | 00:00:00 | |
| OM5KV | 2026-09-01 03:22:14 | 48.18464 | 15.52381 | 102° | 51km/h | 4214m | -6.8m/s | -5.1°C | 26.1% | 0hPa | 2.6V | 08:11:00 | 00:00:00 | 00:00:00 | |
| OM5KV | 2026-09-01 03:22:13 | 48.18467 | 15.52363 | 101° | 49km/h | 4221m | -6.9m/s | -5.1°C | 26.7% | 0hPa | 2.6V | 08:11:00 | 00:00:00 | 00:00:00 | |
| PG1ADW-2 | 2026-09-01 03:22:12 | 48.18471 | 15.52325 | 100° | 49km/h | 4235m | -6.9m/s | -5.1°C | 28.3% | 0hPa | 2.6V | 00:00:00 | 00:00:00 | 00:00:00 | |
| OE5DXL-15 | 2026-09-01 03:22:09 | 48.18476 | 15.52270 | 99° | 49km/h | 4255m | -6.9m/s | -4.9°C | 18.4% | 0hPa | 2.6V | 00:00:00 | 00:00:00 | 00:00:00 | |
| OM5KV | 2026-09-01 03:22:08 | 48.18476 | 15.52270 | 99° | 51km/h | 4255m | -6.9m/s | -4.9°C | 18.3% | 0hPa | 2.6V | 08:11:00 | 00:00:00 | 00:00:00 | |
| OM5KV | 2026-09-01 03:22:07 | 48.18478 | 15.52251 | 99° | 49km/h | 4261m | -6.8m/s | -4.6°C | 13.4% | 0hPa | 2.6V | 08:11:00 | 00:00:00 | 00:00:00 | |
| PETON7-10 | 2026-09-01 03:22:04 | 48.18483 | 15.52177 | 96° | 49km/h | 4289m | -6.6m/s | -4.1°C | 8.3% | 0hPa | 2.6V | 00:00:00 | 01:33:02 | 00:00:00 | |
| OM5KV | 2026-09-01 03:22:02 | 48.18484 | 15.52158 | 97° | 49km/h | 4296m | -6.6m/s | -4.1°C | 8.2% | 0hPa | 2.6V | 08:11:00 | 00:00:00 | 00:00:00 | |
| OE3OSB-13 | 2026-09-01 03:21:45 | 48.18500 | 15.51808 | 94° | 46km/h | 4421m | -6.6m/s | -5.0°C | 8.5% | -1.0hPa | 2.6V | 00:00:00 | 00:00:00 | 00:00:00 | |
| OM5KV | 2026-09-01 03:21:44 | 48.18499 | 15.51825 | 96° | 47km/h | 4414m | -5.9m/s | -4.9°C | 8.7% | 0hPa | 2.6V | 08:11:00 | 00:00:00 | 00:00:00 | |
| S52SK | 2026-09-01 03:21:41 | 48.18501 | 15.51773 | 91° | 47km/h | 4433m | -7.2m/s | -5.1°C | 8.6% | 0hPa | 2.6V | 00:00:00 | 00:00:00 | 00:00:00 | |
| OE5DXL-15 | 2026-09-01 03:21:39 | 48.18502 | 15.51717 | 93° | 51km/h | 4454m | -7.0m/s | -5.2°C | 8.5% | 0hPa | 2.6V | 00:00:00 | 00:00:00 | 00:00:00 | |
| OM5KV | 2026-09-01 03:21:38 | 48.18502 | 15.51717 | 93° | 51km/h | 4454m | -7.1m/s | -5.2°C | 8.5% | 0hPa | 2.6V | 08:12:00 | 00:00:00 | 00:00:00 | |
| OM5KV | 2026-09-01 03:21:35 | 48.18504 | 15.51662 | 91° | 47km/h | 4473m | -6.5m/s | -5.3°C | 8.3% | 0hPa | 2.6V | 08:12:00 | 00:00:00 | 00:00:00 | |
| PETON7-10 | 2026-09-01 03:21:34 | 48.18505 | 15.51625 | 92° | 51km/h | 4485m | -7.0m/s | -5.3°C | 7.8% | 0hPa | 2.6V | 00:00:00 | 00:00:00 | 00:00:00 | |
| PG1ADW-2 | 2026-09-01 03:21:32 | 48.18505 | 15.51589 | 89° | 51km/h | 4498m | -6.9m/s | -5.3°C | 7.3% | 0hPa | 2.6V | 00:00:00 | 00:00:00 | 00:00:00 | |
| OM5KV | 2026-09-01 03:21:31 | 48.18505 | 15.51589 | 90° | 47km/h | 4498m | -6.9m/s | -5.4°C | 7.2% | 0hPa | 2.7V | 08:12:00 | 00:00:00 | 00:00:00 | |
| OE5DRO-10 | 2026-09-01 03:21:29 | 48.18506 | 15.51532 | 89° | 51km/h | 4517m | -6.3m/s | -5.3°C | 6.4% | 0hPa | 2.7V | 00:00:00 | 00:00:00 | 00:00:00 | |
| OE3JTB-15 | 2026-09-01 03:21:28 | 48.18506 | 15.51514 | 92° | 53km/h | 4523m | -6.5m/s | -5.3°C | 6.5% | 0hPa | 2.7V | 00:00:00 | 00:00:00 | 00:00:00 | |
| OM5KV | 2026-09-01 03:21:25 | 48.18507 | 15.51476 | 90° | 49km/h | 4535m | -6.5m/s | -5.4°C | 6.4% | 0hPa | 2.7V | 08:12:00 | 00:00:00 | 00:00:00 | |
| OM5KV | 2026-09-01 03:21:24 | 48.18507 | 15.51457 | 90° | 53km/h | 4542m | -6.9m/s | -5.4°C | 6.2% | 0hPa | 2.7V | 08:12:00 | 00:00:00 | 00:00:00 | |
| OM5KV | 2026-09-01 03:21:20 | 48.18507 | 15.51380 | 88° | 51km/h | 4566m | -6.6m/s | -5.5°C | 5.4% | 0hPa | 2.7V | 08:12:00 | 00:00:00 | 00:00:00 | |
| PETON7-10 | 2026-09-01 03:21:19 | 48.18506 | 15.51340 | 89° | 53km/h | 4579m | -6.8m/s | -5.5°C | 5.4% | 0hPa | 2.7V | 00:00:00 | 01:32:17 | 00:00:00 | |
| OM5KV | 2026-09-01 03:21:18 | 48.18506 | 15.51340 | 90° | 55km/h | 4579m | -6.9m/s | -5.6°C | 5.3% | 0hPa | 2.7V | 08:12:00 | 00:00:00 | 00:00:00 | |
| OE3OSB-13 | 2026-09-01 03:21:14 | 48.18505 | 15.51220 | 89° | 55km/h | 4617m | -6.8m/s | -5.6°C | 4.9% | -1.0hPa | 2.7V | 00:00:00 | 00:00:00 | 00:00:00 | |
| OE5DRO-10 | 2026-09-01 03:21:13 | 48.18505 | 15.51220 | 90° | 53km/h | 4617m | -6.7m/s | -5.5°C | 5.0% | 0hPa | 2.7V | 00:00:00 | 00:00:00 | 00:00:00 | |
| PG1ADW-2 | 2026-09-01 03:21:12 | 48.18506 | 15.51199 | 91° | 53km/h | 4623m | -6.6m/s | -5.6°C | 5.1% | 0hPa | 2.6V | 00:00:00 | 01:32:10 | 00:00:00 | |
| OE5DXL-15 | 2026-09-01 03:21:09 | 48.18506 | 15.51140 | 87° | 53km/h | 4641m | -6.0m/s | -5.7°C | 5.9% | 0hPa | 2.6V | 08:11:00 | 00:00:00 | 00:00:00 | |
| OM5KV | 2026-09-01 03:21:06 | 48.18504 | 15.51100 | 89° | 55km/h | 4653m | -7.1m/s | -5.8°C | 5.8% | 0hPa | 2.6V | 08:12:00 | 00:00:00 | 00:00:00 | |
| PETON7-10 | 2026-09-01 03:21:04 | 48.18503 | 15.51040 | 86° | 53km/h | 4671m | -6.1m/s | -5.9°C | 5.9% | 0hPa | 2.6V | 08:12:00 | 00:00:00 | 00:00:00 | |
| OM5KV | 2026-09-01 03:21:03 | 48.18503 | 15.51040 | 87° | 51km/h | 4671m | -6.1m/s | -5.9°C | 5.8% | 0hPa | 2.7V | 08:12:00 | 00:00:00 | 00:00:00 | |
| OE3JTB-15 | 2026-09-01 03:20:59 | 48.18502 | 15.50940 | 90° | 53km/h | 4702m | -6.0m/s | -6.1°C | 5.9% | 0hPa | 2.7V | 00:00:00 | 00:00:00 | 00:00:00 | |
| OM5KV | 2026-09-01 03:20:58 | 48.18501 | 15.50940 | 90° | 53km/h | 4702m | -6.1m/s | -6.1°C | 5.8% | 0hPa | 2.7V | 08:12:00 | 00:00:00 | 00:00:00 | |
| OE5DRO-10 | 2026-09-01 03:20:57 | 48.18500 | 15.50901 | 87° | 53km/h | 4713m | -6.6m/s | -6.1°C | 5.8% | 0hPa | 2.7V | 00:00:00 | 00:00:00 | 00:00:00 | |
| OM5KV | 2026-09-01 03:20:54 | 48.18499 | 15.50860 | 84° | 51km/h | 4725m | -6.2m/s | -6.2°C | 5.6% | 0hPa | 2.7V | 08:12:00 | 00:00:00 | 00:00:00 | |
| PG1ADW-2 | 2026-09-01 03:20:52 | 48.18494 | 15.50800 | 82° | 53km/h | 4743m | -6.3m/s | -6.2°C | 5.4% | 0hPa | 2.7V | 00:00:00 | 00:00:00 | 00:00:00 | |
| PETON7-10 | 2026-09-01 03:20:49 | 48.18488 | 15.50743 | 81° | 51km/h | 4760m | -6.5m/s | -6.3°C | 5.3% | 0hPa | 2.7V | 00:00:00 | 00:00:00 | 00:00:00 | |
| OM5KV | 2026-09-01 03:20:46 | 48.18485 | 15.50703 | 85° | 53km/h | 4773m | -6.2m/s | -6.5°C | 5.2% | 0hPa | 2.7V | 08:13:00 | 00:00:00 | 00:00:00 | |
| OE3OSB-13 | 2026-09-01 03:20:42 | 48.18475 | 15.50606 | 80° | 49km/h | 4802m | -6.3m/s | -6.7°C | 5.1% | -1.0hPa | 2.7V | 00:00:00 | 00:00:00 | 00:00:00 | |
| OE5DRO-10 | 2026-09-01 03:20:41 | 48.18473 | 15.50587 | 77° | 51km/h | 4808m | -6.6m/s | -6.6°C | 4.8% | 0hPa | 2.7V | 00:00:00 | 00:00:00 | 00:00:00 | |
| OE5DXL-15 | 2026-09-01 03:20:39 | 48.18467 | 15.50549 | 79° | 51km/h | 4821m | -7.0m/s | -6.6°C | 4.7% | 0hPa | 2.7V | 00:00:00 | 00:00:00 | 00:00:00 | |
| OM5KV | 2026-09-01 03:20:37 | 48.18465 | 15.50529 | 82° | 53km/h | 4828m | -6.2m/s | -6.7°C | 4.4% | 0hPa | 2.7V | 08:13:00 | 00:00:00 | 00:00:00 | |
| OM5KV | 2026-09-01 03:20:35 | 48.18461 | 15.50492 | 79° | 49km/h | 4839m | -5.8m/s | -6.8°C | 4.3% | 0hPa | 2.7V | 08:13:00 | 00:00:00 | 00:00:00 | |
| PETON7-10 | 2026-09-01 03:20:34 | 48.18456 | 15.50455 | 81° | 51km/h | 4851m | -6.5m/s | -6.9°C | 4.3% | 0hPa | 2.7V | 00:00:00 | 01:31:32 | 00:00:00 | |
| PG1ADW-2 | 2026-09-01 03:20:32 | 48.18452 | 15.50416 | 83° | 51km/h | 4863m | -5.9m/s | -7.0°C | 4.2% | 0hPa | 2.7V | 00:00:00 | 00:00:00 | 00:00:00 | |
| OE3JTB-15 | 2026-09-01 03:20:30 | 48.18448 | 15.50379 | 81° | 51km/h | 4875m | -7.1m/s | -7.1°C | 4.3% | 0hPa | 2.7V | 00:00:00 | 01:31:28 | 00:00:00 | |
| OM5KV | 2026-09-01 03:20:26 | 48.18443 | 15.50322 | 81° | 49km/h | 4894m | -6.6m/s | -7.3°C | 4.2% | 0hPa | 2.7V | 08:13:00 | 00:00:00 | 00:00:00 | |
| OE5DRO-10 | 2026-09-01 03:20:25 | 48.18440 | 15.50284 | 85° | 51km/h | 4906m | -6.1m/s | -7.3°C | 4.2% | 0hPa | 2.7V | 00:00:00 | 00:00:00 | 00:00:00 | |
| OM5KV | 2026-09-01 03:20:24 | 48.18440 | 15.50284 | 85° | 51km/h | 4906m | -6.2m/s | -7.3°C | 4.1% | 0hPa | 2.7V | 08:13:00 | 00:00:00 | 00:00:00 | |
| OM5KV | 2026-09-01 03:20:20 | 48.18434 | 15.50209 | 83° | 47km/h | 4930m | -6.1m/s | -7.5°C | 4.4% | 0hPa | 2.7V | 08:13:00 | 00:00:00 | 00:00:00 | |
| PETON7-10 | 2026-09-01 03:20:19 | 48.18431 | 15.50172 | 85° | 51km/h | 4942m | -7.2m/s | -7.5°C | 5.0% | 0hPa | 2.7V | 00:00:00 | 00:00:00 | 00:00:00 | |
| OM5KV | 2026-09-01 03:20:17 | 48.18430 | 15.50153 | 87° | 51km/h | 4948m | -6.0m/s | -7.6°C | 4.8% | 0hPa | 2.7V | 08:13:00 | 00:00:00 | 00:00:00 | |
| OM5KV | 2026-09-01 03:20:15 | 48.18427 | 15.50116 | 83° | 49km/h | 4960m | -6.6m/s | -7.7°C | 4.7% | 0hPa | 2.7V | 08:13:00 | 00:00:00 | 00:00:00 | |
| PG1ADW-2 | 2026-09-01 03:20:12 | 48.18421 | 15.50041 | 85° | 49km/h | 4987m | -7.6m/s | -7.9°C | 5.0% | 0hPa | 2.7V | 00:00:00 | 00:00:00 | 00:00:00 | |
| OE3OSB-13 | 2026-09-01 03:20:11 | 48.18420 | 15.50022 | 84° | 51km/h | 4994m | -8.4m/s | -8.0°C | 4.9% | -1.0hPa | 2.7V | 00:00:00 | 00:00:00 | 00:00:00 | |
| OE5DRO-10 | 2026-09-01 03:20:09 | 48.18418 | 15.49982 | 86° | 49km/h | 5010m | -8.1m/s | -8.1°C | 5.2% | 0hPa | 2.7V | 00:00:00 | 00:00:00 | 00:00:00 | |
| OM5KV | 2026-09-01 03:20:05 | 48.18416 | 15.49924 | 88° | 49km/h | 5032m | -7.0m/s | -8.2°C | 6.3% | 0hPa | 2.7V | 08:13:00 | 00:00:00 | 00:00:00 | |
| PETON7-10 | 2026-09-01 03:20:04 | 48.18414 | 15.49886 | 87° | 49km/h | 5046m | -7.5m/s | -8.3°C | 11.1% | 0hPa | 2.7V | 00:00:00 | 00:00:00 | 00:00:00 | |
| OM5KV | 2026-09-01 03:20:03 | 48.18415 | 15.49886 | 87° | 49km/h | 5046m | -7.5m/s | -8.3°C | 10.9% | 0hPa | 2.7V | 08:13:00 | 00:00:00 | 00:00:00 | |
| OE3JTB-15 | 2026-09-01 03:20:01 | 48.18411 | 15.49830 | 84° | 51km/h | 5069m | -7.7m/s | -8.5°C | 15.1% | 0hPa | 2.7V | 00:00:00 | 00:00:00 | 00:00:00 | |
| OM5KV | 2026-09-01 03:19:59 | 48.18410 | 15.49811 | 86° | 49km/h | 5077m | -8.3m/s | -8.6°C | 17.2% | 0hPa | 2.6V | 08:13:00 | 00:00:00 | 00:00:00 | |
| OM5KV | 2026-09-01 03:19:57 | 48.18408 | 15.49773 | 85° | 49km/h | 5093m | -8.0m/s | -8.8°C | 19.8% | 0hPa | 2.6V | 08:14:00 | 00:00:00 | 00:00:00 | |
| OE5DRO-10 | 2026-09-01 03:19:53 | 48.18402 | 15.49678 | 88° | 53km/h | 5134m | -8.3m/s | -8.8°C | 6.7% | 0hPa | 2.6V | 00:00:00 | 00:00:00 | 00:00:00 | |
| PG1ADW-2 | 2026-09-01 03:19:52 | 48.18401 | 15.49659 | 89° | 53km/h | 5142m | -8.3m/s | -8.8°C | 6.1% | 0hPa | 2.6V | 00:00:00 | 01:30:50 | 00:00:00 | |
| OM5KV | 2026-09-01 03:19:51 | 48.18402 | 15.49659 | 89° | 51km/h | 5142m | -8.3m/s | -8.9°C | 6.0% | 0hPa | 2.6V | 08:14:00 | 00:00:00 | 00:00:00 | |
| PETON7-10 | 2026-09-01 03:19:49 | 48.18401 | 15.49601 | 89° | 53km/h | 5168m | -9.4m/s | -9.0°C | 4.8% | 0hPa | 2.6V | 00:00:00 | 01:30:47 | 00:00:00 | |
| OM5KV | 2026-09-01 03:19:45 | 48.18399 | 15.49541 | 87° | 51km/h | 5191m | -6.0m/s | -9.3°C | 3.7% | 0hPa | 2.6V | 08:14:00 | 00:00:00 | 00:00:00 | |
| OM5KV | 2026-09-01 03:19:41 | 48.18396 | 15.49462 | 89° | 53km/h | 5221m | -7.6m/s | -9.5°C | 3.4% | 0hPa | 2.6V | 08:14:00 | 00:00:00 | 00:00:00 | |
| OE3OSB-13 | 2026-09-01 03:19:40 | 48.18395 | 15.49422 | 85° | 49km/h | 5235m | -7.0m/s | -9.7°C | 3.3% | -1.0hPa | 2.6V | 00:00:00 | 00:00:00 | 00:00:00 | |
| OE5DXL-15 | 2026-09-01 03:19:39 | 48.18394 | 15.49403 | 86° | 51km/h | 5242m | -7.5m/s | -9.7°C | 3.5% | 0hPa | 2.6V | 00:00:00 | 00:00:00 | 00:00:00 | |
| OM5KV | 2026-09-01 03:19:38 | 48.18394 | 15.49403 | 87° | 55km/h | 5242m | -7.5m/s | -9.7°C | 3.3% | 0hPa | 2.7V | 08:14:00 | 00:00:00 | 00:00:00 | |
| OE5DRO-10 | 2026-09-01 03:19:37 | 48.18392 | 15.49362 | 88° | 51km/h | 5255m | -5.9m/s | -9.8°C | 3.5% | 0hPa | 2.7V | 08:13:00 | 00:00:00 | 00:00:00 | |
| PETON7-10 | 2026-09-01 03:19:34 | 48.18391 | 15.49302 | 88° | 51km/h | 5277m | -6.9m/s | -10.0°C | 3.5% | 0hPa | 2.6V | 00:00:00 | 00:00:00 | 00:00:00 | |
| OE3JTB-15 | 2026-09-01 03:19:32 | 48.18389 | 15.49263 | 87° | 51km/h | 5292m | -8.1m/s | -10.1°C | 3.5% | 0hPa | 2.7V | 00:00:00 | 00:00:00 | 00:00:00 | |
| OM5KV | 2026-09-01 03:19:27 | 48.18385 | 15.49186 | 84° | 51km/h | 5321m | -7.5m/s | -10.4°C | 3.3% | 0hPa | 2.7V | 08:14:00 | 00:00:00 | 00:00:00 | |
| OM5KV | 2026-09-01 03:19:23 | 48.18378 | 15.49108 | 85° | 53km/h | 5349m | -6.8m/s | -10.7°C | 3.3% | 0hPa | 2.7V | 08:14:00 | 00:00:00 | 00:00:00 | |
| OE5WHR-10 | 2026-09-01 03:19:21 | 48.18373 | 15.49050 | 84° | 51km/h | 5370m | -6.9m/s | -10.8°C | 3.5% | 0hPa | 2.7V | 00:00:00 | 00:00:00 | 00:00:00 | |
| PETON7-10 | 2026-09-01 03:19:19 | 48.18370 | 15.49011 | 83° | 51km/h | 5385m | -7.6m/s | -10.9°C | 3.4% | 0hPa | 2.7V | 00:00:00 | 00:00:00 | 00:00:00 | |
| OM5KV | 2026-09-01 03:19:18 | 48.18370 | 15.49011 | 83° | 49km/h | 5385m | -7.6m/s | -11.0°C | 3.3% | 0hPa | 2.7V | 08:14:00 | 00:00:00 | 00:00:00 | |
| S52SK | 2026-09-01 03:19:16 | 48.18366 | 15.48973 | 82° | 53km/h | 5400m | -7.9m/s | -11.0°C | 3.1% | 0hPa | 2.7V | 00:00:00 | 00:00:00 | 00:00:00 | |
| PG1ADW-2 | 2026-09-01 03:19:12 | 48.18354 | 15.48878 | 78° | 53km/h | 5437m | -9.1m/s | -11.2°C | 3.1% | 0hPa | 2.7V | 00:00:00 | 00:00:00 | 00:00:00 | |
| OM5KV | 2026-09-01 03:19:10 | 48.18351 | 15.48858 | 79° | 53km/h | 5446m | -8.6m/s | -11.3°C | 2.9% | 0hPa | 2.7V | 08:14:00 | 00:00:00 | 00:00:00 | |
| OE5DXL-15 | 2026-09-01 03:19:09 | 48.18347 | 15.48819 | 79° | 55km/h | 5461m | -7.1m/s | -11.4°C | 3.1% | 0hPa | 2.7V | 00:00:00 | 00:00:00 | 00:00:00 | |
| OM5KV | 2026-09-01 03:19:06 | 48.18342 | 15.48781 | 80° | 51km/h | 5477m | -8.1m/s | -11.6°C | 3.0% | 0hPa | 2.7V | 08:14:00 | 00:00:00 | 00:00:00 | |
| PETON7-10 | 2026-09-01 03:19:04 | 48.18335 | 15.48723 | 82° | 55km/h | 5502m | -8.9m/s | -11.7°C | 3.1% | 0hPa | 2.7V | 00:00:00 | 01:30:02 | 00:00:00 | |
| OE5DRO-10 | 2026-09-01 03:19:02 | 48.18330 | 15.48683 | 79° | 57km/h | 5519m | -8.6m/s | -11.8°C | 3.1% | 0hPa | 2.7V | 00:00:00 | 00:00:00 | 00:00:00 | |
| OM5KV | 2026-09-01 03:19:01 | 48.18330 | 15.48683 | 80° | 51km/h | 5519m | -8.6m/s | -11.8°C | 2.9% | 0hPa | 2.7V | 08:14:00 | 00:00:00 | 00:00:00 | |
| OE5WHR-10 | 2026-09-01 03:19:00 | 48.18325 | 15.48645 | 79° | 57km/h | 5536m | -8.5m/s | -11.9°C | 3.0% | 0hPa | 2.7V | 00:00:00 | 01:29:58 | 00:00:00 | |
| OM5KV | 2026-09-01 03:18:56 | 48.18317 | 15.48584 | 81° | 53km/h | 5560m | -6.9m/s | -12.0°C | 2.7% | 0hPa | 2.7V | 08:14:00 | 00:00:00 | 00:00:00 | |
| OM5KV | 2026-09-01 03:18:53 | 48.18310 | 15.48523 | 82° | 57km/h | 5584m | -9.3m/s | -12.1°C | 2.5% | 0hPa | 2.7V | 08:14:00 | 00:00:00 | 00:00:00 | |
| PG1ADW-2 | 2026-09-01 03:18:52 | 48.18306 | 15.48481 | 84° | 58km/h | 5601m | -7.7m/s | -12.1°C | 2.6% | 0hPa | 2.7V | 00:00:00 | 00:00:00 | 00:00:00 | |
| OM5KV | 2026-09-01 03:18:50 | 48.18304 | 15.48461 | 84° | 55km/h | 5608m | -8.1m/s | -12.2°C | 2.4% | 0hPa | 2.7V | 08:14:00 | 00:00:00 | 00:00:00 | |
| PETON7-10 | 2026-09-01 03:18:49 | 48.18301 | 15.48419 | 83° | 58km/h | 5624m | -8.5m/s | -12.2°C | 2.5% | 0hPa | 2.7V | 08:14:00 | 00:00:00 | 00:00:00 | |
| OM5KV | 2026-09-01 03:18:45 | 48.18296 | 15.48354 | 86° | 58km/h | 5649m | -9.4m/s | -12.4°C | 2.3% | 0hPa | 2.7V | 08:14:00 | 00:00:00 | 00:00:00 | |
| OE5DRO-10 | 2026-09-01 03:18:43 | 48.18293 | 15.48289 | 83° | 58km/h | 5674m | -9.1m/s | -12.4°C | 2.5% | 0hPa | 2.7V | 00:00:00 | 00:00:00 | 00:00:00 | |
| OM5KV | 2026-09-01 03:18:41 | 48.18291 | 15.48268 | 85° | 57km/h | 5683m | -9.3m/s | -12.5°C | 2.3% | 0hPa | 2.7V | 08:14:00 | 00:00:00 | 00:00:00 | |
| OM5KV | 2026-09-01 03:18:40 | 48.18290 | 15.48247 | 85° | 55km/h | 5692m | -9.2m/s | -12.6°C | 2.3% | 0hPa | 2.7V | 08:14:00 | 00:00:00 | 00:00:00 | |
| OE5WHR-10 | 2026-09-01 03:18:39 | 48.18287 | 15.48204 | 86° | 58km/h | 5710m | -8.3m/s | -12.7°C | 2.5% | 0hPa | 2.7V | 00:00:00 | 00:00:00 | 00:00:00 | |
| OE3OSB-13 | 2026-09-01 03:18:38 | 48.18286 | 15.48182 | 87° | 57km/h | 5718m | -8.7m/s | -12.8°C | 2.3% | -1.0hPa | 2.7V | 00:00:00 | 00:00:00 | 00:00:00 | |
| OM5KV | 2026-09-01 03:18:36 | 48.18285 | 15.48160 | 86° | 58km/h | 5726m | -8.6m/s | -12.8°C | 2.3% | 0hPa | 2.7V | 08:14:00 | 00:00:00 | 00:00:00 | |
| PETON7-10 | 2026-09-01 03:18:34 | 48.18283 | 15.48094 | 86° | 58km/h | 5750m | -8.5m/s | -13.0°C | 2.5% | 0hPa | 2.7V | 00:00:00 | 00:00:00 | 00:00:00 | |
| PG1ADW-2 | 2026-09-01 03:18:32 | 48.18282 | 15.48050 | 89° | 60km/h | 5765m | -7.7m/s | -13.1°C | 2.5% | 0hPa | 2.7V | 00:00:00 | 01:29:30 | 00:00:00 | |
| OE5MMP-10 | 2026-09-01 03:18:30 | 48.18282 | 15.48006 | 89° | 60km/h | 5781m | -8.1m/s | -13.2°C | 2.5% | 0hPa | 2.7V | 00:00:00 | 01:29:28 | 00:00:00 | |
| OM5KV | 2026-09-01 03:18:29 | 48.18282 | 15.48006 | 90° | 60km/h | 5781m | -8.2m/s | -13.2°C | 2.3% | 0hPa | 2.7V | 08:14:00 | 00:00:00 | 00:00:00 | |
| OE5DRO-10 | 2026-09-01 03:18:24 | 48.18280 | 15.47874 | 88° | 60km/h | 5829m | -9.0m/s | -13.4°C | 2.4% | 0hPa | 2.7V | 00:00:00 | 00:00:00 | 00:00:00 | |
| OE5MMP-10 | 2026-09-01 03:18:20 | 48.18279 | 15.47782 | 91° | 60km/h | 5865m | -9.2m/s | -13.6°C | 2.3% | 0hPa | 2.7V | 00:00:00 | 01:29:18 | 00:00:00 | |
| PETON7-10 | 2026-09-01 03:18:19 | 48.18279 | 15.47760 | 88° | 58km/h | 5874m | -10.0m/s | -13.7°C | 2.3% | 0hPa | 2.6V | 00:00:00 | 01:29:17 | 00:00:00 | |
| OE5WHR-10 | 2026-09-01 03:18:18 | 48.18279 | 15.47737 | 89° | 60km/h | 5884m | -9.6m/s | -13.8°C | 2.3% | 0hPa | 2.6V | 00:00:00 | 00:00:00 | 00:00:00 | |
| OM5KV | 2026-09-01 03:18:13 | 48.18278 | 15.47647 | 87° | 58km/h | 5917m | -9.3m/s | -14.1°C | 2.1% | 0hPa | 2.6V | 08:15:00 | 00:00:00 | 00:00:00 | |
| PG1ADW-2 | 2026-09-01 03:18:12 | 48.18277 | 15.47601 | 89° | 60km/h | 5934m | -7.5m/s | -14.2°C | 2.4% | 0hPa | 2.6V | 00:00:00 | 00:00:00 | 00:00:00 | |
| OE5MMP-10 | 2026-09-01 03:18:10 | 48.18275 | 15.47556 | 87° | 60km/h | 5949m | -7.7m/s | -14.2°C | 2.4% | 0hPa | 2.6V | 00:00:00 | 01:29:08 | 00:00:00 | |
| OE5DXL-15 | 2026-09-01 03:18:09 | 48.18275 | 15.47534 | 85° | 60km/h | 5957m | -7.8m/s | -14.2°C | 2.4% | 0hPa | 2.6V | 00:00:00 | 00:00:00 | 00:00:00 | |
| OM5KV | 2026-09-01 03:18:08 | 48.18275 | 15.47534 | 86° | 57km/h | 5957m | -7.8m/s | -14.2°C | 2.1% | 0hPa | 2.6V | 08:15:00 | 00:00:00 | 00:00:00 | |
| OE3OSB-13 | 2026-09-01 03:18:07 | 48.18272 | 15.47491 | 83° | 57km/h | 5974m | -9.2m/s | -14.3°C | 2.3% | -1.0hPa | 2.6V | 00:00:00 | 00:00:00 | 00:00:00 | |
| OM5KV | 2026-09-01 03:18:06 | 48.18272 | 15.47490 | 85° | 58km/h | 5974m | -9.2m/s | -14.3°C | 2.3% | 0hPa | 2.6V | 08:15:00 | 00:00:00 | 00:00:00 | |
| OE5DRO-10 | 2026-09-01 03:18:05 | 48.18269 | 15.47447 | 85° | 60km/h | 5992m | -9.8m/s | -14.4°C | 2.6% | 0hPa | 2.6V | 00:00:00 | 00:00:00 | 00:00:00 | |
| PETON7-10 | 2026-09-01 03:18:04 | 48.18268 | 15.47424 | 86° | 60km/h | 6001m | -9.5m/s | -14.5°C | 2.6% | 0hPa | 2.6V | 00:00:00 | 00:00:00 | 00:00:00 | |
| OM5KV | 2026-09-01 03:18:02 | 48.18267 | 15.47401 | 87° | 62km/h | 6010m | -8.5m/s | -14.6°C | 2.4% | 0hPa | 2.7V | 08:15:00 | 00:00:00 | 00:00:00 | |
| OE5MMP-10 | 2026-09-01 03:18:00 | 48.18264 | 15.47333 | 87° | 60km/h | 6034m | -8.4m/s | -14.7°C | 2.8% | 0hPa | 2.7V | 00:00:00 | 01:28:58 | 00:00:00 | |
| S52SK | 2026-09-01 03:17:58 | 48.18263 | 15.47311 | 84° | 58km/h | 6042m | -8.2m/s | -14.8°C | 2.5% | 0hPa | 2.7V | 00:00:00 | 00:00:00 | 00:00:00 | |
| PG1ADW-2 | 2026-09-01 03:17:52 | 48.18256 | 15.47151 | 88° | 62km/h | 6098m | -9.0m/s | -15.1°C | 3.4% | 0hPa | 2.7V | 00:00:00 | 00:00:00 | 00:00:00 | |
| OE5MMP-10 | 2026-09-01 03:17:50 | 48.18256 | 15.47104 | 91° | 60km/h | 6115m | -7.4m/s | -15.2°C | 3.4% | 0hPa | 2.7V | 00:00:00 | 01:28:48 | 00:00:00 | |
| PETON7-10 | 2026-09-01 03:17:49 | 48.18256 | 15.47081 | 91° | 62km/h | 6122m | -8.2m/s | -15.3°C | 3.5% | 0hPa | 2.6V | 00:00:00 | 00:00:00 | 00:00:00 | |
| OM5KV | 2026-09-01 03:17:47 | 48.18256 | 15.47058 | 91° | 60km/h | 6130m | -7.9m/s | -15.4°C | 3.2% | 0hPa | 2.6V | 08:15:00 | 00:00:00 | 00:00:00 | |
| OE5DRO-10 | 2026-09-01 03:17:46 | 48.18257 | 15.47012 | 90° | 64km/h | 6146m | -8.7m/s | -15.4°C | 3.6% | 0hPa | 2.6V | 00:00:00 | 00:00:00 | 00:00:00 | |
| OM5KV | 2026-09-01 03:17:43 | 48.18257 | 15.46967 | 90° | 62km/h | 6163m | -9.5m/s | -15.6°C | 3.4% | 0hPa | 2.7V | 08:15:00 | 00:00:00 | 00:00:00 | |
| OE5MMP-10 | 2026-09-01 03:17:40 | 48.18258 | 15.46874 | 92° | 66km/h | 6199m | -9.6m/s | -15.8°C | 3.8% | 0hPa | 2.7V | 00:00:00 | 01:28:38 | 00:00:00 | |
| OE5DXL-15 | 2026-09-01 03:17:39 | 48.18258 | 15.46850 | 92° | 73km/h | 6209m | -10.5m/s | -15.9°C | 3.9% | 0hPa | 2.7V | 00:00:00 | 00:00:00 | 00:00:00 | |
| OE3JTB-15 | 2026-09-01 03:17:36 | 48.18261 | 15.46778 | 96° | 73km/h | 6235m | -8.2m/s | -16.1°C | 4.1% | 0hPa | 2.7V | 00:00:00 | 01:28:34 | 00:00:00 | |
| OM5KV | 2026-09-01 03:17:35 | 48.18261 | 15.46778 | 96° | 64km/h | 6235m | -8.2m/s | -16.1°C | 3.8% | 0hPa | 2.7V | 08:15:00 | 00:00:00 | 00:00:00 | |
| PETON7-10 | 2026-09-01 03:17:34 | 48.18264 | 15.46730 | 94° | 71km/h | 6251m | -8.6m/s | -16.2°C | 4.2% | 0hPa | 2.7V | 00:00:00 | 01:28:32 | 00:00:00 | |
| PG1ADW-2 | 2026-09-01 03:17:32 | 48.18266 | 15.46679 | 95° | 75km/h | 6268m | -7.5m/s | -16.3°C | 4.3% | 0hPa | 2.7V | 00:00:00 | 00:00:00 | 00:00:00 | |
| OM5KV | 2026-09-01 03:17:31 | 48.18266 | 15.46679 | 96° | 66km/h | 6268m | -7.5m/s | -16.3°C | 3.9% | 0hPa | 2.6V | 08:15:00 | 00:00:00 | 00:00:00 | |
| OE5MMP-10 | 2026-09-01 03:17:30 | 48.18269 | 15.46628 | 95° | 73km/h | 6284m | -8.7m/s | -16.4°C | 4.3% | 0hPa | 2.6V | 00:00:00 | 01:28:28 | 00:00:00 | |
| OM5KV | 2026-09-01 03:17:29 | 48.18269 | 15.46628 | 96° | 71km/h | 6284m | -8.8m/s | -16.4°C | 4.0% | 0hPa | 2.6V | 08:15:00 | 00:00:00 | 00:00:00 | |
| OE5DRO-10 | 2026-09-01 03:17:27 | 48.18274 | 15.46550 | 95° | 78km/h | 6308m | -8.4m/s | -16.6°C | 4.3% | 0hPa | 2.6V | 00:00:00 | 00:00:00 | 00:00:00 | |
| OE5MMP-10 | 2026-09-01 03:17:20 | 48.18286 | 15.46356 | 96° | 80km/h | 6365m | -8.8m/s | -16.7°C | 3.6% | 0hPa | 2.6V | 08:15:00 | 01:28:18 | 00:00:00 | |
| PETON7-10 | 2026-09-01 03:17:19 | 48.18287 | 15.46328 | 94° | 80km/h | 6374m | -8.8m/s | -16.7°C | 3.3% | 0hPa | 2.7V | 00:00:00 | 00:00:00 | 00:00:00 | |
| PG1ADW-2 | 2026-09-01 03:17:12 | 48.18299 | 15.46117 | 94° | 82km/h | 6435m | -9.8m/s | -16.8°C | 3.7% | 0hPa | 2.7V | 00:00:00 | 01:28:10 | 00:00:00 | |
| OM5KV | 2026-09-01 03:17:11 | 48.18299 | 15.46117 | 95° | 82km/h | 6435m | -9.8m/s | -16.9°C | 3.4% | 0hPa | 2.7V | 08:16:00 | 00:00:00 | 00:00:00 | |
| OE5MMP-10 | 2026-09-01 03:17:10 | 48.18302 | 15.46055 | 94° | 82km/h | 6455m | -10.6m/s | -16.9°C | 4.5% | 0hPa | 2.7V | 00:00:00 | 01:28:08 | 00:00:00 | |
| OE5DXL-15 | 2026-09-01 03:17:09 | 48.18303 | 15.46024 | 94° | 84km/h | 6465m | -10.1m/s | -17.0°C | 4.8% | 0hPa | 2.7V | 00:00:00 | 00:00:00 | 00:00:00 | |
| OE5DRO-10 | 2026-09-01 03:17:08 | 48.18304 | 15.45994 | 94° | 84km/h | 6475m | -9.5m/s | -17.0°C | 5.3% | 0hPa | 2.7V | 00:00:00 | 00:00:00 | 00:00:00 | |
| OE3JTB-15 | 2026-09-01 03:17:07 | 48.18306 | 15.45964 | 95° | 84km/h | 6485m | -10.5m/s | -17.1°C | 5.8% | 0hPa | 2.7V | 00:00:00 | 00:00:00 | 00:00:00 | |
| OE3OSB-13 | 2026-09-01 03:17:05 | 48.18309 | 15.45902 | 94° | 82km/h | 6505m | -11.0m/s | -17.3°C | 6.9% | -1.0hPa | 2.7V | 00:00:00 | 00:00:00 | 00:00:00 | |
| PETON7-10 | 2026-09-01 03:17:04 | 48.18311 | 15.45870 | 95° | 84km/h | 6516m | -10.4m/s | -17.3°C | 7.8% | 0hPa | 2.7V | 00:00:00 | 00:00:00 | 00:00:00 | |
| OE5MMP-10 | 2026-09-01 03:17:00 | 48.18316 | 15.45746 | 93° | 84km/h | 6554m | -9.3m/s | -17.6°C | 8.9% | 0hPa | 2.7V | 00:00:00 | 01:27:58 | 00:00:00 | |
| OM5KV | 2026-09-01 03:16:59 | 48.18316 | 15.45746 | 93° | 82km/h | 6554m | -9.4m/s | -17.7°C | 8.4% | 0hPa | 2.7V | 08:16:00 | 00:00:00 | 00:00:00 | |
| OM5KV | 2026-09-01 03:16:54 | 48.18320 | 15.45589 | 93° | 86km/h | 6598m | -9.8m/s | -18.0°C | 9.1% | 0hPa | 2.7V | 08:16:00 | 00:00:00 | 00:00:00 | |
| S52SK | 2026-09-01 03:16:53 | 48.18321 | 15.45557 | 93° | 86km/h | 6607m | -9.6m/s | -18.1°C | 9.2% | 0hPa | 2.7V | 00:00:00 | 00:00:00 | 00:00:00 | |
| PG1ADW-2 | 2026-09-01 03:16:52 | 48.18323 | 15.45492 | 93° | 86km/h | 6625m | -9.7m/s | -18.2°C | 10.0% | 0hPa | 2.7V | 00:00:00 | 00:00:00 | 00:00:00 | |
| OE5MMP-10 | 2026-09-01 03:16:50 | 48.18324 | 15.45427 | 93° | 86km/h | 6645m | -8.7m/s | -18.4°C | 10.3% | 0hPa | 2.7V | 00:00:00 | 01:27:48 | 00:00:00 | |
| PETON7-10 | 2026-09-01 03:16:49 | 48.18325 | 15.45395 | 93° | 86km/h | 6653m | -8.9m/s | -18.4°C | 10.4% | 0hPa | 2.7V | 00:00:00 | 01:27:47 | 00:00:00 | |
| S52SK | 2026-09-01 03:16:47 | 48.18325 | 15.45362 | 93° | 86km/h | 6662m | -9.6m/s | -18.6°C | 10.1% | 0hPa | 2.7V | 00:00:00 | 00:00:00 | 00:00:00 | |
| OM5KV | 2026-09-01 03:16:43 | 48.18328 | 15.45233 | 93° | 86km/h | 6699m | -9.3m/s | -18.9°C | 10.4% | 0hPa | 2.7V | 08:16:00 | 00:00:00 | 00:00:00 | |
| DO3MHA-12 | 2026-09-01 03:16:42 | 48.18329 | 15.45167 | 92° | 88km/h | 6719m | -9.7m/s | -19.0°C | 11.1% | 0hPa | 2.7V | 00:00:00 | 01:27:40 | 00:00:00 | |
| OE5MMP-10 | 2026-09-01 03:16:40 | 48.18329 | 15.45102 | 91° | 88km/h | 6738m | -9.3m/s | -19.1°C | 11.3% | 0hPa | 2.7V | 00:00:00 | 01:27:38 | 00:00:00 | |
| OE5WHR-10 | 2026-09-01 03:16:39 | 48.18330 | 15.45069 | 91° | 91km/h | 6747m | -9.5m/s | -19.2°C | 11.3% | 0hPa | 2.7V | 00:00:00 | 00:00:00 | 00:00:00 | |
| OE3JTB-15 | 2026-09-01 03:16:36 | 48.18330 | 15.44971 | 91° | 97km/h | 6774m | -9.8m/s | -19.4°C | 11.5% | 0hPa | 2.6V | 00:00:00 | 00:00:00 | 00:00:00 | |
| OM5KV | 2026-09-01 03:16:35 | 48.18330 | 15.44971 | 91° | 88km/h | 6774m | -9.9m/s | -19.5°C | 10.9% | 0hPa | 2.6V | 08:16:00 | 00:00:00 | 00:00:00 | |
| PETON7-10 | 2026-09-01 03:16:34 | 48.18329 | 15.44905 | 88° | 93km/h | 6792m | -8.8m/s | -19.5°C | 11.4% | 0hPa | 2.6V | 08:16:00 | 00:00:00 | 00:00:00 | |
| DO3MHA-12 | 2026-09-01 03:16:32 | 48.18328 | 15.44839 | 88° | 93km/h | 6808m | -9.1m/s | -19.7°C | 11.5% | 0hPa | 2.7V | 00:00:00 | 01:27:30 | 00:00:00 | |
| OE5MMP-10 | 2026-09-01 03:16:30 | 48.18327 | 15.44772 | 89° | 93km/h | 6825m | -9.6m/s | -19.8°C | 11.6% | 0hPa | 2.7V | 00:00:00 | 01:27:28 | 00:00:00 | |
| OM5KV | 2026-09-01 03:16:27 | 48.18325 | 15.44704 | 89° | 91km/h | 6843m | -10.3m/s | -20.0°C | 11.1% | 0hPa | 2.7V | 08:17:00 | 00:00:00 | 00:00:00 | |
| DO3MHA-12 | 2026-09-01 03:16:22 | 48.18321 | 15.44494 | 88° | 97km/h | 6899m | -9.9m/s | -20.4°C | 12.6% | 0hPa | 2.7V | 08:16:00 | 01:27:20 | 00:00:00 | |
| OM5KV | 2026-09-01 03:16:21 | 48.18321 | 15.44494 | 89° | 95km/h | 6899m | -10.0m/s | -20.5°C | 11.9% | 0hPa | 2.6V | 08:17:00 | 00:00:00 | 00:00:00 | |
| OE5MMP-10 | 2026-09-01 03:16:20 | 48.18319 | 15.44423 | 88° | 97km/h | 6917m | -10.1m/s | -20.5°C | 12.2% | 0hPa | 2.6V | 00:00:00 | 01:27:18 | 00:00:00 | |
| PETON7-10 | 2026-09-01 03:16:19 | 48.18318 | 15.44386 | 88° | 97km/h | 6927m | -9.8m/s | -20.6°C | 12.1% | 0hPa | 2.7V | 00:00:00 | 00:00:00 | 00:00:00 | |
| OE5WHR-10 | 2026-09-01 03:16:18 | 48.18317 | 15.44350 | 88° | 97km/h | 6936m | -9.5m/s | -20.6°C | 11.9% | 0hPa | 2.7V | 00:00:00 | 00:00:00 | 00:00:00 | |
| OM5KV | 2026-09-01 03:16:17 | 48.18317 | 15.44350 | 89° | 97km/h | 6936m | -9.5m/s | -20.7°C | 11.3% | 0hPa | 2.7V | 08:17:00 | 00:00:00 | 00:00:00 | |
| OM5KV | 2026-09-01 03:16:16 | 48.18316 | 15.44314 | 89° | 97km/h | 6945m | -9.5m/s | -20.8°C | 11.3% | 0hPa | 2.7V | 08:17:00 | 00:00:00 | 00:00:00 | |
| DO3MHA-12 | 2026-09-01 03:16:12 | 48.18310 | 15.44129 | 88° | 97km/h | 6994m | -8.3m/s | -21.0°C | 13.7% | 0hPa | 2.7V | 00:00:00 | 01:27:10 | 00:00:00 | |
| OE5DRO-10 | 2026-09-01 03:16:11 | 48.18309 | 15.44092 | 88° | 97km/h | 7002m | -8.6m/s | -21.0°C | 15.0% | 0hPa | 2.7V | 00:00:00 | 00:00:00 | 00:00:00 | |
| OE5MMP-10 | 2026-09-01 03:16:10 | 48.18308 | 15.44056 | 88° | 97km/h | 7011m | -9.0m/s | -21.1°C | 16.0% | 0hPa | 2.7V | 00:00:00 | 01:27:08 | 00:00:00 | |
| OE5DXL-15 | 2026-09-01 03:16:09 | 48.18307 | 15.44019 | 89° | 99km/h | 7020m | -8.9m/s | -21.2°C | 17.0% | 0hPa | 2.7V | 00:00:00 | 00:00:00 | 00:00:00 | |
| OM5KV | 2026-09-01 03:16:05 | 48.18305 | 15.43908 | 89° | 99km/h | 7045m | -8.8m/s | -21.5°C | 18.6% | 0hPa | 2.7V | 08:17:00 | 00:00:00 | 00:00:00 | |
| PETON7-10 | 2026-09-01 03:16:04 | 48.18303 | 15.43833 | 88° | 97km/h | 7062m | -8.4m/s | -21.6°C | 22.2% | 0hPa | 2.7V | 00:00:00 | 01:27:02 | 00:00:00 | |
| DO3MHA-12 | 2026-09-01 03:16:02 | 48.18301 | 15.43760 | 88° | 97km/h | 7079m | -8.8m/s | -21.7°C | 25.1% | 0hPa | 2.7V | 00:00:00 | 01:27:00 | 00:00:00 | |
| OE5MMP-10 | 2026-09-01 03:16:00 | 48.18299 | 15.43687 | 87° | 97km/h | 7095m | -8.8m/s | -21.9°C | 25.7% | 0hPa | 2.7V | 00:00:00 | 01:26:58 | 00:00:00 | |
| OM5KV | 2026-09-01 03:15:59 | 48.18299 | 15.43687 | 87° | 97km/h | 7095m | -8.9m/s | -21.9°C | 24.7% | 0hPa | 2.7V | 08:17:00 | 00:00:00 | 00:00:00 | |
| OM5KV | 2026-09-01 03:15:55 | 48.18295 | 15.43542 | 88° | 97km/h | 7129m | -8.9m/s | -22.2°C | 26.6% | 0hPa | 2.7V | 08:17:00 | 00:00:00 | 00:00:00 | |
| OE5WHR-10 | 2026-09-01 03:15:54 | 48.18292 | 15.43470 | 88° | 97km/h | 7146m | -9.2m/s | -22.4°C | 29.1% | 0hPa | 2.7V | 00:00:00 | 01:26:52 | 00:00:00 | |
| OM5KV | 2026-09-01 03:15:53 | 48.18292 | 15.43470 | 88° | 99km/h | 7146m | -9.2m/s | -22.4°C | 28.0% | 0hPa | 2.7V | 08:17:00 | 00:00:00 | 00:00:00 | |
| DO3MHA-12 | 2026-09-01 03:15:52 | 48.18290 | 15.43397 | 88° | 99km/h | 7162m | -8.8m/s | -22.5°C | 31.0% | 0hPa | 2.7V | 00:00:00 | 01:26:50 | 00:00:00 | |
| OE5MMP-10 | 2026-09-01 03:15:50 | 48.18289 | 15.43324 | 88° | 99km/h | 7179m | -9.1m/s | -22.7°C | 31.7% | 0hPa | 2.7V | 08:17:00 | 01:26:48 | 00:00:00 | |
| PETON7-10 | 2026-09-01 03:15:49 | 48.18288 | 15.43288 | 88° | 99km/h | 7188m | -9.6m/s | -22.8°C | 32.7% | 0hPa | 2.6V | 00:00:00 | 00:00:00 | 00:00:00 | |
| OM5KV | 2026-09-01 03:15:47 | 48.18288 | 15.43251 | 89° | 99km/h | 7197m | -9.5m/s | -22.9°C | 31.9% | 0hPa | 2.6V | 08:17:00 | 00:00:00 | 00:00:00 | |
| OM5KV | 2026-09-01 03:15:43 | 48.18286 | 15.43105 | 90° | 99km/h | 7233m | -10.1m/s | -23.2°C | 34.3% | 0hPa | 2.6V | 08:17:00 | 00:00:00 | 00:00:00 | |
| DO3MHA-12 | 2026-09-01 03:15:42 | 48.18285 | 15.43032 | 90° | 99km/h | 7251m | -9.8m/s | -23.4°C | 37.5% | 0hPa | 2.6V | 00:00:00 | 01:26:40 | 00:00:00 | |
| OE5MMP-10 | 2026-09-01 03:15:40 | 48.18285 | 15.42959 | 90° | 97km/h | 7269m | -9.7m/s | -23.5°C | 40.3% | 0hPa | 2.6V | 00:00:00 | 01:26:38 | 00:00:00 | |
| OE5DXL-15 | 2026-09-01 03:15:39 | 48.18284 | 15.42923 | 90° | 97km/h | 7278m | -9.9m/s | -23.6°C | 40.7% | 0hPa | 2.6V | 00:00:00 | 00:00:00 | 00:00:00 | |
| OM5KV | 2026-09-01 03:15:37 | 48.18284 | 15.42886 | 91° | 99km/h | 7288m | -9.8m/s | -23.7°C | 39.8% | 0hPa | 2.6V | 08:18:00 | 00:00:00 | 00:00:00 | |
| OE3JTB-15 | 2026-09-01 03:15:35 | 48.18284 | 15.42777 | 91° | 97km/h | 7315m | -9.7m/s | -23.9°C | 42.3% | 0hPa | 2.6V | 00:00:00 | 00:00:00 | 00:00:00 | |
| PETON7-10 | 2026-09-01 03:15:34 | 48.18285 | 15.42741 | 91° | 95km/h | 7324m | -9.7m/s | -24.0°C | 42.7% | 0hPa | 2.7V | 00:00:00 | 00:00:00 | 00:00:00 | |
| S52SK | 2026-09-01 03:15:33 | 48.18284 | 15.42741 | 91° | 97km/h | 7324m | -9.7m/s | -24.1°C | 41.2% | 0hPa | 2.7V | 00:00:00 | 00:00:00 | 00:00:00 | |
| DO3MHA-12 | 2026-09-01 03:15:32 | 48.18285 | 15.42668 | 92° | 99km/h | 7343m | -9.3m/s | -24.2°C | 43.6% | 0hPa | 2.7V | 00:00:00 | 01:26:30 | 00:00:00 | |
| OE5MMP-10 | 2026-09-01 03:15:30 | 48.18286 | 15.42596 | 92° | 95km/h | 7361m | -8.7m/s | -24.3°C | 44.3% | 0hPa | 2.7V | 00:00:00 | 01:26:28 | 00:00:00 | |
| OM5KV | 2026-09-01 03:15:28 | 48.18287 | 15.42560 | 94° | 95km/h | 7370m | -8.8m/s | -24.5°C | 43.3% | 0hPa | 2.7V | 08:18:00 | 00:00:00 | 00:00:00 | |
| S52SK | 2026-09-01 03:15:27 | 48.18288 | 15.42524 | 94° | 95km/h | 7379m | -8.5m/s | -24.6°C | 43.8% | 0hPa | 2.7V | 00:00:00 | 00:00:00 | 00:00:00 | |
| OM5KV | 2026-09-01 03:15:26 | 48.18289 | 15.42489 | 94° | 93km/h | 7387m | -8.6m/s | -24.6°C | 44.7% | 0hPa | 2.7V | 08:18:00 | 00:00:00 | 00:00:00 | |
| OM5KV | 2026-09-01 03:15:22 | 48.18295 | 15.42347 | 95° | 95km/h | 7421m | -8.8m/s | -24.9°C | 48.3% | 0hPa | 2.7V | 08:18:00 | 00:00:00 | 00:00:00 | |
| OE5MMP-10 | 2026-09-01 03:15:20 | 48.18299 | 15.42240 | 94° | 97km/h | 7450m | -10.6m/s | -25.1°C | 52.4% | 0hPa | 2.7V | 00:00:00 | 01:26:18 | 00:00:00 | |
| PETON7-10 | 2026-09-01 03:15:19 | 48.18300 | 15.42204 | 94° | 97km/h | 7461m | -10.8m/s | -25.2°C | 54.3% | 0hPa | 2.6V | 00:00:00 | 01:26:17 | 00:00:00 | |
| OM5KV | 2026-09-01 03:15:17 | 48.18301 | 15.42168 | 94° | 95km/h | 7472m | -10.6m/s | -25.4°C | 53.8% | 0hPa | 2.6V | 08:18:00 | 00:00:00 | 00:00:00 | |
| OE5DRO-10 | 2026-09-01 03:15:14 | 48.18308 | 15.42024 | 95° | 97km/h | 7507m | -9.2m/s | -25.6°C | 59.3% | 0hPa | 2.6V | 00:00:00 | 00:00:00 | 00:00:00 | |
| OM5KV | 2026-09-01 03:15:13 | 48.18308 | 15.42024 | 96° | 97km/h | 7507m | -9.2m/s | -25.7°C | 57.4% | 0hPa | 2.6V | 08:18:00 | 00:00:00 | 00:00:00 | |
| PG1ADW-2 | 2026-09-01 03:15:12 | 48.18312 | 15.41952 | 95° | 97km/h | 7524m | -8.6m/s | -25.8°C | 60.1% | 0hPa | 2.6V | 00:00:00 | 00:00:00 | 00:00:00 | |
| OM5KV | 2026-09-01 03:15:11 | 48.18312 | 15.41952 | 96° | 95km/h | 7524m | -8.6m/s | -25.8°C | 58.2% | 0hPa | 2.6V | 08:18:00 | 00:00:00 | 00:00:00 | |
| OE5MMP-10 | 2026-09-01 03:15:10 | 48.18316 | 15.41880 | 95° | 97km/h | 7541m | -9.1m/s | -25.9°C | 60.4% | 0hPa | 2.6V | 00:00:00 | 01:26:08 | 00:00:00 | |
| OE5DXL-15 | 2026-09-01 03:15:09 | 48.18317 | 15.41843 | 95° | 97km/h | 7550m | -9.1m/s | -26.0°C | 60.7% | 0hPa | 2.6V | 00:00:00 | 00:00:00 | 00:00:00 | |
| OE5WHR-10 | 2026-09-01 03:15:08 | 48.18319 | 15.41807 | 95° | 97km/h | 7559m | -9.4m/s | -26.1°C | 60.9% | 0hPa | 2.7V | 00:00:00 | 00:00:00 | 00:00:00 | |
| OM5KV | 2026-09-01 03:15:07 | 48.18319 | 15.41807 | 95° | 97km/h | 7559m | -9.4m/s | -26.2°C | 59.0% | 0hPa | 2.7V | 08:18:00 | 00:00:00 | 00:00:00 | |
| OE3JTB-15 | 2026-09-01 03:15:06 | 48.18322 | 15.41734 | 95° | 99km/h | 7576m | -9.1m/s | -26.3°C | 61.1% | 0hPa | 2.7V | 00:00:00 | 00:00:00 | 00:00:00 | |
| PETON7-10 | 2026-09-01 03:15:04 | 48.18325 | 15.41661 | 94° | 97km/h | 7594m | -8.3m/s | -26.5°C | 61.5% | 0hPa | 2.7V | 00:00:00 | 00:00:00 | 00:00:00 | |
| OE3OSB-13 | 2026-09-01 03:15:01 | 48.18329 | 15.41552 | 93° | 95km/h | 7618m | -8.6m/s | -26.7°C | 59.8% | -1.0hPa | 2.6V | 00:00:00 | 00:00:00 | 00:00:00 | |
| OE5MMP-10 | 2026-09-01 03:15:00 | 48.18330 | 15.41516 | 94° | 97km/h | 7627m | -8.9m/s | -26.7°C | 62.2% | 0hPa | 2.6V | 00:00:00 | 01:25:58 | 00:00:00 | |
| OM5KV | 2026-09-01 03:14:56 | 48.18334 | 15.41408 | 93° | 97km/h | 7652m | -9.0m/s | -27.0°C | 61.6% | 0hPa | 2.6V | 08:18:00 | 00:00:00 | 00:00:00 | |
| OE5DRO-10 | 2026-09-01 03:14:55 | 48.18336 | 15.41335 | 91° | 99km/h | 7671m | -10.9m/s | -27.2°C | 64.0% | 0hPa | 2.6V | 00:00:00 | 00:00:00 | 00:00:00 | |
| OM5KV | 2026-09-01 03:14:54 | 48.18336 | 15.41335 | 92° | 97km/h | 7671m | -11.0m/s | -27.2°C | 62.0% | 0hPa | 2.6V | 08:18:00 | 00:00:00 | 00:00:00 | |
| PG1ADW-2 | 2026-09-01 03:14:52 | 48.18337 | 15.41227 | 91° | 99km/h | 7702m | -9.4m/s | -27.5°C | 65.9% | 0hPa | 2.6V | 00:00:00 | 00:00:00 | 00:00:00 | |
| OE5MMP-10 | 2026-09-01 03:14:50 | 48.18338 | 15.41155 | 91° | 99km/h | 7720m | -9.9m/s | -27.6°C | 66.9% | 0hPa | 2.6V | 00:00:00 | 01:25:48 | 00:00:00 | |
| PETON7-10 | 2026-09-01 03:14:49 | 48.18338 | 15.41118 | 91° | 99km/h | 7729m | -9.3m/s | -27.7°C | 67.4% | 0hPa | 2.6V | 00:00:00 | 00:00:00 | 00:00:00 | |
| OE5WHR-10 | 2026-09-01 03:14:47 | 48.18339 | 15.41045 | 91° | 99km/h | 7747m | -9.4m/s | -27.9°C | 68.1% | 0hPa | 2.6V | 00:00:00 | 01:25:45 | 00:00:00 | |
| OM5KV | 2026-09-01 03:14:43 | 48.18340 | 15.40934 | 92° | 99km/h | 7772m | -8.4m/s | -28.2°C | 67.0% | 0hPa | 2.6V | 08:19:00 | 00:00:00 | 00:00:00 | |
| OE5MMP-10 | 2026-09-01 03:14:40 | 48.18340 | 15.40786 | 91° | 99km/h | 7808m | -9.3m/s | -28.5°C | 69.8% | 0hPa | 2.6V | 00:00:00 | 01:25:38 | 00:00:00 | |
| OE5DXL-15 | 2026-09-01 03:14:39 | 48.18341 | 15.40749 | 91° | 99km/h | 7817m | -8.8m/s | -28.5°C | 69.6% | 0hPa | 2.6V | 00:00:00 | 00:00:00 | 00:00:00 | |
| OM5KV | 2026-09-01 03:14:38 | 48.18341 | 15.40749 | 91° | 99km/h | 7817m | -8.9m/s | -28.6°C | 67.3% | 0hPa | 2.6V | 08:19:00 | 00:00:00 | 00:00:00 | |
| OE3JTB-15 | 2026-09-01 03:14:37 | 48.18341 | 15.40675 | 91° | 99km/h | 7835m | -9.9m/s | -28.7°C | 69.7% | 0hPa | 2.6V | 00:00:00 | 01:25:35 | 00:00:00 | |
| OE5DRO-10 | 2026-09-01 03:14:36 | 48.18341 | 15.40638 | 91° | 99km/h | 7845m | -8.8m/s | -28.8°C | 70.3% | 0hPa | 2.6V | 00:00:00 | 00:00:00 | 00:00:00 | |
| PETON7-10 | 2026-09-01 03:14:34 | 48.18340 | 15.40563 | 90° | 99km/h | 7863m | -10.0m/s | -28.9°C | 70.7% | 0hPa | 2.6V | 00:00:00 | 01:25:32 | 00:00:00 | |
| OM5KV | 2026-09-01 03:14:33 | 48.18340 | 15.40563 | 90° | 100km/h | 7863m | -10.0m/s | -29.0°C | 68.3% | 0hPa | 2.6V | 08:19:00 | 00:00:00 | 00:00:00 | |
| OM5KV | 2026-09-01 03:14:32 | 48.18340 | 15.40525 | 91° | 99km/h | 7873m | -9.2m/s | -29.0°C | 68.3% | 0hPa | 2.6V | 08:19:00 | 00:00:00 | 00:00:00 | |
| OE5MMP-10 | 2026-09-01 03:14:30 | 48.18340 | 15.40413 | 90° | 97km/h | 7900m | -9.6m/s | -29.2°C | 71.8% | 0hPa | 2.6V | 00:00:00 | 01:25:28 | 00:00:00 | |
| OM5KV | 2026-09-01 03:14:28 | 48.18340 | 15.40375 | 90° | 97km/h | 7908m | -8.5m/s | -29.4°C | 70.2% | 0hPa | 2.6V | 08:19:00 | 00:00:00 | 00:00:00 | |
| OE5WHR-10 | 2026-09-01 03:14:26 | 48.18338 | 15.40264 | 89° | 99km/h | 7933m | -8.4m/s | -29.5°C | 70.1% | 0hPa | 2.6V | 00:00:00 | 00:00:00 | 00:00:00 | |
| OM5KV | 2026-09-01 03:14:22 | 48.18336 | 15.40153 | 89° | 97km/h | 7960m | -8.7m/s | -29.8°C | 66.2% | 0hPa | 2.6V | 08:19:00 | 00:00:00 | 00:00:00 | |
| S52SK | 2026-09-01 03:14:21 | 48.18335 | 15.40116 | 89° | 99km/h | 7968m | -8.9m/s | -29.9°C | 66.6% | 0hPa | 2.6V | 00:00:00 | 00:00:00 | 00:00:00 | |
| OE5MMP-10 | 2026-09-01 03:14:20 | 48.18333 | 15.40042 | 88° | 99km/h | 7986m | -8.7m/s | -30.0°C | 70.1% | 0hPa | 2.6V | 08:18:00 | 01:25:18 | 00:00:00 | |
| PETON7-10 | 2026-09-01 03:14:19 | 48.18332 | 15.40005 | 88° | 99km/h | 7994m | -8.0m/s | -30.1°C | 71.2% | 0hPa | 2.7V | 08:18:00 | 00:00:00 | 00:00:00 | |
| OE5DRO-10 | 2026-09-01 03:14:17 | 48.18330 | 15.39932 | 88° | 100km/h | 8011m | -9.4m/s | -30.2°C | 72.8% | 0hPa | 2.7V | 00:00:00 | 00:00:00 | 00:00:00 | |
| S52SK | 2026-09-01 03:14:15 | 48.18329 | 15.39894 | 89° | 100km/h | 8020m | -9.4m/s | -30.4°C | 70.9% | 0hPa | 2.7V | 00:00:00 | 00:00:00 | 00:00:00 | |
| PG1ADW-2 | 2026-09-01 03:14:12 | 48.18326 | 15.39744 | 89° | 100km/h | 8057m | -9.6m/s | -30.7°C | 74.4% | 0hPa | 2.7V | 00:00:00 | 00:00:00 | 00:00:00 | |
| OM5KV | 2026-09-01 03:14:11 | 48.18326 | 15.39744 | 89° | 100km/h | 8057m | -9.6m/s | -30.7°C | 71.7% | 0hPa | 2.7V | 08:19:00 | 00:00:00 | 00:00:00 | |
| OE5MMP-10 | 2026-09-01 03:14:10 | 48.18325 | 15.39668 | 89° | 99km/h | 8074m | -9.2m/s | -30.8°C | 75.2% | 0hPa | 2.7V | 00:00:00 | 01:25:08 | 00:00:00 | |
| OE5DXL-15 | 2026-09-01 03:14:09 | 48.18325 | 15.39630 | 90° | 100km/h | 8083m | -8.6m/s | -30.9°C | 75.8% | 0hPa | 2.7V | 00:00:00 | 00:00:00 | 00:00:00 | |
| OE3JTB-15 | 2026-09-01 03:14:08 | 48.18325 | 15.39592 | 90° | 100km/h | 8092m | -8.8m/s | -31.0°C | 76.7% | 0hPa | 2.7V | 08:19:00 | 00:00:00 | 00:00:00 | |
| OE5WHR-10 | 2026-09-01 03:14:05 | 48.18324 | 15.39480 | 90° | 100km/h | 8117m | -8.2m/s | -31.2°C | 79.6% | 0hPa | 2.7V | 00:00:00 | 00:00:00 | 00:00:00 | |
| PETON7-10 | 2026-09-01 03:14:04 | 48.18324 | 15.39444 | 90° | 100km/h | 8125m | -9.6m/s | -31.2°C | 79.4% | 0hPa | 2.7V | 00:00:00 | 00:00:00 | 00:00:00 | |
| OE3OSB-13 | 2026-09-01 03:13:59 | 48.18326 | 15.39216 | 92° | 99km/h | 8178m | -8.4m/s | -31.7°C | 79.7% | -1.0hPa | 2.7V | 00:00:00 | 00:00:00 | 00:00:00 | |
| OE5DRO-10 | 2026-09-01 03:13:58 | 48.18326 | 15.39216 | 93° | 100km/h | 8179m | -8.4m/s | -31.7°C | 82.7% | 0hPa | 2.7V | 08:19:00 | 00:00:00 | 00:00:00 | |
| OM5KV | 2026-09-01 03:13:57 | 48.18327 | 15.39216 | 93° | 99km/h | 8179m | -8.4m/s | -31.7°C | 79.8% | 0hPa | 2.6V | 08:19:00 | 00:00:00 | 00:00:00 | |
| OM5KV | 2026-09-01 03:13:53 | 48.18330 | 15.39066 | 92° | 99km/h | 8213m | -8.5m/s | -32.0°C | 83.2% | 0hPa | 2.6V | 00:00:00 | 00:00:00 | 00:00:00 | |
| DO3MHA-12 | 2026-09-01 03:13:52 | 48.18332 | 15.38991 | 91° | 102km/h | 8229m | -8.6m/s | -32.0°C | 88.8% | 0hPa | 2.6V | 00:00:00 | 01:24:50 | 00:00:00 | |
| OE5MMP-10 | 2026-09-01 03:13:50 | 48.18333 | 15.38916 | 92° | 102km/h | 8247m | -9.7m/s | -32.0°C | 88.9% | 0hPa | 2.6V | 00:00:00 | 01:24:48 | 00:00:00 | |
| PETON7-10 | 2026-09-01 03:13:49 | 48.18334 | 15.38878 | 92° | 102km/h | 8256m | -9.6m/s | -32.1°C | 89.0% | 0hPa | 2.7V | 00:00:00 | 01:24:47 | 00:00:00 | |
| OE5WHR-10 | 2026-09-01 03:13:44 | 48.18340 | 15.38683 | 93° | 102km/h | 8301m | -9.3m/s | -32.3°C | 87.8% | 0hPa | 2.7V | 00:00:00 | 01:24:42 | 00:00:00 | |
| DO3MHA-12 | 2026-09-01 03:13:42 | 48.18342 | 15.38606 | 93° | 102km/h | 8320m | -10.2m/s | -32.5°C | 86.8% | 0hPa | 2.7V | 00:00:00 | 01:24:40 | 00:00:00 | |
| OE5MMP-10 | 2026-09-01 03:13:40 | 48.18345 | 15.38530 | 93° | 102km/h | 8339m | -9.9m/s | -32.6°C | 87.1% | 0hPa | 2.7V | 00:00:00 | 01:24:38 | 00:00:00 | |
| OE5DXL-15 | 2026-09-01 03:13:39 | 48.18346 | 15.38491 | 92° | 102km/h | 8348m | -10.6m/s | -32.7°C | 87.2% | 0hPa | 2.7V | 00:00:00 | 00:00:00 | 00:00:00 | |
| PETON7-10 | 2026-09-01 03:13:34 | 48.18351 | 15.38295 | 92° | 100km/h | 8395m | -10.6m/s | -33.0°C | 84.7% | 0hPa | 2.7V | 00:00:00 | 00:00:00 | 00:00:00 | |
| DO3MHA-12 | 2026-09-01 03:13:32 | 48.18353 | 15.38217 | 94° | 100km/h | 8415m | -8.8m/s | -33.2°C | 84.7% | 0hPa | 2.7V | 00:00:00 | 01:24:30 | 00:00:00 | |
| OE5MMP-10 | 2026-09-01 03:13:30 | 48.18356 | 15.38141 | 93° | 100km/h | 8434m | -9.1m/s | -33.3°C | 83.0% | 0hPa | 2.7V | 00:00:00 | 01:24:28 | 00:00:00 | |
| OM5KV | 2026-09-01 03:13:27 | 48.18359 | 15.38065 | 94° | 99km/h | 8452m | -9.2m/s | -33.5°C | 78.6% | 0hPa | 2.7V | 08:19:00 | 00:00:00 | 00:00:00 | |
| OE5WHR-10 | 2026-09-01 03:13:23 | 48.18365 | 15.37875 | 93° | 104km/h | 8497m | -10.1m/s | -33.8°C | 81.5% | 0hPa | 2.7V | 00:00:00 | 00:00:00 | 00:00:00 | |
| DO3MHA-12 | 2026-09-01 03:13:22 | 48.18366 | 15.37836 | 92° | 102km/h | 8507m | -9.6m/s | -33.9°C | 81.5% | 0hPa | 2.7V | 08:19:00 | 01:24:20 | 00:00:00 | |
| OE5MMP-10 | 2026-09-01 03:13:20 | 48.18368 | 15.37760 | 93° | 102km/h | 8525m | -8.8m/s | -34.0°C | 81.0% | 0hPa | 2.6V | 00:00:00 | 01:24:18 | 00:00:00 | |
| DO3MHA-12 | 2026-09-01 03:13:12 | 48.18378 | 15.37451 | 93° | 106km/h | 8594m | -9.0m/s | -34.5°C | 77.7% | 0hPa | 2.6V | 00:00:00 | 01:24:10 | 00:00:00 | |
| OE3JTB-15 | 2026-09-01 03:13:10 | 48.18380 | 15.37372 | 92° | 106km/h | 8611m | -9.0m/s | -34.7°C | 77.9% | 0hPa | 2.6V | 00:00:00 | 01:24:08 | 00:00:00 | |
| OE5DXL-15 | 2026-09-01 03:13:09 | 48.18381 | 15.37333 | 92° | 106km/h | 8620m | -9.4m/s | -34.8°C | 77.9% | 0hPa | 2.6V | 00:00:00 | 00:00:00 | 00:00:00 | |
| OM5KV | 2026-09-01 03:13:06 | 48.18383 | 15.37253 | 93° | 108km/h | 8638m | -10.3m/s | -34.9°C | 74.2% | 0hPa | 2.6V | 08:20:00 | 00:00:00 | 00:00:00 | |
| PETON7-10 | 2026-09-01 03:13:04 | 48.18387 | 15.37133 | 94° | 106km/h | 8665m | -9.2m/s | -35.1°C | 78.7% | 0hPa | 2.6V | 00:00:00 | 01:24:02 | 00:00:00 | |
| OE5WHR-10 | 2026-09-01 03:13:02 | 48.18388 | 15.37053 | 92° | 106km/h | 8683m | -10.4m/s | -35.3°C | 79.7% | 0hPa | 2.6V | 00:00:00 | 00:00:00 | 00:00:00 | |
| OE5DRO-10 | 2026-09-01 03:13:01 | 48.18389 | 15.37014 | 92° | 106km/h | 8692m | -9.9m/s | -35.4°C | 80.4% | 0hPa | 2.6V | 00:00:00 | 00:00:00 | 00:00:00 | |
| OE5MMP-10 | 2026-09-01 03:13:00 | 48.18390 | 15.36973 | 92° | 106km/h | 8701m | -8.2m/s | -35.4°C | 80.6% | 0hPa | 2.6V | 00:00:00 | 01:23:58 | 00:00:00 | |
| DO3MHA-12 | 2026-09-01 03:12:56 | 48.18394 | 15.36814 | 93° | 104km/h | 8740m | -10.6m/s | -35.8°C | 82.1% | 0hPa | 2.6V | 00:00:00 | 01:23:54 | 00:00:00 | |
| OM5KV | 2026-09-01 03:12:55 | 48.18394 | 15.36814 | 93° | 102km/h | 8740m | -10.6m/s | -35.9°C | 78.6% | 0hPa | 2.6V | 08:20:00 | 00:00:00 | 00:00:00 | |
| S52SK | 2026-09-01 03:12:54 | 48.18394 | 15.36775 | 93° | 106km/h | 8750m | -10.7m/s | -35.9°C | 78.9% | 0hPa | 2.6V | 00:00:00 | 00:00:00 | 00:00:00 | |
| PG1ADW-2 | 2026-09-01 03:12:52 | 48.18397 | 15.36655 | 94° | 106km/h | 8780m | -9.4m/s | -36.1°C | 83.3% | 0hPa | 2.6V | 00:00:00 | 00:00:00 | 00:00:00 | |
| OE5MMP-10 | 2026-09-01 03:12:50 | 48.18400 | 15.36577 | 94° | 106km/h | 8798m | -9.7m/s | -36.3°C | 83.2% | 0hPa | 2.6V | 08:20:00 | 01:23:48 | 00:00:00 | |
| PETON7-10 | 2026-09-01 03:12:49 | 48.18401 | 15.36537 | 94° | 108km/h | 8807m | -9.6m/s | -36.4°C | 83.1% | 0hPa | 2.6V | 00:00:00 | 00:00:00 | 00:00:00 | |
| DO3MHA-12 | 2026-09-01 03:12:46 | 48.18406 | 15.36419 | 94° | 108km/h | 8836m | -9.4m/s | -36.6°C | 80.9% | 0hPa | 2.6V | 00:00:00 | 01:23:44 | 00:00:00 | |
| OM5KV | 2026-09-01 03:12:43 | 48.18409 | 15.36340 | 93° | 104km/h | 8855m | -10.1m/s | -36.7°C | 76.5% | 0hPa | 2.7V | 08:20:00 | 00:00:00 | 00:00:00 | |
| OE5DRO-10 | 2026-09-01 03:12:42 | 48.18410 | 15.36261 | 92° | 110km/h | 8873m | -9.6m/s | -36.7°C | 80.7% | 0hPa | 2.7V | 00:00:00 | 00:00:00 | 00:00:00 | |
| OE5WHR-10 | 2026-09-01 03:12:41 | 48.18411 | 15.36221 | 92° | 110km/h | 8882m | -9.8m/s | -36.8°C | 80.9% | 0hPa | 2.7V | 00:00:00 | 01:23:39 | 00:00:00 | |
| OE5MMP-10 | 2026-09-01 03:12:40 | 48.18412 | 15.36180 | 93° | 108km/h | 8892m | -8.7m/s | -36.9°C | 81.0% | 0hPa | 2.7V | 00:00:00 | 01:23:38 | 00:00:00 | |
| OE5DXL-15 | 2026-09-01 03:12:39 | 48.18414 | 15.36140 | 93° | 111km/h | 8900m | -10.0m/s | -36.9°C | 81.5% | 0hPa | 2.7V | 00:00:00 | 00:00:00 | 00:00:00 | |
| OM5KV | 2026-09-01 03:12:38 | 48.18414 | 15.36140 | 93° | 110km/h | 8900m | -10.0m/s | -37.0°C | 77.8% | 0hPa | 2.7V | 08:20:00 | 00:00:00 | 00:00:00 | |
| DO3MHA-12 | 2026-09-01 03:12:36 | 48.18417 | 15.36017 | 93° | 110km/h | 8929m | -10.2m/s | -37.2°C | 82.5% | 0hPa | 2.7V | 00:00:00 | 01:23:34 | 00:00:00 | |
| PETON7-10 | 2026-09-01 03:12:34 | 48.18419 | 15.35936 | 94° | 110km/h | 8950m | -10.2m/s | -37.4°C | 82.1% | 0hPa | 2.7V | 00:00:00 | 00:00:00 | 00:00:00 | |
| OM5KV | 2026-09-01 03:12:33 | 48.18419 | 15.35936 | 94° | 110km/h | 8950m | -10.3m/s | -37.4°C | 78.4% | 0hPa | 2.7V | 08:20:00 | 00:00:00 | 00:00:00 | |
| PG1ADW-2 | 2026-09-01 03:12:32 | 48.18423 | 15.35854 | 94° | 113km/h | 8969m | -10.0m/s | -37.5°C | 80.6% | 0hPa | 2.7V | 00:00:00 | 00:00:00 | 00:00:00 | |
| OE5MMP-10 | 2026-09-01 03:12:30 | 48.18427 | 15.35773 | 94° | 111km/h | 8989m | -9.6m/s | -37.6°C | 80.6% | 0hPa | 2.6V | 00:00:00 | 01:23:28 | 00:00:00 | |
| OM5KV | 2026-09-01 03:12:27 | 48.18430 | 15.35693 | 94° | 110km/h | 9006m | -9.7m/s | -37.8°C | 76.7% | 0hPa | 2.6V | 08:20:00 | 00:00:00 | 00:00:00 | |
| OE3OSB-13 | 2026-09-01 03:12:25 | 48.18435 | 15.35568 | 94° | 111km/h | 9031m | -8.9m/s | -38.0°C | 75.4% | -1.0hPa | 2.6V | 00:00:00 | 00:00:00 | 00:00:00 | |
| OE5DRO-10 | 2026-09-01 03:12:23 | 48.18439 | 15.35484 | 95° | 117km/h | 9050m | -9.8m/s | -38.1°C | 78.6% | 0hPa | 2.6V | 00:00:00 | 00:00:00 | 00:00:00 | |
| OM5KV | 2026-09-01 03:12:21 | 48.18441 | 15.35441 | 96° | 113km/h | 9060m | -9.6m/s | -38.2°C | 74.2% | 0hPa | 2.6V | 08:20:00 | 00:00:00 | 00:00:00 | |
| OE5MMP-10 | 2026-09-01 03:12:20 | 48.18446 | 15.35357 | 94° | 115km/h | 9077m | -8.2m/s | -38.3°C | 76.1% | 0hPa | 2.6V | 00:00:00 | 01:23:18 | 00:00:00 | |
| PETON7-10 | 2026-09-01 03:12:19 | 48.18448 | 15.35314 | 95° | 117km/h | 9085m | -9.4m/s | -38.3°C | 74.0% | 0hPa | 2.6V | 00:00:00 | 01:23:17 | 00:00:00 | |
| OE3JTB-15 | 2026-09-01 03:12:12 | 48.18467 | 15.35009 | 96° | 119km/h | 9149m | -9.4m/s | -38.6°C | 64.7% | 0hPa | 2.6V | 00:00:00 | 00:00:00 | 00:00:00 | |
| OE5MMP-10 | 2026-09-01 03:12:10 | 48.18473 | 15.34921 | 97° | 119km/h | 9166m | -8.4m/s | -38.7°C | 64.2% | 0hPa | 2.6V | 00:00:00 | 01:23:08 | 00:00:00 | |
| OE5DXL-15 | 2026-09-01 03:12:09 | 48.18476 | 15.34877 | 96° | 120km/h | 9174m | -8.7m/s | -38.8°C | 64.4% | 0hPa | 2.6V | 08:20:00 | 00:00:00 | 00:00:00 | |
| PETON7-10 | 2026-09-01 03:12:04 | 48.18492 | 15.34653 | 97° | 120km/h | 9221m | -9.5m/s | -39.1°C | 66.8% | 0hPa | 2.6V | 08:21:00 | 00:00:00 | 00:00:00 | |
| OE5MMP-10 | 2026-09-01 03:12:00 | 48.18505 | 15.34473 | 96° | 120km/h | 9257m | -9.9m/s | -39.5°C | 68.7% | 0hPa | 2.7V | 00:00:00 | 01:22:58 | 00:00:00 | |
| OE5WHR-10 | 2026-09-01 03:11:54 | 48.18523 | 15.34203 | 96° | 120km/h | 9312m | -9.7m/s | -39.9°C | 67.5% | 0hPa | 2.7V | 00:00:00 | 00:00:00 | 00:00:00 | |
| PG1ADW-2 | 2026-09-01 03:11:52 | 48.18530 | 15.34112 | 96° | 119km/h | 9331m | -10.3m/s | -40.0°C | 66.3% | 0hPa | 2.7V | 00:00:00 | 01:22:50 | 00:00:00 | |
| OE5MMP-10 | 2026-09-01 03:11:50 | 48.18536 | 15.34020 | 98° | 120km/h | 9352m | -9.3m/s | -40.2°C | 65.8% | 0hPa | 2.7V | 00:00:00 | 01:22:48 | 00:00:00 | |
| PETON7-10 | 2026-09-01 03:11:49 | 48.18540 | 15.33975 | 98° | 119km/h | 9361m | -8.7m/s | -40.2°C | 65.4% | 0hPa | 2.6V | 00:00:00 | 00:00:00 | 00:00:00 | |
| S52SK | 2026-09-01 03:11:46 | 48.18547 | 15.33884 | 98° | 120km/h | 9381m | -9.8m/s | -40.4°C | 60.6% | 0hPa | 2.6V | 00:00:00 | 00:00:00 | 00:00:00 | |
| OE5DRO-10 | 2026-09-01 03:11:45 | 48.18555 | 15.33795 | 98° | 119km/h | 9400m | -10.4m/s | -40.5°C | 65.3% | 0hPa | 2.6V | 00:00:00 | 00:00:00 | 00:00:00 | |
| OE3JTB-15 | 2026-09-01 03:11:43 | 48.18562 | 15.33706 | 97° | 120km/h | 9418m | -9.6m/s | -40.7°C | 65.8% | 0hPa | 2.6V | 00:00:00 | 01:22:41 | 00:00:00 | |
| OE5MMP-10 | 2026-09-01 03:11:40 | 48.18574 | 15.33572 | 99° | 119km/h | 9448m | -10.0m/s | -40.9°C | 66.1% | 0hPa | 2.6V | 00:00:00 | 01:22:38 | 00:00:00 | |
| OE5DXL-15 | 2026-09-01 03:11:39 | 48.18579 | 15.33528 | 100° | 120km/h | 9457m | -8.7m/s | -41.0°C | 65.9% | 0hPa | 2.6V | 00:00:00 | 00:00:00 | 00:00:00 | |
| PETON7-10 | 2026-09-01 03:11:34 | 48.18602 | 15.33309 | 100° | 120km/h | 9503m | -10.6m/s | -41.4°C | 64.6% | 0hPa | 2.6V | 00:00:00 | 01:22:32 | 00:00:00 | |
| PG1ADW-2 | 2026-09-01 03:11:32 | 48.18613 | 15.33219 | 101° | 120km/h | 9522m | -8.8m/s | -41.5°C | 64.9% | 0hPa | 2.6V | 00:00:00 | 00:00:00 | 00:00:00 | |
| OE5WHR-10 | 2026-09-01 03:11:31 | 48.18618 | 15.33175 | 101° | 120km/h | 9531m | -8.8m/s | -41.6°C | 64.8% | 0hPa | 2.7V | 00:00:00 | 01:22:29 | 00:00:00 | |
| OE5MMP-10 | 2026-09-01 03:11:30 | 48.18624 | 15.33131 | 102° | 120km/h | 9540m | -9.6m/s | -41.6°C | 64.5% | 0hPa | 2.7V | 00:00:00 | 01:22:28 | 00:00:00 | |
| OE5DRO-10 | 2026-09-01 03:11:26 | 48.18648 | 15.32954 | 100° | 120km/h | 9577m | -8.5m/s | -41.9°C | 64.5% | 0hPa | 2.7V | 00:00:00 | 00:00:00 | 00:00:00 | |
| OE3OSB-13 | 2026-09-01 03:11:23 | 48.18665 | 15.32820 | 100° | 120km/h | 9602m | -10.0m/s | -42.1°C | 60.5% | -1.0hPa | 2.7V | 00:00:00 | 00:00:00 | 00:00:00 | |
| OE5MMP-10 | 2026-09-01 03:11:20 | 48.18681 | 15.32684 | 101° | 122km/h | 9632m | -10.1m/s | -42.3°C | 64.1% | 0hPa | 2.7V | 08:21:00 | 01:22:18 | 00:00:00 | |
| PETON7-10 | 2026-09-01 03:11:19 | 48.18687 | 15.32639 | 101° | 122km/h | 9641m | -9.6m/s | -42.4°C | 63.5% | 0hPa | 2.7V | 00:00:00 | 00:00:00 | 00:00:00 | |
| OE3JTB-15 | 2026-09-01 03:11:14 | 48.18716 | 15.32412 | 101° | 122km/h | 9690m | -10.0m/s | -42.6°C | 58.9% | 0hPa | 2.7V | 00:00:00 | 00:00:00 | 00:00:00 | |
| PG1ADW-2 | 2026-09-01 03:11:12 | 48.18727 | 15.32322 | 100° | 122km/h | 9710m | -9.9m/s | -42.8°C | 59.1% | 0hPa | 2.6V | 00:00:00 | 00:00:00 | 00:00:00 | |
| OE5MMP-10 | 2026-09-01 03:11:10 | 48.18737 | 15.32232 | 100° | 122km/h | 9728m | -10.4m/s | -42.9°C | 59.2% | 0hPa | 2.6V | 00:00:00 | 01:22:08 | 00:00:00 | |
| OE5DXL-15 | 2026-09-01 03:11:09 | 48.18742 | 15.32186 | 100° | 122km/h | 9739m | -10.2m/s | -43.0°C | 59.3% | 0hPa | 2.6V | 00:00:00 | 00:00:00 | 00:00:00 | |
| OE5DRO-10 | 2026-09-01 03:11:07 | 48.18753 | 15.32096 | 101° | 122km/h | 9759m | -10.8m/s | -43.2°C | 59.5% | 0hPa | 2.6V | 08:22:00 | 00:00:00 | 00:00:00 | |
| PETON7-10 | 2026-09-01 03:11:04 | 48.18771 | 15.31961 | 100° | 122km/h | 9788m | -9.7m/s | -43.5°C | 59.9% | 0hPa | 2.6V | 00:00:00 | 00:00:00 | 00:00:00 | |
| OE5WHR-10 | 2026-09-01 03:11:00 | 48.18792 | 15.31781 | 101° | 124km/h | 9828m | -10.7m/s | -43.8°C | 59.1% | 0hPa | 2.6V | 00:00:00 | 00:00:00 | 00:00:00 | |
| PG1ADW-2 | 2026-09-01 03:10:52 | 48.18837 | 15.31416 | 102° | 124km/h | 9904m | -9.9m/s | -44.5°C | 59.6% | 0hPa | 2.6V | 00:00:00 | 00:00:00 | 00:00:00 | |
| OE5MMP-10 | 2026-09-01 03:10:50 | 48.18849 | 15.31324 | 102° | 124km/h | 9923m | -10.1m/s | -44.6°C | 58.9% | 0hPa | 2.6V | 00:00:00 | 01:21:48 | 00:00:00 | |
| PETON7-10 | 2026-09-01 03:10:49 | 48.18855 | 15.31278 | 101° | 124km/h | 9933m | -10.0m/s | -44.6°C | 58.7% | 0hPa | 2.6V | 00:00:00 | 01:21:47 | 00:00:00 | |
| OE5DRO-10 | 2026-09-01 03:10:48 | 48.18861 | 15.31232 | 101° | 124km/h | 9943m | -10.6m/s | -44.6°C | 58.1% | 0hPa | 2.6V | 00:00:00 | 00:00:00 | 00:00:00 | |
| OE3JTB-15 | 2026-09-01 03:10:45 | 48.18878 | 15.31093 | 101° | 122km/h | 9975m | -11.0m/s | -44.8°C | 58.7% | 0hPa | 2.6V | 00:00:00 | 00:00:00 | 00:00:00 | |
| OE5MMP-10 | 2026-09-01 03:10:40 | 48.18907 | 15.30861 | 102° | 122km/h | 10025m | -9.9m/s | -45.2°C | 58.8% | 0hPa | 2.6V | 00:00:00 | 01:21:38 | 00:00:00 | |
| OE5DXL-15 | 2026-09-01 03:10:39 | 48.18914 | 15.30815 | 102° | 120km/h | 10035m | -9.8m/s | -45.3°C | 59.0% | 0hPa | 2.6V | 00:00:00 | 00:00:00 | 00:00:00 | |
| S52SK | 2026-09-01 03:10:38 | 48.18914 | 15.30815 | 102° | 122km/h | 10035m | -9.8m/s | -45.3°C | 54.6% | 0hPa | 2.6V | 08:22:00 | 00:00:00 | 00:00:00 | |
| PG1ADW-2 | 2026-09-01 03:10:32 | 48.18952 | 15.30496 | 101° | 122km/h | 10106m | -9.3m/s | -45.9°C | 58.9% | 0hPa | 2.6V | 08:22:00 | 01:21:30 | 00:00:00 | |
| OE5MMP-10 | 2026-09-01 03:10:30 | 48.18963 | 15.30404 | 101° | 122km/h | 10125m | -9.3m/s | -46.0°C | 58.6% | 0hPa | 2.7V | 00:00:00 | 01:21:28 | 00:00:00 | |
| OE5DRO-10 | 2026-09-01 03:10:29 | 48.18969 | 15.30358 | 101° | 120km/h | 10134m | -8.6m/s | -46.1°C | 58.4% | 0hPa | 2.7V | 00:00:00 | 00:00:00 | 00:00:00 | |
| OE3OSB-13 | 2026-09-01 03:10:21 | 48.19011 | 15.29995 | 100° | 122km/h | 10211m | -9.3m/s | -46.8°C | 49.5% | -1.0hPa | 2.7V | 00:00:00 | 00:00:00 | 00:00:00 | |
| OE5MMP-10 | 2026-09-01 03:10:20 | 48.19016 | 15.29949 | 100° | 120km/h | 10221m | -10.0m/s | -46.8°C | 53.9% | 0hPa | 2.7V | 00:00:00 | 01:21:18 | 00:00:00 | |
| PETON7-10 | 2026-09-01 03:10:19 | 48.19022 | 15.29903 | 101° | 119km/h | 10231m | -9.8m/s | -46.9°C | 53.9% | 0hPa | 2.7V | 00:00:00 | 00:00:00 | 00:00:00 | |
| OE5WHR-10 | 2026-09-01 03:10:18 | 48.19027 | 15.29858 | 101° | 119km/h | 10240m | -10.0m/s | -47.0°C | 54.1% | 0hPa | 2.7V | 00:00:00 | 01:21:16 | 00:00:00 | |
| OM5KV | 2026-09-01 03:10:17 | 48.19027 | 15.29858 | 101° | 120km/h | 10240m | -10.1m/s | -47.0°C | 49.6% | 0hPa | 2.7V | 08:23:00 | 00:00:00 | 00:00:00 | |
| OE3JTB-15 | 2026-09-01 03:10:16 | 48.19038 | 15.29767 | 100° | 119km/h | 10259m | -9.9m/s | -47.1°C | 54.1% | 0hPa | 2.7V | 00:00:00 | 01:21:14 | 00:00:00 | |
| OM5KV | 2026-09-01 03:10:13 | 48.19047 | 15.29678 | 101° | 119km/h | 10279m | -10.1m/s | -47.3°C | 49.3% | 0hPa | 2.7V | 08:23:00 | 00:00:00 | 00:00:00 | |
| PG1ADW-2 | 2026-09-01 03:10:12 | 48.19058 | 15.29589 | 100° | 119km/h | 10299m | -9.9m/s | -47.5°C | 54.0% | 0hPa | 2.7V | 00:00:00 | 00:00:00 | 00:00:00 | |
| OM5KV | 2026-09-01 03:10:11 | 48.19058 | 15.29589 | 101° | 119km/h | 10299m | -9.9m/s | -47.5°C | 49.5% | 0hPa | 2.7V | 08:23:00 | 00:00:00 | 00:00:00 | |
| OE5MMP-10 | 2026-09-01 03:10:10 | 48.19069 | 15.29500 | 100° | 119km/h | 10320m | -10.3m/s | -47.6°C | 54.4% | 0hPa | 2.7V | 00:00:00 | 01:21:08 | 00:00:00 | |
| OE5DXL-15 | 2026-09-01 03:10:09 | 48.19073 | 15.29455 | 101° | 119km/h | 10330m | -10.0m/s | -47.7°C | 54.5% | 0hPa | 2.7V | 00:00:00 | 00:00:00 | 00:00:00 | |
| OM5KV | 2026-09-01 03:10:05 | 48.19088 | 15.29323 | 100° | 120km/h | 10358m | -10.1m/s | -48.0°C | 50.0% | 0hPa | 2.7V | 08:23:00 | 00:00:00 | 00:00:00 | |
| PETON7-10 | 2026-09-01 03:10:04 | 48.19098 | 15.29235 | 99° | 119km/h | 10377m | -9.9m/s | -48.2°C | 54.3% | 0hPa | 2.7V | 00:00:00 | 01:21:02 | 00:00:00 | |
| OE5MMP-10 | 2026-09-01 03:10:00 | 48.19117 | 15.29060 | 100° | 119km/h | 10417m | -10.6m/s | -48.6°C | 54.4% | 0hPa | 2.7V | 00:00:00 | 01:20:58 | 00:00:00 | |
| OE5WHR-10 | 2026-09-01 03:09:57 | 48.19129 | 15.28928 | 99° | 119km/h | 10447m | -10.4m/s | -48.9°C | 54.0% | 0hPa | 2.7V | 00:00:00 | 00:00:00 | 00:00:00 | |
| OM5KV | 2026-09-01 03:09:55 | 48.19134 | 15.28883 | 100° | 120km/h | 10457m | -9.7m/s | -49.0°C | 48.8% | 0hPa | 2.6V | 08:23:00 | 00:00:00 | 00:00:00 | |
| OM5KV | 2026-09-01 03:09:54 | 48.19139 | 15.28839 | 101° | 119km/h | 10467m | -9.7m/s | -49.1°C | 48.3% | 0hPa | 2.6V | 08:23:00 | 00:00:00 | 00:00:00 | |
| PG1ADW-2 | 2026-09-01 03:09:52 | 48.19154 | 15.28706 | 100° | 120km/h | 10498m | -10.8m/s | -49.3°C | 51.2% | 0hPa | 2.6V | 00:00:00 | 00:00:00 | 00:00:00 | |
| OE5DRO-10 | 2026-09-01 03:09:51 | 48.19159 | 15.28662 | 100° | 120km/h | 10508m | -10.0m/s | -49.3°C | 50.4% | 0hPa | 2.6V | 00:00:00 | 00:00:00 | 00:00:00 | |
| OE5MMP-10 | 2026-09-01 03:09:50 | 48.19164 | 15.28619 | 99° | 119km/h | 10518m | -10.0m/s | -49.4°C | 50.0% | 0hPa | 2.6V | 08:23:00 | 01:20:48 | 00:00:00 | |
| PETON7-10 | 2026-09-01 03:09:49 | 48.19168 | 15.28575 | 98° | 120km/h | 10528m | -10.4m/s | -49.5°C | 49.6% | 0hPa | 2.6V | 08:23:00 | 00:00:00 | 00:00:00 | |
| OM5KV | 2026-09-01 03:09:48 | 48.19168 | 15.28575 | 99° | 119km/h | 10528m | -10.4m/s | -49.5°C | 44.9% | 0hPa | 2.7V | 08:23:00 | 00:00:00 | 00:00:00 | |
| OE3JTB-15 | 2026-09-01 03:09:47 | 48.19177 | 15.28484 | 100° | 122km/h | 10547m | -8.7m/s | -49.4°C | 47.4% | 0hPa | 2.7V | 08:23:00 | 00:00:00 | 00:00:00 | |
| OM5KV | 2026-09-01 03:09:44 | 48.19186 | 15.28396 | 100° | 119km/h | 10566m | -9.6m/s | -49.6°C | 42.5% | 0hPa | 2.6V | 08:24:00 | 00:00:00 | 00:00:00 | |
| OM5KV | 2026-09-01 03:09:42 | 48.19195 | 15.28308 | 100° | 119km/h | 10586m | -10.6m/s | -49.8°C | 42.0% | 0hPa | 2.6V | 08:24:00 | 00:00:00 | 00:00:00 | |
| OE5MMP-10 | 2026-09-01 03:09:40 | 48.19208 | 15.28175 | 98° | 122km/h | 10616m | -10.9m/s | -50.0°C | 46.1% | 0hPa | 2.6V | 00:00:00 | 01:20:38 | 00:00:00 | |
| OE5DXL-15 | 2026-09-01 03:09:39 | 48.19212 | 15.28130 | 98° | 124km/h | 10626m | -10.1m/s | -50.1°C | 46.1% | 0hPa | 2.6V | 00:00:00 | 00:00:00 | 00:00:00 | |
| OM5KV | 2026-09-01 03:09:38 | 48.19212 | 15.28130 | 99° | 120km/h | 10626m | -10.1m/s | -50.1°C | 41.4% | 0hPa | 2.6V | 08:24:00 | 00:00:00 | 00:00:00 | |
| OM5KV | 2026-09-01 03:09:37 | 48.19215 | 15.28085 | 98° | 122km/h | 10636m | -10.3m/s | -50.2°C | 41.4% | 0hPa | 2.6V | 08:24:00 | 00:00:00 | 00:00:00 | |
| OE5WHR-10 | 2026-09-01 03:09:36 | 48.19223 | 15.27993 | 98° | 124km/h | 10657m | -10.8m/s | -50.3°C | 46.5% | 0hPa | 2.6V | 00:00:00 | 00:00:00 | 00:00:00 | |
| PETON7-10 | 2026-09-01 03:09:34 | 48.19231 | 15.27900 | 99° | 124km/h | 10677m | -9.1m/s | -50.5°C | 46.6% | 0hPa | 2.6V | 00:00:00 | 00:00:00 | 00:00:00 | |
| OM5KV | 2026-09-01 03:09:33 | 48.19231 | 15.27900 | 100° | 122km/h | 10677m | -9.2m/s | -50.5°C | 41.9% | 0hPa | 2.6V | 08:24:00 | 00:00:00 | 00:00:00 | |
| PG1ADW-2 | 2026-09-01 03:09:32 | 48.19240 | 15.27809 | 99° | 126km/h | 10696m | -9.9m/s | -50.6°C | 46.8% | 0hPa | 2.6V | 00:00:00 | 00:00:00 | 00:00:00 | |
| OM5KV | 2026-09-01 03:09:31 | 48.19240 | 15.27809 | 99° | 122km/h | 10696m | -10.0m/s | -50.7°C | 42.0% | 0hPa | 2.7V | 08:24:00 | 00:00:00 | 00:00:00 | |
| OE5MMP-10 | 2026-09-01 03:09:30 | 48.19249 | 15.27717 | 99° | 124km/h | 10716m | -10.9m/s | -50.8°C | 47.4% | 0hPa | 2.7V | 00:00:00 | 01:20:28 | 00:00:00 | |
| OE5FHM-15 | 2026-09-01 03:09:29 | 48.19253 | 15.27671 | 99° | 130km/h | 10727m | -9.9m/s | -50.9°C | 47.8% | 0hPa | 2.7V | 00:00:00 | 01:20:27 | 00:00:00 | |
| OM5KV | 2026-09-01 03:09:25 | 48.19265 | 15.27533 | 98° | 122km/h | 10756m | -11.0m/s | -51.1°C | 42.8% | 0hPa | 2.6V | 08:24:00 | 00:00:00 | 00:00:00 | |
| OE5MMP-10 | 2026-09-01 03:09:20 | 48.19288 | 15.27250 | 97° | 126km/h | 10820m | -11.9m/s | -51.6°C | 48.4% | 0hPa | 2.6V | 00:00:00 | 01:20:18 | 00:00:00 | |
| PETON7-10 | 2026-09-01 03:09:19 | 48.19292 | 15.27202 | 97° | 128km/h | 10833m | -12.0m/s | -51.7°C | 48.6% | 0hPa | 2.6V | 00:00:00 | 01:20:17 | 00:00:00 | |
| OE3JTB-15 | 2026-09-01 03:09:18 | 48.19296 | 15.27154 | 98° | 128km/h | 10844m | -10.4m/s | -51.8°C | 48.9% | 0hPa | 2.6V | 00:00:00 | 00:00:00 | 00:00:00 | |
| OE5WHR-10 | 2026-09-01 03:09:14 | 48.19312 | 15.26963 | 98° | 128km/h | 10889m | -10.4m/s | -52.2°C | 48.8% | 0hPa | 2.6V | 00:00:00 | 01:20:12 | 00:00:00 | |
| OE5DRO-10 | 2026-09-01 03:09:13 | 48.19316 | 15.26916 | 97° | 128km/h | 10899m | -10.7m/s | -52.3°C | 48.7% | 0hPa | 2.6V | 00:00:00 | 00:00:00 | 00:00:00 | |
| PG1ADW-2 | 2026-09-01 03:09:12 | 48.19319 | 15.26869 | 97° | 130km/h | 10910m | -11.5m/s | -52.4°C | 48.5% | 0hPa | 2.6V | 00:00:00 | 01:20:10 | 00:00:00 | |
| OM5KV | 2026-09-01 03:09:11 | 48.19319 | 15.26869 | 97° | 126km/h | 10910m | -11.6m/s | -52.5°C | 43.4% | 0hPa | 2.6V | 08:24:00 | 00:00:00 | 00:00:00 | |
| OE5MMP-10 | 2026-09-01 03:09:10 | 48.19327 | 15.26773 | 98° | 128km/h | 10932m | -11.0m/s | -52.6°C | 48.0% | 0hPa | 2.6V | 00:00:00 | 01:20:08 | 00:00:00 | |
| OE5DXL-15 | 2026-09-01 03:09:09 | 48.19331 | 15.26725 | 98° | 131km/h | 10943m | -11.3m/s | -52.7°C | 47.7% | 0hPa | 2.6V | 00:00:00 | 00:00:00 | 00:00:00 | |
| OM5KV | 2026-09-01 03:09:07 | 48.19335 | 15.26676 | 99° | 128km/h | 10955m | -10.9m/s | -52.8°C | 42.3% | 0hPa | 2.6V | 08:24:00 | 00:00:00 | 00:00:00 | |
| S52SK | 2026-09-01 03:09:05 | 48.19343 | 15.26580 | 98° | 128km/h | 10977m | -11.5m/s | -52.9°C | 41.4% | 0hPa | 2.6V | 00:00:00 | 00:00:00 | 00:00:00 | |
| PETON7-10 | 2026-09-01 03:09:04 | 48.19351 | 15.26483 | 97° | 130km/h | 11000m | -11.9m/s | -53.1°C | 46.1% | 0hPa | 2.6V | 00:00:00 | 00:00:00 | 00:00:00 | |
| OM5KV | 2026-09-01 03:09:01 | 48.19357 | 15.26386 | 97° | 128km/h | 11023m | -10.1m/s | -53.3°C | 41.2% | 0hPa | 2.7V | 08:24:00 | 00:00:00 | 00:00:00 | |
| OE3OSB-13 | 2026-09-01 03:08:48 | 48.19408 | 15.25698 | 96° | 133km/h | 11177m | -11.1m/s | -54.5°C | 40.3% | -1.0hPa | 2.7V | 00:00:00 | 00:00:00 | 00:00:00 | |
| OE5FHM-15 | 2026-09-01 03:08:47 | 48.19411 | 15.25648 | 96° | 131km/h | 11188m | -12.2m/s | -54.5°C | 46.3% | 0hPa | 2.7V | 00:00:00 | 01:19:45 | 00:00:00 | |
| OM5KV | 2026-09-01 03:08:43 | 48.19421 | 15.25498 | 97° | 133km/h | 11223m | -12.5m/s | -54.9°C | 40.6% | 0hPa | 2.7V | 08:25:00 | 00:00:00 | 00:00:00 | |
| OM5KV | 2026-09-01 03:08:41 | 48.19428 | 15.25398 | 97° | 133km/h | 11247m | -11.6m/s | -55.0°C | 40.0% | 0hPa | 2.7V | 08:25:00 | 00:00:00 | 00:00:00 | |
| OE5MMP-10 | 2026-09-01 03:08:40 | 48.19435 | 15.25298 | 97° | 131km/h | 11270m | -11.4m/s | -55.2°C | 45.0% | 0hPa | 2.7V | 00:00:00 | 01:19:38 | 00:00:00 | |
| OE5DXL-15 | 2026-09-01 03:08:39 | 48.19439 | 15.25247 | 98° | 131km/h | 11281m | -10.9m/s | -55.3°C | 44.5% | 0hPa | 2.7V | 00:00:00 | 00:00:00 | 00:00:00 | |
| OM5KV | 2026-09-01 03:08:37 | 48.19443 | 15.25197 | 98° | 133km/h | 11293m | -11.4m/s | -55.4°C | 38.6% | 0hPa | 2.7V | 08:25:00 | 00:00:00 | 00:00:00 | |
| PETON7-10 | 2026-09-01 03:08:34 | 48.19460 | 15.24998 | 98° | 130km/h | 11335m | -8.3m/s | -55.7°C | 43.4% | 0hPa | 2.7V | 00:00:00 | 01:19:32 | 00:00:00 | |
| OE5WHR-10 | 2026-09-01 03:08:32 | 48.19469 | 15.24899 | 99° | 130km/h | 11355m | -10.1m/s | -55.8°C | 42.5% | 0hPa | 2.7V | 00:00:00 | 00:00:00 | 00:00:00 | |
| OM5KV | 2026-09-01 03:08:31 | 48.19469 | 15.24899 | 99° | 131km/h | 11355m | -10.2m/s | -55.9°C | 37.0% | 0hPa | 2.7V | 08:25:00 | 00:00:00 | 00:00:00 | |
| OE5MMP-10 | 2026-09-01 03:08:30 | 48.19479 | 15.24799 | 99° | 130km/h | 11376m | -9.7m/s | -56.0°C | 42.6% | 0hPa | 2.7V | 00:00:00 | 01:19:28 | 00:00:00 | |
| OM5KV | 2026-09-01 03:08:25 | 48.19497 | 15.24604 | 98° | 130km/h | 11411m | -9.3m/s | -56.3°C | 36.6% | 0hPa | 2.7V | 08:25:00 | 00:00:00 | 00:00:00 | |
| OE5MMP-10 | 2026-09-01 03:08:20 | 48.19521 | 15.24308 | 98° | 130km/h | 11470m | -8.6m/s | -56.8°C | 39.2% | 0hPa | 2.7V | 08:24:00 | 01:19:18 | 00:00:00 | |
| PETON7-10 | 2026-09-01 03:08:19 | 48.19525 | 15.24260 | 98° | 130km/h | 11479m | -9.7m/s | -56.8°C | 38.8% | 0hPa | 2.7V | 00:00:00 | 00:00:00 | 00:00:00 | |
| OM5KV | 2026-09-01 03:08:18 | 48.19525 | 15.24260 | 99° | 130km/h | 11479m | -9.7m/s | -56.9°C | 33.3% | 0hPa | 2.7V | 08:25:00 | 00:00:00 | 00:00:00 | |
| OE5FHM-15 | 2026-09-01 03:08:17 | 48.19534 | 15.24162 | 99° | 128km/h | 11499m | -9.4m/s | -57.0°C | 38.8% | 0hPa | 2.7V | 00:00:00 | 01:19:15 | 00:00:00 | |
| OE5DRO-10 | 2026-09-01 03:08:15 | 48.19543 | 15.24064 | 97° | 130km/h | 11517m | -8.7m/s | -57.2°C | 38.8% | 0hPa | 2.7V | 08:24:00 | 00:00:00 | 00:00:00 | |
| OM5KV | 2026-09-01 03:08:13 | 48.19547 | 15.24016 | 98° | 130km/h | 11525m | -7.8m/s | -57.3°C | 33.0% | 0hPa | 2.6V | 08:25:00 | 00:00:00 | 00:00:00 | |
| PG1ADW-2 | 2026-09-01 03:08:12 | 48.19555 | 15.23919 | 98° | 128km/h | 11541m | -8.9m/s | -57.4°C | 38.2% | 0hPa | 2.6V | 00:00:00 | 00:00:00 | 00:00:00 | |
| OE5WHR-10 | 2026-09-01 03:08:11 | 48.19559 | 15.23871 | 98° | 128km/h | 11550m | -9.6m/s | -57.4°C | 38.3% | 0hPa | 2.6V | 00:00:00 | 01:19:09 | 00:00:00 | |
| OE5MMP-10 | 2026-09-01 03:08:10 | 48.19563 | 15.23823 | 98° | 130km/h | 11558m | -8.9m/s | -57.5°C | 38.6% | 0hPa | 2.6V | 00:00:00 | 01:19:08 | 00:00:00 | |
| OE5DXL-15 | 2026-09-01 03:08:09 | 48.19567 | 15.23773 | 98° | 128km/h | 11567m | -9.6m/s | -57.6°C | 38.4% | 0hPa | 2.6V | 00:00:00 | 00:00:00 | 00:00:00 | |
| OM5KV | 2026-09-01 03:08:07 | 48.19572 | 15.23724 | 99° | 131km/h | 11578m | -10.2m/s | -57.7°C | 32.9% | 0hPa | 2.6V | 08:25:00 | 00:00:00 | 00:00:00 | |
| OM5KV | 2026-09-01 03:08:06 | 48.19576 | 15.23675 | 100° | 130km/h | 11588m | -9.4m/s | -57.7°C | 32.9% | 0hPa | 2.6V | 08:25:00 | 00:00:00 | 00:00:00 | |
| PETON7-10 | 2026-09-01 03:08:04 | 48.19591 | 15.23530 | 100° | 126km/h | 11616m | -9.2m/s | -57.7°C | 38.3% | 0hPa | 2.6V | 00:00:00 | 00:00:00 | 00:00:00 | |
| OE3OSB-13 | 2026-09-01 03:07:46 | 48.19696 | 15.22632 | 98° | 130km/h | 11799m | -10.1m/s | -59.0°C | 28.4% | -1.0hPa | 2.6V | 00:00:00 | 00:00:00 | 00:00:00 | |
| S52SK | 2026-09-01 03:07:44 | 48.19696 | 15.22632 | 100° | 130km/h | 11799m | -10.1m/s | -59.0°C | 28.5% | 0hPa | 2.6V | 00:00:00 | 00:00:00 | 00:00:00 | |
| OM5KV | 2026-09-01 03:07:43 | 48.19701 | 15.22584 | 99° | 131km/h | 11809m | -10.9m/s | -59.1°C | 28.2% | 0hPa | 2.6V | 08:25:00 | 00:00:00 | 00:00:00 | |
| OE5MMP-10 | 2026-09-01 03:07:40 | 48.19721 | 15.22387 | 99° | 133km/h | 11853m | -10.2m/s | -59.0°C | 31.8% | 0hPa | 2.6V | 00:00:00 | 01:18:38 | 00:00:00 | |
| OE5DXL-15 | 2026-09-01 03:07:39 | 48.19726 | 15.22339 | 98° | 139km/h | 11863m | -9.3m/s | -59.1°C | 31.6% | 0hPa | 2.6V | 08:25:00 | 00:00:00 | 00:00:00 | |
| OM5KV | 2026-09-01 03:07:38 | 48.19726 | 15.22339 | 98° | 130km/h | 11863m | -9.4m/s | -59.1°C | 26.0% | 0hPa | 2.6V | 08:25:00 | 00:00:00 | 00:00:00 | |
| OE5DRO-10 | 2026-09-01 03:07:37 | 48.19734 | 15.22240 | 97° | 137km/h | 11882m | -11.0m/s | -58.8°C | 30.1% | 0hPa | 2.6V | 00:00:00 | 00:00:00 | 00:00:00 | |
| OM5KV | 2026-09-01 03:07:36 | 48.19734 | 15.22240 | 97° | 133km/h | 11882m | -11.1m/s | -58.9°C | 24.7% | 0hPa | 2.6V | 08:25:00 | 00:00:00 | 00:00:00 | |
| PETON7-10 | 2026-09-01 03:07:34 | 48.19745 | 15.22089 | 96° | 137km/h | 11915m | -12.5m/s | -58.5°C | 27.3% | 0hPa | 2.6V | 08:25:00 | 00:00:00 | 00:00:00 | |
| PG1ADW-2 | 2026-09-01 03:07:32 | 48.19751 | 15.21988 | 96° | 141km/h | 11941m | -11.9m/s | -58.7°C | 27.0% | 0hPa | 2.7V | 08:25:00 | 00:00:00 | 00:00:00 | |
| OE5MMP-10 | 2026-09-01 03:07:30 | 48.19758 | 15.21887 | 97° | 139km/h | 11965m | -12.6m/s | -58.8°C | 27.2% | 0hPa | 2.6V | 00:00:00 | 01:18:28 | 00:00:00 | |
| OE5WHR-10 | 2026-09-01 03:07:29 | 48.19762 | 15.21835 | 97° | 141km/h | 11977m | -11.0m/s | -58.9°C | 27.4% | 0hPa | 2.6V | 00:00:00 | 00:00:00 | 00:00:00 | |
| OE8JPQ-2 | 2026-09-01 03:07:28 | 48.19765 | 15.21784 | 97° | 141km/h | 11988m | -11.1m/s | -59.0°C | 27.5% | 0hPa | 2.6V | 00:00:00 | 01:18:26 | 00:00:00 | |
| OM5KV | 2026-09-01 03:07:27 | 48.19765 | 15.21784 | 98° | 137km/h | 11988m | -11.2m/s | -59.1°C | 22.1% | 0hPa | 2.6V | 08:25:00 | 00:00:00 | 00:00:00 | |
| OM5KV | 2026-09-01 03:07:25 | 48.19772 | 15.21680 | 96° | 139km/h | 12009m | -9.3m/s | -59.2°C | 22.3% | 0hPa | 2.6V | 08:25:00 | 00:00:00 | 00:00:00 | |
| OE3JTB-15 | 2026-09-01 03:07:22 | 48.19788 | 15.21469 | 97° | 135km/h | 12042m | -7.7m/s | -59.4°C | 26.4% | 0hPa | 2.6V | 00:00:00 | 01:18:20 | 00:00:00 | |
| DO3MHA-12 | 2026-09-01 03:07:21 | 48.19792 | 15.21417 | 98° | 142km/h | 12050m | -8.2m/s | -59.5°C | 25.6% | 0hPa | 2.6V | 00:00:00 | 01:18:19 | 00:00:00 | |
| OE5MMP-10 | 2026-09-01 03:07:20 | 48.19797 | 15.21364 | 98° | 142km/h | 12059m | -9.6m/s | -59.6°C | 24.7% | 0hPa | 2.6V | 00:00:00 | 01:18:18 | 00:00:00 | |
| PETON7-10 | 2026-09-01 03:07:19 | 48.19801 | 15.21310 | 97° | 142km/h | 12070m | -12.0m/s | -59.7°C | 23.9% | 0hPa | 2.7V | 00:00:00 | 00:00:00 | 00:00:00 | |
| OE5DRO-10 | 2026-09-01 03:07:18 | 48.19805 | 15.21257 | 97° | 139km/h | 12081m | -11.3m/s | -59.7°C | 23.3% | 0hPa | 2.7V | 00:00:00 | 00:00:00 | 00:00:00 | |
| OE5FHM-15 | 2026-09-01 03:07:17 | 48.19810 | 15.21204 | 98° | 108km/h | 12093m | -13.6m/s | -59.8°C | 22.6% | 0hPa | 2.7V | 00:00:00 | 01:18:15 | 00:00:00 | |
| OM5KV | 2026-09-01 03:07:14 | 48.19819 | 15.21098 | 98° | 144km/h | 12119m | -12.8m/s | -60.0°C | 16.3% | 0hPa | 2.7V | 08:25:00 | 00:00:00 | 00:00:00 | |
| PG1ADW-2 | 2026-09-01 03:07:12 | 48.19835 | 15.20936 | 99° | 131km/h | 12155m | -12.9m/s | -59.7°C | 18.8% | 0hPa | 2.7V | 00:00:00 | 00:00:00 | 00:00:00 | |
| DO3MHA-12 | 2026-09-01 03:07:10 | 48.19845 | 15.20830 | 100° | 137km/h | 12180m | -11.6m/s | -59.5°C | 17.1% | 0hPa | 2.7V | 00:00:00 | 01:18:08 | 00:00:00 | |
| OE5DXL-15 | 2026-09-01 03:07:09 | 48.19852 | 15.20777 | 100° | 120km/h | 12191m | -13.0m/s | -59.2°C | 16.0% | 0hPa | 2.7V | 00:00:00 | 00:00:00 | 00:00:00 | |
| OE5WHR-10 | 2026-09-01 03:07:08 | 48.19858 | 15.20724 | 100° | 126km/h | 12204m | -13.4m/s | -58.7°C | 14.6% | 0hPa | 2.7V | 00:00:00 | 01:18:06 | 00:00:00 | |
| PETON7-10 | 2026-09-01 03:07:04 | 48.19881 | 15.20519 | 100° | 124km/h | 12257m | -13.4m/s | -57.2°C | 11.3% | 0hPa | 2.7V | 00:00:00 | 01:18:02 | 00:00:00 | |
| OM5KV | 2026-09-01 03:07:03 | 48.19881 | 15.20519 | 100° | 135km/h | 12257m | -13.4m/s | -57.2°C | 7.5% | 0hPa | 2.7V | 08:26:00 | 00:00:00 | 00:00:00 | |
| DO3MHA-12 | 2026-09-01 03:07:00 | 48.19901 | 15.20325 | 99° | 122km/h | 12310m | -12.0m/s | -56.1°C | 9.5% | 0hPa | 2.7V | 00:00:00 | 01:17:58 | 00:00:00 | |
| OE5DRO-10 | 2026-09-01 03:06:59 | 48.19906 | 15.20279 | 100° | 115km/h | 12322m | -12.3m/s | -56.0°C | 9.2% | 0hPa | 2.7V | 00:00:00 | 00:00:00 | 00:00:00 | |
| OM5KV | 2026-09-01 03:06:57 | 48.19912 | 15.20232 | 101° | 126km/h | 12334m | -13.7m/s | -55.9°C | 5.5% | 0hPa | 2.7V | 08:26:00 | 00:00:00 | 00:00:00 | |
| OM5KV | 2026-09-01 03:06:54 | 48.19928 | 15.20093 | 101° | 124km/h | 12374m | -12.6m/s | -55.3°C | 4.6% | 0hPa | 2.7V | 08:26:00 | 00:00:00 | 00:00:00 | |
| OE3JTB-15 | 2026-09-01 03:06:53 | 48.19939 | 15.20003 | 101° | 106km/h | 12401m | -13.3m/s | -54.9°C | 7.0% | 0hPa | 2.7V | 00:00:00 | 00:00:00 | 00:00:00 | |
| PG1ADW-2 | 2026-09-01 03:06:52 | 48.19944 | 15.19959 | 101° | 106km/h | 12415m | -13.9m/s | -54.5°C | 6.5% | 0hPa | 2.6V | 00:00:00 | 00:00:00 | 00:00:00 | |
| DO3MHA-12 | 2026-09-01 03:06:50 | 48.19954 | 15.19874 | 100° | 108km/h | 12441m | -12.3m/s | -53.7°C | 5.7% | 0hPa | 2.6V | 08:26:00 | 01:17:48 | 00:00:00 | |
| PETON7-10 | 2026-09-01 03:06:49 | 48.19959 | 15.19832 | 101° | 106km/h | 12454m | -13.0m/s | -53.6°C | 5.5% | 0hPa | 2.7V | 00:00:00 | 00:00:00 | 00:00:00 | |
| OE8JPQ-2 | 2026-09-01 03:06:48 | 48.19964 | 15.19792 | 101° | 102km/h | 12467m | -14.2m/s | -53.6°C | 5.4% | 0hPa | 2.6V | 00:00:00 | 00:00:00 | 00:00:00 | |
| OE5WHR-10 | 2026-09-01 03:06:47 | 48.19969 | 15.19751 | 100° | 102km/h | 12481m | -13.9m/s | -53.6°C | 5.4% | 0hPa | 2.6V | 00:00:00 | 00:00:00 | 00:00:00 | |
| OM5KV | 2026-09-01 03:06:45 | 48.19973 | 15.19711 | 100° | 108km/h | 12494m | -13.9m/s | -53.7°C | 2.8% | 0hPa | 2.6V | 08:26:00 | 00:00:00 | 00:00:00 | |
| OM5KV | 2026-09-01 03:06:43 | 48.19980 | 15.19631 | 97° | 108km/h | 12521m | -14.2m/s | -53.5°C | 2.7% | 0hPa | 2.6V | 08:26:00 | 00:00:00 | 00:00:00 | |
| DO3MHA-12 | 2026-09-01 03:06:40 | 48.19993 | 15.19473 | 97° | 100km/h | 12572m | -11.9m/s | -52.2°C | 4.8% | 0hPa | 2.6V | 00:00:00 | 01:17:38 | 00:00:00 | |
| OE5DXL-15 | 2026-09-01 03:06:39 | 48.19995 | 15.19434 | 96° | 102km/h | 12585m | -13.3m/s | -52.0°C | 4.8% | 0hPa | 2.6V | 00:00:00 | 00:00:00 | 00:00:00 | |
| DG1MFX-10 | 2026-09-01 03:06:38 | 48.19995 | 15.19434 | 96° | 104km/h | 12585m | -13.4m/s | -52.1°C | 2.5% | 0hPa | 2.6V | 00:00:00 | 00:00:00 | 00:00:00 | |
| PETON7-10 | 2026-09-01 03:06:34 | 48.20001 | 15.19243 | 91° | 100km/h | 12653m | -13.7m/s | -51.5°C | 4.6% | 0hPa | 2.6V | 00:00:00 | 00:00:00 | 00:00:00 | |
| PG1ADW-2 | 2026-09-01 03:06:32 | 48.20002 | 15.19168 | 92° | 102km/h | 12682m | -13.6m/s | -51.6°C | 4.6% | 0hPa | 2.6V | 00:00:00 | 01:17:30 | 00:00:00 | |
| DO3MHA-12 | 2026-09-01 03:06:30 | 48.20003 | 15.19093 | 92° | 102km/h | 12709m | -13.6m/s | -51.7°C | 4.6% | 0hPa | 2.6V | 00:00:00 | 01:17:28 | 00:00:00 | |
| OE8JPQ-2 | 2026-09-01 03:06:28 | 48.20003 | 15.19017 | 89° | 104km/h | 12735m | -12.0m/s | -51.8°C | 4.7% | 0hPa | 2.6V | 00:00:00 | 01:17:26 | 00:00:00 | |
| OM5KV | 2026-09-01 03:06:27 | 48.20003 | 15.19017 | 90° | 104km/h | 12735m | -12.0m/s | -51.9°C | 2.5% | 0hPa | 2.6V | 08:26:00 | 00:00:00 | 00:00:00 | |
| OE5WHR-10 | 2026-09-01 03:06:26 | 48.20001 | 15.18940 | 90° | 104km/h | 12759m | -13.1m/s | -51.8°C | 4.6% | 0hPa | 2.6V | 00:00:00 | 00:00:00 | 00:00:00 | |
| OE3JTB-15 | 2026-09-01 03:06:24 | 48.20001 | 15.18863 | 91° | 104km/h | 12787m | -14.8m/s | -51.7°C | 4.5% | 0hPa | 2.6V | 00:00:00 | 00:00:00 | 00:00:00 | |
| OM5KV | 2026-09-01 03:06:22 | 48.20001 | 15.18825 | 91° | 102km/h | 12801m | -14.4m/s | -51.8°C | 2.4% | 0hPa | 2.6V | 08:26:00 | 00:00:00 | 00:00:00 | |
| OM5KV | 2026-09-01 03:06:21 | 48.20001 | 15.18787 | 91° | 102km/h | 12815m | -14.5m/s | -51.8°C | 2.4% | 0hPa | 2.6V | 08:27:00 | 00:00:00 | 00:00:00 | |
| DO3MHA-12 | 2026-09-01 03:06:20 | 48.20001 | 15.18710 | 91° | 106km/h | 12845m | -15.5m/s | -51.7°C | 4.6% | 0hPa | 2.6V | 00:00:00 | 01:17:18 | 00:00:00 | |
| PETON7-10 | 2026-09-01 03:06:19 | 48.20001 | 15.18671 | 92° | 106km/h | 12859m | -13.0m/s | -51.7°C | 4.6% | 0hPa | 2.6V | 00:00:00 | 01:17:17 | 00:00:00 | |
| OM5KV | 2026-09-01 03:06:17 | 48.20002 | 15.18632 | 92° | 104km/h | 12873m | -15.0m/s | -51.7°C | 2.3% | 0hPa | 2.6V | 08:27:00 | 00:00:00 | 00:00:00 | |
| DG1MFX-10 | 2026-09-01 03:06:16 | 48.20002 | 15.18593 | 92° | 106km/h | 12887m | -15.3m/s | -51.5°C | 2.3% | 0hPa | 2.6V | 08:27:00 | 00:00:00 | 00:00:00 | |
| PG1ADW-2 | 2026-09-01 03:06:12 | 48.20006 | 15.18392 | 92° | 100km/h | 12960m | -14.3m/s | -51.9°C | 4.7% | 0hPa | 2.6V | 00:00:00 | 00:00:00 | 00:00:00 | |
| OM5KV | 2026-09-01 03:06:11 | 48.20006 | 15.18392 | 93° | 106km/h | 12960m | -14.3m/s | -51.9°C | 2.4% | 0hPa | 2.6V | 08:27:00 | 00:00:00 | 00:00:00 | |
| OE5MMP-10 | 2026-09-01 03:06:10 | 48.20008 | 15.18313 | 96° | 106km/h | 12988m | -14.3m/s | -52.0°C | 4.7% | 0hPa | 2.6V | 00:00:00 | 01:17:08 | 00:00:00 | |
| OE5DXL-15 | 2026-09-01 03:06:09 | 48.20011 | 15.18273 | 96° | 97km/h | 13003m | -14.1m/s | -52.0°C | 4.7% | 0hPa | 2.6V | 00:00:00 | 00:00:00 | 00:00:00 | |
| OE8JPQ-2 | 2026-09-01 03:06:08 | 48.20014 | 15.18233 | 96° | 99km/h | 13016m | -14.3m/s | -52.0°C | 4.7% | 0hPa | 2.6V | 00:00:00 | 00:00:00 | 00:00:00 | |
| OE5WHR-10 | 2026-09-01 03:06:05 | 48.20020 | 15.18112 | 95° | 95km/h | 13061m | -14.5m/s | -52.2°C | 4.8% | 0hPa | 2.6V | 00:00:00 | 01:17:03 | 00:00:00 | |
| PETON7-10 | 2026-09-01 03:06:04 | 48.20022 | 15.18071 | 95° | 97km/h | 13076m | -14.5m/s | -52.1°C | 4.8% | 0hPa | 2.6V | 00:00:00 | 00:00:00 | 00:00:00 | |
| OE5DRO-10 | 2026-09-01 03:06:01 | 48.20030 | 15.17954 | 96° | 93km/h | 13119m | -14.2m/s | -51.3°C | 4.5% | 0hPa | 2.6V | 00:00:00 | 00:00:00 | 00:00:00 | |
| OE5MMP-10 | 2026-09-01 03:06:00 | 48.20032 | 15.17917 | 96° | 93km/h | 13134m | -14.3m/s | -50.9°C | 4.4% | 0hPa | 2.6V | 00:00:00 | 01:16:58 | 00:00:00 | |
| OM5KV | 2026-09-01 03:05:59 | 48.20032 | 15.17917 | 96° | 99km/h | 13134m | -14.3m/s | -51.0°C | 2.2% | 0hPa | 2.6V | 08:27:00 | 00:00:00 | 00:00:00 | |
| OM5KV | 2026-09-01 03:05:58 | 48.20035 | 15.17880 | 95° | 99km/h | 13148m | -15.2m/s | -50.7°C | 2.1% | 0hPa | 2.6V | 08:27:00 | 00:00:00 | 00:00:00 | |
| DG1MFX-10 | 2026-09-01 03:05:56 | 48.20038 | 15.17808 | 93° | 97km/h | 13178m | -15.0m/s | -50.5°C | 2.2% | 0hPa | 2.6V | 08:27:00 | 00:00:00 | 00:00:00 | |
| OE3JTB-15 | 2026-09-01 03:05:55 | 48.20039 | 15.17737 | 91° | 89km/h | 13208m | -14.9m/s | -50.0°C | 4.0% | 0hPa | 2.6V | 00:00:00 | 01:16:53 | 00:00:00 | |
| OM5KV | 2026-09-01 03:05:53 | 48.20039 | 15.17702 | 91° | 89km/h | 13223m | -15.3m/s | -50.1°C | 2.0% | 0hPa | 2.6V | 08:27:00 | 00:00:00 | 00:00:00 | |
| PG1ADW-2 | 2026-09-01 03:05:52 | 48.20039 | 15.17634 | 90° | 89km/h | 13252m | -14.3m/s | -50.3°C | 4.1% | 0hPa | 2.6V | 00:00:00 | 00:00:00 | 00:00:00 | |
| DO3MHA-12 | 2026-09-01 03:05:50 | 48.20039 | 15.17566 | 91° | 91km/h | 13280m | -14.5m/s | -50.3°C | 4.1% | 0hPa | 2.6V | 00:00:00 | 01:16:48 | 00:00:00 | |
| PETON7-10 | 2026-09-01 03:05:49 | 48.20040 | 15.17531 | 90° | 89km/h | 13295m | -15.2m/s | -50.4°C | 4.0% | 0hPa | 2.6V | 00:00:00 | 00:00:00 | 00:00:00 | |
| OE8JPQ-2 | 2026-09-01 03:05:48 | 48.20039 | 15.17497 | 89° | 89km/h | 13310m | -15.0m/s | -50.5°C | 4.1% | 0hPa | 2.6V | 00:00:00 | 00:00:00 | 00:00:00 | |
| OM5KV | 2026-09-01 03:05:46 | 48.20039 | 15.17462 | 89° | 91km/h | 13325m | -16.0m/s | -50.6°C | 2.1% | 0hPa | 2.6V | 08:27:00 | 00:00:00 | 00:00:00 | |
| OE5WHR-10 | 2026-09-01 03:05:44 | 48.20036 | 15.17359 | 88° | 88km/h | 13365m | -12.8m/s | -50.6°C | 4.1% | 0hPa | 2.6V | 08:27:00 | 00:00:00 | 00:00:00 | |
| OE5DRO-10 | 2026-09-01 03:05:42 | 48.20034 | 15.17290 | 86° | 88km/h | 13392m | -13.7m/s | -50.8°C | 4.1% | 0hPa | 2.7V | 00:00:00 | 00:00:00 | 00:00:00 | |
| OM5KV | 2026-09-01 03:05:41 | 48.20034 | 15.17290 | 86° | 91km/h | 13392m | -13.8m/s | -50.8°C | 2.0% | 0hPa | 2.7V | 08:27:00 | 00:00:00 | 00:00:00 | |
| DO3MHA-12 | 2026-09-01 03:05:40 | 48.20029 | 15.17223 | 85° | 88km/h | 13418m | -12.3m/s | -50.9°C | 4.1% | 0hPa | 2.7V | 00:00:00 | 01:16:38 | 00:00:00 | |
| OE5FHM-15 | 2026-09-01 03:05:39 | 48.20027 | 15.17190 | 84° | 89km/h | 13430m | -12.1m/s | -50.9°C | 4.1% | 0hPa | 2.7V | 00:00:00 | 01:16:37 | 00:00:00 | |
| OM5KV | 2026-09-01 03:05:36 | 48.20023 | 15.17124 | 87° | 88km/h | 13455m | -13.2m/s | -51.0°C | 2.0% | 0hPa | 2.7V | 08:27:00 | 00:00:00 | 00:00:00 | |
| DG1MFX-10 | 2026-09-01 03:05:35 | 48.20021 | 15.17092 | 87° | 88km/h | 13468m | -13.1m/s | -51.1°C | 2.0% | 0hPa | 2.7V | 08:27:00 | 00:00:00 | 00:00:00 | |
| PETON7-10 | 2026-09-01 03:05:34 | 48.20017 | 15.17026 | 86° | 89km/h | 13492m | -12.1m/s | -51.2°C | 4.1% | 0hPa | 2.7V | 00:00:00 | 01:16:32 | 00:00:00 | |
| PG1ADW-2 | 2026-09-01 03:05:32 | 48.20012 | 15.16961 | 86° | 91km/h | 13517m | -12.7m/s | -51.3°C | 4.1% | 0hPa | 2.7V | 00:00:00 | 00:00:00 | 00:00:00 | |
| S52SK | 2026-09-01 03:05:31 | 48.20012 | 15.16961 | 86° | 88km/h | 13517m | -12.8m/s | -51.3°C | 2.0% | 0hPa | 2.7V | 08:27:00 | 00:00:00 | 00:00:00 | |
| DO3MHA-12 | 2026-09-01 03:05:30 | 48.20008 | 15.16895 | 85° | 89km/h | 13542m | -13.6m/s | -51.2°C | 4.1% | 0hPa | 2.7V | 00:00:00 | 01:16:28 | 00:00:00 | |
| OM5KV | 2026-09-01 03:05:29 | 48.20008 | 15.16895 | 85° | 88km/h | 13542m | -13.7m/s | -51.3°C | 1.9% | 0hPa | 2.7V | 08:28:00 | 00:00:00 | 00:00:00 | |
| OE8JPQ-2 | 2026-09-01 03:05:28 | 48.20004 | 15.16830 | 84° | 91km/h | 13566m | -13.0m/s | -51.3°C | 4.1% | 0hPa | 2.7V | 00:00:00 | 01:16:26 | 00:00:00 | |
| OE3JTB-15 | 2026-09-01 03:05:26 | 48.20000 | 15.16764 | 85° | 91km/h | 13592m | -13.4m/s | -51.4°C | 4.1% | 0hPa | 2.7V | 08:27:00 | 00:00:00 | 00:00:00 | |
| S52SK | 2026-09-01 03:05:25 | 48.20000 | 15.16764 | 86° | 88km/h | 13592m | -13.5m/s | -51.5°C | 1.9% | 0hPa | 2.6V | 00:00:00 | 00:00:00 | 00:00:00 | |
| OE5WHR-10 | 2026-09-01 03:05:23 | 48.19993 | 15.16664 | 85° | 91km/h | 13630m | -14.2m/s | -51.3°C | 4.0% | 0hPa | 2.6V | 00:00:00 | 00:00:00 | 00:00:00 | |
| OE5MMP-10 | 2026-09-01 03:05:20 | 48.19986 | 15.16562 | 86° | 93km/h | 13670m | -13.6m/s | -51.2°C | 3.9% | 0hPa | 2.6V | 08:27:00 | 01:16:18 | 00:00:00 | |
| PETON7-10 | 2026-09-01 03:05:19 | 48.19985 | 15.16528 | 86° | 91km/h | 13683m | -13.6m/s | -51.2°C | 3.9% | 0hPa | 2.7V | 08:27:00 | 00:00:00 | 00:00:00 | |
| OM5KV | 2026-09-01 03:05:17 | 48.19983 | 15.16493 | 88° | 91km/h | 13697m | -14.6m/s | -51.3°C | 1.8% | 0hPa | 2.7V | 08:28:00 | 00:00:00 | 00:00:00 | |
| DG1MFX-10 | 2026-09-01 03:05:14 | 48.19976 | 15.16388 | 85° | 93km/h | 13735m | -12.9m/s | -51.5°C | 1.9% | 0hPa | 2.7V | 08:28:00 | 00:00:00 | 00:00:00 | |
| OM5KV | 2026-09-01 03:05:13 | 48.19974 | 15.16353 | 85° | 95km/h | 13747m | -13.4m/s | -51.5°C | 1.8% | 0hPa | 2.7V | 08:28:00 | 00:00:00 | 00:00:00 | |
| OM5KV | 2026-09-01 03:05:12 | 48.19969 | 15.16283 | 87° | 91km/h | 13773m | -11.6m/s | -51.4°C | 1.8% | 0hPa | 2.7V | 08:28:00 | 00:00:00 | 00:00:00 | |
| DO3MHA-12 | 2026-09-01 03:05:10 | 48.19966 | 15.16214 | 86° | 89km/h | 13798m | -13.1m/s | -51.4°C | 3.9% | 0hPa | 2.7V | 00:00:00 | 01:16:08 | 00:00:00 | |
| OE5DXL-15 | 2026-09-01 03:05:09 | 48.19964 | 15.16179 | 86° | 91km/h | 13811m | -12.9m/s | -51.5°C | 3.9% | 0hPa | 2.7V | 00:00:00 | 00:00:00 | 00:00:00 | |
| OE8JPQ-2 | 2026-09-01 03:05:08 | 48.19962 | 15.16145 | 85° | 91km/h | 13824m | -13.1m/s | -51.5°C | 3.9% | 0hPa | 2.7V | 08:28:00 | 00:00:00 | 00:00:00 | |
| OM5KV | 2026-09-01 03:05:07 | 48.19962 | 15.16145 | 86° | 91km/h | 13824m | -13.1m/s | -51.6°C | 1.8% | 0hPa | 2.7V | 08:28:00 | 00:00:00 | 00:00:00 | |
| OM5KV | 2026-09-01 03:05:05 | 48.19957 | 15.16076 | 84° | 89km/h | 13851m | -13.0m/s | -51.5°C | 1.7% | 0hPa | 2.7V | 08:28:00 | 00:00:00 | 00:00:00 | |
| PETON7-10 | 2026-09-01 03:05:04 | 48.19951 | 15.16009 | 84° | 91km/h | 13876m | -12.8m/s | -51.5°C | 3.8% | 0hPa | 2.7V | 00:00:00 | 00:00:00 | 00:00:00 | |
| OE5WHR-10 | 2026-09-01 03:05:02 | 48.19947 | 15.15942 | 86° | 93km/h | 13902m | -12.5m/s | -51.5°C | 3.8% | 0hPa | 2.7V | 00:00:00 | 01:16:00 | 00:00:00 | |
| OM5KV | 2026-09-01 03:05:01 | 48.19947 | 15.15942 | 86° | 88km/h | 13902m | -12.6m/s | -51.6°C | 1.7% | 0hPa | 2.7V | 08:28:00 | 00:00:00 | 00:00:00 | |
| DO3MHA-12 | 2026-09-01 03:05:00 | 48.19943 | 15.15875 | 86° | 93km/h | 13925m | -12.2m/s | -51.7°C | 3.9% | 0hPa | 2.7V | 00:00:00 | 01:15:58 | 00:00:00 | |
| OM5KV | 2026-09-01 03:04:59 | 48.19943 | 15.15875 | 86° | 89km/h | 13925m | -12.2m/s | -51.7°C | 1.7% | 0hPa | 2.7V | 08:28:00 | 00:00:00 | 00:00:00 | |
| OE3JTB-15 | 2026-09-01 03:04:57 | 48.19937 | 15.15774 | 86° | 89km/h | 13961m | -13.3m/s | -51.7°C | 3.8% | 0hPa | 2.7V | 00:00:00 | 00:00:00 | 00:00:00 | |
| OM5KV | 2026-09-01 03:04:54 | 48.19931 | 15.15669 | 87° | 93km/h | 14000m | -12.5m/s | -52.0°C | 1.8% | 0hPa | 2.7V | 08:28:00 | 00:00:00 | 00:00:00 | |
| DG1MFX-10 | 2026-09-01 03:04:53 | 48.19931 | 15.15669 | 87° | 93km/h | 14000m | -12.5m/s | -52.0°C | 1.8% | 0hPa | 2.7V | 08:28:00 | 00:00:00 | 00:00:00 | |
| PG1ADW-2 | 2026-09-01 03:04:52 | 48.19928 | 15.15599 | 86° | 91km/h | 14024m | -12.7m/s | -52.2°C | 4.0% | 0hPa | 2.7V | 00:00:00 | 00:00:00 | 00:00:00 | |
| OE5MMP-10 | 2026-09-01 03:04:50 | 48.19924 | 15.15528 | 87° | 93km/h | 14050m | -14.4m/s | -52.4°C | 4.1% | 0hPa | 2.7V | 00:00:00 | 01:15:48 | 00:00:00 | |
| PETON7-10 | 2026-09-01 03:04:49 | 48.19922 | 15.15493 | 86° | 89km/h | 14064m | -15.2m/s | -52.5°C | 4.1% | 0hPa | 2.7V | 00:00:00 | 01:15:47 | 00:00:00 | |
| OE8JPQ-2 | 2026-09-01 03:04:48 | 48.19920 | 15.15458 | 85° | 88km/h | 14079m | -15.5m/s | -52.6°C | 4.1% | 0hPa | 2.7V | 00:00:00 | 00:00:00 | 00:00:00 | |
| DO3MHA-12 | 2026-09-01 03:04:46 | 48.19916 | 15.15387 | 85° | 89km/h | 14109m | -14.6m/s | -52.7°C | 4.2% | 0hPa | 2.7V | 00:00:00 | 01:15:44 | 00:00:00 | |
| OE5DRO-10 | 2026-09-01 03:04:45 | 48.19914 | 15.15352 | 86° | 84km/h | 14123m | -14.2m/s | -52.8°C | 4.2% | 0hPa | 2.7V | 00:00:00 | 00:00:00 | 00:00:00 | |
| OM5KV | 2026-09-01 03:04:44 | 48.19914 | 15.15352 | 86° | 93km/h | 14123m | -14.3m/s | -52.9°C | 1.9% | 0hPa | 2.7V | 08:28:00 | 00:00:00 | 00:00:00 | |
| OE5WHR-10 | 2026-09-01 03:04:41 | 48.19908 | 15.15217 | 88° | 84km/h | 14175m | -14.8m/s | -52.9°C | 4.2% | 0hPa | 2.7V | 00:00:00 | 00:00:00 | 00:00:00 | |
| OE5MMP-10 | 2026-09-01 03:04:40 | 48.19907 | 15.15184 | 88° | 84km/h | 14190m | -15.1m/s | -52.9°C | 4.2% | 0hPa | 2.6V | 00:00:00 | 01:15:38 | 00:00:00 | |
| OE5DXL-15 | 2026-09-01 03:04:39 | 48.19906 | 15.15152 | 88° | 82km/h | 14206m | -17.3m/s | -52.9°C | 4.2% | 0hPa | 2.6V | 00:00:00 | 00:00:00 | 00:00:00 | |
| OM5KV | 2026-09-01 03:04:38 | 48.19906 | 15.15152 | 89° | 86km/h | 14206m | -17.3m/s | -53.0°C | 1.9% | 0hPa | 2.7V | 08:29:00 | 00:00:00 | 00:00:00 | |
| DO3MHA-12 | 2026-09-01 03:04:36 | 48.19902 | 15.15055 | 87° | 82km/h | 14255m | -16.3m/s | -52.7°C | 4.2% | 0hPa | 2.7V | 00:00:00 | 01:15:34 | 00:00:00 | |
| OM5KV | 2026-09-01 03:04:35 | 48.19901 | 15.15055 | 88° | 86km/h | 14255m | -16.3m/s | -52.8°C | 1.9% | 0hPa | 2.7V | 08:29:00 | 00:00:00 | 00:00:00 | |
| PETON7-10 | 2026-09-01 03:04:34 | 48.19899 | 15.14991 | 86° | 82km/h | 14288m | -15.5m/s | -52.7°C | 4.3% | 0hPa | 2.7V | 00:00:00 | 00:00:00 | 00:00:00 | |
| DG1MFX-10 | 2026-09-01 03:04:33 | 48.19899 | 15.14991 | 87° | 84km/h | 14288m | -15.5m/s | -52.8°C | 2.0% | 0hPa | 2.6V | 08:29:00 | 00:00:00 | 00:00:00 | |
| PG1ADW-2 | 2026-09-01 03:04:32 | 48.19897 | 15.14929 | 87° | 77km/h | 14316m | -15.7m/s | -52.9°C | 4.3% | 0hPa | 2.6V | 00:00:00 | 00:00:00 | 08:30:00 | |
| OE5MMP-10 | 2026-09-01 03:04:30 | 48.19895 | 15.14867 | 87° | 82km/h | 14344m | -11.0m/s | -52.9°C | 4.4% | 0hPa | 2.6V | 00:00:00 | 01:15:28 | 00:00:00 | |
| OM5KV | 2026-09-01 03:04:29 | 48.19895 | 15.14867 | 87° | 82km/h | 14344m | -11.1m/s | -53.0°C | 2.0% | 0hPa | 2.6V | 08:29:00 | 00:00:00 | 00:00:00 | |
| OE3JTB-15 | 2026-09-01 03:04:28 | 48.19893 | 15.14806 | 90° | 77km/h | 14367m | -12.8m/s | -52.8°C | 4.2% | 0hPa | 2.6V | 00:00:00 | 01:15:26 | 00:00:00 | |
| DO3MHA-12 | 2026-09-01 03:04:26 | 48.19892 | 15.14745 | 88° | 82km/h | 14394m | -17.2m/s | -52.9°C | 4.1% | 0hPa | 2.6V | 00:00:00 | 01:15:24 | 00:00:00 | |
| OM5KV | 2026-09-01 03:04:23 | 48.19890 | 15.14682 | 88° | 84km/h | 14429m | -17.0m/s | -53.0°C | 1.8% | 0hPa | 2.6V | 08:29:00 | 00:00:00 | 00:00:00 | |
| OE5WHR-10 | 2026-09-01 03:04:20 | 48.19885 | 15.14557 | 87° | 75km/h | 14494m | -16.0m/s | -52.6°C | 4.0% | 0hPa | 2.6V | 00:00:00 | 00:00:00 | 00:00:00 | |
| PETON7-10 | 2026-09-01 03:04:19 | 48.19884 | 15.14526 | 88° | 75km/h | 14509m | -14.2m/s | -52.5°C | 4.0% | 0hPa | 2.6V | 00:00:00 | 00:00:00 | 00:00:00 | |
| DO3MHA-12 | 2026-09-01 03:04:16 | 48.19881 | 15.14437 | 89° | 75km/h | 14551m | -14.6m/s | -52.6°C | 4.0% | 0hPa | 2.6V | 00:00:00 | 01:15:14 | 00:00:00 | |
| OM5KV | 2026-09-01 03:04:15 | 48.19881 | 15.14437 | 90° | 77km/h | 14551m | -14.6m/s | -52.7°C | 1.7% | 0hPa | 2.7V | 08:29:00 | 00:00:00 | 00:00:00 | |
| DG1MFX-10 | 2026-09-01 03:04:12 | 48.19880 | 15.14350 | 89° | 77km/h | 14594m | -12.9m/s | -53.0°C | 1.8% | 0hPa | 2.7V | 08:29:00 | 00:00:00 | 00:00:00 | |
| OM5KV | 2026-09-01 03:04:11 | 48.19879 | 15.14322 | 90° | 73km/h | 14605m | -10.7m/s | -53.1°C | 1.8% | 0hPa | 2.7V | 08:29:00 | 00:00:00 | 00:00:00 | |
| OE5MMP-10 | 2026-09-01 03:04:10 | 48.19877 | 15.14266 | 86° | 71km/h | 14629m | -13.5m/s | -53.2°C | 4.2% | 0hPa | 2.7V | 00:00:00 | 01:15:08 | 00:00:00 | |
| OE5FHM-15 | 2026-09-01 03:04:09 | 48.19876 | 15.14238 | 89° | 73km/h | 14642m | -11.7m/s | -53.3°C | 4.2% | 0hPa | 2.7V | 00:00:00 | 01:15:07 | 00:00:00 | |
| OE8JPQ-2 | 2026-09-01 03:04:08 | 48.19875 | 15.14211 | 85° | 73km/h | 14653m | -9.1m/s | -53.3°C | 4.2% | 0hPa | 2.7V | 00:00:00 | 00:00:00 | 00:00:00 | |
| DO3MHA-12 | 2026-09-01 03:04:06 | 48.19872 | 15.14157 | 86° | 71km/h | 14675m | -12.7m/s | -53.4°C | 4.2% | 0hPa | 2.7V | 00:00:00 | 01:15:04 | 00:00:00 | |
| S52SK | 2026-09-01 03:04:05 | 48.19872 | 15.14157 | 87° | 69km/h | 14675m | -12.7m/s | -53.4°C | 1.7% | 0hPa | 2.7V | 00:00:00 | 00:00:00 | 00:00:00 | |
| PETON7-10 | 2026-09-01 03:04:04 | 48.19868 | 15.14106 | 81° | 73km/h | 14699m | -12.6m/s | -53.4°C | 4.1% | 0hPa | 2.7V | 00:00:00 | 01:15:02 | 00:00:00 | |
| OE5DRO-10 | 2026-09-01 03:04:01 | 48.19860 | 15.14027 | 79° | 75km/h | 14739m | -13.4m/s | -53.5°C | 4.2% | 0hPa | 2.7V | 00:00:00 | 00:00:00 | 00:00:00 | |
| OE5MMP-10 | 2026-09-01 03:04:00 | 48.19856 | 15.14000 | 80° | 75km/h | 14751m | -10.6m/s | -53.4°C | 4.2% | 0hPa | 2.7V | 00:00:00 | 01:14:58 | 00:00:00 | |
| OE5WHR-10 | 2026-09-01 03:03:59 | 48.19853 | 15.13973 | 80° | 75km/h | 14762m | -11.9m/s | -53.3°C | 4.1% | 0hPa | 2.7V | 00:00:00 | 01:14:57 | 00:00:00 | |
| OM5KV | 2026-09-01 03:03:58 | 48.19853 | 15.13973 | 81° | 71km/h | 14762m | -12.0m/s | -53.4°C | 1.7% | 0hPa | 2.7V | 08:29:00 | 00:00:00 | 00:00:00 | |
| DO3MHA-12 | 2026-09-01 03:03:56 | 48.19842 | 15.13893 | 76° | 77km/h | 14796m | -12.4m/s | -53.4°C | 4.2% | 0hPa | 2.7V | 00:00:00 | 01:14:54 | 00:00:00 | |
| DG1MFX-10 | 2026-09-01 03:03:51 | 48.19826 | 15.13782 | 79° | 75km/h | 14841m | -12.1m/s | -52.9°C | 1.7% | 0hPa | 2.7V | 08:29:00 | 00:00:00 | 00:00:00 | |
| PETON7-10 | 2026-09-01 03:03:49 | 48.19815 | 15.13697 | 79° | 75km/h | 14876m | -12.0m/s | -53.0°C | 4.0% | 0hPa | 2.7V | 00:00:00 | 00:00:00 | 00:00:00 | |
| OE8JPQ-2 | 2026-09-01 03:03:48 | 48.19812 | 15.13668 | 80° | 71km/h | 14888m | -10.8m/s | -53.0°C | 4.0% | 0hPa | 2.6V | 00:00:00 | 00:00:00 | 00:00:00 | |
| OM5KV | 2026-09-01 03:03:47 | 48.19812 | 15.13668 | 81° | 78km/h | 14888m | -10.9m/s | -53.1°C | 1.6% | 0hPa | 2.6V | 00:00:00 | 00:00:00 | 00:00:00 | |
| DO3MHA-12 | 2026-09-01 03:03:46 | 48.19805 | 15.13611 | 80° | 75km/h | 14913m | -13.4m/s | -53.2°C | 4.0% | 0hPa | 2.6V | 00:00:00 | 01:14:44 | 08:30:00 | |
| PG1ADW-2 | 2026-09-01 03:03:44 | 48.19799 | 15.13553 | 83° | 73km/h | 14939m | -14.4m/s | -53.3°C | 4.1% | 0hPa | 2.7V | 00:00:00 | 01:14:42 | 00:00:00 | |
| OE5DRO-10 | 2026-09-01 03:03:42 | 48.19795 | 15.13496 | 83° | 69km/h | 14966m | -12.3m/s | -53.2°C | 4.1% | 0hPa | 2.7V | 00:00:00 | 00:00:00 | 00:00:00 | |
| OE5MMP-10 | 2026-09-01 03:03:40 | 48.19791 | 15.13441 | 86° | 69km/h | 14989m | -13.9m/s | -53.3°C | 4.0% | 0hPa | 2.7V | 00:00:00 | 01:14:38 | 00:00:00 | |
| OE5FHM-15 | 2026-09-01 03:03:39 | 48.19790 | 15.13414 | 86° | 69km/h | 15003m | -13.6m/s | -53.3°C | 4.1% | 0hPa | 2.7V | 00:00:00 | 01:14:37 | 00:00:00 | |
| OE5WHR-10 | 2026-09-01 03:03:38 | 48.19789 | 15.13387 | 87° | 68km/h | 15016m | -12.3m/s | -53.3°C | 4.1% | 0hPa | 2.6V | 00:00:00 | 00:00:00 | 00:00:00 | |
| OE3OSB-13 | 2026-09-01 03:03:37 | 48.19788 | 15.13361 | 85° | 71km/h | 15027m | -12.1m/s | -53.3°C | 1.5% | -1.0hPa | 2.6V | 00:00:00 | 00:00:00 | 00:00:00 | |
| DO3MHA-12 | 2026-09-01 03:03:36 | 48.19786 | 15.13334 | 87° | 68km/h | 15039m | -12.7m/s | -53.2°C | 4.0% | 0hPa | 2.6V | 00:00:00 | 01:14:34 | 00:00:00 | |
| PETON7-10 | 2026-09-01 03:03:34 | 48.19784 | 15.13284 | 83° | 68km/h | 15065m | -13.6m/s | -53.1°C | 4.0% | 0hPa | 2.6V | 00:00:00 | 00:00:00 | 00:00:00 | |
| OK1ALN | 2026-09-01 03:03:32 | 48.19782 | 15.13259 | 87° | 68km/h | 15078m | -12.4m/s | -53.1°C | 1.7% | 0hPa | 2.6V | 00:00:00 | 00:00:00 | 00:00:00 | |
| OM5KV | 2026-09-01 03:03:31 | 48.19780 | 15.13210 | 84° | 64km/h | 15100m | -11.0m/s | -52.9°C | 1.6% | 0hPa | 2.6V | 00:00:00 | 00:00:00 | 00:00:00 | |
| OE5MMP-10 | 2026-09-01 03:03:30 | 48.19777 | 15.13185 | 82° | 68km/h | 15112m | -12.4m/s | -52.8°C | 3.9% | 0hPa | 2.6V | 00:00:00 | 01:14:28 | 00:00:00 | |
| OM5KV | 2026-09-01 03:03:29 | 48.19777 | 15.13185 | 83° | 68km/h | 15112m | -12.4m/s | -52.9°C | 1.6% | 0hPa | 2.6V | 00:00:00 | 00:00:00 | 00:00:00 | |
| OE8JPQ-2 | 2026-09-01 03:03:28 | 48.19773 | 15.13135 | 83° | 69km/h | 15135m | -13.0m/s | -52.8°C | 3.9% | 0hPa | 2.6V | 00:00:00 | 01:14:26 | 00:00:00 | |
| DO3MHA-12 | 2026-09-01 03:03:26 | 48.19767 | 15.13085 | 82° | 69km/h | 15161m | -12.3m/s | -52.9°C | 4.0% | 0hPa | 2.6V | 00:00:00 | 01:14:24 | 00:00:00 | |
| PG1ADW-2 | 2026-09-01 03:03:24 | 48.19761 | 15.13036 | 79° | 69km/h | 15185m | -11.1m/s | -52.9°C | 4.0% | 0hPa | 2.6V | 00:00:00 | 00:00:00 | 00:00:00 | |
| OE5DRO-10 | 2026-09-01 03:03:23 | 48.19758 | 15.13010 | 80° | 68km/h | 15196m | -12.6m/s | -52.8°C | 3.9% | 0hPa | 2.7V | 00:00:00 | 00:00:00 | 00:00:00 | |
| OE5MMP-10 | 2026-09-01 03:03:20 | 48.19746 | 15.12934 | 77° | 69km/h | 15235m | -14.6m/s | -52.9°C | 3.9% | 0hPa | 2.6V | 00:00:00 | 01:14:18 | 00:00:00 | |
| PETON7-10 | 2026-09-01 03:03:19 | 48.19742 | 15.12908 | 79° | 69km/h | 15249m | -14.6m/s | -53.0°C | 3.9% | 0hPa | 2.7V | 00:00:00 | 01:14:17 | 00:00:00 | |
| OM5KV | 2026-09-01 03:03:18 | 48.19742 | 15.12908 | 80° | 71km/h | 15249m | -14.7m/s | -53.1°C | 1.6% | 0hPa | 2.7V | 00:00:00 | 00:00:00 | 00:00:00 | |
| OE5WHR-10 | 2026-09-01 03:03:17 | 48.19735 | 15.12856 | 81° | 66km/h | 15278m | -13.7m/s | -52.9°C | 3.9% | 0hPa | 2.7V | 00:00:00 | 00:00:00 | 00:00:00 | |
| DO3MHA-12 | 2026-09-01 03:03:16 | 48.19732 | 15.12830 | 79° | 69km/h | 15291m | -12.7m/s | -52.9°C | 3.9% | 0hPa | 2.7V | 00:00:00 | 01:14:14 | 00:00:00 | |
| OM5KV | 2026-09-01 03:03:12 | 48.19722 | 15.12753 | 80° | 69km/h | 15330m | -16.7m/s | -53.1°C | 1.6% | 0hPa | 2.6V | 00:00:00 | 00:00:00 | 00:00:00 | |
| OE5MMP-10 | 2026-09-01 03:03:10 | 48.19714 | 15.12675 | 81° | 66km/h | 15376m | -14.2m/s | -53.2°C | 4.0% | 0hPa | 2.6V | 00:00:00 | 01:14:08 | 00:00:00 | |
| OE5DXL-15 | 2026-09-01 03:03:09 | 48.19711 | 15.12649 | 85° | 53km/h | 15391m | -14.3m/s | -53.2°C | 4.0% | 0hPa | 2.6V | 00:00:00 | 00:00:00 | 08:30:00 | |
| OE8JPQ-2 | 2026-09-01 03:03:08 | 48.19710 | 15.12624 | 85° | 57km/h | 15405m | -14.4m/s | -53.3°C | 4.0% | 0hPa | 2.6V | 00:00:00 | 00:00:00 | 00:00:00 | |
| OM5KV | 2026-09-01 03:03:07 | 48.19710 | 15.12624 | 86° | 66km/h | 15405m | -14.5m/s | -53.4°C | 1.6% | 0hPa | 2.6V | 00:00:00 | 00:00:00 | 00:00:00 | |
| DO3MHA-12 | 2026-09-01 03:03:06 | 48.19706 | 15.12573 | 86° | 62km/h | 15432m | -13.3m/s | -53.5°C | 4.1% | 0hPa | 2.6V | 00:00:00 | 01:14:04 | 00:00:00 | |
| PETON7-10 | 2026-09-01 03:03:04 | 48.19704 | 15.12524 | 85° | 55km/h | 15460m | -15.8m/s | -53.6°C | 4.2% | 0hPa | 2.6V | 00:00:00 | 00:00:00 | 08:30:00 | |
| OE3JTB-15 | 2026-09-01 03:03:01 | 48.19700 | 15.12453 | 87° | 46km/h | 15502m | -13.2m/s | -53.7°C | 4.3% | 0hPa | 2.6V | 00:00:00 | 01:13:59 | 00:00:00 | |
| OE5MMP-10 | 2026-09-01 03:03:00 | 48.19699 | 15.12429 | 86° | 53km/h | 15515m | -12.1m/s | -53.5°C | 4.3% | 0hPa | 2.6V | 00:00:00 | 01:13:58 | 00:00:00 | |
| OM5KV | 2026-09-01 03:02:56 | 48.19694 | 15.12343 | 86° | 53km/h | 15566m | -14.1m/s | -53.3°C | 1.6% | 0hPa | 2.6V | 00:00:00 | 00:00:00 | 00:00:00 | |
| S52SK | 2026-09-01 03:02:55 | 48.19694 | 15.12343 | 86° | 53km/h | 15566m | -14.1m/s | -53.3°C | 1.6% | 0hPa | 2.6V | 00:00:00 | 00:00:00 | 00:00:00 | |
| OM5KV | 2026-09-01 03:02:54 | 48.19693 | 15.12323 | 89° | 51km/h | 15581m | -16.6m/s | -53.3°C | 1.6% | 0hPa | 2.6V | 00:00:00 | 00:00:00 | 00:00:00 | |
| OE5MMP-10 | 2026-09-01 03:02:50 | 48.19688 | 15.12230 | 83° | 42km/h | 15659m | -13.5m/s | -52.9°C | 3.9% | 0hPa | 2.6V | 00:00:00 | 01:13:48 | 00:00:00 | |
| PETON7-10 | 2026-09-01 03:02:49 | 48.19687 | 15.12213 | 87° | 42km/h | 15671m | -11.2m/s | -52.9°C | 3.9% | 0hPa | 2.7V | 00:00:00 | 00:00:00 | 00:00:00 | |
| OE8JPQ-2 | 2026-09-01 03:02:48 | 48.19686 | 15.12196 | 87° | 42km/h | 15684m | -13.7m/s | -52.8°C | 3.8% | 0hPa | 2.7V | 00:00:00 | 00:00:00 | 00:00:00 | |
| DO3MHA-12 | 2026-09-01 03:02:46 | 48.19685 | 15.12163 | 83° | 40km/h | 15713m | -16.4m/s | -52.9°C | 3.8% | 0hPa | 2.7V | 00:00:00 | 01:13:44 | 00:00:00 | |
| OM5KV | 2026-09-01 03:02:43 | 48.19683 | 15.12132 | 88° | 40km/h | 15742m | -13.0m/s | -52.9°C | 1.5% | 0hPa | 2.7V | 00:00:00 | 00:00:00 | 00:00:00 | |
| PG1ADW-2 | 2026-09-01 03:02:42 | 48.19681 | 15.12103 | 84° | 42km/h | 15769m | -13.9m/s | -52.8°C | 3.7% | 0hPa | 2.7V | 00:00:00 | 00:00:00 | 00:00:00 | |
| OE5MMP-10 | 2026-09-01 03:02:40 | 48.19679 | 15.12073 | 87° | 42km/h | 15795m | -12.4m/s | -52.9°C | 3.9% | 0hPa | 2.7V | 00:00:00 | 01:13:38 | 00:00:00 | |
| OE5FHM-15 | 2026-09-01 03:02:39 | 48.19679 | 15.12058 | 88° | 44km/h | 15807m | -10.6m/s | -52.9°C | 3.9% | 0hPa | 2.7V | 00:00:00 | 01:13:37 | 00:00:00 | |
| OM5KV | 2026-09-01 03:02:37 | 48.19678 | 15.12044 | 89° | 38km/h | 15814m | -3.0m/s | -52.9°C | 1.6% | 0hPa | 2.7V | 00:00:00 | 00:00:00 | 00:00:00 | |
| OM5KV | 2026-09-01 03:02:36 | 48.19678 | 15.12029 | 91° | 42km/h | 15812m | 7.1m/s | -52.9°C | 1.5% | 0hPa | 2.7V | 00:00:00 | 00:00:00 | 00:00:00 | |
| OE5WHR-10 | 2026-09-01 03:02:35 | 48.19678 | 15.11998 | 89° | 42km/h | 15800m | 5.0m/s | -52.9°C | 3.9% | 0hPa | 2.7V | 00:00:00 | 00:00:00 | 08:30:00 | |
| PETON7-10 | 2026-09-01 03:02:34 | 48.19678 | 15.11982 | 91° | 42km/h | 15795m | 4.8m/s | -52.9°C | 3.9% | 0hPa | 2.7V | 00:00:00 | 01:13:32 | 00:00:00 | |
| OE3JTB-15 | 2026-09-01 03:02:32 | 48.19679 | 15.11949 | 96° | 46km/h | 15784m | 4.7m/s | -52.8°C | 3.9% | 0hPa | 2.7V | 00:00:00 | 00:00:00 | 00:00:00 | |
| OM5KV | 2026-09-01 03:02:31 | 48.19680 | 15.11949 | 97° | 42km/h | 15784m | 4.8m/s | -52.9°C | 1.5% | 0hPa | 2.7V | 00:00:00 | 00:00:00 | 00:00:00 | |
| OE5MMP-10 | 2026-09-01 03:02:30 | 48.19681 | 15.11916 | 89° | 42km/h | 15773m | 4.8m/s | -52.9°C | 3.9% | 0hPa | 2.7V | 00:00:00 | 01:13:28 | 00:00:00 | |
| OE8JPQ-2 | 2026-09-01 03:02:28 | 48.19681 | 15.11880 | 92° | 46km/h | 15763m | 6.3m/s | -52.8°C | 3.9% | 0hPa | 2.7V | 00:00:00 | 01:13:26 | 00:00:00 | |
| DG1MFX-10 | 2026-09-01 03:02:27 | 48.19681 | 15.11880 | 92° | 46km/h | 15763m | 6.3m/s | -52.9°C | 1.6% | 0hPa | 2.7V | 00:00:00 | 00:00:00 | 00:00:00 | |
| OM5KV | 2026-09-01 03:02:25 | 48.19680 | 15.11847 | 87° | 42km/h | 15753m | 5.9m/s | -52.9°C | 1.5% | 0hPa | 2.7V | 00:00:00 | 00:00:00 | 00:00:00 | |
| DO3MHA-12 | 2026-09-01 03:02:24 | 48.19677 | 15.11816 | 84° | 38km/h | 15742m | 5.7m/s | -52.8°C | 3.8% | 0hPa | 2.7V | 00:00:00 | 01:13:22 | 00:00:00 | |
| PG1ADW-2 | 2026-09-01 03:02:22 | 48.19675 | 15.11787 | 83° | 47km/h | 15732m | 5.0m/s | -52.9°C | 3.9% | 0hPa | 2.7V | 00:00:00 | 01:13:20 | 00:00:00 | |
| OE5MMP-10 | 2026-09-01 03:02:20 | 48.19672 | 15.11758 | 80° | 46km/h | 15721m | 3.9m/s | -53.0°C | 3.9% | 0hPa | 2.7V | 00:00:00 | 01:13:18 | 08:30:00 | |
| PETON7-10 | 2026-09-01 03:02:19 | 48.19671 | 15.11743 | 86° | 47km/h | 15716m | 6.4m/s | -53.0°C | 3.9% | 0hPa | 2.7V | 00:00:00 | 00:00:00 | 00:00:00 | |
| DO3MHA-12 | 2026-09-01 03:02:14 | 48.19668 | 15.11659 | 89° | 49km/h | 15688m | 5.2m/s | -53.0°C | 3.9% | 0hPa | 2.7V | 00:00:00 | 01:13:12 | 08:30:00 | |
| OM5KV | 2026-09-01 03:02:13 | 48.19668 | 15.11659 | 90° | 49km/h | 15688m | 5.2m/s | -53.0°C | 1.5% | 0hPa | 2.7V | 00:00:00 | 00:00:00 | 00:00:00 | |
| OE5MMP-10 | 2026-09-01 03:02:10 | 48.19662 | 15.11582 | 82° | 47km/h | 15666m | 5.0m/s | -53.0°C | 4.0% | 0hPa | 2.7V | 00:00:00 | 01:13:08 | 00:00:00 | |
| OE5FHM-15 | 2026-09-01 03:02:09 | 48.19661 | 15.11562 | 83° | 53km/h | 15662m | 4.1m/s | -53.0°C | 3.9% | 0hPa | 2.7V | 00:00:00 | 01:13:07 | 00:00:00 | |
| OE8JPQ-2 | 2026-09-01 03:02:08 | 48.19659 | 15.11543 | 81° | 51km/h | 15656m | 6.2m/s | -53.0°C | 3.9% | 0hPa | 2.7V | 00:00:00 | 00:00:00 | 08:30:00 | |
| DG1MFX-10 | 2026-09-01 03:02:06 | 48.19657 | 15.11525 | 80° | 47km/h | 15651m | 4.3m/s | -53.1°C | 1.6% | 0hPa | 2.7V | 00:00:00 | 00:00:00 | 00:00:00 | |
| PETON7-10 | 2026-09-01 03:02:04 | 48.19652 | 15.11473 | 86° | 51km/h | 15637m | 3.9m/s | -53.2°C | 4.0% | 0hPa | 2.7V | 00:00:00 | 00:00:00 | 00:00:00 | |
| OE3JTB-15 | 2026-09-01 03:02:03 | 48.19651 | 15.11456 | 85° | 57km/h | 15632m | 6.2m/s | -53.2°C | 3.9% | 0hPa | 2.7V | 00:00:00 | 00:00:00 | 00:00:00 | |
| OE5MMP-10 | 2026-09-01 03:02:00 | 48.19648 | 15.11403 | 86° | 51km/h | 15616m | 3.4m/s | -53.4°C | 4.0% | 0hPa | 2.7V | 00:00:00 | 01:12:58 | 00:00:00 | |
| PG1ADW-2 | 2026-09-01 03:01:59 | 48.19647 | 15.11384 | 85° | 57km/h | 15612m | 5.0m/s | -53.3°C | 4.0% | 0hPa | 2.7V | 00:00:00 | 00:00:00 | 00:00:00 | |
| OM5KV | 2026-09-01 03:01:57 | 48.19645 | 15.11365 | 86° | 51km/h | 15608m | 3.9m/s | -53.4°C | 1.6% | 0hPa | 2.7V | 00:00:00 | 00:00:00 | 00:00:00 | |
| OE5WHR-10 | 2026-09-01 03:01:53 | 48.19644 | 15.11269 | 90° | 60km/h | 15580m | 5.2m/s | -53.3°C | 4.0% | 0hPa | 2.7V | 00:00:00 | 01:12:51 | 00:00:00 | |
| OM5KV | 2026-09-01 03:01:51 | 48.19645 | 15.11248 | 93° | 53km/h | 15575m | 6.1m/s | -53.4°C | 1.6% | 0hPa | 2.7V | 00:00:00 | 00:00:00 | 00:00:00 | |
| OE5MMP-10 | 2026-09-01 03:01:50 | 48.19644 | 15.11207 | 88° | 58km/h | 15563m | 5.1m/s | -53.4°C | 4.0% | 0hPa | 2.7V | 00:00:00 | 01:12:48 | 00:00:00 | |
| PETON7-10 | 2026-09-01 03:01:49 | 48.19643 | 15.11186 | 87° | 62km/h | 15558m | 5.0m/s | -53.4°C | 4.0% | 0hPa | 2.7V | 00:00:00 | 01:12:47 | 00:00:00 | |
| OE8JPQ-2 | 2026-09-01 03:01:48 | 48.19643 | 15.11165 | 90° | 64km/h | 15552m | 5.3m/s | -53.4°C | 4.0% | 0hPa | 2.7V | 00:00:00 | 00:00:00 | 00:00:00 | |
| DG1MFX-10 | 2026-09-01 03:01:46 | 48.19643 | 15.11143 | 91° | 58km/h | 15548m | 2.9m/s | -53.5°C | 1.6% | 0hPa | 2.7V | 00:00:00 | 00:00:00 | 00:00:00 | |
| OM5KV | 2026-09-01 03:01:45 | 48.19642 | 15.11121 | 89° | 58km/h | 15543m | 6.4m/s | -53.5°C | 1.6% | 0hPa | 2.7V | 00:00:00 | 00:00:00 | 00:00:00 | |
| OE5MMP-10 | 2026-09-01 03:01:40 | 48.19635 | 15.10986 | 83° | 68km/h | 15513m | 4.2m/s | -53.8°C | 4.2% | 0hPa | 2.7V | 00:00:00 | 01:12:38 | 00:00:00 | |
| OE5FHM-15 | 2026-09-01 03:01:39 | 48.19634 | 15.10962 | 86° | 69km/h | 15508m | 6.3m/s | -53.8°C | 4.2% | 0hPa | 2.7V | 00:00:00 | 01:12:37 | 00:00:00 | |
| S52SK | 2026-09-01 03:01:38 | 48.19633 | 15.10962 | 87° | 64km/h | 15508m | 6.4m/s | -53.8°C | 1.7% | 0hPa | 2.7V | 00:00:00 | 00:00:00 | 00:00:00 | |
| PETON7-10 | 2026-09-01 03:01:34 | 48.19628 | 15.10836 | 87° | 68km/h | 15483m | 4.4m/s | -53.8°C | 4.2% | 0hPa | 2.7V | 00:00:00 | 00:00:00 | 00:00:00 | |
| DO3MHA-12 | 2026-09-01 03:01:33 | 48.19627 | 15.10810 | 88° | 68km/h | 15477m | 6.0m/s | -53.8°C | 4.2% | 0hPa | 2.7V | 00:00:00 | 01:12:31 | 00:00:00 | |
| OE5WHR-10 | 2026-09-01 03:01:32 | 48.19626 | 15.10784 | 86° | 69km/h | 15472m | 3.9m/s | -53.7°C | 4.2% | 0hPa | 2.7V | 00:00:00 | 00:00:00 | 00:00:00 | |
| OE5MMP-10 | 2026-09-01 03:01:30 | 48.19624 | 15.10734 | 88° | 68km/h | 15462m | 4.9m/s | -53.7°C | 4.2% | 0hPa | 2.7V | 00:00:00 | 01:12:28 | 00:00:00 | |
| OM5KV | 2026-09-01 03:01:29 | 48.19624 | 15.10734 | 88° | 66km/h | 15462m | 4.9m/s | -53.8°C | 1.7% | 0hPa | 2.7V | 00:00:00 | 00:00:00 | 00:00:00 | |
| OE8JPQ-2 | 2026-09-01 03:01:28 | 48.19622 | 15.10683 | 87° | 69km/h | 15453m | 4.3m/s | -53.7°C | 4.2% | 0hPa | 2.7V | 00:00:00 | 01:12:26 | 00:00:00 | |
| OM5KV | 2026-09-01 03:01:27 | 48.19622 | 15.10683 | 87° | 68km/h | 15453m | 4.3m/s | -53.7°C | 1.7% | 0hPa | 2.7V | 00:00:00 | 00:00:00 | 00:00:00 | |
| DG1MFX-10 | 2026-09-01 03:01:25 | 48.19621 | 15.10633 | 88° | 64km/h | 15443m | 5.3m/s | -53.7°C | 1.7% | 0hPa | 2.7V | 00:00:00 | 00:00:00 | 00:00:00 | |
| OE5DRO-10 | 2026-09-01 03:01:24 | 48.19618 | 15.10584 | 85° | 71km/h | 15434m | 5.6m/s | -53.5°C | 4.1% | 0hPa | 2.7V | 00:00:00 | 00:00:00 | 00:00:00 | |
| DO3MHA-12 | 2026-09-01 03:01:23 | 48.19615 | 15.10558 | 82° | 69km/h | 15429m | 4.7m/s | -53.5°C | 4.2% | 0hPa | 2.7V | 00:00:00 | 01:12:21 | 00:00:00 | |
| OE5MMP-10 | 2026-09-01 03:01:20 | 48.19607 | 15.10480 | 80° | 71km/h | 15413m | 6.8m/s | -53.4°C | 4.1% | 0hPa | 2.7V | 00:00:00 | 01:12:18 | 00:00:00 | |
| PETON7-10 | 2026-09-01 03:01:19 | 48.19604 | 15.10453 | 83° | 71km/h | 15408m | 4.2m/s | -53.4°C | 4.1% | 0hPa | 2.7V | 00:00:00 | 00:00:00 | 00:00:00 | |
| OM5KV | 2026-09-01 03:01:16 | 48.19600 | 15.10401 | 86° | 68km/h | 15398m | 4.0m/s | -53.4°C | 1.6% | 0hPa | 2.7V | 00:00:00 | 00:00:00 | 00:00:00 | |
| OM5KV | 2026-09-01 03:01:14 | 48.19596 | 15.10349 | 85° | 71km/h | 15390m | 4.6m/s | -53.4°C | 1.6% | 0hPa | 2.7V | 00:00:00 | 00:00:00 | 00:00:00 | |
| DO3MHA-12 | 2026-09-01 03:01:13 | 48.19593 | 15.10294 | 87° | 71km/h | 15381m | 5.6m/s | -53.4°C | 4.1% | 0hPa | 2.7V | 00:00:00 | 01:12:11 | 00:00:00 | |
| OE5WHR-10 | 2026-09-01 03:01:11 | 48.19591 | 15.10242 | 84° | 71km/h | 15371m | 4.4m/s | -53.4°C | 4.1% | 0hPa | 2.7V | 00:00:00 | 00:00:00 | 00:00:00 | |
| OE5MMP-10 | 2026-09-01 03:01:10 | 48.19589 | 15.10214 | 84° | 71km/h | 15366m | 4.7m/s | -53.3°C | 4.1% | 0hPa | 2.7V | 00:00:00 | 01:12:08 | 00:00:00 | |
| OE5DXL-15 | 2026-09-01 03:01:09 | 48.19587 | 15.10186 | 82° | 71km/h | 15362m | 4.2m/s | -53.3°C | 4.1% | 0hPa | 2.7V | 00:00:00 | 00:00:00 | 00:00:00 | |
| OE8JPQ-2 | 2026-09-01 03:01:08 | 48.19584 | 15.10160 | 80° | 71km/h | 15357m | 5.8m/s | -53.3°C | 4.1% | 0hPa | 2.7V | 00:00:00 | 00:00:00 | 00:00:00 | |
| OE5DRO-10 | 2026-09-01 03:01:05 | 48.19572 | 15.10081 | 75° | 69km/h | 15341m | 5.0m/s | -53.2°C | 4.1% | 0hPa | 2.7V | 00:00:00 | 00:00:00 | 00:00:00 | |
| PETON7-10 | 2026-09-01 03:01:04 | 48.19567 | 15.10056 | 72° | 71km/h | 15336m | 5.1m/s | -53.2°C | 4.1% | 0hPa | 2.7V | 00:00:00 | 01:12:02 | 00:00:00 | |
| DO3MHA-12 | 2026-09-01 03:01:03 | 48.19561 | 15.10031 | 73° | 71km/h | 15331m | 4.8m/s | -53.3°C | 4.1% | 0hPa | 2.7V | 00:00:00 | 01:12:01 | 00:00:00 | |
| OE3OSB-13 | 2026-09-01 03:01:02 | 48.19552 | 15.09981 | 76° | 68km/h | 15322m | 5.3m/s | -53.3°C | 1.5% | -1.0hPa | 2.7V | 00:00:00 | 00:00:00 | 00:00:00 | |
| OE5MMP-10 | 2026-09-01 03:01:00 | 48.19548 | 15.09955 | 77° | 71km/h | 15317m | 5.3m/s | -53.2°C | 4.0% | 0hPa | 2.7V | 00:00:00 | 01:11:58 | 00:00:00 | |
| PG1ADW-2 | 2026-09-01 03:00:59 | 48.19544 | 15.09930 | 81° | 71km/h | 15312m | 4.4m/s | -53.3°C | 4.1% | 0hPa | 2.7V | 00:00:00 | 01:11:57 | 00:00:00 | |
| OM5KV | 2026-09-01 03:00:58 | 48.19544 | 15.09930 | 81° | 68km/h | 15312m | 4.4m/s | -53.3°C | 1.7% | 0hPa | 2.7V | 00:00:00 | 00:00:00 | 00:00:00 | |
| OM5KV | 2026-09-01 03:00:53 | 48.19529 | 15.09798 | 78° | 71km/h | 15288m | 3.9m/s | -53.4°C | 1.7% | 0hPa | 2.7V | 00:00:00 | 00:00:00 | 00:00:00 | |
| OE5MMP-10 | 2026-09-01 03:00:50 | 48.19510 | 15.09692 | 75° | 69km/h | 15268m | 4.2m/s | -53.2°C | 4.1% | 0hPa | 2.7V | 00:00:00 | 01:11:48 | 08:30:00 | |
| PETON7-10 | 2026-09-01 03:00:49 | 48.19505 | 15.09667 | 74° | 68km/h | 15263m | 4.4m/s | -53.2°C | 4.1% | 0hPa | 2.7V | 00:00:00 | 00:00:00 | 08:30:00 | |
| OE8JPQ-2 | 2026-09-01 03:00:48 | 48.19500 | 15.09640 | 76° | 68km/h | 15259m | 5.2m/s | -53.1°C | 4.1% | 0hPa | 2.7V | 00:00:00 | 00:00:00 | 00:00:00 | |
| OM5KV | 2026-09-01 03:00:47 | 48.19500 | 15.09640 | 77° | 73km/h | 15259m | 5.2m/s | -53.2°C | 1.7% | 0hPa | 2.7V | 00:00:00 | 00:00:00 | 00:00:00 | |
| DO3MHA-12 | 2026-09-01 03:00:43 | 48.19482 | 15.09511 | 78° | 68km/h | 15234m | 4.4m/s | -53.1°C | 4.0% | 0hPa | 2.7V | 00:00:00 | 01:11:41 | 08:30:00 | |
| OM5KV | 2026-09-01 03:00:41 | 48.19479 | 15.09486 | 79° | 68km/h | 15228m | 6.0m/s | -53.1°C | 1.6% | 0hPa | 2.7V | 00:00:00 | 00:00:00 | 00:00:00 | |
| OE5MMP-10 | 2026-09-01 03:00:40 | 48.19471 | 15.09436 | 78° | 66km/h | 15218m | 4.8m/s | -53.1°C | 4.0% | 0hPa | 2.7V | 00:00:00 | 01:11:38 | 00:00:00 | |
| OE5FHM-15 | 2026-09-01 03:00:39 | 48.19468 | 15.09411 | 77° | 68km/h | 15213m | 4.9m/s | -53.2°C | 4.1% | 0hPa | 2.7V | 00:00:00 | 01:11:37 | 08:30:00 | |
| OE3JTB-15 | 2026-09-01 03:00:36 | 48.19457 | 15.09337 | 79° | 68km/h | 15198m | 5.1m/s | -53.2°C | 4.1% | 0hPa | 2.7V | 00:00:00 | 00:00:00 | 00:00:00 | |
| OM5KV | 2026-09-01 03:00:35 | 48.19457 | 15.09337 | 79° | 64km/h | 15198m | 5.1m/s | -53.2°C | 1.7% | 0hPa | 2.7V | 00:00:00 | 00:00:00 | 00:00:00 | |
| PETON7-10 | 2026-09-01 03:00:34 | 48.19450 | 15.09289 | 77° | 68km/h | 15187m | 2.8m/s | -53.1°C | 4.1% | 0hPa | 2.7V | 00:00:00 | 00:00:00 | 00:00:00 | |
| DO3MHA-12 | 2026-09-01 03:00:33 | 48.19447 | 15.09264 | 79° | 68km/h | 15183m | 4.9m/s | -53.1°C | 4.0% | 0hPa | 2.7V | 00:00:00 | 01:11:31 | 00:00:00 | |
| OE3OSB-13 | 2026-09-01 03:00:31 | 48.19438 | 15.09190 | 81° | 68km/h | 15167m | 4.1m/s | -53.1°C | 1.5% | -1.0hPa | 2.7V | 00:00:00 | 00:00:00 | 00:00:00 | |
| OE5MMP-10 | 2026-09-01 03:00:30 | 48.19438 | 15.09190 | 82° | 68km/h | 15168m | 4.0m/s | -53.1°C | 4.1% | 0hPa | 2.7V | 00:00:00 | 01:11:28 | 00:00:00 | |
| OE5WHR-10 | 2026-09-01 03:00:29 | 48.19435 | 15.09165 | 82° | 68km/h | 15163m | 5.5m/s | -53.1°C | 4.0% | 0hPa | 2.7V | 00:00:00 | 00:00:00 | 00:00:00 | |
| OE8JPQ-2 | 2026-09-01 03:00:28 | 48.19433 | 15.09140 | 84° | 68km/h | 15157m | 4.7m/s | -53.1°C | 4.0% | 0hPa | 2.7V | 00:00:00 | 01:11:26 | 00:00:00 | |
| DO3MHA-12 | 2026-09-01 03:00:23 | 48.19421 | 15.09015 | 81° | 68km/h | 15131m | 4.7m/s | -53.1°C | 4.0% | 0hPa | 2.7V | 00:00:00 | 01:11:21 | 00:00:00 | |
| DG1MFX-10 | 2026-09-01 03:00:21 | 48.19419 | 15.08990 | 85° | 66km/h | 15126m | 5.2m/s | -53.2°C | 1.7% | 0hPa | 2.7V | 00:00:00 | 00:00:00 | 00:00:00 | |
| OE5MMP-10 | 2026-09-01 03:00:20 | 48.19417 | 15.08940 | 87° | 68km/h | 15116m | 4.8m/s | -53.2°C | 4.1% | 0hPa | 2.7V | 00:00:00 | 01:11:18 | 00:00:00 | |
| PETON7-10 | 2026-09-01 03:00:19 | 48.19416 | 15.08915 | 87° | 68km/h | 15111m | 5.3m/s | -53.2°C | 4.1% | 0hPa | 2.7V | 00:00:00 | 01:11:17 | 00:00:00 | |
| DO3MHA-12 | 2026-09-01 03:00:13 | 48.19412 | 15.08760 | 92° | 68km/h | 15081m | 5.9m/s | -53.4°C | 4.2% | 0hPa | 2.7V | 00:00:00 | 01:11:11 | 00:00:00 | |
| OE5MMP-10 | 2026-09-01 03:00:10 | 48.19410 | 15.08684 | 84° | 71km/h | 15066m | 4.2m/s | -53.4°C | 4.1% | 0hPa | 2.7V | 00:00:00 | 01:11:08 | 00:00:00 | |
| OE5FHM-15 | 2026-09-01 03:00:09 | 48.19408 | 15.08660 | 83° | 77km/h | 15061m | 4.9m/s | -53.4°C | 4.2% | 0hPa | 2.7V | 00:00:00 | 01:11:07 | 00:00:00 | |
| OE8JPQ-2 | 2026-09-01 03:00:08 | 48.19406 | 15.08636 | 86° | 77km/h | 15056m | 4.3m/s | -53.5°C | 4.2% | 0hPa | 2.7V | 00:00:00 | 00:00:00 | 00:00:00 | |
| OE3JTB-15 | 2026-09-01 03:00:07 | 48.19405 | 15.08612 | 86° | 78km/h | 15052m | 4.1m/s | -53.6°C | 4.2% | 0hPa | 2.7V | 00:00:00 | 01:11:05 | 00:00:00 | |
| OM5KV | 2026-09-01 03:00:05 | 48.19404 | 15.08586 | 85° | 69km/h | 15047m | 4.9m/s | -53.6°C | 1.8% | 0hPa | 2.7V | 00:00:00 | 00:00:00 | 00:00:00 | |
| PETON7-10 | 2026-09-01 03:00:04 | 48.19399 | 15.08532 | 86° | 78km/h | 15037m | 4.8m/s | -53.5°C | 4.2% | 0hPa | 2.7V | 00:00:00 | 00:00:00 | 00:00:00 | |
| OE3OSB-13 | 2026-09-01 03:00:00 | 48.19392 | 15.08384 | 86° | 78km/h | 15011m | 4.7m/s | -53.6°C | 1.6% | -1.0hPa | 2.7V | 00:00:00 | 00:00:00 | 00:00:00 | |
| PG1ADW-2 | 2026-09-01 02:59:59 | 48.19392 | 15.08384 | 87° | 80km/h | 15012m | 4.7m/s | -53.5°C | 4.3% | 0hPa | 2.7V | 00:00:00 | 00:00:00 | 00:00:00 | |
| OM5KV | 2026-09-01 02:59:56 | 48.19389 | 15.08327 | 85° | 75km/h | 15002m | 5.7m/s | -53.5°C | 1.8% | 0hPa | 2.7V | 00:00:00 | 00:00:00 | 00:00:00 | |
| DO3MHA-12 | 2026-09-01 02:59:53 | 48.19379 | 15.08214 | 84° | 82km/h | 14982m | 5.0m/s | -53.5°C | 4.3% | 0hPa | 2.7V | 00:00:00 | 01:10:51 | 00:00:00 | |
| OM5KV | 2026-09-01 02:59:51 | 48.19377 | 15.08184 | 84° | 82km/h | 14977m | 5.6m/s | -53.6°C | 1.8% | 0hPa | 2.7V | 00:00:00 | 00:00:00 | 00:00:00 | |
| OE5MMP-10 | 2026-09-01 02:59:50 | 48.19372 | 15.08121 | 85° | 80km/h | 14967m | 5.0m/s | -53.5°C | 4.3% | 0hPa | 2.7V | 00:00:00 | 01:10:48 | 00:00:00 | |
| PETON7-10 | 2026-09-01 02:59:49 | 48.19370 | 15.08089 | 83° | 82km/h | 14962m | 4.8m/s | -53.4°C | 4.2% | 0hPa | 2.7V | 00:00:00 | 00:00:00 | 00:00:00 | |
| OE8JPQ-2 | 2026-09-01 02:59:48 | 48.19367 | 15.08058 | 83° | 82km/h | 14957m | 5.8m/s | -53.4°C | 4.2% | 0hPa | 2.7V | 00:00:00 | 00:00:00 | 00:00:00 | |
| OE5WHR-10 | 2026-09-01 02:59:47 | 48.19364 | 15.08027 | 81° | 82km/h | 14951m | 5.0m/s | -53.4°C | 4.2% | 0hPa | 2.7V | 00:00:00 | 01:10:45 | 00:00:00 | |
| DO3MHA-12 | 2026-09-01 02:59:43 | 48.19350 | 15.07908 | 79° | 84km/h | 14930m | 4.0m/s | -53.3°C | 4.2% | 0hPa | 2.7V | 00:00:00 | 01:10:41 | 00:00:00 | |
| OE5DRO-10 | 2026-09-01 02:59:42 | 48.19347 | 15.07879 | 82° | 82km/h | 14925m | 6.0m/s | -53.3°C | 4.2% | 0hPa | 2.7V | 00:00:00 | 00:00:00 | 00:00:00 | |
| OM5KV | 2026-09-01 02:59:41 | 48.19347 | 15.07879 | 82° | 80km/h | 14925m | 6.0m/s | -53.3°C | 1.8% | 0hPa | 2.7V | 00:00:00 | 00:00:00 | 00:00:00 | |
| OE5MMP-10 | 2026-09-01 02:59:40 | 48.19340 | 15.07818 | 80° | 84km/h | 14914m | 5.7m/s | -53.2°C | 4.2% | 0hPa | 2.7V | 00:00:00 | 01:10:38 | 00:00:00 | |
| OE5FHM-15 | 2026-09-01 02:59:39 | 48.19336 | 15.07788 | 80° | 78km/h | 14909m | 4.9m/s | -53.2°C | 4.2% | 0hPa | 2.7V | 00:00:00 | 01:10:37 | 00:00:00 | |
| OE3JTB-15 | 2026-09-01 02:59:38 | 48.19333 | 15.07757 | 81° | 78km/h | 14904m | 6.2m/s | -53.1°C | 4.2% | 0hPa | 2.7V | 00:00:00 | 00:00:00 | 00:00:00 | |
| OM5KV | 2026-09-01 02:59:35 | 48.19325 | 15.07695 | 79° | 84km/h | 14893m | 6.6m/s | -53.1°C | 1.8% | 0hPa | 2.7V | 00:00:00 | 00:00:00 | 00:00:00 | |
| PETON7-10 | 2026-09-01 02:59:34 | 48.19317 | 15.07631 | 80° | 80km/h | 14882m | 6.6m/s | -53.0°C | 4.1% | 0hPa | 2.7V | 00:00:00 | 01:10:32 | 00:00:00 | |
| DO3MHA-12 | 2026-09-01 02:59:32 | 48.19308 | 15.07569 | 79° | 80km/h | 14872m | 4.3m/s | -52.9°C | 4.1% | 0hPa | 2.7V | 00:00:00 | 01:10:30 | 00:00:00 | |
| OE5MMP-10 | 2026-09-01 02:59:30 | 48.19299 | 15.07508 | 78° | 80km/h | 14861m | 4.0m/s | -52.9°C | 4.1% | 0hPa | 2.7V | 00:00:00 | 01:10:28 | 00:00:00 | |
| OM5KV | 2026-09-01 02:59:29 | 48.19300 | 15.07508 | 78° | 80km/h | 14861m | 4.0m/s | -52.9°C | 1.8% | 0hPa | 2.7V | 00:00:00 | 00:00:00 | 00:00:00 | |
| OE8JPQ-2 | 2026-09-01 02:59:28 | 48.19291 | 15.07449 | 80° | 77km/h | 14850m | 4.8m/s | -52.8°C | 4.1% | 0hPa | 2.7V | 00:00:00 | 01:10:26 | 00:00:00 | |
| OE5WHR-10 | 2026-09-01 02:59:26 | 48.19283 | 15.07390 | 77° | 77km/h | 14839m | 5.8m/s | -52.8°C | 4.1% | 0hPa | 2.7V | 00:00:00 | 00:00:00 | 08:30:00 | |
| OE5DRO-10 | 2026-09-01 02:59:23 | 48.19270 | 15.07299 | 77° | 75km/h | 14824m | 3.8m/s | -53.0°C | 4.2% | 0hPa | 2.7V | 00:00:00 | 00:00:00 | 00:00:00 | |
| DO3MHA-12 | 2026-09-01 02:59:22 | 48.19266 | 15.07270 | 77° | 75km/h | 14819m | 6.1m/s | -53.1°C | 4.2% | 0hPa | 2.7V | 00:00:00 | 01:10:20 | 00:00:00 | |
| OE5MMP-10 | 2026-09-01 02:59:20 | 48.19257 | 15.07213 | 79° | 75km/h | 14808m | 5.8m/s | -53.2°C | 4.3% | 0hPa | 2.7V | 00:00:00 | 01:10:18 | 08:30:00 | |
| PETON7-10 | 2026-09-01 02:59:19 | 48.19253 | 15.07186 | 76° | 75km/h | 14803m | 4.9m/s | -53.2°C | 4.3% | 0hPa | 2.7V | 00:00:00 | 00:00:00 | 00:00:00 | |
| DG1MFX-10 | 2026-09-01 02:59:18 | 48.19252 | 15.07186 | 76° | 73km/h | 14803m | 4.9m/s | -53.3°C | 2.0% | 0hPa | 2.7V | 00:00:00 | 00:00:00 | 00:00:00 | |
| OM5KV | 2026-09-01 02:59:17 | 48.19248 | 15.07159 | 76° | 75km/h | 14797m | 5.9m/s | -53.2°C | 1.8% | 0hPa | 2.7V | 00:00:00 | 00:00:00 | 00:00:00 | |
| OM5KV | 2026-09-01 02:59:16 | 48.19243 | 15.07132 | 77° | 73km/h | 14792m | 4.6m/s | -53.2°C | 1.8% | 0hPa | 2.7V | 00:00:00 | 00:00:00 | 00:00:00 | |
| S52SK | 2026-09-01 02:59:11 | 48.19218 | 15.06996 | 76° | 77km/h | 14765m | 6.4m/s | -53.2°C | 1.9% | 0hPa | 2.7V | 00:00:00 | 00:00:00 | 00:00:00 | |
| DO3MHA-12 | 2026-09-01 02:59:10 | 48.19208 | 15.06940 | 75° | 73km/h | 14754m | 5.9m/s | -53.1°C | 4.3% | 0hPa | 2.7V | 00:00:00 | 01:10:08 | 08:30:00 | |
| OE5DXL-15 | 2026-09-01 02:59:09 | 48.19203 | 15.06912 | 73° | 75km/h | 14748m | 5.2m/s | -53.1°C | 4.3% | 0hPa | 2.7V | 00:00:00 | 00:00:00 | 00:00:00 | |
| OE8JPQ-2 | 2026-09-01 02:59:08 | 48.19197 | 15.06885 | 75° | 75km/h | 14743m | 4.9m/s | -53.1°C | 4.3% | 0hPa | 2.7V | 00:00:00 | 00:00:00 | 08:30:00 | |
| OE5WHR-10 | 2026-09-01 02:59:05 | 48.19184 | 15.06804 | 76° | 75km/h | 14726m | 6.5m/s | -53.2°C | 4.3% | 0hPa | 2.7V | 00:00:00 | 00:00:00 | 00:00:00 | |
| PETON7-10 | 2026-09-01 02:59:04 | 48.19180 | 15.06778 | 78° | 75km/h | 14720m | 5.0m/s | -53.2°C | 4.3% | 0hPa | 2.7V | 00:00:00 | 00:00:00 | 00:00:00 | |
| PG1ADW-2 | 2026-09-01 02:58:59 | 48.19162 | 15.06644 | 79° | 77km/h | 14690m | 7.1m/s | -53.3°C | 4.3% | 0hPa | 2.7V | 00:00:00 | 00:00:00 | 00:00:00 | |
| OM5KV | 2026-09-01 02:58:53 | 48.19145 | 15.06502 | 85° | 77km/h | 14660m | 4.9m/s | -53.3°C | 2.0% | 0hPa | 2.7V | 00:00:00 | 00:00:00 | 00:00:00 | |
| PETON7-10 | 2026-09-01 02:58:49 | 48.19138 | 15.06359 | 89° | 78km/h | 14632m | 5.0m/s | -53.1°C | 4.4% | 0hPa | 2.7V | 00:00:00 | 01:09:47 | 00:00:00 | |
| OE8JPQ-2 | 2026-09-01 02:58:48 | 48.19137 | 15.06330 | 87° | 78km/h | 14626m | 6.6m/s | -53.1°C | 4.4% | 0hPa | 2.7V | 00:00:00 | 00:00:00 | 00:00:00 | |
| OM5KV | 2026-09-01 02:58:47 | 48.19137 | 15.06330 | 87° | 77km/h | 14626m | 6.7m/s | -53.1°C | 2.0% | 0hPa | 2.7V | 00:00:00 | 00:00:00 | 00:00:00 | |
| OE5WHR-10 | 2026-09-01 02:58:44 | 48.19134 | 15.06213 | 90° | 80km/h | 14604m | 5.4m/s | -52.9°C | 4.3% | 0hPa | 2.7V | 00:00:00 | 01:09:42 | 00:00:00 | |
| OM5KV | 2026-09-01 02:58:41 | 48.19133 | 15.06154 | 89° | 77km/h | 14593m | 4.6m/s | -52.9°C | 1.9% | 0hPa | 2.7V | 00:00:00 | 00:00:00 | 00:00:00 | |
| OE5MMP-10 | 2026-09-01 02:58:40 | 48.19134 | 15.06095 | 92° | 80km/h | 14582m | 4.7m/s | -52.8°C | 4.3% | 0hPa | 2.7V | 00:00:00 | 01:09:38 | 00:00:00 | |
| OE5FHM-15 | 2026-09-01 02:58:39 | 48.19133 | 15.06066 | 89° | 84km/h | 14576m | 6.5m/s | -52.8°C | 4.3% | 0hPa | 2.7V | 00:00:00 | 01:09:37 | 00:00:00 | |
| OE5DRO-10 | 2026-09-01 02:58:38 | 48.19133 | 15.06036 | 88° | 82km/h | 14570m | 4.7m/s | -52.7°C | 4.3% | 0hPa | 2.7V | 00:00:00 | 00:00:00 | 00:00:00 | |
| OM5KV | 2026-09-01 02:58:36 | 48.19132 | 15.06007 | 88° | 78km/h | 14565m | 4.6m/s | -52.7°C | 1.9% | 0hPa | 2.7V | 00:00:00 | 00:00:00 | 00:00:00 | |
| OM5KV | 2026-09-01 02:58:35 | 48.19131 | 15.05977 | 90° | 80km/h | 14560m | 5.7m/s | -52.7°C | 1.9% | 0hPa | 2.7V | 00:00:00 | 00:00:00 | 00:00:00 | |
| PETON7-10 | 2026-09-01 02:58:34 | 48.19130 | 15.05916 | 87° | 84km/h | 14549m | 6.6m/s | -52.6°C | 4.2% | 0hPa | 2.7V | 00:00:00 | 00:00:00 | 08:30:00 | |
| OM5KV | 2026-09-01 02:58:31 | 48.19127 | 15.05856 | 88° | 80km/h | 14538m | 5.9m/s | -52.5°C | 0% | 0hPa | 2.7V | 00:00:00 | 00:00:00 | 00:00:00 | |
| DO3MHA-12 | 2026-09-01 02:58:30 | 48.19125 | 15.05794 | 87° | 84km/h | 14526m | 6.2m/s | -52.4°C | 4.2% | 0hPa | 2.7V | 00:00:00 | 01:09:28 | 00:00:00 | |
| OM5KV | 2026-09-01 02:58:29 | 48.19125 | 15.05795 | 87° | 82km/h | 14526m | 6.2m/s | -52.5°C | 1.9% | 0hPa | 2.7V | 00:00:00 | 00:00:00 | 00:00:00 | |
| OE8JPQ-2 | 2026-09-01 02:58:28 | 48.19123 | 15.05732 | 89° | 88km/h | 14514m | 6.7m/s | -52.4°C | 4.2% | 0hPa | 2.7V | 00:00:00 | 01:09:26 | 00:00:00 | |
| OE3OSB-13 | 2026-09-01 02:58:26 | 48.19122 | 15.05669 | 87° | 82km/h | 14502m | 7.5m/s | -52.4°C | 1.8% | -1.0hPa | 2.7V | 00:00:00 | 00:00:00 | 00:00:00 | |
| OE5WHR-10 | 2026-09-01 02:58:23 | 48.19116 | 15.05575 | 84° | 89km/h | 14484m | 5.6m/s | -52.4°C | 4.3% | 0hPa | 2.7V | 00:00:00 | 00:00:00 | 00:00:00 | |
| DO3MHA-12 | 2026-09-01 02:58:20 | 48.19109 | 15.05477 | 83° | 89km/h | 14467m | 5.2m/s | -52.5°C | 4.3% | 0hPa | 2.7V | 00:00:00 | 01:09:18 | 00:00:00 | |
| PETON7-10 | 2026-09-01 02:58:19 | 48.19106 | 15.05444 | 84° | 89km/h | 14462m | 5.8m/s | -52.5°C | 4.3% | 0hPa | 2.7V | 00:00:00 | 00:00:00 | 00:00:00 | |
| OE3JTB-15 | 2026-09-01 02:58:11 | 48.19092 | 15.05173 | 88° | 89km/h | 14412m | 6.2m/s | -52.7°C | 4.3% | 0hPa | 2.7V | 00:00:00 | 00:00:00 | 00:00:00 | |
| DO3MHA-12 | 2026-09-01 02:58:10 | 48.19090 | 15.05139 | 88° | 91km/h | 14405m | 5.2m/s | -52.7°C | 4.3% | 0hPa | 2.7V | 00:00:00 | 01:09:08 | 00:00:00 | |
| OE5FHM-15 | 2026-09-01 02:58:09 | 48.19089 | 15.05106 | 87° | 88km/h | 14399m | 6.6m/s | -52.7°C | 4.3% | 0hPa | 2.7V | 00:00:00 | 01:09:07 | 00:00:00 | |
| OE8JPQ-2 | 2026-09-01 02:58:08 | 48.19088 | 15.05072 | 87° | 89km/h | 14394m | 3.9m/s | -52.7°C | 4.3% | 0hPa | 2.7V | 00:00:00 | 00:00:00 | 00:00:00 | |
| OM5KV | 2026-09-01 02:58:05 | 48.19087 | 15.05003 | 89° | 91km/h | 14382m | 5.5m/s | -52.8°C | 2.0% | 0hPa | 2.7V | 00:00:00 | 00:00:00 | 00:00:00 | |
| PETON7-10 | 2026-09-01 02:58:04 | 48.19085 | 15.04933 | 89° | 89km/h | 14370m | 6.0m/s | -52.7°C | 4.3% | 0hPa | 2.7V | 00:00:00 | 01:09:02 | 00:00:00 | |
| OE5WHR-10 | 2026-09-01 02:58:02 | 48.19084 | 15.04862 | 89° | 88km/h | 14358m | 5.4m/s | -52.6°C | 4.3% | 0hPa | 2.7V | 00:00:00 | 00:00:00 | 00:00:00 | |
| OE3OSB-13 | 2026-09-01 02:57:55 | 48.19080 | 15.04624 | 90° | 86km/h | 14317m | 5.7m/s | -52.6°C | 1.7% | -1.0hPa | 2.7V | 00:00:00 | 00:00:00 | 00:00:00 | |
| OM5KV | 2026-09-01 02:57:53 | 48.19080 | 15.04592 | 91° | 84km/h | 14312m | 5.4m/s | -52.7°C | 1.9% | 0hPa | 2.7V | 00:00:00 | 00:00:00 | 00:00:00 | |
| OM5KV | 2026-09-01 02:57:52 | 48.19080 | 15.04560 | 90° | 86km/h | 14306m | 6.1m/s | 0°C | 0% | 0hPa | 2.7V | 00:00:00 | 00:00:00 | 00:00:00 | |
| OE5MMP-10 | 2026-09-01 02:57:50 | 48.19080 | 15.04464 | 90° | 86km/h | 14289m | 5.2m/s | -52.7°C | 4.2% | 0hPa | 2.7V | 00:00:00 | 01:08:48 | 08:30:00 | |
| PETON7-10 | 2026-09-01 02:57:49 | 48.19079 | 15.04432 | 90° | 88km/h | 14284m | 4.9m/s | -52.7°C | 4.3% | 0hPa | 2.7V | 00:00:00 | 00:00:00 | 00:00:00 | |
| OE8JPQ-2 | 2026-09-01 02:57:48 | 48.19079 | 15.04400 | 90° | 91km/h | 14279m | 5.4m/s | -52.6°C | 4.2% | 0hPa | 2.7V | 00:00:00 | 00:00:00 | 00:00:00 | |
| OM5KV | 2026-09-01 02:57:47 | 48.19079 | 15.04400 | 90° | 84km/h | 14279m | 5.5m/s | -52.7°C | 1.9% | 0hPa | 2.7V | 00:00:00 | 00:00:00 | 00:00:00 | |
| OM5KV | 2026-09-01 02:57:46 | 48.19079 | 15.04368 | 91° | 86km/h | 14273m | 5.4m/s | 0°C | 0% | 0hPa | 2.7V | 00:00:00 | 00:00:00 | 00:00:00 | |
| OE3JTB-15 | 2026-09-01 02:57:42 | 48.19075 | 15.04204 | 86° | 93km/h | 14244m | 6.5m/s | -52.5°C | 4.2% | 0hPa | 2.7V | 00:00:00 | 00:00:00 | 00:00:00 | |
| OM5KV | 2026-09-01 02:57:41 | 48.19075 | 15.04204 | 87° | 88km/h | 14244m | 6.6m/s | 0°C | 0% | 0hPa | 2.7V | 00:00:00 | 00:00:00 | 00:00:00 | |
| OE5MMP-10 | 2026-09-01 02:57:40 | 48.19072 | 15.04138 | 88° | 93km/h | 14234m | 6.1m/s | -52.5°C | 4.2% | 0hPa | 2.7V | 00:00:00 | 01:08:38 | 00:00:00 | |
| OE5FHM-15 | 2026-09-01 02:57:39 | 48.19071 | 15.04105 | 89° | 95km/h | 14229m | 4.2m/s | -52.6°C | 4.2% | 0hPa | 2.7V | 00:00:00 | 01:08:37 | 00:00:00 | |
| OE5DRO-10 | 2026-09-01 02:57:36 | 48.19068 | 15.04001 | 87° | 93km/h | 14212m | 5.0m/s | -52.6°C | 4.3% | 0hPa | 2.7V | 00:00:00 | 00:00:00 | 08:30:00 | |
| OM5KV | 2026-09-01 02:57:35 | 48.19068 | 15.04001 | 87° | 95km/h | 14212m | 5.0m/s | -52.7°C | 1.9% | 0hPa | 2.7V | 00:00:00 | 00:00:00 | 00:00:00 | |
| PETON7-10 | 2026-09-01 02:57:34 | 48.19066 | 15.03930 | 90° | 93km/h | 14200m | 5.2m/s | -52.7°C | 4.3% | 0hPa | 2.7V | 00:00:00 | 00:00:00 | 00:00:00 | |
| OM5KV | 2026-09-01 02:57:33 | 48.19066 | 15.03930 | 91° | 93km/h | 14200m | 5.3m/s | 0°C | 0% | 0hPa | 2.7V | 00:00:00 | 00:00:00 | 00:00:00 | |
| OE5MMP-10 | 2026-09-01 02:57:30 | 48.19063 | 15.03786 | 89° | 91km/h | 14177m | 5.6m/s | -52.6°C | 4.2% | 0hPa | 2.7V | 00:00:00 | 01:08:28 | 00:00:00 | |
| DO3MHA-12 | 2026-09-01 02:57:29 | 48.19062 | 15.03751 | 88° | 93km/h | 14171m | 5.0m/s | -52.6°C | 4.2% | 0hPa | 2.7V | 00:00:00 | 01:08:27 | 00:00:00 | |
| OE8JPQ-2 | 2026-09-01 02:57:28 | 48.19061 | 15.03716 | 87° | 95km/h | 14166m | 4.9m/s | -52.6°C | 4.2% | 0hPa | 2.7V | 00:00:00 | 01:08:26 | 00:00:00 | |
| OM5KV | 2026-09-01 02:57:27 | 48.19062 | 15.03716 | 88° | 91km/h | 14166m | 5.0m/s | 0°C | 0% | 0hPa | 2.7V | 00:00:00 | 00:00:00 | 00:00:00 | |
| OE3OSB-13 | 2026-09-01 02:57:24 | 48.19057 | 15.03578 | 86° | 91km/h | 14145m | 3.3m/s | -52.6°C | 1.7% | -1.0hPa | 2.7V | 00:00:00 | 00:00:00 | 00:00:00 | |
| DO3MHA-12 | 2026-09-01 02:57:19 | 48.19053 | 15.03402 | 91° | 97km/h | 14118m | 6.0m/s | -52.6°C | 4.2% | 0hPa | 2.7V | 00:00:00 | 01:08:17 | 00:00:00 | |
| OE5DRO-10 | 2026-09-01 02:57:17 | 48.19053 | 15.03330 | 89° | 100km/h | 14107m | 6.2m/s | -52.6°C | 4.2% | 0hPa | 2.7V | 00:00:00 | 00:00:00 | 00:00:00 | |
| OE3JTB-15 | 2026-09-01 02:57:13 | 48.19051 | 15.03181 | 89° | 100km/h | 14086m | 3.8m/s | -52.5°C | 4.3% | 0hPa | 2.7V | 00:00:00 | 01:08:11 | 00:00:00 | |
| OE5MMP-10 | 2026-09-01 02:57:10 | 48.19048 | 15.03070 | 88° | 102km/h | 14071m | 4.9m/s | -52.4°C | 4.2% | 0hPa | 2.7V | 00:00:00 | 01:08:08 | 00:00:00 | |
| OE5DXL-15 | 2026-09-01 02:57:09 | 48.19047 | 15.03032 | 88° | 100km/h | 14066m | 5.1m/s | -52.4°C | 4.2% | 0hPa | 2.7V | 00:00:00 | 00:00:00 | 00:00:00 | |
| OE8JPQ-2 | 2026-09-01 02:57:08 | 48.19045 | 15.02995 | 86° | 102km/h | 14060m | 5.3m/s | -52.4°C | 4.2% | 0hPa | 2.7V | 00:00:00 | 00:00:00 | 00:00:00 | |
| OM5KV | 2026-09-01 02:57:07 | 48.19045 | 15.02995 | 87° | 102km/h | 14060m | 5.4m/s | -52.5°C | 1.9% | 0hPa | 2.7V | 00:00:00 | 00:00:00 | 00:00:00 | |
| IN3HCDX | 2026-09-01 02:57:05 | 48.19042 | 15.02917 | 89° | 102km/h | 14050m | 4.9m/s | 0°C | 0% | 0hPa | 2.7V | 00:00:00 | 00:00:00 | 00:00:00 | |
| PETON7-10 | 2026-09-01 02:57:04 | 48.19040 | 15.02838 | 87° | 102km/h | 14039m | 4.6m/s | -52.3°C | 4.2% | 0hPa | 2.7V | 00:00:00 | 00:00:00 | 00:00:00 | |
| OE3OSB-13 | 2026-09-01 02:56:53 | 48.19022 | 15.02414 | 87° | 100km/h | 13985m | 4.4m/s | -51.9°C | 1.7% | -1.0hPa | 2.7V | 00:00:00 | 00:00:00 | 00:00:00 | |
| OM5KV | 2026-09-01 02:56:52 | 48.19022 | 15.02414 | 89° | 100km/h | 13985m | 4.4m/s | 0°C | 0% | 0hPa | 2.7V | 00:00:00 | 00:00:00 | 00:00:00 | |
| OE5DRO-10 | 2026-09-01 02:56:51 | 48.19019 | 15.02338 | 86° | 97km/h | 13975m | 4.5m/s | -51.8°C | 4.1% | 0hPa | 2.7V | 00:00:00 | 00:00:00 | 00:00:00 | |
| OE5MMP-10 | 2026-09-01 02:56:50 | 48.19018 | 15.02301 | 87° | 97km/h | 13970m | 4.6m/s | -51.8°C | 4.1% | 0hPa | 2.7V | 00:00:00 | 01:07:48 | 00:00:00 | |
| PETON7-10 | 2026-09-01 02:56:49 | 48.19016 | 15.02265 | 85° | 97km/h | 13965m | 5.4m/s | -51.7°C | 4.1% | 0hPa | 2.7V | 00:00:00 | 00:00:00 | 00:00:00 | |
| OE8JPQ-2 | 2026-09-01 02:56:48 | 48.19014 | 15.02228 | 85° | 97km/h | 13960m | 4.6m/s | -51.7°C | 4.0% | 0hPa | 2.7V | 00:00:00 | 00:00:00 | 00:00:00 | |
| OM5KV | 2026-09-01 02:56:46 | 48.19012 | 15.02191 | 86° | 97km/h | 13956m | 4.2m/s | 0°C | 0% | 0hPa | 2.7V | 00:00:00 | 00:00:00 | 00:00:00 | |
| OE3JTB-15 | 2026-09-01 02:56:44 | 48.19007 | 15.02082 | 87° | 97km/h | 13941m | 3.8m/s | -51.8°C | 4.1% | 0hPa | 2.7V | 00:00:00 | 00:00:00 | 08:30:00 | |
| OE5MMP-10 | 2026-09-01 02:56:40 | 48.19002 | 15.01934 | 87° | 95km/h | 13921m | 3.8m/s | -51.7°C | 4.1% | 0hPa | 2.7V | 00:00:00 | 01:07:38 | 00:00:00 | |
| DO3MHA-12 | 2026-09-01 02:56:39 | 48.19001 | 15.01897 | 88° | 95km/h | 13916m | 5.7m/s | -51.7°C | 4.1% | 0hPa | 2.7V | 00:00:00 | 01:07:37 | 00:00:00 | |
| OE5WHR-10 | 2026-09-01 02:56:38 | 48.19000 | 15.01861 | 88° | 97km/h | 13911m | 4.4m/s | -51.6°C | 4.1% | 0hPa | 2.7V | 00:00:00 | 01:07:36 | 00:00:00 | |
| PETON7-10 | 2026-09-01 02:56:34 | 48.18994 | 15.01716 | 87° | 97km/h | 13892m | 3.9m/s | -51.6°C | 4.1% | 0hPa | 2.7V | 00:00:00 | 01:07:32 | 00:00:00 | |
| OE5DRO-10 | 2026-09-01 02:56:32 | 48.18990 | 15.01645 | 85° | 100km/h | 13882m | 4.3m/s | -51.6°C | 4.2% | 0hPa | 2.7V | 00:00:00 | 00:00:00 | 00:00:00 | |
| S52SK | 2026-09-01 02:56:31 | 48.18990 | 15.01645 | 85° | 95km/h | 13882m | 4.3m/s | -51.6°C | 2.0% | 0hPa | 2.7V | 00:00:00 | 00:00:00 | 00:00:00 | |
| OE5MMP-10 | 2026-09-01 02:56:30 | 48.18986 | 15.01574 | 87° | 97km/h | 13874m | 5.3m/s | -51.5°C | 4.1% | 0hPa | 2.7V | 00:00:00 | 01:07:28 | 00:00:00 | |
| DO3MHA-12 | 2026-09-01 02:56:29 | 48.18984 | 15.01539 | 86° | 97km/h | 13869m | 3.7m/s | -51.6°C | 4.2% | 0hPa | 2.7V | 00:00:00 | 01:07:27 | 00:00:00 | |
| OE8JPQ-2 | 2026-09-01 02:56:28 | 48.18982 | 15.01503 | 86° | 100km/h | 13864m | 5.6m/s | -51.6°C | 4.2% | 0hPa | 2.7V | 00:00:00 | 01:07:26 | 00:00:00 | |
| S52SK | 2026-09-01 02:56:25 | 48.18978 | 15.01429 | 86° | 99km/h | 13856m | 5.1m/s | -51.7°C | 2.0% | 0hPa | 2.7V | 00:00:00 | 00:00:00 | 00:00:00 | |
| OE3OSB-13 | 2026-09-01 02:56:22 | 48.18968 | 15.01282 | 85° | 97km/h | 13837m | 4.8m/s | -51.8°C | 1.9% | -1.0hPa | 2.7V | 00:00:00 | 00:00:00 | 00:00:00 | |
| OE5MMP-10 | 2026-09-01 02:56:20 | 48.18964 | 15.01208 | 84° | 99km/h | 13828m | 4.9m/s | -51.7°C | 4.3% | 0hPa | 2.7V | 00:00:00 | 01:07:18 | 08:30:00 | |
| OE5WHR-10 | 2026-09-01 02:56:17 | 48.18960 | 15.01098 | 87° | 100km/h | 13814m | 3.9m/s | -51.7°C | 4.3% | 0hPa | 2.7V | 00:00:00 | 00:00:00 | 08:30:00 | |
| OE3JTB-15 | 2026-09-01 02:56:15 | 48.18957 | 15.01024 | 89° | 99km/h | 13805m | 4.4m/s | -51.7°C | 4.3% | 0hPa | 2.7V | 00:00:00 | 00:00:00 | 00:00:00 | |
| OE5MMP-10 | 2026-09-01 02:56:10 | 48.18951 | 15.00834 | 88° | 102km/h | 13781m | 3.9m/s | -51.8°C | 4.4% | 0hPa | 2.7V | 00:00:00 | 01:07:08 | 00:00:00 | |
| DO3MHA-12 | 2026-09-01 02:56:09 | 48.18950 | 15.00795 | 87° | 100km/h | 13776m | 5.3m/s | -51.8°C | 4.4% | 0hPa | 2.7V | 00:00:00 | 01:07:07 | 08:30:00 | |
| OE5DRO-10 | 2026-09-01 02:56:07 | 48.18947 | 15.00717 | 89° | 99km/h | 13768m | 5.2m/s | -51.8°C | 4.4% | 0hPa | 2.7V | 00:00:00 | 00:00:00 | 00:00:00 | |
| PETON7-10 | 2026-09-01 02:56:04 | 48.18943 | 15.00601 | 87° | 97km/h | 13754m | 3.9m/s | -51.7°C | 4.4% | 0hPa | 2.7V | 00:00:00 | 00:00:00 | 00:00:00 | |
| OE3OSB-13 | 2026-09-01 02:55:51 | 48.18923 | 15.00123 | 88° | 97km/h | 13693m | 5.2m/s | -51.8°C | 2.0% | -1.0hPa | 2.7V | 00:00:00 | 00:00:00 | 00:00:00 | |
| OE5MMP-10 | 2026-09-01 02:55:50 | 48.18923 | 15.00086 | 90° | 95km/h | 13689m | 3.2m/s | -51.8°C | 4.3% | 0hPa | 2.7V | 00:00:00 | 01:06:48 | 00:00:00 | |
| PETON7-10 | 2026-09-01 02:55:49 | 48.18922 | 15.00049 | 89° | 93km/h | 13685m | 6.0m/s | -51.8°C | 4.4% | 0hPa | 2.7V | 00:00:00 | 01:06:47 | 00:00:00 | |
| OE5DRO-10 | 2026-09-01 02:55:48 | 48.18921 | 15.00012 | 88° | 89km/h | 13679m | 4.7m/s | -51.8°C | 4.4% | 0hPa | 2.7V | 00:00:00 | 00:00:00 | 00:00:00 | |
| OE3JTB-15 | 2026-09-01 02:55:46 | 48.18919 | 14.99940 | 87° | 91km/h | 13670m | 3.5m/s | -51.9°C | 4.5% | 0hPa | 2.7V | 00:00:00 | 01:06:44 | 00:00:00 | |
| OE8JPQ-2 | 2026-09-01 02:55:44 | 48.18916 | 14.99869 | 85° | 89km/h | 13661m | 4.1m/s | -51.9°C | 4.5% | 0hPa | 2.7V | 00:00:00 | 00:00:00 | 00:00:00 | |
| OE5MMP-10 | 2026-09-01 02:55:40 | 48.18905 | 14.99729 | 83° | 89km/h | 13645m | 3.8m/s | -51.9°C | 4.6% | 0hPa | 2.7V | 00:00:00 | 01:06:38 | 00:00:00 | |
| OE5FHM-15 | 2026-09-01 02:55:39 | 48.18902 | 14.99695 | 82° | 89km/h | 13641m | 5.0m/s | -51.9°C | 4.6% | 0hPa | 2.7V | 00:00:00 | 01:06:37 | 00:00:00 | |
| OE5WHR-10 | 2026-09-01 02:55:35 | 48.18891 | 14.99558 | 85° | 89km/h | 13624m | 4.4m/s | -51.8°C | 4.6% | 0hPa | 2.7V | 00:00:00 | 01:06:33 | 00:00:00 | |
| PETON7-10 | 2026-09-01 02:55:34 | 48.18889 | 14.99525 | 87° | 89km/h | 13619m | 4.6m/s | -51.8°C | 4.6% | 0hPa | 2.7V | 00:00:00 | 00:00:00 | 00:00:00 | |
| OE5MMP-10 | 2026-09-01 02:55:30 | 48.18884 | 14.99392 | 88° | 89km/h | 13600m | 5.3m/s | -51.7°C | 4.6% | 0hPa | 2.7V | 00:00:00 | 01:06:28 | 00:00:00 | |
| DO3MHA-12 | 2026-09-01 02:55:29 | 48.18883 | 14.99358 | 87° | 89km/h | 13596m | 4.4m/s | -51.7°C | 4.5% | 0hPa | 2.7V | 00:00:00 | 01:06:27 | 00:00:00 | |
| OE5DRO-10 | 2026-09-01 02:55:25 | 48.18873 | 14.99225 | 82° | 91km/h | 13577m | 5.8m/s | -51.8°C | 4.6% | 0hPa | 2.7V | 00:00:00 | 00:00:00 | 00:00:00 | |
| OE8JPQ-2 | 2026-09-01 02:55:24 | 48.18869 | 14.99192 | 83° | 91km/h | 13572m | 3.8m/s | -51.8°C | 4.6% | 0hPa | 2.7V | 00:00:00 | 01:06:22 | 00:00:00 | |
| OE5MMP-10 | 2026-09-01 02:55:20 | 48.18862 | 14.99056 | 88° | 91km/h | 13553m | 4.5m/s | -51.7°C | 4.6% | 0hPa | 2.7V | 00:00:00 | 01:06:18 | 00:00:00 | |
| OE3JTB-15 | 2026-09-01 02:55:17 | 48.18860 | 14.98952 | 87° | 93km/h | 13538m | 5.3m/s | -51.6°C | 4.6% | 0hPa | 2.7V | 00:00:00 | 00:00:00 | 00:00:00 | |
| OE5WHR-10 | 2026-09-01 02:55:14 | 48.18856 | 14.98850 | 85° | 93km/h | 13525m | 3.6m/s | -51.6°C | 4.7% | 0hPa | 2.7V | 00:00:00 | 00:00:00 | 00:00:00 | |
| OE5MMP-10 | 2026-09-01 02:55:10 | 48.18848 | 14.98712 | 88° | 93km/h | 13506m | 3.5m/s | -51.5°C | 4.8% | 0hPa | 2.7V | 00:00:00 | 01:06:08 | 00:00:00 | |
| DO3MHA-12 | 2026-09-01 02:55:09 | 48.18847 | 14.98677 | 90° | 93km/h | 13501m | 5.4m/s | -51.5°C | 4.7% | 0hPa | 2.7V | 00:00:00 | 01:06:07 | 00:00:00 | |
| S52SK | 2026-09-01 02:55:08 | 48.18847 | 14.98677 | 91° | 95km/h | 13501m | 5.4m/s | -51.5°C | 2.5% | 0hPa | 2.7V | 00:00:00 | 00:00:00 | 00:00:00 | |
| PETON7-10 | 2026-09-01 02:55:04 | 48.18849 | 14.98499 | 90° | 93km/h | 13479m | 4.3m/s | -51.6°C | 4.8% | 0hPa | 2.7V | 00:00:00 | 01:06:02 | 00:00:00 | |
| OE5MMP-10 | 2026-09-01 02:55:00 | 48.18841 | 14.98360 | 84° | 93km/h | 13460m | 4.8m/s | -51.6°C | 4.8% | 0hPa | 2.7V | 00:00:00 | 01:05:58 | 00:00:00 | |
| DO3MHA-12 | 2026-09-01 02:54:59 | 48.18838 | 14.98324 | 82° | 93km/h | 13455m | 3.9m/s | -51.6°C | 4.8% | 0hPa | 2.7V | 00:00:00 | 01:05:57 | 00:00:00 | |
| OE5WHR-10 | 2026-09-01 02:54:53 | 48.18828 | 14.98116 | 88° | 95km/h | 13429m | 5.2m/s | -51.6°C | 4.8% | 0hPa | 2.7V | 00:00:00 | 00:00:00 | 00:00:00 | |
| OE5MMP-10 | 2026-09-01 02:54:50 | 48.18828 | 14.98010 | 89° | 93km/h | 13414m | 5.0m/s | -51.7°C | 4.9% | 0hPa | 2.7V | 00:00:00 | 01:05:48 | 08:30:00 | |
| PETON7-10 | 2026-09-01 02:54:49 | 48.18827 | 14.97974 | 90° | 95km/h | 13409m | 4.1m/s | -51.7°C | 4.9% | 0hPa | 2.7V | 00:00:00 | 00:00:00 | 00:00:00 | |
| OE3JTB-15 | 2026-09-01 02:54:48 | 48.18827 | 14.97939 | 92° | 95km/h | 13404m | 5.3m/s | -51.7°C | 4.8% | 0hPa | 2.7V | 00:00:00 | 00:00:00 | 00:00:00 | |
| DO3MHA-12 | 2026-09-01 02:54:45 | 48.18829 | 14.97833 | 91° | 95km/h | 13390m | 4.5m/s | -51.7°C | 4.8% | 0hPa | 2.7V | 00:00:00 | 01:05:43 | 00:00:00 | |
| OE8JPQ-2 | 2026-09-01 02:54:44 | 48.18829 | 14.97797 | 91° | 95km/h | 13385m | 5.7m/s | -51.7°C | 4.8% | 0hPa | 2.7V | 00:00:00 | 00:00:00 | 00:00:00 | |
| OE5MMP-10 | 2026-09-01 02:54:40 | 48.18827 | 14.97655 | 90° | 97km/h | 13365m | 5.3m/s | -51.5°C | 4.7% | 0hPa | 2.7V | 00:00:00 | 01:05:38 | 00:00:00 | |
| OE5FHM-15 | 2026-09-01 02:54:39 | 48.18826 | 14.97619 | 89° | 99km/h | 13360m | 5.1m/s | -51.5°C | 4.7% | 0hPa | 2.7V | 00:00:00 | 01:05:37 | 00:00:00 | |
| DO3MHA-12 | 2026-09-01 02:54:35 | 48.18823 | 14.97472 | 88° | 95km/h | 13342m | 4.4m/s | -51.6°C | 4.6% | 0hPa | 2.7V | 00:00:00 | 01:05:33 | 08:30:00 | |
| PETON7-10 | 2026-09-01 02:54:34 | 48.18821 | 14.97434 | 88° | 97km/h | 13337m | 4.5m/s | -51.7°C | 4.7% | 0hPa | 2.7V | 00:00:00 | 00:00:00 | 00:00:00 | |
| OE5WHR-10 | 2026-09-01 02:54:32 | 48.18820 | 14.97360 | 91° | 97km/h | 13328m | 4.0m/s | -51.8°C | 4.7% | 0hPa | 2.7V | 00:00:00 | 01:05:30 | 00:00:00 | |
| DO3MHA-12 | 2026-09-01 02:54:25 | 48.18828 | 14.97112 | 93° | 99km/h | 13294m | 4.8m/s | -51.7°C | 4.7% | 0hPa | 2.7V | 00:00:00 | 01:05:23 | 00:00:00 | |
| OE8JPQ-2 | 2026-09-01 02:54:24 | 48.18830 | 14.97075 | 93° | 102km/h | 13289m | 5.6m/s | -51.7°C | 4.6% | 0hPa | 2.7V | 00:00:00 | 01:05:22 | 00:00:00 | |
| OE5MMP-10 | 2026-09-01 02:54:20 | 48.18833 | 14.96927 | 93° | 100km/h | 13269m | 5.0m/s | -51.6°C | 4.6% | 0hPa | 2.7V | 00:00:00 | 01:05:18 | 00:00:00 | |
| PETON7-10 | 2026-09-01 02:54:19 | 48.18834 | 14.96890 | 93° | 102km/h | 13263m | 5.7m/s | -51.7°C | 4.6% | 0hPa | 2.7V | 00:00:00 | 01:05:17 | 00:00:00 | |
| OE3OSB-13 | 2026-09-01 02:54:18 | 48.18837 | 14.96816 | 94° | 99km/h | 13254m | 6.4m/s | -52.0°C | 2.3% | -1.0hPa | 2.7V | 00:00:00 | 00:00:00 | 00:00:00 | |
| DO3MHA-12 | 2026-09-01 02:54:15 | 48.18840 | 14.96742 | 93° | 102km/h | 13244m | 4.2m/s | -52.4°C | 4.8% | 0hPa | 2.7V | 00:00:00 | 01:05:13 | 00:00:00 | |
| OK1ALN | 2026-09-01 02:54:12 | 48.18843 | 14.96665 | 94° | 104km/h | 13232m | 5.3m/s | -52.6°C | 2.5% | 0hPa | 2.7V | 00:00:00 | 00:00:00 | 00:00:00 | |
| OE5WHR-10 | 2026-09-01 02:54:11 | 48.18845 | 14.96588 | 91° | 110km/h | 13223m | 5.3m/s | -52.8°C | 4.9% | 0hPa | 2.7V | 00:00:00 | 00:00:00 | 00:00:00 | |
| OE5MMP-10 | 2026-09-01 02:54:10 | 48.18846 | 14.96549 | 93° | 108km/h | 13218m | 4.1m/s | -52.9°C | 4.9% | 0hPa | 2.7V | 00:00:00 | 01:05:08 | 00:00:00 | |
| OE5FHM-15 | 2026-09-01 02:54:09 | 48.18847 | 14.96510 | 93° | 110km/h | 13212m | 5.9m/s | -53.0°C | 5.0% | 0hPa | 2.7V | 00:00:00 | 01:05:07 | 00:00:00 | |
| OE5DXL-15 | 2026-09-01 02:54:08 | 48.18849 | 14.96470 | 95° | 110km/h | 13207m | 4.0m/s | -53.1°C | 5.1% | 0hPa | 2.7V | 00:00:00 | 00:00:00 | 08:30:00 | |
| DO3MHA-12 | 2026-09-01 02:54:05 | 48.18855 | 14.96351 | 95° | 113km/h | 13192m | 5.2m/s | -53.2°C | 5.1% | 0hPa | 2.7V | 00:00:00 | 01:05:03 | 00:00:00 | |
| PETON7-10 | 2026-09-01 02:54:04 | 48.18858 | 14.96310 | 96° | 111km/h | 13187m | 4.3m/s | -53.2°C | 5.2% | 0hPa | 2.7V | 00:00:00 | 00:00:00 | 08:30:00 | |
| OE8JPQ-2 | 2026-09-01 02:54:03 | 48.18861 | 14.96269 | 98° | 111km/h | 13182m | 5.3m/s | -53.3°C | 5.2% | 0hPa | 2.7V | 00:00:00 | 00:00:00 | 00:00:00 | |
| OE3OSB-13 | 2026-09-01 02:53:47 | 48.18911 | 14.95556 | 95° | 110km/h | 13099m | 5.0m/s | -53.1°C | 2.7% | -1.0hPa | 2.7V | 00:00:00 | 00:00:00 | 00:00:00 | |
| DO3MHA-12 | 2026-09-01 02:53:45 | 48.18913 | 14.95515 | 95° | 110km/h | 13095m | 4.1m/s | -53.1°C | 5.3% | 0hPa | 2.7V | 00:00:00 | 01:04:43 | 00:00:00 | |
| OE8JPQ-2 | 2026-09-01 02:53:43 | 48.18917 | 14.95433 | 95° | 108km/h | 13084m | 4.7m/s | -53.0°C | 5.3% | 0hPa | 2.7V | 00:00:00 | 00:00:00 | 00:00:00 | |
| OE5MMP-10 | 2026-09-01 02:53:40 | 48.18924 | 14.95308 | 93° | 108km/h | 13070m | 3.9m/s | -52.9°C | 5.4% | 0hPa | 2.7V | 00:00:00 | 01:04:38 | 00:00:00 | |
| OE5FHM-15 | 2026-09-01 02:53:39 | 48.18925 | 14.95267 | 93° | 104km/h | 13065m | 4.6m/s | -52.9°C | 5.3% | 0hPa | 2.7V | 00:00:00 | 01:04:37 | 00:00:00 | |
| OE5DXL-15 | 2026-09-01 02:53:38 | 48.18927 | 14.95225 | 94° | 104km/h | 13060m | 5.1m/s | -52.9°C | 5.3% | 0hPa | 2.7V | 00:00:00 | 00:00:00 | 00:00:00 | |
| DO3MHA-12 | 2026-09-01 02:53:35 | 48.18930 | 14.95102 | 93° | 104km/h | 13045m | 5.5m/s | -52.8°C | 5.4% | 0hPa | 2.7V | 00:00:00 | 01:04:33 | 00:00:00 | |
| PETON7-10 | 2026-09-01 02:53:34 | 48.18931 | 14.95062 | 94° | 104km/h | 13040m | 4.6m/s | -52.8°C | 5.4% | 0hPa | 2.7V | 00:00:00 | 01:04:32 | 00:00:00 | |
| OK1ALN | 2026-09-01 02:53:31 | 48.18933 | 14.94982 | 93° | 104km/h | 13030m | 5.1m/s | -52.8°C | 3.0% | 0hPa | 2.7V | 00:00:00 | 00:00:00 | 00:00:00 | |
| OE5MMP-10 | 2026-09-01 02:53:30 | 48.18935 | 14.94904 | 93° | 104km/h | 13019m | 4.0m/s | -52.7°C | 5.4% | 0hPa | 2.7V | 00:00:00 | 01:04:28 | 00:00:00 | |
| OE5WHR-10 | 2026-09-01 02:53:29 | 48.18936 | 14.94864 | 92° | 102km/h | 13014m | 5.8m/s | -52.7°C | 5.4% | 0hPa | 2.7V | 00:00:00 | 01:04:27 | 00:00:00 | |
| DO3MHA-12 | 2026-09-01 02:53:25 | 48.18941 | 14.94708 | 94° | 102km/h | 12995m | 5.5m/s | -52.7°C | 5.4% | 0hPa | 2.7V | 00:00:00 | 01:04:23 | 00:00:00 | |
| OE8JPQ-2 | 2026-09-01 02:53:23 | 48.18943 | 14.94631 | 93° | 102km/h | 12984m | 5.6m/s | -52.8°C | 5.5% | 0hPa | 2.7V | 00:00:00 | 01:04:21 | 00:00:00 | |
| OE3JTB-15 | 2026-09-01 02:53:21 | 48.18945 | 14.94553 | 91° | 102km/h | 12974m | 4.7m/s | -52.9°C | 5.6% | 0hPa | 2.7V | 00:00:00 | 00:00:00 | 00:00:00 | |
| OE5MMP-10 | 2026-09-01 02:53:20 | 48.18945 | 14.94514 | 91° | 102km/h | 12969m | 4.3m/s | -53.0°C | 5.7% | 0hPa | 2.7V | 00:00:00 | 01:04:18 | 08:30:00 | |
| PETON7-10 | 2026-09-01 02:53:19 | 48.18946 | 14.94475 | 93° | 102km/h | 12964m | 5.8m/s | -53.2°C | 5.7% | 0hPa | 2.7V | 00:00:00 | 00:00:00 | 00:00:00 | |
| OE3OSB-13 | 2026-09-01 02:53:16 | 48.18950 | 14.94320 | 93° | 100km/h | 12946m | 5.0m/s | -53.2°C | 3.1% | -1.0hPa | 2.7V | 00:00:00 | 00:00:00 | 00:00:00 | |
| DO3MHA-12 | 2026-09-01 02:53:15 | 48.18950 | 14.94320 | 94° | 100km/h | 12946m | 5.0m/s | -53.1°C | 5.7% | 0hPa | 2.7V | 00:00:00 | 01:04:13 | 00:00:00 | |
| OE5MMP-10 | 2026-09-01 02:53:10 | 48.18954 | 14.94131 | 92° | 102km/h | 12922m | 4.4m/s | -53.0°C | 5.7% | 0hPa | 2.7V | 00:00:00 | 01:04:08 | 00:00:00 | |
| OE5FHM-15 | 2026-09-01 02:53:09 | 48.18954 | 14.94092 | 90° | 102km/h | 12917m | 4.8m/s | -53.0°C | 5.7% | 0hPa | 2.7V | 00:00:00 | 01:04:07 | 00:00:00 | |
| OE5WHR-10 | 2026-09-01 02:53:08 | 48.18954 | 14.94054 | 90° | 104km/h | 12913m | 4.6m/s | -53.1°C | 5.8% | 0hPa | 2.7V | 00:00:00 | 00:00:00 | 08:30:00 | |
| DO3MHA-12 | 2026-09-01 02:53:05 | 48.18954 | 14.93938 | 90° | 102km/h | 12898m | 6.3m/s | -53.0°C | 5.9% | 0hPa | 2.7V | 00:00:00 | 01:04:03 | 08:30:00 | |
| PETON7-10 | 2026-09-01 02:53:04 | 48.18954 | 14.93899 | 91° | 104km/h | 12892m | 4.3m/s | -53.0°C | 5.9% | 0hPa | 2.7V | 00:00:00 | 00:00:00 | 00:00:00 | |
| OE8JPQ-2 | 2026-09-01 02:53:03 | 48.18954 | 14.93860 | 92° | 102km/h | 12887m | 5.4m/s | -53.0°C | 5.9% | 0hPa | 2.7V | 00:00:00 | 00:00:00 | 08:30:00 | |
| OE3OSB-13 | 2026-09-01 02:52:45 | 48.18955 | 14.93120 | 91° | 95km/h | 12792m | 5.0m/s | -53.2°C | 3.9% | -1.0hPa | 2.7V | 00:00:00 | 00:00:00 | 00:00:00 | |
| OE8JPQ-2 | 2026-09-01 02:52:43 | 48.18955 | 14.93083 | 91° | 100km/h | 12787m | 4.5m/s | -53.1°C | 6.6% | 0hPa | 2.7V | 00:00:00 | 00:00:00 | 00:00:00 | |
| OE5MMP-10 | 2026-09-01 02:52:40 | 48.18958 | 14.92974 | 95° | 99km/h | 12773m | 4.4m/s | -53.1°C | 6.9% | 0hPa | 2.7V | 00:00:00 | 01:03:38 | 00:00:00 | |
| OE5FHM-15 | 2026-09-01 02:52:39 | 48.18960 | 14.92938 | 96° | 104km/h | 12769m | 3.4m/s | -53.1°C | 7.0% | 0hPa | 2.7V | 00:00:00 | 01:03:37 | 00:00:00 | |
| OE5DXL-15 | 2026-09-01 02:52:38 | 48.18962 | 14.92903 | 96° | 104km/h | 12765m | 5.6m/s | -53.1°C | 7.0% | 0hPa | 2.7V | 00:00:00 | 00:00:00 | 00:00:00 | |
| DO3MHA-12 | 2026-09-01 02:52:35 | 48.18969 | 14.92795 | 95° | 104km/h | 12749m | 4.2m/s | -53.2°C | 7.4% | 0hPa | 2.7V | 00:00:00 | 01:03:33 | 00:00:00 | |
| PETON7-10 | 2026-09-01 02:52:34 | 48.18971 | 14.92758 | 96° | 106km/h | 12743m | 5.9m/s | -53.3°C | 7.6% | 0hPa | 2.7V | 00:00:00 | 00:00:00 | 00:00:00 | |
| OE5MMP-10 | 2026-09-01 02:52:30 | 48.18983 | 14.92602 | 98° | 106km/h | 12724m | 7.7m/s | -53.9°C | 8.3% | 0hPa | 2.7V | 00:00:00 | 01:03:28 | 00:00:00 | |
| S52SK | 2026-09-01 02:52:29 | 48.18983 | 14.92602 | 99° | 106km/h | 12724m | 7.8m/s | -54.0°C | 5.6% | 0hPa | 2.7V | 00:00:00 | 00:00:00 | 00:00:00 | |
| OE5WHR-10 | 2026-09-01 02:52:26 | 48.18995 | 14.92442 | 98° | 106km/h | 12699m | 4.1m/s | -54.5°C | 9.5% | 0hPa | 2.7V | 00:00:00 | 01:03:24 | 00:00:00 | |
| DO3MHA-12 | 2026-09-01 02:52:25 | 48.18999 | 14.92403 | 98° | 108km/h | 12695m | 6.0m/s | -54.6°C | 9.7% | 0hPa | 2.7V | 00:00:00 | 01:03:23 | 00:00:00 | |
| OE8JPQ-2 | 2026-09-01 02:52:23 | 48.19006 | 14.92324 | 98° | 106km/h | 12685m | 4.2m/s | -54.8°C | 10.3% | 0hPa | 2.7V | 00:00:00 | 01:03:21 | 00:00:00 | |
| OE5MMP-10 | 2026-09-01 02:52:20 | 48.19018 | 14.92203 | 100° | 104km/h | 12671m | 4.4m/s | -55.3°C | 11.5% | 0hPa | 2.7V | 00:00:00 | 01:03:18 | 00:00:00 | |
| PETON7-10 | 2026-09-01 02:52:19 | 48.19022 | 14.92162 | 99° | 104km/h | 12667m | 4.3m/s | -55.3°C | 11.9% | 0hPa | 2.7V | 00:00:00 | 00:00:00 | 00:00:00 | |
| DO3MHA-12 | 2026-09-01 02:52:15 | 48.19038 | 14.92004 | 98° | 104km/h | 12648m | 5.7m/s | -55.3°C | 12.9% | 0hPa | 2.7V | 00:00:00 | 01:03:13 | 00:00:00 | |
| OE3OSB-13 | 2026-09-01 02:52:13 | 48.19044 | 14.91928 | 97° | 100km/h | 12640m | 4.7m/s | -55.3°C | 9.9% | -1.0hPa | 2.7V | 00:00:00 | 00:00:00 | 00:00:00 | |
| OE5MMP-10 | 2026-09-01 02:52:10 | 48.19054 | 14.91813 | 97° | 108km/h | 12625m | 5.1m/s | -55.4°C | 14.8% | 0hPa | 2.7V | 00:00:00 | 01:03:08 | 00:00:00 | |
| OE5FHM-15 | 2026-09-01 02:52:09 | 48.19057 | 14.91774 | 98° | 119km/h | 12620m | 5.1m/s | -55.4°C | 15.2% | 0hPa | 2.7V | 00:00:00 | 01:03:07 | 00:00:00 | |
| OE5DXL-15 | 2026-09-01 02:52:08 | 48.19061 | 14.91735 | 100° | 119km/h | 12615m | 4.5m/s | -55.5°C | 15.6% | 0hPa | 2.7V | 00:00:00 | 00:00:00 | 00:00:00 | |
| OE5DRO-10 | 2026-09-01 02:52:07 | 48.19065 | 14.91695 | 101° | 111km/h | 12611m | 4.0m/s | -55.6°C | 15.9% | 0hPa | 2.7V | 00:00:00 | 00:00:00 | 00:00:00 | |
| DG1MFX-10 | 2026-09-01 02:52:06 | 48.19065 | 14.91695 | 101° | 108km/h | 12611m | 4.1m/s | -55.6°C | 12.3% | 0hPa | 2.7V | 00:00:00 | 00:00:00 | 00:00:00 | |
| DO3MHA-12 | 2026-09-01 02:52:05 | 48.19075 | 14.91615 | 102° | 115km/h | 12600m | 4.5m/s | -55.9°C | 16.9% | 0hPa | 2.7V | 00:00:00 | 01:03:03 | 00:00:00 | |
| PETON7-10 | 2026-09-01 02:52:04 | 48.19081 | 14.91575 | 103° | 119km/h | 12595m | 6.2m/s | -56.2°C | 17.6% | 0hPa | 2.7V | 00:00:00 | 01:03:02 | 00:00:00 | |
| OE5MMP-10 | 2026-09-01 02:52:00 | 48.19108 | 14.91409 | 104° | 120km/h | 12575m | 5.8m/s | -56.7°C | 19.2% | 0hPa | 2.7V | 00:00:00 | 01:02:58 | 00:00:00 | |
| PG1ADW-2 | 2026-09-01 02:51:59 | 48.19115 | 14.91367 | 104° | 122km/h | 12569m | 4.9m/s | -56.7°C | 19.6% | 0hPa | 2.7V | 00:00:00 | 00:00:00 | 00:00:00 | |
| OE5MMP-10 | 2026-09-01 02:51:50 | 48.19169 | 14.90962 | 100° | 122km/h | 12525m | 5.4m/s | -57.2°C | 22.3% | 0hPa | 2.7V | 00:00:00 | 01:02:48 | 08:30:00 | |
| PETON7-10 | 2026-09-01 02:51:49 | 48.19173 | 14.90916 | 99° | 124km/h | 12520m | 4.8m/s | -57.3°C | 22.7% | 0hPa | 2.7V | 00:00:00 | 00:00:00 | 08:30:00 | |
| OE5DRO-10 | 2026-09-01 02:51:48 | 48.19178 | 14.90869 | 99° | 126km/h | 12515m | 5.1m/s | -57.4°C | 23.0% | 0hPa | 2.7V | 00:00:00 | 00:00:00 | 00:00:00 | |
| DO3MHA-12 | 2026-09-01 02:51:45 | 48.19191 | 14.90730 | 98° | 124km/h | 12501m | 2.9m/s | -57.6°C | 24.2% | 0hPa | 2.7V | 00:00:00 | 01:02:43 | 00:00:00 | |
| OE5WHR-10 | 2026-09-01 02:51:44 | 48.19195 | 14.90685 | 99° | 126km/h | 12496m | 5.7m/s | -57.6°C | 24.4% | 0hPa | 2.7V | 00:00:00 | 00:00:00 | 00:00:00 | |
| OE8JPQ-2 | 2026-09-01 02:51:43 | 48.19200 | 14.90639 | 99° | 126km/h | 12491m | 4.1m/s | -57.6°C | 25.0% | 0hPa | 2.7V | 00:00:00 | 00:00:00 | 00:00:00 | |
| OE3OSB-13 | 2026-09-01 02:51:42 | 48.19204 | 14.90593 | 98° | 120km/h | 12487m | 4.8m/s | -57.8°C | 20.5% | -1.0hPa | 2.7V | 00:00:00 | 00:00:00 | 00:00:00 | |
| OE5MMP-10 | 2026-09-01 02:51:40 | 48.19214 | 14.90501 | 100° | 126km/h | 12479m | 4.5m/s | -57.8°C | 26.6% | 0hPa | 2.7V | 00:00:00 | 01:02:38 | 00:00:00 | |
| OE5FHM-15 | 2026-09-01 02:51:39 | 48.19219 | 14.90454 | 100° | 130km/h | 12475m | 2.8m/s | -57.8°C | 27.1% | 0hPa | 2.7V | 00:00:00 | 01:02:37 | 08:30:00 | |
| OE5DXL-15 | 2026-09-01 02:51:38 | 48.19224 | 14.90407 | 99° | 131km/h | 12471m | 5.8m/s | -57.9°C | 27.5% | 0hPa | 2.7V | 00:00:00 | 00:00:00 | 00:00:00 | |
| DO3MHA-12 | 2026-09-01 02:51:35 | 48.19240 | 14.90264 | 100° | 126km/h | 12456m | 4.2m/s | -58.1°C | 29.4% | 0hPa | 2.7V | 00:00:00 | 01:02:33 | 08:30:00 | |
| PETON7-10 | 2026-09-01 02:51:34 | 48.19246 | 14.90217 | 100° | 128km/h | 12451m | 5.7m/s | -58.3°C | 30.0% | 0hPa | 2.7V | 00:00:00 | 00:00:00 | 00:00:00 | |
| OE5MMP-10 | 2026-09-01 02:51:30 | 48.19267 | 14.90029 | 100° | 128km/h | 12433m | 5.2m/s | -58.9°C | 32.2% | 0hPa | 2.7V | 00:00:00 | 01:02:28 | 00:00:00 | |
| OK1ALN | 2026-09-01 02:51:29 | 48.19267 | 14.90029 | 101° | 122km/h | 12433m | 5.2m/s | -58.9°C | 26.7% | 0hPa | 2.7V | 00:00:00 | 00:00:00 | 00:00:00 | |
| OE5DRO-10 | 2026-09-01 02:51:26 | 48.19287 | 14.89843 | 99° | 131km/h | 12416m | 5.2m/s | -59.3°C | 34.4% | 0hPa | 2.7V | 00:00:00 | 00:00:00 | 00:00:00 | |
| DO3MHA-12 | 2026-09-01 02:51:25 | 48.19292 | 14.89796 | 99° | 133km/h | 12412m | 4.1m/s | -59.4°C | 35.2% | 0hPa | 2.7V | 00:00:00 | 01:02:23 | 00:00:00 | |
| OE8JPQ-2 | 2026-09-01 02:51:23 | 48.19302 | 14.89700 | 100° | 137km/h | 12404m | 4.1m/s | -59.4°C | 36.3% | 0hPa | 2.7V | 00:00:00 | 01:02:21 | 00:00:00 | |
| OE5MMP-10 | 2026-09-01 02:51:20 | 48.19320 | 14.89553 | 101° | 137km/h | 12392m | 3.3m/s | -59.4°C | 37.7% | 0hPa | 2.7V | 00:00:00 | 01:02:18 | 00:00:00 | |
| PETON7-10 | 2026-09-01 02:51:19 | 48.19326 | 14.89503 | 101° | 139km/h | 12387m | 5.2m/s | -59.4°C | 38.1% | 0hPa | 2.7V | 00:00:00 | 01:02:17 | 00:00:00 | |
| S52SK | 2026-09-01 02:51:17 | 48.19332 | 14.89452 | 100° | 137km/h | 12383m | 3.9m/s | -59.5°C | 32.5% | 0hPa | 2.7V | 00:00:00 | 00:00:00 | 00:00:00 | |
| DO3MHA-12 | 2026-09-01 02:51:15 | 48.19349 | 14.89299 | 100° | 139km/h | 12369m | 5.5m/s | -60.2°C | 41.5% | 0hPa | 2.7V | 00:00:00 | 01:02:13 | 00:00:00 | |
| S52SK | 2026-09-01 02:51:12 | 48.19361 | 14.89197 | 101° | 135km/h | 12360m | 5.2m/s | -60.7°C | 37.1% | 0hPa | 2.7V | 00:00:00 | 00:00:00 | 00:00:00 | |
| OE3OSB-13 | 2026-09-01 02:51:11 | 48.19373 | 14.89095 | 99° | 137km/h | 12350m | 5.1m/s | -60.8°C | 37.2% | -1.0hPa | 2.7V | 00:00:00 | 00:00:00 | 00:00:00 | |
| OE5MMP-10 | 2026-09-01 02:51:10 | 48.19378 | 14.89043 | 100° | 141km/h | 12346m | 3.9m/s | -60.8°C | 44.8% | 0hPa | 2.7V | 00:00:00 | 01:02:08 | 00:00:00 | |
| OE5FHM-15 | 2026-09-01 02:51:09 | 48.19384 | 14.88992 | 100° | 139km/h | 12341m | 5.6m/s | -60.9°C | 44.8% | 0hPa | 2.7V | 00:00:00 | 01:02:07 | 00:00:00 | |
| DO3MHA-12 | 2026-09-01 02:51:05 | 48.19408 | 14.88782 | 101° | 141km/h | 12322m | 5.2m/s | -60.9°C | 45.6% | 0hPa | 2.7V | 00:00:00 | 01:02:03 | 00:00:00 | |
| PETON7-10 | 2026-09-01 02:51:04 | 48.19414 | 14.88730 | 99° | 141km/h | 12317m | 4.0m/s | -61.0°C | 45.9% | 0hPa | 2.7V | 00:00:00 | 00:00:00 | 00:00:00 | |
| OE8JPQ-2 | 2026-09-01 02:51:03 | 48.19419 | 14.88676 | 99° | 133km/h | 12312m | 4.8m/s | -61.0°C | 46.4% | 0hPa | 2.7V | 00:00:00 | 00:00:00 | 00:00:00 | |
| OE5WHR-10 | 2026-09-01 02:51:02 | 48.19425 | 14.88623 | 99° | 139km/h | 12308m | 3.5m/s | -61.0°C | 46.9% | 0hPa | 2.7V | 00:00:00 | 00:00:00 | 00:00:00 | |
| OE5MMP-10 | 2026-09-01 02:51:00 | 48.19434 | 14.88518 | 98° | 141km/h | 12301m | 3.6m/s | -61.0°C | 47.1% | 0hPa | 2.7V | 00:00:00 | 01:01:58 | 00:00:00 | |
| PG1ADW-2 | 2026-09-01 02:50:59 | 48.19439 | 14.88466 | 97° | 139km/h | 12296m | 5.3m/s | -61.0°C | 47.0% | 0hPa | 2.7V | 00:00:00 | 00:00:00 | 00:00:00 | |
| OE3JTB-15 | 2026-09-01 02:50:56 | 48.19451 | 14.88309 | 97° | 135km/h | 12282m | 5.0m/s | -61.1°C | 47.2% | 0hPa | 2.7V | 00:00:00 | 00:00:00 | 00:00:00 | |
| DO3MHA-12 | 2026-09-01 02:50:55 | 48.19455 | 14.88256 | 97° | 139km/h | 12277m | 4.0m/s | -61.2°C | 47.5% | 0hPa | 2.7V | 00:00:00 | 01:01:53 | 00:00:00 | |
| OE5MMP-10 | 2026-09-01 02:50:50 | 48.19473 | 14.87992 | 96° | 137km/h | 12252m | 5.6m/s | -61.3°C | 48.1% | 0hPa | 2.7V | 00:00:00 | 01:01:48 | 00:00:00 | |
| PETON7-10 | 2026-09-01 02:50:49 | 48.19476 | 14.87939 | 96° | 135km/h | 12247m | 4.5m/s | -61.4°C | 48.3% | 0hPa | 2.7V | 00:00:00 | 00:00:00 | 00:00:00 | |
| OE5DRO-10 | 2026-09-01 02:50:48 | 48.19479 | 14.87886 | 95° | 133km/h | 12242m | 5.7m/s | -61.3°C | 48.5% | 0hPa | 2.7V | 00:00:00 | 00:00:00 | 00:00:00 | |
| OK1ALN | 2026-09-01 02:50:47 | 48.19479 | 14.87886 | 96° | 141km/h | 12242m | 5.7m/s | -61.4°C | 41.0% | 0hPa | 2.7V | 00:00:00 | 00:00:00 | 00:00:00 | |
| DO3MHA-12 | 2026-09-01 02:50:45 | 48.19488 | 14.87732 | 95° | 133km/h | 12228m | 4.7m/s | -61.2°C | 48.0% | 0hPa | 2.7V | 00:00:00 | 01:01:43 | 00:00:00 | |
| DG1MFX-10 | 2026-09-01 02:50:42 | 48.19493 | 14.87629 | 94° | 133km/h | 12219m | 5.1m/s | -61.2°C | 40.6% | 0hPa | 2.7V | 00:00:00 | 00:00:00 | 00:00:00 | |
| OE5WHR-10 | 2026-09-01 02:50:41 | 48.19496 | 14.87528 | 94° | 130km/h | 12211m | 3.9m/s | -61.1°C | 47.4% | 0hPa | 2.7V | 00:00:00 | 00:00:00 | 00:00:00 | |
| OE5MMP-10 | 2026-09-01 02:50:40 | 48.19498 | 14.87477 | 94° | 131km/h | 12206m | 5.3m/s | -61.0°C | 47.2% | 0hPa | 2.7V | 00:00:00 | 01:01:38 | 00:00:00 | |
| OE5FHM-15 | 2026-09-01 02:50:39 | 48.19500 | 14.87426 | 94° | 130km/h | 12201m | 4.7m/s | -61.0°C | 47.1% | 0hPa | 2.7V | 00:00:00 | 01:01:37 | 00:00:00 | |
| OE5DXL-15 | 2026-09-01 02:50:37 | 48.19504 | 14.87326 | 95° | 128km/h | 12191m | 3.6m/s | -60.9°C | 47.0% | 0hPa | 2.7V | 00:00:00 | 00:00:00 | 00:00:00 | |
| DO3MHA-12 | 2026-09-01 02:50:35 | 48.19508 | 14.87228 | 94° | 130km/h | 12181m | 4.5m/s | -60.8°C | 46.5% | 0hPa | 2.7V | 00:00:00 | 01:01:33 | 00:00:00 | |
| PETON7-10 | 2026-09-01 02:50:34 | 48.19510 | 14.87180 | 94° | 130km/h | 12177m | 4.8m/s | -60.8°C | 46.4% | 0hPa | 2.7V | 00:00:00 | 01:01:32 | 00:00:00 | |
| OE8JPQ-2 | 2026-09-01 02:50:33 | 48.19512 | 14.87131 | 94° | 130km/h | 12172m | 5.3m/s | -60.7°C | 46.0% | 0hPa | 2.7V | 00:00:00 | 00:00:00 | 00:00:00 | |
| OE5MMP-10 | 2026-09-01 02:50:30 | 48.19518 | 14.86984 | 94° | 130km/h | 12157m | 4.4m/s | -60.6°C | 45.4% | 0hPa | 2.7V | 00:00:00 | 01:01:28 | 00:00:00 | |
| OE5DRO-10 | 2026-09-01 02:50:29 | 48.19520 | 14.86936 | 94° | 130km/h | 12152m | 6.1m/s | -60.6°C | 45.3% | 0hPa | 2.7V | 00:00:00 | 00:00:00 | 00:00:00 | |
| OE3JTB-15 | 2026-09-01 02:50:27 | 48.19525 | 14.86837 | 94° | 126km/h | 12143m | 5.5m/s | -60.5°C | 44.7% | 0hPa | 2.7V | 00:00:00 | 00:00:00 | 00:00:00 | |
| DO3MHA-12 | 2026-09-01 02:50:25 | 48.19529 | 14.86739 | 94° | 130km/h | 12133m | 5.2m/s | -60.4°C | 44.4% | 0hPa | 2.7V | 00:00:00 | 01:01:23 | 00:00:00 | |
| DG1MFX-10 | 2026-09-01 02:50:21 | 48.19533 | 14.86592 | 94° | 130km/h | 12118m | 4.5m/s | -60.4°C | 38.2% | 0hPa | 2.7V | 00:00:00 | 00:00:00 | 00:00:00 | |
| OE5WHR-10 | 2026-09-01 02:50:20 | 48.19537 | 14.86494 | 95° | 124km/h | 12108m | 5.5m/s | -60.3°C | 45.1% | 0hPa | 2.7V | 00:00:00 | 01:01:18 | 00:00:00 | |
| PETON7-10 | 2026-09-01 02:50:19 | 48.19539 | 14.86445 | 95° | 124km/h | 12103m | 4.5m/s | -60.3°C | 45.3% | 0hPa | 2.7V | 00:00:00 | 00:00:00 | 00:00:00 | |
| DO3MHA-12 | 2026-09-01 02:50:15 | 48.19549 | 14.86252 | 96° | 124km/h | 12083m | 4.5m/s | -60.2°C | 46.5% | 0hPa | 2.7V | 00:00:00 | 01:01:13 | 00:00:00 | |
| OE8JPQ-2 | 2026-09-01 02:50:13 | 48.19554 | 14.86155 | 93° | 122km/h | 12072m | 4.9m/s | -60.1°C | 46.7% | 0hPa | 2.7V | 00:00:00 | 01:01:11 | 00:00:00 | |
| OE5MMP-10 | 2026-09-01 02:50:10 | 48.19557 | 14.86008 | 91° | 119km/h | 12055m | 6.0m/s | -60.0°C | 45.4% | 0hPa | 2.7V | 00:00:00 | 01:01:08 | 00:00:00 | |
| OE5FHM-15 | 2026-09-01 02:50:09 | 48.19558 | 14.85961 | 90° | 122km/h | 12048m | 8.5m/s | -59.9°C | 45.2% | 0hPa | 2.7V | 00:00:00 | 01:01:07 | 00:00:00 | |
| OE5DXL-15 | 2026-09-01 02:50:06 | 48.19553 | 14.85827 | 89° | 122km/h | 12030m | 2.6m/s | -59.8°C | 45.3% | 0hPa | 2.7V | 00:00:00 | 00:00:00 | 00:00:00 | |
| DO3MHA-12 | 2026-09-01 02:50:05 | 48.19553 | 14.85786 | 93° | 124km/h | 12025m | 5.8m/s | -59.8°C | 44.0% | 0hPa | 2.7V | 00:00:00 | 01:01:03 | 08:30:00 | |
| PETON7-10 | 2026-09-01 02:50:04 | 48.19556 | 14.85744 | 99° | 124km/h | 12019m | 6.8m/s | -59.7°C | 42.6% | 0hPa | 2.7V | 00:00:00 | 00:00:00 | 00:00:00 | |
| OE5MMP-10 | 2026-09-01 02:50:00 | 48.19577 | 14.85560 | 98° | 124km/h | 11977m | 12.8m/s | -59.8°C | 40.7% | 0hPa | 2.7V | 00:00:00 | 01:00:58 | 00:00:00 | |
| OE5WHR-10 | 2026-09-01 02:49:59 | 48.19581 | 14.85513 | 97° | 122km/h | 11966m | 10.1m/s | -59.8°C | 41.8% | 0hPa | 2.7V | 00:00:00 | 00:00:00 | 08:30:00 | |
| OE3JTB-15 | 2026-09-01 02:49:58 | 48.19585 | 14.85466 | 97° | 122km/h | 11958m | 5.7m/s | -59.8°C | 42.2% | 0hPa | 2.7V | 00:00:00 | 01:00:56 | 00:00:00 | |
| DO3MHA-12 | 2026-09-01 02:49:54 | 48.19601 | 14.85277 | 99° | 122km/h | 11931m | 4.9m/s | -59.6°C | 42.7% | 0hPa | 2.7V | 00:00:00 | 01:00:52 | 00:00:00 | |
| OE5DRO-10 | 2026-09-01 02:49:51 | 48.19617 | 14.85139 | 100° | 120km/h | 11915m | 6.2m/s | -59.5°C | 42.3% | 0hPa | 2.7V | 00:00:00 | 00:00:00 | 00:00:00 | |
| OE5MMP-10 | 2026-09-01 02:49:50 | 48.19622 | 14.85095 | 100° | 120km/h | 11910m | 4.3m/s | -59.4°C | 42.2% | 0hPa | 2.7V | 00:00:00 | 01:00:48 | 00:00:00 | |
| PETON7-10 | 2026-09-01 02:49:49 | 48.19627 | 14.85050 | 100° | 122km/h | 11905m | 6.3m/s | -59.4°C | 41.8% | 0hPa | 2.7V | 00:00:00 | 01:00:47 | 00:00:00 | |
| OK1ALN | 2026-09-01 02:49:45 | 48.19640 | 14.84915 | 98° | 120km/h | 11888m | 4.0m/s | -59.3°C | 0% | 0hPa | 2.7V | 00:00:00 | 00:00:00 | 00:00:00 | |
| DO3MHA-12 | 2026-09-01 02:49:44 | 48.19647 | 14.84824 | 97° | 122km/h | 11877m | 4.9m/s | -59.1°C | 40.7% | 0hPa | 2.7V | 00:00:00 | 01:00:42 | 00:00:00 | |
| DG1MFX-10 | 2026-09-01 02:49:41 | 48.19654 | 14.84732 | 98° | 122km/h | 11865m | 4.7m/s | -59.1°C | 34.5% | 0hPa | 2.7V | 00:00:00 | 00:00:00 | 00:00:00 | |
| OE5MMP-10 | 2026-09-01 02:49:40 | 48.19662 | 14.84640 | 99° | 122km/h | 11854m | 3.7m/s | -59.0°C | 40.8% | 0hPa | 2.7V | 00:00:00 | 01:00:38 | 00:00:00 | |
| OE5FHM-15 | 2026-09-01 02:49:39 | 48.19666 | 14.84594 | 99° | 120km/h | 11850m | 5.8m/s | -59.0°C | 40.3% | 0hPa | 2.7V | 00:00:00 | 01:00:37 | 00:00:00 | |
| OE5WHR-10 | 2026-09-01 02:49:38 | 48.19671 | 14.84548 | 99° | 120km/h | 11844m | 5.0m/s | -59.0°C | 40.4% | 0hPa | 2.7V | 00:00:00 | 00:00:00 | 00:00:00 | |
| OE5DXL-15 | 2026-09-01 02:49:36 | 48.19680 | 14.84456 | 98° | 120km/h | 11832m | 5.4m/s | -59.0°C | 40.5% | 0hPa | 2.7V | 00:00:00 | 00:00:00 | 08:30:00 | |
| DO3MHA-12 | 2026-09-01 02:49:34 | 48.19687 | 14.84364 | 96° | 120km/h | 11821m | 4.8m/s | -59.0°C | 41.1% | 0hPa | 2.7V | 00:00:00 | 01:00:32 | 00:00:00 | |
| OE5DRO-10 | 2026-09-01 02:49:32 | 48.19693 | 14.84272 | 96° | 120km/h | 11810m | 4.9m/s | -58.9°C | 41.1% | 0hPa | 2.7V | 00:00:00 | 00:00:00 | 08:30:00 | |
| OE5MMP-10 | 2026-09-01 02:49:30 | 48.19698 | 14.84180 | 96° | 120km/h | 11800m | 5.0m/s | -58.8°C | 40.8% | 0hPa | 2.7V | 00:00:00 | 01:00:28 | 00:00:00 | |
| OE3JTB-15 | 2026-09-01 02:49:29 | 48.19701 | 14.84135 | 97° | 120km/h | 11795m | 4.7m/s | -58.8°C | 40.5% | 0hPa | 2.7V | 00:00:00 | 00:00:00 | 00:00:00 | |
| OE8JPQ-2 | 2026-09-01 02:49:28 | 48.19705 | 14.84090 | 98° | 120km/h | 11789m | 5.7m/s | -58.7°C | 40.5% | 0hPa | 2.7V | 00:00:00 | 00:00:00 | 00:00:00 | |
| DO3MHA-12 | 2026-09-01 02:49:24 | 48.19720 | 14.83910 | 97° | 119km/h | 11769m | 5.7m/s | -58.6°C | 39.5% | 0hPa | 2.7V | 00:00:00 | 01:00:22 | 00:00:00 | |
| OK1ALN | 2026-09-01 02:49:23 | 48.19720 | 14.83910 | 97° | 120km/h | 11769m | 5.7m/s | 0°C | 0% | 0hPa | 2.7V | 00:00:00 | 00:00:00 | 00:00:00 | |
| OE5MMP-10 | 2026-09-01 02:49:20 | 48.19733 | 14.83729 | 97° | 119km/h | 11746m | 4.8m/s | -58.4°C | 39.2% | 0hPa | 2.7V | 00:00:00 | 01:00:18 | 00:00:00 | |
| PETON7-10 | 2026-09-01 02:49:19 | 48.19737 | 14.83684 | 97° | 120km/h | 11741m | 6.7m/s | -58.3°C | 38.9% | 0hPa | 2.7V | 00:00:00 | 00:00:00 | 00:00:00 | |
| OE5WHR-10 | 2026-09-01 02:49:17 | 48.19743 | 14.83595 | 96° | 120km/h | 11729m | 6.8m/s | -58.3°C | 38.4% | 0hPa | 2.7V | 00:00:00 | 01:00:15 | 00:00:00 | |
| DO3MHA-12 | 2026-09-01 02:49:14 | 48.19750 | 14.83461 | 95° | 120km/h | 11711m | 3.6m/s | -58.1°C | 38.3% | 0hPa | 2.7V | 00:00:00 | 01:00:12 | 00:00:00 | |
| OE5DRO-10 | 2026-09-01 02:49:12 | 48.19755 | 14.83370 | 95° | 120km/h | 11700m | 4.5m/s | -58.1°C | 38.1% | 0hPa | 2.7V | 00:00:00 | 00:00:00 | 00:00:00 | |
| OE5MMP-10 | 2026-09-01 02:49:10 | 48.19760 | 14.83279 | 95° | 120km/h | 11688m | 5.3m/s | -58.0°C | 37.8% | 0hPa | 2.7V | 00:00:00 | 01:00:08 | 00:00:00 | |
| OE5FHM-15 | 2026-09-01 02:49:09 | 48.19762 | 14.83233 | 95° | 120km/h | 11683m | 5.0m/s | -58.0°C | 38.1% | 0hPa | 2.7V | 00:00:00 | 01:00:07 | 00:00:00 | |
| OE8JPQ-2 | 2026-09-01 02:49:08 | 48.19765 | 14.83187 | 95° | 120km/h | 11678m | 5.3m/s | -57.9°C | 37.9% | 0hPa | 2.7V | 00:00:00 | 01:00:06 | 00:00:00 | |
| OE3OSB-13 | 2026-09-01 02:49:07 | 48.19767 | 14.83141 | 94° | 119km/h | 11673m | 4.7m/s | -58.0°C | 31.9% | -1.0hPa | 2.7V | 00:00:00 | 00:00:00 | 00:00:00 | |
| OE5DXL-15 | 2026-09-01 02:49:06 | 48.19769 | 14.83096 | 95° | 122km/h | 11667m | 6.4m/s | -57.9°C | 37.8% | 0hPa | 2.7V | 00:00:00 | 00:00:00 | 00:00:00 | |
| PETON7-10 | 2026-09-01 02:49:04 | 48.19774 | 14.83006 | 95° | 120km/h | 11656m | 6.4m/s | -57.9°C | 37.9% | 0hPa | 2.7V | 00:00:00 | 01:00:02 | 00:00:00 | |
| OK1ALN | 2026-09-01 02:49:03 | 48.19774 | 14.83006 | 96° | 119km/h | 11656m | 6.4m/s | 0°C | 0% | 0hPa | 2.7V | 00:00:00 | 00:00:00 | 00:00:00 | |
| OE5MMP-10 | 2026-09-01 02:49:00 | 48.19783 | 14.82825 | 94° | 122km/h | 11635m | 6.2m/s | -57.8°C | 38.5% | 0hPa | 2.7V | 00:00:00 | 00:59:58 | 00:00:00 | |
| OE3JTB-15 | 2026-09-01 02:48:59 | 48.19785 | 14.82779 | 93° | 120km/h | 11629m | 5.3m/s | -57.8°C | 38.6% | 0hPa | 2.7V | 00:00:00 | 00:00:00 | 00:00:00 | |
| OE5WHR-10 | 2026-09-01 02:48:56 | 48.19788 | 14.82643 | 93° | 122km/h | 11613m | 6.2m/s | -57.7°C | 39.2% | 0hPa | 2.7V | 00:00:00 | 00:00:00 | 00:00:00 | |
| DO3MHA-12 | 2026-09-01 02:48:54 | 48.19791 | 14.82551 | 93° | 122km/h | 11602m | 5.0m/s | -57.6°C | 39.9% | 0hPa | 2.7V | 00:00:00 | 00:59:52 | 00:00:00 | |
| OE5DRO-10 | 2026-09-01 02:48:53 | 48.19793 | 14.82504 | 95° | 122km/h | 11596m | 7.1m/s | -57.6°C | 40.3% | 0hPa | 2.7V | 00:00:00 | 00:00:00 | 00:00:00 | |
| OE5MMP-10 | 2026-09-01 02:48:50 | 48.19799 | 14.82364 | 93° | 122km/h | 11579m | 4.2m/s | -57.5°C | 41.1% | 0hPa | 2.7V | 00:00:00 | 00:59:48 | 08:30:00 | |
| PETON7-10 | 2026-09-01 02:48:49 | 48.19801 | 14.82319 | 94° | 122km/h | 11575m | 4.4m/s | -57.5°C | 40.8% | 0hPa | 2.7V | 00:00:00 | 00:00:00 | 00:00:00 | |
| OE8JPQ-2 | 2026-09-01 02:48:48 | 48.19803 | 14.82273 | 94° | 122km/h | 11570m | 5.2m/s | -57.4°C | 40.7% | 0hPa | 2.7V | 00:00:00 | 00:00:00 | 00:00:00 | |
| S52SK | 2026-09-01 02:48:45 | 48.19806 | 14.82183 | 94° | 120km/h | 11560m | 5.2m/s | -57.4°C | 34.8% | 0hPa | 2.7V | 00:00:00 | 00:00:00 | 00:00:00 | |
| DO3MHA-12 | 2026-09-01 02:48:44 | 48.19810 | 14.82091 | 95° | 124km/h | 11549m | 4.5m/s | -57.2°C | 41.0% | 0hPa | 2.7V | 00:00:00 | 00:59:42 | 00:00:00 | |
| OK1ALN | 2026-09-01 02:48:42 | 48.19813 | 14.82044 | 95° | 124km/h | 11544m | 5.3m/s | 0°C | 0% | 0hPa | 2.7V | 00:00:00 | 00:00:00 | 00:00:00 | |
| OE5MMP-10 | 2026-09-01 02:48:40 | 48.19819 | 14.81904 | 95° | 122km/h | 11529m | 4.7m/s | -57.0°C | 41.2% | 0hPa | 2.7V | 00:00:00 | 00:59:38 | 00:00:00 | |
| OE5FHM-15 | 2026-09-01 02:48:39 | 48.19821 | 14.81858 | 94° | 124km/h | 11524m | 4.2m/s | -57.0°C | 41.0% | 0hPa | 2.7V | 00:00:00 | 00:59:37 | 00:00:00 | |
| DG1MFX-10 | 2026-09-01 02:48:38 | 48.19821 | 14.81858 | 94° | 122km/h | 11524m | 4.3m/s | -57.0°C | 35.1% | 0hPa | 2.7V | 00:00:00 | 00:00:00 | 00:00:00 | |
| OE3OSB-13 | 2026-09-01 02:48:36 | 48.19825 | 14.81718 | 93° | 122km/h | 11508m | 5.9m/s | -56.9°C | 35.1% | -1.0hPa | 2.7V | 00:00:00 | 00:00:00 | 00:00:00 | |
| OE5DXL-15 | 2026-09-01 02:48:35 | 48.19827 | 14.81672 | 95° | 124km/h | 11503m | 3.9m/s | -56.8°C | 41.4% | 0hPa | 2.7V | 00:00:00 | 00:00:00 | 00:00:00 | |
| PETON7-10 | 2026-09-01 02:48:34 | 48.19829 | 14.81625 | 94° | 122km/h | 11499m | 5.7m/s | -56.8°C | 41.2% | 0hPa | 2.7V | 00:00:00 | 00:00:00 | 00:00:00 | |
| OE5MMP-10 | 2026-09-01 02:48:30 | 48.19839 | 14.81443 | 96° | 122km/h | 11477m | 6.1m/s | -56.5°C | 41.9% | 0hPa | 2.7V | 00:00:00 | 00:59:28 | 00:00:00 | |
| OE8JPQ-2 | 2026-09-01 02:48:28 | 48.19844 | 14.81351 | 95° | 124km/h | 11465m | 5.2m/s | -56.4°C | 42.5% | 0hPa | 2.7V | 00:00:00 | 00:00:00 | 00:00:00 | |
| OE3JTB-15 | 2026-09-01 02:48:26 | 48.19849 | 14.81259 | 94° | 122km/h | 11455m | 6.0m/s | -56.4°C | 43.2% | 0hPa | 2.7V | 00:00:00 | 00:59:24 | 00:00:00 | |
| DO3MHA-12 | 2026-09-01 02:48:24 | 48.19852 | 14.81166 | 94° | 124km/h | 11445m | 6.3m/s | -56.3°C | 43.2% | 0hPa | 2.7V | 00:00:00 | 00:59:22 | 00:00:00 | |
| OE5MMP-10 | 2026-09-01 02:48:20 | 48.19858 | 14.80980 | 94° | 126km/h | 11421m | 6.3m/s | -56.1°C | 44.6% | 0hPa | 2.7V | 00:00:00 | 00:59:18 | 00:00:00 | |
| PETON7-10 | 2026-09-01 02:48:19 | 48.19860 | 14.80934 | 95° | 126km/h | 11416m | 4.1m/s | -56.1°C | 44.7% | 0hPa | 2.7V | 00:00:00 | 00:59:17 | 00:00:00 | |
| OK1ALN | 2026-09-01 02:48:18 | 48.19860 | 14.80934 | 96° | 124km/h | 11416m | 4.2m/s | 0°C | 0% | 0hPa | 2.7V | 00:00:00 | 00:00:00 | 00:00:00 | |
| DG1MFX-10 | 2026-09-01 02:48:17 | 48.19862 | 14.80886 | 95° | 126km/h | 11411m | 5.2m/s | -56.1°C | 38.4% | 0hPa | 2.7V | 00:00:00 | 00:00:00 | 00:00:00 | |
| OE5DRO-10 | 2026-09-01 02:48:15 | 48.19869 | 14.80744 | 95° | 124km/h | 11396m | 4.1m/s | -55.9°C | 44.4% | 0hPa | 2.7V | 00:00:00 | 00:00:00 | 00:00:00 | |
| DO3MHA-12 | 2026-09-01 02:48:14 | 48.19871 | 14.80696 | 94° | 124km/h | 11391m | 5.4m/s | -55.8°C | 43.7% | 0hPa | 2.7V | 00:00:00 | 00:59:12 | 00:00:00 | |
| OE5MMP-10 | 2026-09-01 02:48:10 | 48.19878 | 14.80505 | 94° | 122km/h | 11370m | 4.3m/s | -55.7°C | 42.4% | 0hPa | 2.7V | 00:00:00 | 00:59:08 | 00:00:00 | |
| OE5FHM-15 | 2026-09-01 02:48:09 | 48.19880 | 14.80458 | 94° | 122km/h | 11365m | 6.2m/s | -55.6°C | 41.7% | 0hPa | 2.7V | 00:00:00 | 00:59:07 | 00:00:00 | |
| OE8JPQ-2 | 2026-09-01 02:48:08 | 48.19882 | 14.80411 | 95° | 122km/h | 11359m | 5.9m/s | 0°C | 0% | 0hPa | 2.7V | 00:00:00 | 00:59:06 | 00:00:00 | |
| OE5DXL-15 | 2026-09-01 02:48:05 | 48.19890 | 14.80272 | 94° | 122km/h | 11343m | 5.0m/s | -55.4°C | 40.7% | 0hPa | 2.7V | 00:00:00 | 00:00:00 | 00:00:00 | |
| PETON7-10 | 2026-09-01 02:48:04 | 48.19892 | 14.80227 | 95° | 122km/h | 11338m | 4.3m/s | -55.4°C | 40.2% | 0hPa | 2.7V | 00:00:00 | 00:00:00 | 00:00:00 | |
| OE5MMP-10 | 2026-09-01 02:48:00 | 48.19900 | 14.80045 | 94° | 124km/h | 11318m | 4.6m/s | -55.2°C | 39.6% | 0hPa | 2.7V | 00:00:00 | 00:58:58 | 00:00:00 | |
| PG1ADW-2 | 2026-09-01 02:47:59 | 48.19902 | 14.79999 | 94° | 122km/h | 11313m | 5.1m/s | -55.1°C | 39.8% | 0hPa | 2.7V | 00:00:00 | 00:00:00 | 00:00:00 | |
| OE3JTB-15 | 2026-09-01 02:47:57 | 48.19906 | 14.79904 | 94° | 122km/h | 11302m | 4.0m/s | -55.0°C | 40.1% | 0hPa | 2.7V | 00:00:00 | 00:00:00 | 08:30:00 | |
| OE5DRO-10 | 2026-09-01 02:47:56 | 48.19908 | 14.79857 | 95° | 122km/h | 11297m | 5.3m/s | -55.0°C | 40.2% | 0hPa | 2.7V | 00:00:00 | 00:00:00 | 00:00:00 | |
| DO3MHA-12 | 2026-09-01 02:47:54 | 48.19913 | 14.79761 | 94° | 122km/h | 11288m | 4.9m/s | -54.9°C | 41.0% | 0hPa | 2.7V | 00:00:00 | 00:58:52 | 00:00:00 | |
| OE5WHR-10 | 2026-09-01 02:47:53 | 48.19915 | 14.79714 | 95° | 120km/h | 11283m | 4.5m/s | -54.8°C | 41.5% | 0hPa | 2.7V | 00:00:00 | 00:00:00 | 00:00:00 | |
| OE5MMP-10 | 2026-09-01 02:47:50 | 48.19923 | 14.79578 | 94° | 122km/h | 11270m | 4.7m/s | -54.8°C | 42.1% | 0hPa | 2.7V | 00:00:00 | 00:58:48 | 00:00:00 | |
| PETON7-10 | 2026-09-01 02:47:49 | 48.19925 | 14.79532 | 95° | 122km/h | 11265m | 4.1m/s | -54.7°C | 41.9% | 0hPa | 2.7V | 00:00:00 | 00:00:00 | 00:00:00 | |
| OE8JPQ-2 | 2026-09-01 02:47:48 | 48.19927 | 14.79487 | 96° | 120km/h | 11260m | 5.9m/s | 0°C | 0% | 0hPa | 2.7V | 00:00:00 | 00:00:00 | 00:00:00 | |
| DO3MHA-12 | 2026-09-01 02:47:44 | 48.19937 | 14.79303 | 95° | 122km/h | 11240m | 3.6m/s | -54.5°C | 41.5% | 0hPa | 2.7V | 00:00:00 | 00:58:42 | 00:00:00 | |
| OE5MMP-10 | 2026-09-01 02:47:40 | 48.19946 | 14.79118 | 93° | 120km/h | 11219m | 5.1m/s | -54.3°C | 40.3% | 0hPa | 2.7V | 00:00:00 | 00:58:38 | 00:00:00 | |
| OE5FHM-15 | 2026-09-01 02:47:39 | 48.19947 | 14.79072 | 93° | 120km/h | 11214m | 5.1m/s | -54.2°C | 40.2% | 0hPa | 2.7V | 00:00:00 | 00:58:37 | 00:00:00 | |
| OE5DRO-10 | 2026-09-01 02:47:37 | 48.19951 | 14.78981 | 93° | 120km/h | 11203m | 3.9m/s | -54.1°C | 40.0% | 0hPa | 2.7V | 00:00:00 | 00:00:00 | 00:00:00 | |
| DG1MFX-10 | 2026-09-01 02:47:36 | 48.19951 | 14.78981 | 94° | 122km/h | 11203m | 3.9m/s | -54.2°C | 34.8% | 0hPa | 2.7V | 00:00:00 | 00:00:00 | 00:00:00 | |
| DO3MHA-12 | 2026-09-01 02:47:34 | 48.19954 | 14.78844 | 93° | 120km/h | 11186m | 5.6m/s | -54.0°C | 39.5% | 0hPa | 2.7V | 00:00:00 | 00:58:32 | 00:00:00 | |
| OE5WHR-10 | 2026-09-01 02:47:32 | 48.19957 | 14.78754 | 93° | 120km/h | 11175m | 6.0m/s | -53.9°C | 39.0% | 0hPa | 2.7V | 00:00:00 | 00:00:00 | 00:00:00 | |
| OE5MMP-10 | 2026-09-01 02:47:30 | 48.19960 | 14.78664 | 93° | 120km/h | 11164m | 6.2m/s | -53.8°C | 38.7% | 0hPa | 2.7V | 00:00:00 | 00:58:28 | 00:00:00 | |
| OE8JPQ-2 | 2026-09-01 02:47:28 | 48.19963 | 14.78573 | 92° | 120km/h | 11154m | 6.1m/s | 0°C | 0% | 0hPa | 2.7V | 00:00:00 | 00:00:00 | 00:00:00 | |
| S52SK | 2026-09-01 02:47:27 | 48.19963 | 14.78573 | 93° | 120km/h | 11154m | 6.1m/s | -53.7°C | 33.2% | 0hPa | 2.7V | 00:00:00 | 00:00:00 | 00:00:00 | |
| DO3MHA-12 | 2026-09-01 02:47:24 | 48.19967 | 14.78391 | 92° | 120km/h | 11134m | 5.0m/s | -53.5°C | 38.0% | 0hPa | 2.7V | 00:00:00 | 00:58:22 | 00:00:00 | |
| S52SK | 2026-09-01 02:47:21 | 48.19969 | 14.78300 | 93° | 120km/h | 11125m | 5.1m/s | -53.5°C | 33.3% | 0hPa | 2.7V | 00:00:00 | 00:00:00 | 00:00:00 | |
| OE5MMP-10 | 2026-09-01 02:47:20 | 48.19971 | 14.78210 | 92° | 120km/h | 11115m | 4.8m/s | -53.4°C | 38.0% | 0hPa | 2.7V | 00:00:00 | 00:58:18 | 08:30:00 | |
| PETON7-10 | 2026-09-01 02:47:19 | 48.19972 | 14.78165 | 93° | 120km/h | 11111m | 5.2m/s | -53.4°C | 38.0% | 0hPa | 2.7V | 00:00:00 | 00:00:00 | 08:30:00 | |
| OE5DRO-10 | 2026-09-01 02:47:18 | 48.19974 | 14.78119 | 93° | 122km/h | 11106m | 4.5m/s | -53.3°C | 38.1% | 0hPa | 2.7V | 00:00:00 | 00:00:00 | 00:00:00 | |
| DG1MFX-10 | 2026-09-01 02:47:16 | 48.19975 | 14.78073 | 92° | 120km/h | 11101m | 5.1m/s | -53.4°C | 32.7% | 0hPa | 2.7V | 00:00:00 | 00:00:00 | 00:00:00 | |
| DO3MHA-12 | 2026-09-01 02:47:14 | 48.19976 | 14.77937 | 92° | 120km/h | 11085m | 4.3m/s | -53.2°C | 37.5% | 0hPa | 2.7V | 00:00:00 | 00:58:12 | 00:00:00 | |
| OE5WHR-10 | 2026-09-01 02:47:11 | 48.19977 | 14.77801 | 91° | 122km/h | 11070m | 6.0m/s | -53.1°C | 37.2% | 0hPa | 2.7V | 00:00:00 | 00:58:09 | 00:00:00 | |
| OE5MMP-10 | 2026-09-01 02:47:10 | 48.19978 | 14.77755 | 92° | 120km/h | 11065m | 4.4m/s | -53.0°C | 37.4% | 0hPa | 2.7V | 00:00:00 | 00:58:08 | 00:00:00 | |
| OE5FHM-15 | 2026-09-01 02:47:09 | 48.19979 | 14.77709 | 92° | 120km/h | 11060m | 5.4m/s | -53.0°C | 37.2% | 0hPa | 2.7V | 00:00:00 | 00:58:07 | 08:30:00 | |
| OE8JPQ-2 | 2026-09-01 02:47:07 | 48.19980 | 14.77617 | 92° | 122km/h | 11050m | 6.0m/s | 0°C | 0% | 0hPa | 2.7V | 00:00:00 | 00:58:05 | 00:00:00 | |
| OE5DXL-15 | 2026-09-01 02:47:04 | 48.19982 | 14.77479 | 91° | 120km/h | 11036m | 4.3m/s | -52.8°C | 36.6% | 0hPa | 2.7V | 00:00:00 | 00:00:00 | 00:00:00 | |
| OE5MMP-10 | 2026-09-01 02:47:00 | 48.19982 | 14.77298 | 91° | 122km/h | 11014m | 5.6m/s | -52.6°C | 37.2% | 0hPa | 2.7V | 00:00:00 | 00:57:58 | 00:00:00 | |
| PG1ADW-2 | 2026-09-01 02:46:59 | 48.19983 | 14.77253 | 92° | 120km/h | 11009m | 4.5m/s | -52.5°C | 37.9% | 0hPa | 2.7V | 00:00:00 | 00:00:00 | 00:00:00 | |
| DG1MFX-10 | 2026-09-01 02:46:55 | 48.19984 | 14.77114 | 93° | 122km/h | 10994m | 5.9m/s | -52.5°C | 33.6% | 0hPa | 2.7V | 00:00:00 | 00:00:00 | 00:00:00 | |
| DO3MHA-12 | 2026-09-01 02:46:54 | 48.19985 | 14.77021 | 91° | 120km/h | 10984m | 6.0m/s | -52.4°C | 38.7% | 0hPa | 2.7V | 00:00:00 | 00:57:52 | 00:00:00 | |
| OE5MMP-10 | 2026-09-01 02:46:50 | 48.19988 | 14.76835 | 91° | 120km/h | 10963m | 3.9m/s | -52.2°C | 38.4% | 0hPa | 2.7V | 00:00:00 | 00:57:48 | 00:00:00 | |
| PETON7-10 | 2026-09-01 02:46:49 | 48.19988 | 14.76790 | 92° | 120km/h | 10958m | 5.7m/s | -52.2°C | 38.0% | 0hPa | 2.7V | 00:00:00 | 00:57:47 | 00:00:00 | |
| OE8JPQ-2 | 2026-09-01 02:46:47 | 48.19989 | 14.76699 | 91° | 120km/h | 10948m | 5.8m/s | 0°C | 0% | 0hPa | 2.7V | 00:00:00 | 00:00:00 | 00:00:00 | |
| DO3MHA-12 | 2026-09-01 02:46:44 | 48.19992 | 14.76564 | 92° | 122km/h | 10932m | 5.2m/s | -52.0°C | 36.8% | 0hPa | 2.7V | 00:00:00 | 00:57:42 | 00:00:00 | |
| OE5MMP-10 | 2026-09-01 02:46:40 | 48.19995 | 14.76381 | 91° | 120km/h | 10912m | 5.8m/s | -51.9°C | 37.4% | 0hPa | 2.7V | 00:00:00 | 00:57:38 | 00:00:00 | |
| OE5FHM-15 | 2026-09-01 02:46:39 | 48.19995 | 14.76334 | 91° | 120km/h | 10907m | 4.8m/s | -51.8°C | 37.7% | 0hPa | 2.7V | 00:00:00 | 00:57:37 | 00:00:00 | |
| PETON7-10 | 2026-09-01 02:46:34 | 48.19997 | 14.76104 | 92° | 120km/h | 10883m | 5.1m/s | -51.6°C | 38.6% | 0hPa | 2.7V | 00:00:00 | 00:00:00 | 00:00:00 | |
| OE5DXL-15 | 2026-09-01 02:46:33 | 48.19998 | 14.76058 | 93° | 119km/h | 10878m | 4.0m/s | -51.6°C | 38.4% | 0hPa | 2.7V | 00:00:00 | 00:00:00 | 00:00:00 | |
| OE3OSB-13 | 2026-09-01 02:46:32 | 48.20000 | 14.75968 | 91° | 119km/h | 10868m | 4.6m/s | -51.5°C | 33.3% | -1.0hPa | 2.7V | 00:00:00 | 00:00:00 | 00:00:00 | |
| OE5DRO-10 | 2026-09-01 02:46:31 | 48.20000 | 14.75968 | 92° | 119km/h | 10868m | 4.6m/s | -51.5°C | 38.2% | 0hPa | 2.7V | 00:00:00 | 00:00:00 | 08:30:00 | |
| OE5MMP-10 | 2026-09-01 02:46:30 | 48.20001 | 14.75923 | 93° | 120km/h | 10862m | 6.0m/s | -51.5°C | 38.0% | 0hPa | 2.7V | 00:00:00 | 00:57:28 | 00:00:00 | |
| OE5WHR-10 | 2026-09-01 02:46:29 | 48.20002 | 14.75877 | 91° | 119km/h | 10857m | 4.0m/s | -51.4°C | 38.2% | 0hPa | 2.7V | 00:00:00 | 00:00:00 | 00:00:00 | |
| DO3MHA-12 | 2026-09-01 02:46:23 | 48.20003 | 14.75606 | 91° | 120km/h | 10827m | 5.4m/s | -51.2°C | 38.4% | 0hPa | 2.7V | 00:00:00 | 00:57:21 | 00:00:00 | |
| OE5MMP-10 | 2026-09-01 02:46:20 | 48.20005 | 14.75470 | 92° | 119km/h | 10811m | 4.0m/s | -51.0°C | 39.3% | 0hPa | 2.7V | 00:00:00 | 00:57:18 | 00:00:00 | |
| PETON7-10 | 2026-09-01 02:46:19 | 48.20006 | 14.75424 | 93° | 119km/h | 10806m | 5.8m/s | -51.0°C | 38.9% | 0hPa | 2.7V | 00:00:00 | 00:00:00 | 00:00:00 | |
| S52SK | 2026-09-01 02:46:16 | 48.20009 | 14.75287 | 92° | 120km/h | 10791m | 3.5m/s | -50.9°C | 34.9% | 0hPa | 2.7V | 00:00:00 | 00:00:00 | 00:00:00 | |
| DO3MHA-12 | 2026-09-01 02:46:13 | 48.20011 | 14.75153 | 91° | 117km/h | 10776m | 5.4m/s | -50.8°C | 39.8% | 0hPa | 2.7V | 00:00:00 | 00:57:11 | 00:00:00 | |
| OE5MMP-10 | 2026-09-01 02:46:10 | 48.20014 | 14.75019 | 93° | 119km/h | 10762m | 3.4m/s | -50.7°C | 40.5% | 0hPa | 2.7V | 00:00:00 | 00:57:08 | 00:00:00 | |
| OE5FHM-15 | 2026-09-01 02:46:09 | 48.20016 | 14.74974 | 92° | 117km/h | 10757m | 4.8m/s | -50.6°C | 40.3% | 0hPa | 2.7V | 00:00:00 | 00:57:07 | 00:00:00 | |
| OE5WHR-10 | 2026-09-01 02:46:08 | 48.20016 | 14.74930 | 92° | 117km/h | 10753m | 4.7m/s | -50.6°C | 40.4% | 0hPa | 2.7V | 00:00:00 | 00:57:06 | 00:00:00 | |
| PETON7-10 | 2026-09-01 02:46:04 | 48.20017 | 14.74753 | 91° | 117km/h | 10733m | 4.7m/s | -50.4°C | 40.7% | 0hPa | 2.7V | 00:00:00 | 00:57:02 | 00:00:00 | |
| DO3MHA-12 | 2026-09-01 02:46:03 | 48.20017 | 14.74708 | 91° | 117km/h | 10727m | 4.8m/s | -50.4°C | 40.7% | 0hPa | 2.7V | 00:00:00 | 00:57:01 | 00:00:00 | |
| OE3JTB-15 | 2026-09-01 02:46:01 | 48.20017 | 14.74617 | 90° | 117km/h | 10718m | 3.9m/s | -50.3°C | 41.2% | 0hPa | 2.7V | 00:00:00 | 00:00:00 | 00:00:00 | |
| OE5MMP-10 | 2026-09-01 02:46:00 | 48.20017 | 14.74572 | 90° | 117km/h | 10713m | 4.6m/s | -50.3°C | 40.9% | 0hPa | 2.7V | 00:00:00 | 00:56:58 | 00:00:00 | |
| PG1ADW-2 | 2026-09-01 02:45:59 | 48.20017 | 14.74527 | 91° | 117km/h | 10709m | 4.5m/s | -50.2°C | 41.1% | 0hPa | 2.7V | 00:00:00 | 00:00:00 | 00:00:00 | |
| DO3MHA-12 | 2026-09-01 02:45:53 | 48.20022 | 14.74263 | 92° | 117km/h | 10680m | 5.3m/s | -50.0°C | 40.3% | 0hPa | 2.7V | 00:00:00 | 00:56:51 | 00:00:00 | |
| OE5DRO-10 | 2026-09-01 02:45:51 | 48.20023 | 14.74175 | 93° | 115km/h | 10670m | 6.3m/s | -49.9°C | 39.8% | 0hPa | 2.7V | 00:00:00 | 00:00:00 | 00:00:00 | |
| OE5MMP-10 | 2026-09-01 02:45:50 | 48.20024 | 14.74131 | 92° | 117km/h | 10665m | 4.7m/s | -49.9°C | 39.8% | 0hPa | 2.7V | 00:00:00 | 00:56:48 | 08:30:00 | |
| PETON7-10 | 2026-09-01 02:45:49 | 48.20025 | 14.74087 | 90° | 115km/h | 10660m | 5.5m/s | -49.9°C | 39.6% | 0hPa | 2.7V | 00:00:00 | 00:00:00 | 00:00:00 | |
| OE5WHR-10 | 2026-09-01 02:45:47 | 48.20025 | 14.73999 | 92° | 115km/h | 10650m | 4.6m/s | -49.8°C | 39.2% | 0hPa | 2.7V | 00:00:00 | 00:00:00 | 00:00:00 | |
| DO3MHA-12 | 2026-09-01 02:45:42 | 48.20029 | 14.73779 | 92° | 115km/h | 10625m | 5.4m/s | -49.5°C | 37.8% | 0hPa | 2.7V | 00:00:00 | 00:56:40 | 00:00:00 | |
| OE5MMP-10 | 2026-09-01 02:45:40 | 48.20030 | 14.73692 | 94° | 113km/h | 10614m | 6.3m/s | -49.5°C | 37.6% | 0hPa | 2.7V | 00:00:00 | 00:56:38 | 00:00:00 | |
| OE5FHM-15 | 2026-09-01 02:45:39 | 48.20032 | 14.73648 | 92° | 111km/h | 10608m | 4.7m/s | -49.4°C | 37.8% | 0hPa | 2.7V | 00:00:00 | 00:56:37 | 00:00:00 | |
| PETON7-10 | 2026-09-01 02:45:34 | 48.20035 | 14.73434 | 92° | 113km/h | 10582m | 5.8m/s | -49.3°C | 37.1% | 0hPa | 2.7V | 00:00:00 | 00:00:00 | 00:00:00 | |
| OE5DXL-15 | 2026-09-01 02:45:33 | 48.20036 | 14.73391 | 92° | 111km/h | 10577m | 3.9m/s | -49.2°C | 36.9% | 0hPa | 2.7V | 00:00:00 | 00:00:00 | 00:00:00 | |
| DO3MHA-12 | 2026-09-01 02:45:32 | 48.20037 | 14.73348 | 92° | 113km/h | 10573m | 6.0m/s | -49.2°C | 36.4% | 0hPa | 2.7V | 00:00:00 | 00:56:30 | 08:30:00 | |
| OE3OSB-13 | 2026-09-01 02:45:30 | 48.20041 | 14.73218 | 91° | 113km/h | 10558m | 3.7m/s | -49.1°C | 32.0% | -1.0hPa | 2.7V | 00:00:00 | 00:00:00 | 00:00:00 | |
| OE5DRO-10 | 2026-09-01 02:45:28 | 48.20041 | 14.73175 | 92° | 111km/h | 10553m | 5.3m/s | -49.0°C | 36.3% | 0hPa | 2.7V | 00:00:00 | 00:00:00 | 00:00:00 | |
| OE5WHR-10 | 2026-09-01 02:45:26 | 48.20043 | 14.73090 | 93° | 111km/h | 10544m | 5.8m/s | -48.9°C | 36.1% | 0hPa | 2.7V | 00:00:00 | 00:00:00 | 00:00:00 | |
| DO3MHA-12 | 2026-09-01 02:45:22 | 48.20047 | 14.72921 | 93° | 111km/h | 10524m | 5.9m/s | -48.7°C | 37.2% | 0hPa | 2.7V | 00:00:00 | 00:56:20 | 00:00:00 | |
| OE5MMP-10 | 2026-09-01 02:45:20 | 48.20049 | 14.72836 | 91° | 110km/h | 10514m | 5.1m/s | -48.7°C | 37.5% | 0hPa | 2.7V | 00:00:00 | 00:56:18 | 00:00:00 | |
| PETON7-10 | 2026-09-01 02:45:19 | 48.20049 | 14.72794 | 89° | 110km/h | 10509m | 5.0m/s | -48.6°C | 37.6% | 0hPa | 2.7V | 00:00:00 | 00:56:17 | 00:00:00 | |
| DO3MHA-12 | 2026-09-01 02:45:12 | 48.20047 | 14.72503 | 91° | 110km/h | 10468m | 5.1m/s | -48.3°C | 36.9% | 0hPa | 2.7V | 00:00:00 | 00:56:10 | 00:00:00 | |
| DG1MFX-10 | 2026-09-01 02:45:11 | 48.20047 | 14.72503 | 91° | 108km/h | 10468m | 5.1m/s | -48.4°C | 0% | 0hPa | 2.7V | 00:00:00 | 00:00:00 | 00:00:00 | |
| OE5MMP-10 | 2026-09-01 02:45:10 | 48.20047 | 14.72421 | 90° | 111km/h | 10459m | 6.1m/s | -48.2°C | 36.1% | 0hPa | 2.7V | 00:00:00 | 00:56:08 | 00:00:00 | |
| OE5FHM-15 | 2026-09-01 02:45:09 | 48.20047 | 14.72380 | 90° | 110km/h | 10453m | 6.1m/s | -48.2°C | 36.0% | 0hPa | 2.7V | 00:00:00 | 00:56:07 | 00:00:00 | |
| OE5WHR-10 | 2026-09-01 02:45:05 | 48.20049 | 14.72212 | 92° | 110km/h | 10428m | 5.7m/s | -48.0°C | 35.7% | 0hPa | 2.7V | 00:00:00 | 00:56:03 | 00:00:00 | |
| DO3MHA-12 | 2026-09-01 02:45:02 | 48.20053 | 14.72086 | 92° | 111km/h | 10410m | 5.3m/s | -47.8°C | 36.4% | 0hPa | 2.7V | 00:00:00 | 00:56:00 | 00:00:00 | |
| OE3OSB-13 | 2026-09-01 02:44:59 | 48.20058 | 14.71915 | 91° | 111km/h | 10390m | 6.0m/s | -47.7°C | 32.6% | -1.0hPa | 2.7V | 00:00:00 | 00:00:00 | 00:00:00 | |
| DO3MHA-12 | 2026-09-01 02:44:52 | 48.20060 | 14.71669 | 92° | 110km/h | 10363m | 5.1m/s | -47.4°C | 36.4% | 0hPa | 2.7V | 00:00:00 | 00:55:50 | 00:00:00 | |
| DG1MFX-10 | 2026-09-01 02:44:51 | 48.20061 | 14.71669 | 92° | 108km/h | 10363m | 5.1m/s | -47.4°C | 0% | 0hPa | 2.7V | 00:00:00 | 00:00:00 | 00:00:00 | |
| OE5MMP-10 | 2026-09-01 02:44:50 | 48.20062 | 14.71587 | 93° | 111km/h | 10353m | 4.8m/s | -47.3°C | 36.6% | 0hPa | 2.7V | 00:00:00 | 00:55:48 | 00:00:00 | |
| PETON7-10 | 2026-09-01 02:44:49 | 48.20064 | 14.71545 | 94° | 110km/h | 10348m | 4.8m/s | -47.2°C | 36.8% | 0hPa | 2.7V | 00:00:00 | 00:00:00 | 00:00:00 | |
| S52SK | 2026-09-01 02:44:45 | 48.20070 | 14.71419 | 95° | 111km/h | 10333m | 5.9m/s | -47.2°C | 33.5% | 0hPa | 2.7V | 00:00:00 | 00:00:00 | 00:00:00 | |
| OE5WHR-10 | 2026-09-01 02:44:44 | 48.20073 | 14.71335 | 93° | 110km/h | 10324m | 5.1m/s | -47.0°C | 37.0% | 0hPa | 2.7V | 00:00:00 | 00:00:00 | 00:00:00 | |
| DO3MHA-12 | 2026-09-01 02:44:42 | 48.20075 | 14.71253 | 92° | 110km/h | 10314m | 5.3m/s | -46.9°C | 36.7% | 0hPa | 2.7V | 00:00:00 | 00:55:40 | 00:00:00 | |
| OE5MMP-10 | 2026-09-01 02:44:40 | 48.20077 | 14.71169 | 93° | 110km/h | 10305m | 6.0m/s | -46.8°C | 36.7% | 0hPa | 2.7V | 00:00:00 | 00:55:38 | 00:00:00 | |
| OE5FHM-15 | 2026-09-01 02:44:39 | 48.20078 | 14.71127 | 94° | 110km/h | 10300m | 3.8m/s | -46.8°C | 36.8% | 0hPa | 2.7V | 00:00:00 | 00:55:37 | 00:00:00 | |
| OE3JTB-15 | 2026-09-01 02:44:38 | 48.20080 | 14.71085 | 94° | 110km/h | 10296m | 5.4m/s | -46.8°C | 36.6% | 0hPa | 2.7V | 00:00:00 | 00:00:00 | 00:00:00 | |
| DB0NH | 2026-09-01 02:44:36 | 48.20084 | 14.71003 | 95° | 110km/h | 10286m | 5.5m/s | 0°C | 0% | 0hPa | 2.7V | 00:00:00 | 00:55:34 | 00:00:00 | |
| OE5DXL-15 | 2026-09-01 02:44:33 | 48.20091 | 14.70880 | 94° | 110km/h | 10272m | 4.6m/s | -46.5°C | 37.0% | 0hPa | 2.7V | 00:00:00 | 00:00:00 | 00:00:00 | |
| DO3MHA-12 | 2026-09-01 02:44:32 | 48.20092 | 14.70839 | 95° | 110km/h | 10267m | 6.3m/s | -46.5°C | 37.1% | 0hPa | 2.7V | 00:00:00 | 00:55:30 | 00:00:00 | |
| OE5DRO-10 | 2026-09-01 02:44:31 | 48.20094 | 14.70798 | 94° | 111km/h | 10261m | 3.9m/s | -46.5°C | 37.7% | 0hPa | 2.9V | 00:00:00 | 00:00:00 | 00:00:00 | |
| OE5MMP-10 | 2026-09-01 02:44:30 | 48.20096 | 14.70756 | 93° | 111km/h | 10257m | 5.4m/s | -46.5°C | 37.7% | 0hPa | 2.7V | 00:00:00 | 00:55:28 | 00:00:00 | |
| OE3OSB-13 | 2026-09-01 02:44:28 | 48.20099 | 14.70631 | 91° | 108km/h | 10242m | 3.9m/s | -46.4°C | 34.2% | -1.0hPa | 2.7V | 00:00:00 | 00:00:00 | 00:00:00 | |
| OE5WHR-10 | 2026-09-01 02:44:23 | 48.20103 | 14.70465 | 93° | 108km/h | 10223m | 4.5m/s | -46.3°C | 39.2% | 0hPa | 2.7V | 00:00:00 | 00:00:00 | 00:00:00 | |
| DO3MHA-12 | 2026-09-01 02:44:22 | 48.20105 | 14.70422 | 94° | 111km/h | 10218m | 4.5m/s | -46.2°C | 39.6% | 0hPa | 2.7V | 00:00:00 | 00:55:20 | 00:00:00 | |
| OE5MMP-10 | 2026-09-01 02:44:20 | 48.20108 | 14.70335 | 93° | 110km/h | 10208m | 6.0m/s | -46.2°C | 40.4% | 0hPa | 2.7V | 00:00:00 | 00:55:18 | 08:30:00 | |
| PETON7-10 | 2026-09-01 02:44:19 | 48.20109 | 14.70293 | 93° | 108km/h | 10203m | 3.2m/s | -46.1°C | 40.6% | 0hPa | 2.9V | 00:00:00 | 00:00:00 | 00:00:00 | |
| DO3MHA-12 | 2026-09-01 02:44:12 | 48.20118 | 14.70003 | 92° | 106km/h | 10167m | 4.1m/s | -45.9°C | 40.8% | 0hPa | 2.7V | 00:00:00 | 00:55:10 | 00:00:00 | |
| OE5MMP-10 | 2026-09-01 02:44:10 | 48.20119 | 14.69924 | 92° | 106km/h | 10155m | 5.5m/s | -45.8°C | 41.3% | 0hPa | 2.7V | 00:00:00 | 00:55:08 | 00:00:00 | |
| OE5FHM-15 | 2026-09-01 02:44:09 | 48.20120 | 14.69886 | 94° | 108km/h | 10150m | 6.3m/s | -45.8°C | 41.6% | 0hPa | 2.7V | 00:00:00 | 00:55:07 | 00:00:00 | |
| DB0NH | 2026-09-01 02:44:06 | 48.20127 | 14.69767 | 97° | 110km/h | 10134m | 5.1m/s | 0°C | 0% | 0hPa | 2.7V | 00:00:00 | 00:55:04 | 00:00:00 | |
| PETON7-10 | 2026-09-01 02:44:04 | 48.20132 | 14.69687 | 93° | 110km/h | 10123m | 3.4m/s | -45.5°C | 42.5% | 0hPa | 2.7V | 00:00:00 | 00:00:00 | 00:00:00 | |
| DO3MHA-12 | 2026-09-01 02:44:02 | 48.20135 | 14.69604 | 93° | 111km/h | 10111m | 7.1m/s | -45.5°C | 42.4% | 0hPa | 2.7V | 00:00:00 | 00:55:00 | 08:30:00 | |
| OE3OSB-13 | 2026-09-01 02:43:56 | 48.20139 | 14.69352 | 91° | 110km/h | 10075m | 6.7m/s | -45.2°C | 39.9% | -1.0hPa | 2.9V | 00:00:00 | 00:00:00 | 00:00:00 | |
| OE5DRO-10 | 2026-09-01 02:43:53 | 48.20139 | 14.69228 | 90° | 110km/h | 10060m | 5.9m/s | -45.0°C | 44.5% | 0hPa | 2.9V | 00:00:00 | 00:00:00 | 00:00:00 | |
| DO3MHA-12 | 2026-09-01 02:43:52 | 48.20139 | 14.69186 | 91° | 110km/h | 10055m | 4.1m/s | -45.0°C | 44.9% | 0hPa | 2.9V | 00:00:00 | 00:54:50 | 00:00:00 | |
| PETON7-10 | 2026-09-01 02:43:49 | 48.20139 | 14.69064 | 91° | 110km/h | 10038m | 5.6m/s | -44.8°C | 44.6% | 0hPa | 2.9V | 00:00:00 | 00:54:47 | 00:00:00 | |
| DG1MFX-10 | 2026-09-01 02:43:48 | 48.20139 | 14.69064 | 91° | 108km/h | 10038m | 5.6m/s | 0°C | 0% | 0hPa | 2.9V | 00:00:00 | 00:00:00 | 00:00:00 | |
| OE5HKT-10 | 2026-09-01 02:43:46 | 48.20138 | 14.68940 | 92° | 113km/h | 10021m | 5.2m/s | -44.7°C | 45.3% | 0hPa | 2.9V | 00:00:00 | 00:00:00 | 00:00:00 | |
| DO3MHA-12 | 2026-09-01 02:43:42 | 48.20144 | 14.68770 | 95° | 110km/h | 9998m | 3.7m/s | -44.5°C | 45.0% | 0hPa | 2.9V | 00:00:00 | 00:54:40 | 00:00:00 | |
| OE5WHR-10 | 2026-09-01 02:43:41 | 48.20147 | 14.68728 | 95° | 111km/h | 9994m | 5.0m/s | -44.4°C | 44.5% | 0hPa | 2.9V | 00:00:00 | 00:00:00 | 08:30:00 | |
| OE5MMP-10 | 2026-09-01 02:43:40 | 48.20149 | 14.68686 | 95° | 110km/h | 9988m | 6.3m/s | -44.4°C | 44.4% | 0hPa | 2.9V | 00:00:00 | 00:54:38 | 00:00:00 | |
| OE5FHM-15 | 2026-09-01 02:43:39 | 48.20151 | 14.68645 | 93° | 113km/h | 9982m | 6.6m/s | -44.3°C | 44.5% | 0hPa | 2.9V | 00:00:00 | 00:54:37 | 00:00:00 | |
| DB0NH | 2026-09-01 02:43:36 | 48.20154 | 14.68522 | 95° | 113km/h | 9963m | 5.9m/s | 0°C | 0% | 0hPa | 2.9V | 00:00:00 | 00:54:34 | 00:00:00 | |
| S52SK | 2026-09-01 02:43:35 | 48.20154 | 14.68522 | 95° | 106km/h | 9963m | 5.9m/s | -44.2°C | 41.1% | 0hPa | 2.9V | 00:00:00 | 00:00:00 | 00:00:00 | |
| PETON7-10 | 2026-09-01 02:43:34 | 48.20158 | 14.68440 | 94° | 113km/h | 9952m | 4.0m/s | -44.0°C | 45.4% | 0hPa | 2.9V | 00:00:00 | 00:00:00 | 00:00:00 | |
| OE5MMP-10 | 2026-09-01 02:43:30 | 48.20165 | 14.68268 | 94° | 111km/h | 9930m | 5.6m/s | -43.8°C | 46.4% | 0hPa | 2.9V | 00:00:00 | 00:54:28 | 00:00:00 | |
| S52SK | 2026-09-01 02:43:29 | 48.20165 | 14.68268 | 94° | 115km/h | 9930m | 5.7m/s | -43.9°C | 42.6% | 0hPa | 2.9V | 00:00:00 | 00:00:00 | 00:00:00 | |
| DG1MFX-10 | 2026-09-01 02:43:27 | 48.20168 | 14.68183 | 94° | 111km/h | 9922m | 5.9m/s | 0°C | 0% | 0hPa | 2.9V | 00:00:00 | 00:00:00 | 00:00:00 | |
| OE3OSB-13 | 2026-09-01 02:43:25 | 48.20173 | 14.68057 | 92° | 110km/h | 9908m | 4.5m/s | -43.7°C | 42.8% | -1.0hPa | 2.9V | 00:00:00 | 00:00:00 | 00:00:00 | |
| DO3MHA-12 | 2026-09-01 02:43:22 | 48.20179 | 14.67930 | 94° | 117km/h | 9894m | 5.5m/s | -43.5°C | 46.6% | 0hPa | 2.9V | 00:00:00 | 00:54:20 | 00:00:00 | |
| OE5MMP-10 | 2026-09-01 02:43:20 | 48.20182 | 14.67844 | 93° | 117km/h | 9884m | 5.5m/s | -43.4°C | 46.2% | 0hPa | 2.9V | 00:00:00 | 00:54:18 | 00:00:00 | |
| PETON7-10 | 2026-09-01 02:43:19 | 48.20183 | 14.67801 | 94° | 115km/h | 9879m | 4.5m/s | -43.3°C | 46.2% | 0hPa | 2.7V | 00:00:00 | 00:00:00 | 00:00:00 | |
| OE5DRO-10 | 2026-09-01 02:43:15 | 48.20191 | 14.67621 | 95° | 115km/h | 9859m | 4.0m/s | -43.1°C | 45.9% | 0hPa | 2.7V | 00:00:00 | 00:00:00 | 00:00:00 | |
| OM5KV | 2026-09-01 02:43:14 | 48.20192 | 14.67621 | 95° | 117km/h | 9859m | 4.1m/s | -43.2°C | 42.2% | 0hPa | 2.7V | 00:00:00 | 00:00:00 | 00:00:00 | |
| DO3MHA-12 | 2026-09-01 02:43:12 | 48.20197 | 14.67491 | 94° | 113km/h | 9843m | 6.8m/s | -43.0°C | 44.4% | 0hPa | 2.7V | 00:00:00 | 00:54:10 | 00:00:00 | |
| OE3JTB-15 | 2026-09-01 02:43:11 | 48.20199 | 14.67447 | 94° | 115km/h | 9837m | 4.2m/s | -43.0°C | 44.6% | 0hPa | 2.7V | 00:00:00 | 00:00:00 | 08:30:00 | |
| OE5MMP-10 | 2026-09-01 02:43:10 | 48.20200 | 14.67405 | 93° | 115km/h | 9832m | 5.9m/s | -42.9°C | 44.3% | 0hPa | 2.9V | 00:00:00 | 00:54:08 | 00:00:00 | |
| OE5FHM-15 | 2026-09-01 02:43:09 | 48.20201 | 14.67363 | 93° | 115km/h | 9827m | 3.4m/s | -42.9°C | 44.4% | 0hPa | 2.9V | 00:00:00 | 00:54:07 | 00:00:00 | |
| DB0NH | 2026-09-01 02:43:06 | 48.20204 | 14.67233 | 93° | 115km/h | 9814m | 4.7m/s | 0°C | 0% | 0hPa | 2.9V | 00:00:00 | 00:54:04 | 00:00:00 | |
| PETON7-10 | 2026-09-01 02:43:04 | 48.20208 | 14.67146 | 95° | 115km/h | 9804m | 6.1m/s | -42.6°C | 43.6% | 0hPa | 2.9V | 00:00:00 | 00:54:02 | 00:00:00 | |
| OM5KV | 2026-09-01 02:43:03 | 48.20208 | 14.67146 | 95° | 117km/h | 9804m | 6.2m/s | -42.7°C | 40.1% | 0hPa | 2.9V | 00:00:00 | 00:00:00 | 00:00:00 | |
| DO3MHA-12 | 2026-09-01 02:43:02 | 48.20212 | 14.67059 | 95° | 115km/h | 9795m | 4.9m/s | -42.5°C | 43.3% | 0hPa | 2.9V | 00:00:00 | 00:54:00 | 00:00:00 | |
| OE5MMP-10 | 2026-09-01 02:43:00 | 48.20217 | 14.66973 | 96° | 115km/h | 9785m | 4.2m/s | -42.5°C | 43.3% | 0hPa | 2.7V | 00:00:00 | 00:53:58 | 00:00:00 | |
| OE5WHR-10 | 2026-09-01 02:42:59 | 48.20220 | 14.66929 | 96° | 115km/h | 9780m | 5.9m/s | -42.4°C | 43.2% | 0hPa | 2.7V | 00:00:00 | 00:53:57 | 00:00:00 | |
| OM5KV | 2026-09-01 02:42:57 | 48.20222 | 14.66887 | 94° | 113km/h | 9775m | 3.5m/s | -42.4°C | 40.0% | 0hPa | 2.7V | 00:00:00 | 00:00:00 | 00:00:00 | |
| OE5DRO-10 | 2026-09-01 02:42:56 | 48.20225 | 14.66800 | 93° | 115km/h | 9765m | 3.9m/s | -42.3°C | 43.3% | 0hPa | 2.7V | 00:00:00 | 00:00:00 | 00:00:00 | |
| OE5HKT-10 | 2026-09-01 02:42:54 | 48.20228 | 14.66712 | 94° | 117km/h | 9757m | 4.6m/s | -42.2°C | 42.9% | 0hPa | 2.7V | 00:00:00 | 00:53:52 | 00:00:00 | |
| DO3MHA-12 | 2026-09-01 02:42:52 | 48.20231 | 14.66624 | 94° | 115km/h | 9748m | 3.8m/s | -42.2°C | 42.9% | 0hPa | 2.7V | 00:00:00 | 00:53:50 | 00:00:00 | |
| OM5KV | 2026-09-01 02:42:51 | 48.20231 | 14.66624 | 95° | 117km/h | 9748m | 3.8m/s | -42.2°C | 39.4% | 0hPa | 2.7V | 00:00:00 | 00:00:00 | 00:00:00 | |
| PETON7-10 | 2026-09-01 02:42:49 | 48.20238 | 14.66495 | 96° | 115km/h | 9734m | 4.7m/s | -42.0°C | 41.8% | 0hPa | 2.7V | 00:00:00 | 00:00:00 | 08:30:00 | |
| OM5KV | 2026-09-01 02:42:46 | 48.20243 | 14.66409 | 95° | 113km/h | 9724m | 6.1m/s | -42.0°C | 38.4% | 0hPa | 2.7V | 00:00:00 | 00:00:00 | 00:00:00 | |
| OM5KV | 2026-09-01 02:42:44 | 48.20247 | 14.66323 | 95° | 117km/h | 9715m | 4.8m/s | -41.9°C | 38.2% | 0hPa | 2.7V | 00:00:00 | 00:00:00 | 00:00:00 | |
| DO3MHA-12 | 2026-09-01 02:42:42 | 48.20254 | 14.66192 | 96° | 115km/h | 9700m | 5.3m/s | -41.7°C | 40.9% | 0hPa | 2.7V | 00:00:00 | 00:53:40 | 00:00:00 | |
| OE5MMP-10 | 2026-09-01 02:42:40 | 48.20260 | 14.66106 | 97° | 117km/h | 9690m | 6.0m/s | -41.6°C | 40.8% | 0hPa | 2.7V | 00:00:00 | 00:53:38 | 00:00:00 | |
| PG1ADW-2 | 2026-09-01 02:42:39 | 48.20263 | 14.66063 | 98° | 117km/h | 9685m | 4.0m/s | -41.6°C | 41.2% | 0hPa | 2.7V | 00:00:00 | 00:00:00 | 00:00:00 | |
| OE5WHR-10 | 2026-09-01 02:42:38 | 48.20267 | 14.66019 | 98° | 117km/h | 9680m | 5.8m/s | -41.5°C | 41.3% | 0hPa | 2.7V | 00:00:00 | 00:00:00 | 00:00:00 | |
| OE5DRO-10 | 2026-09-01 02:42:37 | 48.20271 | 14.65974 | 97° | 117km/h | 9675m | 3.0m/s | -41.5°C | 41.8% | 0hPa | 2.9V | 00:00:00 | 00:00:00 | 00:00:00 | |
| OE5FHM-15 | 2026-09-01 02:42:35 | 48.20276 | 14.65884 | 94° | 115km/h | 9665m | 5.1m/s | -41.4°C | 42.1% | 0hPa | 2.9V | 00:00:00 | 00:53:33 | 08:30:00 | |
| OE5DXL-15 | 2026-09-01 02:42:34 | 48.20278 | 14.65839 | 93° | 117km/h | 9659m | 4.7m/s | -41.4°C | 42.0% | 0hPa | 2.9V | 00:00:00 | 00:00:00 | 00:00:00 | |
| DB0NH | 2026-09-01 02:42:32 | 48.20280 | 14.65750 | 92° | 119km/h | 9649m | 5.4m/s | 0°C | 0% | 0hPa | 2.9V | 00:00:00 | 00:53:30 | 00:00:00 | |
| OE5MMP-10 | 2026-09-01 02:42:30 | 48.20284 | 14.65664 | 96° | 119km/h | 9640m | 6.0m/s | -41.2°C | 43.4% | 0hPa | 2.9V | 00:00:00 | 00:53:28 | 00:00:00 | |
| OM5KV | 2026-09-01 02:42:28 | 48.20286 | 14.65620 | 98° | 117km/h | 9634m | 5.0m/s | -41.3°C | 40.3% | 0hPa | 2.9V | 00:00:00 | 00:00:00 | 00:00:00 | |
| OM5KV | 2026-09-01 02:42:26 | 48.20294 | 14.65532 | 98° | 119km/h | 9622m | 5.4m/s | -41.2°C | 39.7% | 0hPa | 2.9V | 00:00:00 | 00:00:00 | 00:00:00 | |
| OE3OSB-13 | 2026-09-01 02:42:23 | 48.20308 | 14.65352 | 96° | 119km/h | 9599m | 4.5m/s | -41.0°C | 39.1% | -1.0hPa | 2.9V | 00:00:00 | 00:00:00 | 00:00:00 | |
| OM5KV | 2026-09-01 02:42:22 | 48.20308 | 14.65352 | 97° | 120km/h | 9599m | 4.5m/s | -41.0°C | 39.2% | 0hPa | 2.9V | 00:00:00 | 00:00:00 | 00:00:00 | |
| OE5MMP-10 | 2026-09-01 02:42:20 | 48.20316 | 14.65220 | 95° | 119km/h | 9585m | 4.6m/s | -40.8°C | 42.1% | 0hPa | 2.9V | 00:00:00 | 00:53:18 | 00:00:00 | |
| DO3MHA-12 | 2026-09-01 02:42:19 | 48.20318 | 14.65176 | 95° | 117km/h | 9580m | 5.2m/s | -40.8°C | 42.0% | 0hPa | 2.9V | 00:00:00 | 00:53:17 | 00:00:00 | |
| OE5DRO-10 | 2026-09-01 02:42:18 | 48.20321 | 14.65132 | 95° | 117km/h | 9575m | 4.6m/s | -40.7°C | 41.8% | 0hPa | 2.9V | 00:00:00 | 00:00:00 | 00:00:00 | |
| OE5WHR-10 | 2026-09-01 02:42:17 | 48.20323 | 14.65087 | 94° | 117km/h | 9571m | 3.4m/s | -40.7°C | 41.8% | 0hPa | 2.9V | 00:00:00 | 00:00:00 | 00:00:00 | |
| OE3JTB-15 | 2026-09-01 02:42:13 | 48.20330 | 14.64903 | 94° | 115km/h | 9551m | 4.4m/s | -40.6°C | 40.8% | 0hPa | 2.9V | 00:00:00 | 00:53:11 | 00:00:00 | |
| S52SK | 2026-09-01 02:42:11 | 48.20332 | 14.64859 | 94° | 117km/h | 9547m | 3.8m/s | -40.6°C | 37.4% | 0hPa | 2.9V | 00:00:00 | 00:00:00 | 00:00:00 | |
| OE5MMP-10 | 2026-09-01 02:42:10 | 48.20336 | 14.64771 | 94° | 117km/h | 9537m | 3.9m/s | -40.5°C | 40.4% | 0hPa | 2.9V | 00:00:00 | 00:53:08 | 00:00:00 | |
| OM5KV | 2026-09-01 02:42:06 | 48.20339 | 14.64641 | 94° | 115km/h | 9523m | 6.1m/s | -40.4°C | 36.4% | 0hPa | 2.9V | 00:00:00 | 00:00:00 | 00:00:00 | |
| DO3MHA-12 | 2026-09-01 02:42:04 | 48.20344 | 14.64509 | 94° | 115km/h | 9508m | 4.9m/s | -40.3°C | 39.4% | 0hPa | 2.9V | 00:00:00 | 00:53:02 | 00:00:00 | |
| DB0NH | 2026-09-01 02:42:02 | 48.20347 | 14.64419 | 93° | 113km/h | 9499m | 3.6m/s | 0°C | 0% | 0hPa | 2.9V | 00:00:00 | 00:53:00 | 00:00:00 | |
| OE3OSB-13 | 2026-09-01 02:41:52 | 48.20372 | 14.63992 | 95° | 113km/h | 9446m | 6.8m/s | -39.9°C | 39.2% | -1.0hPa | 2.9V | 00:00:00 | 00:00:00 | 00:00:00 | |
| OE5MMP-10 | 2026-09-01 02:41:50 | 48.20376 | 14.63906 | 93° | 113km/h | 9434m | 5.1m/s | -39.7°C | 42.5% | 0hPa | 2.9V | 00:00:00 | 00:52:48 | 00:00:00 | |
| PETON7-10 | 2026-09-01 02:41:49 | 48.20377 | 14.63862 | 93° | 113km/h | 9429m | 5.0m/s | -39.6°C | 42.6% | 0hPa | 2.9V | 00:00:00 | 00:00:00 | 00:00:00 | |
| OE3JTB-15 | 2026-09-01 02:41:44 | 48.20387 | 14.63649 | 95° | 115km/h | 9397m | 4.3m/s | -39.4°C | 41.5% | 0hPa | 2.9V | 00:00:00 | 00:00:00 | 00:00:00 | |
| DO3MHA-12 | 2026-09-01 02:41:41 | 48.20392 | 14.63523 | 94° | 115km/h | 9377m | 6.0m/s | -39.2°C | 40.5% | 0hPa | 2.7V | 00:00:00 | 00:52:39 | 00:00:00 | |
| OE5MMP-10 | 2026-09-01 02:41:40 | 48.20393 | 14.63480 | 93° | 115km/h | 9371m | 5.3m/s | -39.2°C | 40.6% | 0hPa | 2.7V | 00:00:00 | 00:52:38 | 00:00:00 | |
| PG1ADW-2 | 2026-09-01 02:41:39 | 48.20395 | 14.63437 | 93° | 115km/h | 9366m | 5.7m/s | -39.1°C | 40.8% | 0hPa | 2.7V | 00:00:00 | 00:00:00 | 00:00:00 | |
| OM5KV | 2026-09-01 02:41:38 | 48.20395 | 14.63437 | 94° | 117km/h | 9366m | 5.7m/s | -39.2°C | 37.9% | 0hPa | 2.7V | 00:00:00 | 00:00:00 | 00:00:00 | |
| OE5FHM-15 | 2026-09-01 02:41:36 | 48.20400 | 14.63306 | 94° | 115km/h | 9351m | 4.4m/s | -39.0°C | 41.0% | 0hPa | 2.7V | 00:00:00 | 00:52:34 | 00:00:00 | |
| OE5WHR-10 | 2026-09-01 02:41:35 | 48.20402 | 14.63262 | 94° | 115km/h | 9346m | 4.7m/s | -39.0°C | 41.1% | 0hPa | 2.7V | 00:00:00 | 00:00:00 | 00:00:00 | |
| PETON7-10 | 2026-09-01 02:41:34 | 48.20404 | 14.63218 | 95° | 115km/h | 9342m | 5.5m/s | -38.9°C | 41.0% | 0hPa | 2.9V | 00:00:00 | 00:52:32 | 00:00:00 | |
| DB0NH | 2026-09-01 02:41:32 | 48.20408 | 14.63132 | 93° | 117km/h | 9332m | 5.5m/s | 0°C | 0% | 0hPa | 2.9V | 00:00:00 | 00:52:30 | 00:00:00 | |
| DO3MHA-12 | 2026-09-01 02:41:31 | 48.20410 | 14.63088 | 93° | 115km/h | 9327m | 4.3m/s | -38.8°C | 41.0% | 0hPa | 2.9V | 00:00:00 | 00:52:29 | 00:00:00 | |
| OE5MMP-10 | 2026-09-01 02:41:30 | 48.20411 | 14.63046 | 94° | 117km/h | 9323m | 5.0m/s | -38.8°C | 40.6% | 0hPa | 2.9V | 00:00:00 | 00:52:28 | 00:00:00 | |
| OM5KV | 2026-09-01 02:41:28 | 48.20413 | 14.63003 | 96° | 113km/h | 9318m | 4.8m/s | -38.8°C | 37.8% | 0hPa | 2.9V | 00:00:00 | 00:00:00 | 00:00:00 | |
| OM5KV | 2026-09-01 02:41:26 | 48.20418 | 14.62916 | 95° | 117km/h | 9308m | 3.9m/s | -38.7°C | 38.0% | 0hPa | 2.9V | 00:00:00 | 00:00:00 | 00:00:00 | |
| OM5KV | 2026-09-01 02:41:22 | 48.20427 | 14.62739 | 95° | 117km/h | 9290m | 3.4m/s | -38.5°C | 37.6% | 0hPa | 2.9V | 00:00:00 | 00:00:00 | 00:00:00 | |
| DO3MHA-12 | 2026-09-01 02:41:21 | 48.20431 | 14.62650 | 93° | 113km/h | 9280m | 4.8m/s | -38.4°C | 39.7% | 0hPa | 2.9V | 00:00:00 | 00:52:19 | 00:00:00 | |
| OE5MMP-10 | 2026-09-01 02:41:20 | 48.20432 | 14.62605 | 92° | 113km/h | 9275m | 4.2m/s | -38.3°C | 39.7% | 0hPa | 2.9V | 00:00:00 | 00:52:18 | 08:30:00 | |
| PETON7-10 | 2026-09-01 02:41:19 | 48.20434 | 14.62561 | 93° | 115km/h | 9271m | 5.0m/s | -38.3°C | 39.4% | 0hPa | 2.9V | 00:00:00 | 00:00:00 | 00:00:00 | |
| OM5KV | 2026-09-01 02:41:16 | 48.20437 | 14.62476 | 95° | 110km/h | 9260m | 4.5m/s | -38.2°C | 36.7% | 0hPa | 2.9V | 00:00:00 | 00:00:00 | 00:00:00 | |
| OE3JTB-15 | 2026-09-01 02:41:15 | 48.20440 | 14.62395 | 94° | 115km/h | 9247m | 7.6m/s | -38.1°C | 40.5% | 0hPa | 2.9V | 00:00:00 | 00:00:00 | 00:00:00 | |
| OE5WHR-10 | 2026-09-01 02:41:14 | 48.20442 | 14.62353 | 95° | 117km/h | 9240m | 5.0m/s | -38.1°C | 40.9% | 0hPa | 2.9V | 00:00:00 | 00:00:00 | 00:00:00 | |
| DO3MHA-12 | 2026-09-01 02:41:11 | 48.20447 | 14.62222 | 92° | 117km/h | 9225m | 3.8m/s | -37.9°C | 41.7% | 0hPa | 2.9V | 00:00:00 | 00:52:09 | 00:00:00 | |
| OE5MMP-10 | 2026-09-01 02:41:10 | 48.20448 | 14.62177 | 93° | 117km/h | 9221m | 2.7m/s | -37.9°C | 41.9% | 0hPa | 2.9V | 00:00:00 | 00:52:08 | 00:00:00 | |
| OM5KV | 2026-09-01 02:41:09 | 48.20448 | 14.62177 | 94° | 120km/h | 9221m | 2.7m/s | -38.0°C | 39.0% | 0hPa | 2.9V | 00:00:00 | 00:00:00 | 00:00:00 | |
| OM5KV | 2026-09-01 02:41:06 | 48.20457 | 14.61997 | 96° | 113km/h | 9199m | 5.3m/s | -37.8°C | 40.0% | 0hPa | 2.9V | 00:00:00 | 00:00:00 | 00:00:00 | |
| PETON7-10 | 2026-09-01 02:41:04 | 48.20462 | 14.61912 | 93° | 117km/h | 9188m | 7.9m/s | -37.7°C | 43.1% | 0hPa | 2.9V | 00:00:00 | 00:00:00 | 00:00:00 | |
| OM5KV | 2026-09-01 02:41:03 | 48.20462 | 14.61911 | 94° | 115km/h | 9188m | 8.0m/s | -37.8°C | 40.2% | 0hPa | 2.9V | 00:00:00 | 00:00:00 | 00:00:00 | |
| DB0NH | 2026-09-01 02:41:02 | 48.20463 | 14.61824 | 92° | 119km/h | 9174m | 6.6m/s | 0°C | 0% | 0hPa | 2.9V | 00:00:00 | 00:52:00 | 00:00:00 | |
| DO3MHA-12 | 2026-09-01 02:41:01 | 48.20464 | 14.61780 | 93° | 119km/h | 9169m | 4.6m/s | -37.6°C | 44.1% | 0hPa | 2.9V | 00:00:00 | 00:51:59 | 00:00:00 | |
| OE5MMP-10 | 2026-09-01 02:41:00 | 48.20466 | 14.61736 | 94° | 117km/h | 9164m | 4.8m/s | -37.6°C | 44.1% | 0hPa | 2.9V | 00:00:00 | 00:51:58 | 00:00:00 | |
| PG1ADW-2 | 2026-09-01 02:40:59 | 48.20468 | 14.61690 | 95° | 113km/h | 9160m | 3.2m/s | -37.6°C | 44.2% | 0hPa | 2.9V | 00:00:00 | 00:51:57 | 00:00:00 | |
| OM5KV | 2026-09-01 02:40:58 | 48.20468 | 14.61690 | 96° | 122km/h | 9160m | 3.3m/s | -37.6°C | 41.3% | 0hPa | 2.9V | 00:00:00 | 00:00:00 | 00:00:00 | |
| OM5KV | 2026-09-01 02:40:53 | 48.20484 | 14.61421 | 96° | 115km/h | 9130m | 4.8m/s | -37.4°C | 40.9% | 0hPa | 2.9V | 00:00:00 | 00:00:00 | 00:00:00 | |
| S52SK | 2026-09-01 02:40:52 | 48.20484 | 14.61421 | 96° | 115km/h | 9130m | 4.8m/s | -37.4°C | 40.9% | 0hPa | 2.9V | 00:00:00 | 00:00:00 | 00:00:00 | |
| DO3MHA-12 | 2026-09-01 02:40:51 | 48.20488 | 14.61335 | 96° | 110km/h | 9120m | 6.0m/s | -37.3°C | 43.6% | 0hPa | 2.9V | 00:00:00 | 00:51:49 | 08:30:00 | |
| OE5MMP-10 | 2026-09-01 02:40:50 | 48.20491 | 14.61293 | 96° | 110km/h | 9114m | 6.1m/s | -37.2°C | 43.9% | 0hPa | 2.9V | 00:00:00 | 00:51:48 | 00:00:00 | |
| PETON7-10 | 2026-09-01 02:40:49 | 48.20494 | 14.61251 | 95° | 111km/h | 9109m | 4.7m/s | -37.2°C | 43.9% | 0hPa | 2.9V | 00:00:00 | 00:51:47 | 00:00:00 | |
| OE3JTB-15 | 2026-09-01 02:40:46 | 48.20498 | 14.61127 | 93° | 115km/h | 9095m | 6.2m/s | -37.2°C | 44.8% | 0hPa | 2.9V | 00:00:00 | 00:51:44 | 00:00:00 | |
| OE5DRO-10 | 2026-09-01 02:40:43 | 48.20503 | 14.61002 | 95° | 113km/h | 9081m | 6.3m/s | -37.1°C | 46.2% | 0hPa | 2.9V | 00:00:00 | 00:00:00 | 08:30:00 | |
| DO3MHA-12 | 2026-09-01 02:40:41 | 48.20508 | 14.60919 | 95° | 111km/h | 9070m | 4.4m/s | -37.0°C | 46.6% | 0hPa | 2.9V | 00:00:00 | 00:51:39 | 00:00:00 | |
| OE5MMP-10 | 2026-09-01 02:40:40 | 48.20510 | 14.60877 | 95° | 113km/h | 9066m | 4.7m/s | -37.0°C | 46.5% | 0hPa | 2.9V | 00:00:00 | 00:51:38 | 00:00:00 | |
| PG1ADW-2 | 2026-09-01 02:40:39 | 48.20511 | 14.60834 | 94° | 117km/h | 9061m | 4.7m/s | -37.0°C | 46.6% | 0hPa | 2.9V | 00:00:00 | 00:00:00 | 00:00:00 | |
| OE5FHM-15 | 2026-09-01 02:40:36 | 48.20517 | 14.60707 | 94° | 117km/h | 9047m | 5.2m/s | -36.9°C | 45.9% | 0hPa | 2.9V | 00:00:00 | 00:51:34 | 00:00:00 | |
| OM5KV | 2026-09-01 02:40:35 | 48.20517 | 14.60707 | 94° | 113km/h | 9047m | 5.2m/s | -36.9°C | 43.1% | 0hPa | 2.9V | 00:00:00 | 00:00:00 | 00:00:00 | |
| OE5WHR-10 | 2026-09-01 02:40:32 | 48.20521 | 14.60534 | 90° | 117km/h | 9029m | 3.4m/s | -36.7°C | 45.6% | 0hPa | 2.9V | 00:00:00 | 00:00:00 | 08:30:00 | |
| DO3MHA-12 | 2026-09-01 02:40:31 | 48.20520 | 14.60491 | 90° | 117km/h | 9026m | 3.9m/s | -36.6°C | 45.2% | 0hPa | 2.7V | 00:00:00 | 00:51:29 | 00:00:00 | |
| OE5MMP-10 | 2026-09-01 02:40:30 | 48.20520 | 14.60448 | 91° | 117km/h | 9021m | 4.3m/s | -36.6°C | 45.0% | 0hPa | 2.7V | 00:00:00 | 00:51:28 | 00:00:00 | |
| OM5KV | 2026-09-01 02:40:29 | 48.20520 | 14.60448 | 91° | 113km/h | 9021m | 4.4m/s | -36.6°C | 0% | 0hPa | 2.7V | 00:00:00 | 00:00:00 | 00:00:00 | |
| OE5DRO-10 | 2026-09-01 02:40:24 | 48.20525 | 14.60184 | 90° | 117km/h | 8997m | 4.5m/s | -36.4°C | 43.7% | 0hPa | 2.7V | 00:00:00 | 00:00:00 | 00:00:00 | |
| OM5KV | 2026-09-01 02:40:23 | 48.20525 | 14.60184 | 91° | 115km/h | 8997m | 4.6m/s | -36.4°C | 41.0% | 0hPa | 2.7V | 00:00:00 | 00:00:00 | 00:00:00 | |
| DO3MHA-12 | 2026-09-01 02:40:21 | 48.20525 | 14.60049 | 91° | 120km/h | 8980m | 4.4m/s | -36.2°C | 43.6% | 0hPa | 2.7V | 00:00:00 | 00:51:19 | 00:00:00 | |
| OE5HKT-10 | 2026-09-01 02:40:20 | 48.20525 | 14.60001 | 91° | 117km/h | 8976m | 4.0m/s | -36.2°C | 43.6% | 0hPa | 2.7V | 00:00:00 | 00:00:00 | 08:30:00 | |
| PETON7-10 | 2026-09-01 02:40:19 | 48.20525 | 14.59955 | 90° | 117km/h | 8971m | 5.5m/s | -36.1°C | 43.5% | 0hPa | 2.9V | 00:00:00 | 00:00:00 | 00:00:00 | |
| OE3JTB-15 | 2026-09-01 02:40:17 | 48.20524 | 14.59867 | 89° | 115km/h | 8962m | 4.6m/s | -36.1°C | 43.0% | 0hPa | 2.9V | 00:00:00 | 00:00:00 | 00:00:00 | |
| OM5KV | 2026-09-01 02:40:13 | 48.20525 | 14.59740 | 91° | 110km/h | 8946m | 6.5m/s | -35.9°C | 0% | 0hPa | 2.9V | 00:00:00 | 00:00:00 | 00:00:00 | |
| DO3MHA-12 | 2026-09-01 02:40:11 | 48.20525 | 14.59608 | 91° | 117km/h | 8932m | 4.4m/s | -35.8°C | 43.3% | 0hPa | 2.9V | 00:00:00 | 00:51:09 | 00:00:00 | |
| OE5MMP-10 | 2026-09-01 02:40:10 | 48.20525 | 14.59564 | 92° | 115km/h | 8928m | 4.7m/s | -35.7°C | 43.7% | 0hPa | 2.9V | 00:00:00 | 00:51:08 | 00:00:00 | |
| OM5KV | 2026-09-01 02:40:07 | 48.20527 | 14.59473 | 92° | 120km/h | 8920m | 5.6m/s | -35.7°C | 0% | 0hPa | 2.9V | 00:00:00 | 00:00:00 | 00:00:00 | |
| OE5FHM-15 | 2026-09-01 02:40:06 | 48.20528 | 14.59384 | 92° | 115km/h | 8903m | 7.3m/s | -35.6°C | 44.3% | 0hPa | 2.9V | 00:00:00 | 00:51:04 | 00:00:00 | |
| OE5DRO-10 | 2026-09-01 02:40:05 | 48.20529 | 14.59340 | 92° | 115km/h | 8896m | 7.8m/s | -35.6°C | 44.8% | 0hPa | 2.9V | 00:00:00 | 00:00:00 | 00:00:00 | |
| PETON7-10 | 2026-09-01 02:40:04 | 48.20530 | 14.59297 | 92° | 115km/h | 8889m | 5.6m/s | -35.5°C | 45.1% | 0hPa | 2.9V | 00:00:00 | 00:51:02 | 00:00:00 | |
| OE5DXL-15 | 2026-09-01 02:40:03 | 48.20530 | 14.59255 | 91° | 115km/h | 8883m | 6.1m/s | -35.5°C | 45.5% | 0hPa | 2.9V | 00:00:00 | 00:00:00 | 00:00:00 | |
| DO3MHA-12 | 2026-09-01 02:40:01 | 48.20530 | 14.59170 | 90° | 115km/h | 8870m | 4.7m/s | -35.4°C | 46.8% | 0hPa | 2.9V | 00:00:00 | 00:50:59 | 00:00:00 | |
| OE5MMP-10 | 2026-09-01 02:40:00 | 48.20529 | 14.59127 | 89° | 115km/h | 8866m | 4.4m/s | -35.4°C | 47.2% | 0hPa | 2.9V | 00:00:00 | 00:50:58 | 00:00:00 | |
| OE5HKT-10 | 2026-09-01 02:39:59 | 48.20528 | 14.59083 | 87° | 117km/h | 8861m | 5.6m/s | -35.4°C | 47.0% | 0hPa | 2.9V | 00:00:00 | 00:00:00 | 00:00:00 | |
| OM5KV | 2026-09-01 02:39:54 | 48.20523 | 14.58908 | 91° | 115km/h | 8844m | 4.0m/s | -35.2°C | 43.5% | 0hPa | 2.9V | 00:00:00 | 00:00:00 | 00:00:00 | |
| DO3MHA-12 | 2026-09-01 02:39:51 | 48.20523 | 14.58732 | 91° | 115km/h | 8819m | 3.6m/s | -35.0°C | 45.4% | 0hPa | 2.9V | 00:00:00 | 00:50:49 | 00:00:00 | |
| OE5WHR-10 | 2026-09-01 02:39:50 | 48.20523 | 14.58689 | 91° | 115km/h | 8815m | 2.9m/s | -34.9°C | 45.1% | 0hPa | 2.7V | 00:00:00 | 00:50:48 | 00:00:00 | |
| PETON7-10 | 2026-09-01 02:39:49 | 48.20523 | 14.58645 | 91° | 115km/h | 8810m | 7.1m/s | -34.9°C | 44.6% | 0hPa | 2.7V | 00:00:00 | 00:00:00 | 00:00:00 | |
| OE3JTB-15 | 2026-09-01 02:39:48 | 48.20523 | 14.58601 | 90° | 115km/h | 8804m | 6.2m/s | -34.8°C | 44.6% | 0hPa | 2.9V | 00:00:00 | 00:00:00 | 00:00:00 | |
| OE5DRO-10 | 2026-09-01 02:39:46 | 48.20522 | 14.58514 | 88° | 115km/h | 8794m | 4.9m/s | -34.8°C | 44.9% | 0hPa | 2.9V | 00:00:00 | 00:00:00 | 00:00:00 | |
| OM5KV | 2026-09-01 02:39:42 | 48.20519 | 14.58387 | 88° | 113km/h | 8780m | 4.9m/s | -34.7°C | 0% | 0hPa | 2.7V | 00:00:00 | 00:00:00 | 00:00:00 | |
| DO3MHA-12 | 2026-09-01 02:39:41 | 48.20517 | 14.58299 | 89° | 117km/h | 8772m | 3.5m/s | -34.6°C | 43.7% | 0hPa | 2.7V | 00:00:00 | 00:50:39 | 00:00:00 | |
| OE5MMP-10 | 2026-09-01 02:39:40 | 48.20517 | 14.58253 | 91° | 115km/h | 8768m | 4.0m/s | -34.5°C | 43.5% | 0hPa | 2.7V | 00:00:00 | 00:50:38 | 00:00:00 | |
| PG1ADW-2 | 2026-09-01 02:39:39 | 48.20517 | 14.58207 | 92° | 117km/h | 8764m | 2.9m/s | -34.5°C | 43.3% | 0hPa | 2.7V | 00:00:00 | 00:50:37 | 00:00:00 | |
| OM5KV | 2026-09-01 02:39:37 | 48.20518 | 14.58162 | 92° | 117km/h | 8760m | 4.9m/s | -34.5°C | 40.1% | 0hPa | 2.7V | 00:00:00 | 00:00:00 | 00:00:00 | |
| OE5FHM-15 | 2026-09-01 02:39:36 | 48.20519 | 14.58076 | 91° | 113km/h | 8751m | 4.5m/s | -34.4°C | 41.6% | 0hPa | 2.7V | 00:00:00 | 00:50:34 | 00:00:00 | |
| PETON7-10 | 2026-09-01 02:39:34 | 48.20520 | 14.57991 | 93° | 117km/h | 8740m | 4.8m/s | -34.3°C | 40.8% | 0hPa | 2.7V | 00:00:00 | 00:00:00 | 00:00:00 | |
| OM5KV | 2026-09-01 02:39:32 | 48.20521 | 14.57948 | 93° | 115km/h | 8736m | 4.4m/s | -34.3°C | 38.4% | 0hPa | 2.7V | 00:00:00 | 00:00:00 | 00:00:00 | |
| OM5KV | 2026-09-01 02:39:31 | 48.20521 | 14.57904 | 91° | 117km/h | 8732m | 3.3m/s | -34.2°C | 0% | 0hPa | 2.7V | 00:00:00 | 00:00:00 | 00:00:00 | |
| OE5MMP-10 | 2026-09-01 02:39:30 | 48.20521 | 14.57816 | 90° | 117km/h | 8724m | 2.9m/s | -34.1°C | 41.2% | 0hPa | 2.7V | 00:00:00 | 00:50:28 | 00:00:00 | |
| OE5WHR-10 | 2026-09-01 02:39:29 | 48.20521 | 14.57773 | 91° | 113km/h | 8720m | 4.8m/s | -34.1°C | 41.3% | 0hPa | 2.7V | 00:00:00 | 00:00:00 | 00:00:00 | |
| OE5DRO-10 | 2026-09-01 02:39:27 | 48.20520 | 14.57684 | 90° | 113km/h | 8712m | 4.1m/s | -34.0°C | 41.6% | 0hPa | 2.9V | 00:00:00 | 00:00:00 | 00:00:00 | |
| OM5KV | 2026-09-01 02:39:26 | 48.20520 | 14.57684 | 90° | 119km/h | 8712m | 4.2m/s | -34.1°C | 39.2% | 0hPa | 2.9V | 00:00:00 | 00:00:00 | 00:00:00 | |
| OM5KV | 2026-09-01 02:39:25 | 48.20520 | 14.57639 | 91° | 120km/h | 8708m | 3.7m/s | -34.0°C | 0% | 0hPa | 2.9V | 00:00:00 | 00:00:00 | 00:00:00 | |
| OE5MMP-10 | 2026-09-01 02:39:20 | 48.20518 | 14.57373 | 88° | 111km/h | 8678m | 10.0m/s | -33.7°C | 42.2% | 0hPa | 2.9V | 00:00:00 | 00:50:18 | 00:00:00 | |
| PETON7-10 | 2026-09-01 02:39:19 | 48.20517 | 14.57330 | 88° | 111km/h | 8670m | 6.2m/s | -33.7°C | 42.5% | 0hPa | 2.9V | 00:00:00 | 00:50:17 | 00:00:00 | |
| DO3MHA-12 | 2026-09-01 02:39:18 | 48.20515 | 14.57289 | 87° | 111km/h | 8662m | 8.6m/s | -33.6°C | 42.9% | 0hPa | 2.9V | 00:00:00 | 00:50:16 | 08:30:00 | |
| OE5HKT-10 | 2026-09-01 02:39:17 | 48.20514 | 14.57247 | 88° | 111km/h | 8655m | 6.4m/s | -33.6°C | 43.1% | 0hPa | 2.9V | 00:00:00 | 00:50:15 | 00:00:00 | |
| OM5KV | 2026-09-01 02:39:14 | 48.20512 | 14.57163 | 91° | 111km/h | 8644m | 6.1m/s | 0°C | 0% | 0hPa | 2.9V | 00:00:00 | 00:00:00 | 00:00:00 | |
| OM5KV | 2026-09-01 02:39:13 | 48.20512 | 14.57121 | 91° | 113km/h | 8638m | 6.5m/s | 0°C | 0% | 0hPa | 2.9V | 00:00:00 | 00:00:00 | 00:00:00 | |
| OE5MMP-10 | 2026-09-01 02:39:10 | 48.20514 | 14.56951 | 90° | 110km/h | 8619m | 3.2m/s | -33.4°C | 48.0% | 0hPa | 2.9V | 00:00:00 | 00:50:08 | 00:00:00 | |
| DO3MHA-12 | 2026-09-01 02:39:08 | 48.20513 | 14.56867 | 91° | 111km/h | 8610m | 5.5m/s | -33.4°C | 48.2% | 0hPa | 2.9V | 00:00:00 | 00:50:06 | 00:00:00 | |
| OE5FHM-15 | 2026-09-01 02:39:06 | 48.20513 | 14.56784 | 88° | 108km/h | 8601m | 4.8m/s | -33.3°C | 48.7% | 0hPa | 2.9V | 00:00:00 | 00:50:04 | 00:00:00 | |
| PETON7-10 | 2026-09-01 02:39:04 | 48.20511 | 14.56701 | 90° | 110km/h | 8591m | 5.9m/s | -33.2°C | 48.9% | 0hPa | 2.9V | 00:00:00 | 00:00:00 | 00:00:00 | |
| OM5KV | 2026-09-01 02:39:03 | 48.20512 | 14.56701 | 90° | 108km/h | 8591m | 6.0m/s | 0°C | 0% | 0hPa | 2.9V | 00:00:00 | 00:00:00 | 00:00:00 | |
| OE3OSB-13 | 2026-09-01 02:38:46 | 48.20495 | 14.55915 | 86° | 100km/h | 8494m | 4.9m/s | -32.6°C | -1.0% | -1.0hPa | 2.9V | 00:00:00 | 00:00:00 | 00:00:00 | |
| OE5MMP-10 | 2026-09-01 02:38:40 | 48.20492 | 14.55719 | 89° | 102km/h | 8470m | 1.2m/s | -32.4°C | 52.9% | 0hPa | 2.9V | 00:00:00 | 00:49:38 | 00:00:00 | |
| PG1ADW-2 | 2026-09-01 02:38:39 | 48.20491 | 14.55679 | 88° | 104km/h | 8466m | 6.6m/s | -32.3°C | 51.8% | 0hPa | 2.9V | 00:00:00 | 00:00:00 | 00:00:00 | |
| DO3MHA-12 | 2026-09-01 02:38:38 | 48.20490 | 14.55640 | 88° | 102km/h | 8460m | 5.6m/s | -32.3°C | 52.1% | 0hPa | 2.9V | 00:00:00 | 00:49:36 | 00:00:00 | |
| OE5FHM-15 | 2026-09-01 02:38:36 | 48.20487 | 14.55564 | 87° | 104km/h | 8451m | 2.8m/s | -32.2°C | 52.6% | 0hPa | 2.9V | 00:00:00 | 00:49:34 | 00:00:00 | |
| OM5KV | 2026-09-01 02:38:35 | 48.20487 | 14.55564 | 88° | 100km/h | 8451m | 2.8m/s | 0°C | 0% | 0hPa | 2.9V | 00:00:00 | 00:00:00 | 00:00:00 | |
| PETON7-10 | 2026-09-01 02:38:34 | 48.20485 | 14.55488 | 89° | 104km/h | 8442m | 4.1m/s | -32.1°C | 52.2% | 0hPa | 2.9V | 00:00:00 | 00:49:32 | 00:00:00 | |
| OE5MMP-10 | 2026-09-01 02:38:30 | 48.20479 | 14.55329 | 86° | 104km/h | 8425m | 5.6m/s | -32.0°C | 51.6% | 0hPa | 2.9V | 00:00:00 | 00:49:28 | 00:00:00 | |
| DO3MHA-12 | 2026-09-01 02:38:28 | 48.20477 | 14.55249 | 89° | 104km/h | 8416m | 2.9m/s | -31.9°C | 52.0% | 0hPa | 2.9V | 00:00:00 | 00:49:26 | 00:00:00 | |
| OE5WHR-10 | 2026-09-01 02:38:26 | 48.20475 | 14.55171 | 89° | 104km/h | 8409m | 3.3m/s | -31.8°C | 51.8% | 0hPa | 2.9V | 00:00:00 | 00:00:00 | 00:00:00 | |
| OE3JTB-15 | 2026-09-01 02:38:21 | 48.20471 | 14.54975 | 89° | 104km/h | 8388m | 5.1m/s | -31.6°C | 50.2% | 0hPa | 2.9V | 00:00:00 | 00:00:00 | 00:00:00 | |
| OE5MMP-10 | 2026-09-01 02:38:20 | 48.20471 | 14.54935 | 89° | 102km/h | 8384m | 3.5m/s | -31.6°C | 50.5% | 0hPa | 2.9V | 00:00:00 | 00:49:18 | 08:30:00 | |
| PETON7-10 | 2026-09-01 02:38:19 | 48.20470 | 14.54896 | 90° | 104km/h | 8379m | 5.4m/s | -31.6°C | 50.3% | 0hPa | 2.9V | 00:00:00 | 00:00:00 | 08:30:00 | |
| DO3MHA-12 | 2026-09-01 02:38:18 | 48.20470 | 14.54857 | 90° | 104km/h | 8375m | 3.7m/s | -31.5°C | 50.4% | 0hPa | 2.7V | 00:00:00 | 00:49:16 | 00:00:00 | |
| S52SK | 2026-09-01 02:38:14 | 48.20469 | 14.54740 | 89° | 100km/h | 8362m | 5.8m/s | 0°C | 0% | 0hPa | 2.9V | 00:00:00 | 00:00:00 | 00:00:00 | |
| OE5DRO-10 | 2026-09-01 02:38:11 | 48.20464 | 14.54587 | 91° | 104km/h | 8345m | 3.5m/s | -31.3°C | 51.3% | 0hPa | 2.9V | 00:00:00 | 00:00:00 | 00:00:00 | |
| OE5MMP-10 | 2026-09-01 02:38:10 | 48.20464 | 14.54547 | 91° | 104km/h | 8341m | 3.3m/s | -31.3°C | 51.3% | 0hPa | 2.9V | 00:00:00 | 00:49:08 | 00:00:00 | |
| DO3MHA-12 | 2026-09-01 02:38:08 | 48.20464 | 14.54466 | 89° | 102km/h | 8333m | 4.9m/s | -31.2°C | 51.3% | 0hPa | 2.9V | 00:00:00 | 00:49:06 | 00:00:00 | |
| OE5FHM-15 | 2026-09-01 02:38:06 | 48.20463 | 14.54386 | 89° | 104km/h | 8325m | 8.2m/s | -31.2°C | 51.1% | 0hPa | 2.9V | 00:00:00 | 00:49:04 | 00:00:00 | |
| OE5WHR-10 | 2026-09-01 02:38:05 | 48.20462 | 14.54346 | 88° | 104km/h | 8317m | 6.5m/s | -31.2°C | 51.7% | 0hPa | 2.9V | 00:00:00 | 00:00:00 | 00:00:00 | |
| PETON7-10 | 2026-09-01 02:38:04 | 48.20460 | 14.54306 | 88° | 104km/h | 8312m | 3.4m/s | -31.1°C | 52.3% | 0hPa | 2.9V | 00:00:00 | 00:00:00 | 00:00:00 | |
| OE5MMP-10 | 2026-09-01 02:38:00 | 48.20453 | 14.54155 | 88° | 106km/h | 8295m | 3.2m/s | -31.0°C | 52.5% | 0hPa | 2.9V | 00:00:00 | 00:48:58 | 00:00:00 | |
| PG1ADW-2 | 2026-09-01 02:37:59 | 48.20453 | 14.54118 | 90° | 104km/h | 8291m | 4.3m/s | -31.0°C | 52.3% | 0hPa | 2.9V | 00:00:00 | 00:00:00 | 00:00:00 | |
| DO3MHA-12 | 2026-09-01 02:37:58 | 48.20453 | 14.54079 | 91° | 106km/h | 8288m | 3.6m/s | -30.9°C | 52.2% | 0hPa | 2.9V | 00:00:00 | 00:48:56 | 00:00:00 | |
| OE3JTB-15 | 2026-09-01 02:37:52 | 48.20450 | 14.53837 | 91° | 104km/h | 8259m | 5.8m/s | -30.7°C | 51.1% | 0hPa | 2.9V | 00:00:00 | 00:48:50 | 00:00:00 | |
| OE5MMP-10 | 2026-09-01 02:37:50 | 48.20449 | 14.53758 | 90° | 104km/h | 8249m | 4.3m/s | -30.6°C | 51.8% | 0hPa | 2.9V | 00:00:00 | 00:48:48 | 00:00:00 | |
| PETON7-10 | 2026-09-01 02:37:49 | 48.20449 | 14.53719 | 88° | 104km/h | 8245m | 3.5m/s | -30.6°C | 51.7% | 0hPa | 2.7V | 00:00:00 | 00:48:47 | 00:00:00 | |
| DO3MHA-12 | 2026-09-01 02:37:48 | 48.20448 | 14.53681 | 90° | 106km/h | 8241m | 5.6m/s | -30.6°C | 51.5% | 0hPa | 2.7V | 00:00:00 | 00:48:46 | 08:30:00 | |
| OE5WHR-10 | 2026-09-01 02:37:44 | 48.20446 | 14.53526 | 89° | 106km/h | 8224m | 5.6m/s | -30.5°C | 52.4% | 0hPa | 2.9V | 00:00:00 | 00:48:42 | 00:00:00 | |
| OE5MMP-10 | 2026-09-01 02:37:40 | 48.20441 | 14.53363 | 88° | 104km/h | 8209m | 4.0m/s | -30.4°C | 52.5% | 0hPa | 2.9V | 00:00:00 | 00:48:38 | 00:00:00 | |
| PG1ADW-2 | 2026-09-01 02:37:39 | 48.20440 | 14.53323 | 89° | 104km/h | 8205m | 5.0m/s | -30.3°C | 52.5% | 0hPa | 2.9V | 00:00:00 | 00:00:00 | 00:00:00 | |
| DO3MHA-12 | 2026-09-01 02:37:38 | 48.20440 | 14.53282 | 91° | 104km/h | 8200m | 4.4m/s | -30.3°C | 52.3% | 0hPa | 2.9V | 00:00:00 | 00:48:36 | 00:00:00 | |
| OE5FHM-15 | 2026-09-01 02:37:36 | 48.20440 | 14.53204 | 91° | 104km/h | 8191m | 4.7m/s | -30.3°C | 53.0% | 0hPa | 2.9V | 00:00:00 | 00:48:34 | 08:30:00 | |
| PETON7-10 | 2026-09-01 02:37:34 | 48.20440 | 14.53126 | 91° | 104km/h | 8181m | 6.1m/s | -30.2°C | 53.7% | 0hPa | 2.9V | 00:00:00 | 00:00:00 | 00:00:00 | |
| OE5DRO-10 | 2026-09-01 02:37:33 | 48.20441 | 14.53086 | 92° | 104km/h | 8175m | 4.1m/s | -30.2°C | 53.9% | 0hPa | 2.9V | 00:00:00 | 00:00:00 | 00:00:00 | |
| OE5MMP-10 | 2026-09-01 02:37:30 | 48.20442 | 14.52969 | 92° | 104km/h | 8163m | 5.7m/s | -30.1°C | 52.9% | 0hPa | 2.9V | 00:00:00 | 00:48:28 | 00:00:00 | |
| DO3MHA-12 | 2026-09-01 02:37:28 | 48.20442 | 14.52888 | 88° | 104km/h | 8155m | 4.4m/s | -30.0°C | 52.9% | 0hPa | 2.9V | 00:00:00 | 00:48:26 | 00:00:00 | |
| OE5WHR-10 | 2026-09-01 02:37:23 | 48.20435 | 14.52691 | 88° | 104km/h | 8130m | 3.9m/s | -29.8°C | 52.3% | 0hPa | 2.9V | 00:00:00 | 00:00:00 | 08:30:00 | |
| OE5MMP-10 | 2026-09-01 02:37:20 | 48.20434 | 14.52575 | 91° | 100km/h | 8117m | 3.9m/s | -29.7°C | 51.8% | 0hPa | 2.9V | 00:00:00 | 00:48:18 | 00:00:00 | |
| PETON7-10 | 2026-09-01 02:37:19 | 48.20434 | 14.52536 | 91° | 104km/h | 8112m | 4.2m/s | -29.6°C | 51.7% | 0hPa | 2.9V | 00:00:00 | 00:00:00 | 00:00:00 | |
| DO3MHA-12 | 2026-09-01 02:37:18 | 48.20435 | 14.52497 | 92° | 102km/h | 8108m | 4.2m/s | -29.6°C | 51.3% | 0hPa | 2.9V | 00:00:00 | 00:48:16 | 00:00:00 | |
| OE5DRO-10 | 2026-09-01 02:37:14 | 48.20435 | 14.52344 | 89° | 104km/h | 8088m | 4.8m/s | -29.4°C | 51.2% | 0hPa | 2.9V | 00:00:00 | 00:00:00 | 00:00:00 | |
| OE5MMP-10 | 2026-09-01 02:37:10 | 48.20432 | 14.52192 | 86° | 108km/h | 8067m | 5.6m/s | -29.3°C | 51.3% | 0hPa | 2.9V | 00:00:00 | 00:48:08 | 00:00:00 | |
| DO3MHA-12 | 2026-09-01 02:37:08 | 48.20429 | 14.52111 | 89° | 108km/h | 8055m | 6.2m/s | -29.2°C | 51.6% | 0hPa | 2.9V | 00:00:00 | 00:48:06 | 00:00:00 | |
| OE5HKT-10 | 2026-09-01 02:37:07 | 48.20428 | 14.52069 | 91° | 102km/h | 8049m | 4.0m/s | -29.1°C | 51.6% | 0hPa | 2.9V | 00:00:00 | 00:00:00 | 00:00:00 | |
| OE5FHM-15 | 2026-09-01 02:37:06 | 48.20428 | 14.52026 | 90° | 102km/h | 8044m | 5.5m/s | -29.1°C | 51.4% | 0hPa | 2.9V | 00:00:00 | 00:48:04 | 00:00:00 | |
| PETON7-10 | 2026-09-01 02:37:04 | 48.20427 | 14.51943 | 89° | 104km/h | 8033m | 7.4m/s | -28.9°C | 50.3% | 0hPa | 2.9V | 00:00:00 | 00:48:02 | 00:00:00 | |
| S52SK | 2026-09-01 02:37:03 | 48.20427 | 14.51943 | 89° | 108km/h | 8033m | 7.5m/s | 0°C | 0% | 0hPa | 2.9V | 00:00:00 | 00:00:00 | 00:00:00 | |
| OE5WHR-10 | 2026-09-01 02:37:02 | 48.20425 | 14.51864 | 87° | 102km/h | 8020m | 9.0m/s | -28.8°C | 49.7% | 0hPa | 2.9V | 00:00:00 | 00:00:00 | 00:00:00 | |
| OE5MMP-10 | 2026-09-01 02:37:00 | 48.20423 | 14.51784 | 90° | 104km/h | 8006m | 4.4m/s | -28.7°C | 49.6% | 0hPa | 2.9V | 00:00:00 | 00:47:58 | 00:00:00 | |
| PG1ADW-2 | 2026-09-01 02:36:59 | 48.20423 | 14.51745 | 91° | 102km/h | 8001m | 6.1m/s | -28.7°C | 49.6% | 0hPa | 2.9V | 00:00:00 | 00:47:57 | 00:00:00 | |
| DO3MHA-12 | 2026-09-01 02:36:58 | 48.20424 | 14.51705 | 91° | 104km/h | 7996m | 4.7m/s | -28.6°C | 49.6% | 0hPa | 2.9V | 00:00:00 | 00:47:56 | 00:00:00 | |
| S52SK | 2026-09-01 02:36:57 | 48.20424 | 14.51705 | 92° | 106km/h | 7996m | 4.8m/s | 0°C | 0% | 0hPa | 2.9V | 00:00:00 | 00:00:00 | 00:00:00 | |
| OE5DRO-10 | 2026-09-01 02:36:55 | 48.20423 | 14.51588 | 89° | 100km/h | 7983m | 2.7m/s | -28.5°C | 50.1% | 0hPa | 2.9V | 00:00:00 | 00:00:00 | 00:00:00 | |
| OE3JTB-15 | 2026-09-01 02:36:54 | 48.20422 | 14.51550 | 89° | 102km/h | 7979m | 4.6m/s | -28.5°C | 49.7% | 0hPa | 2.9V | 00:00:00 | 00:00:00 | 00:00:00 | |
| PETON7-10 | 2026-09-01 02:36:49 | 48.20425 | 14.51349 | 93° | 99km/h | 7958m | 2.7m/s | -28.4°C | 52.4% | 0hPa | 2.9V | 00:00:00 | 00:00:00 | 00:00:00 | |
| DO3MHA-12 | 2026-09-01 02:36:48 | 48.20425 | 14.51311 | 92° | 99km/h | 7954m | 5.8m/s | -28.3°C | 52.1% | 0hPa | 2.9V | 00:00:00 | 00:47:46 | 00:00:00 | |
| OE5WHR-10 | 2026-09-01 02:36:41 | 48.20421 | 14.51052 | 92° | 102km/h | 7913m | 7.2m/s | -28.0°C | 54.4% | 0hPa | 2.9V | 00:00:00 | 00:47:39 | 00:00:00 | |
| OE5MMP-10 | 2026-09-01 02:36:40 | 48.20422 | 14.51015 | 93° | 100km/h | 7905m | 8.6m/s | -28.0°C | 54.7% | 0hPa | 2.9V | 00:00:00 | 00:47:38 | 00:00:00 | |
| PG1ADW-2 | 2026-09-01 02:36:39 | 48.20424 | 14.50977 | 96° | 102km/h | 7897m | 8.1m/s | -27.9°C | 54.0% | 0hPa | 2.9V | 00:00:00 | 00:00:00 | 00:00:00 | |
| DO3MHA-12 | 2026-09-01 02:36:38 | 48.20427 | 14.50939 | 96° | 100km/h | 7889m | 7.1m/s | -27.9°C | 54.6% | 0hPa | 2.9V | 00:00:00 | 00:47:36 | 00:00:00 | |
| OE5FHM-15 | 2026-09-01 02:36:36 | 48.20431 | 14.50867 | 95° | 102km/h | 7876m | 4.0m/s | -27.8°C | 55.1% | 0hPa | 2.9V | 00:00:00 | 00:47:34 | 00:00:00 | |
| PETON7-10 | 2026-09-01 02:36:34 | 48.20435 | 14.50793 | 95° | 104km/h | 7865m | 5.5m/s | -27.7°C | 54.9% | 0hPa | 2.9V | 00:00:00 | 00:00:00 | 00:00:00 | |
| OE5MMP-10 | 2026-09-01 02:36:30 | 48.20442 | 14.50638 | 91° | 106km/h | 7841m | 2.8m/s | -27.5°C | 55.8% | 0hPa | 2.9V | 00:00:00 | 00:47:28 | 00:00:00 | |
| DO3MHA-12 | 2026-09-01 02:36:28 | 48.20442 | 14.50555 | 89° | 104km/h | 7830m | 5.2m/s | -27.5°C | 56.5% | 0hPa | 2.9V | 00:00:00 | 00:47:26 | 00:00:00 | |
| OE3JTB-15 | 2026-09-01 02:36:25 | 48.20441 | 14.50434 | 92° | 104km/h | 7818m | 5.1m/s | -27.4°C | 57.5% | 0hPa | 2.9V | 00:00:00 | 00:47:23 | 00:00:00 | |
| OE5HKT-10 | 2026-09-01 02:36:22 | 48.20444 | 14.50317 | 93° | 102km/h | 7804m | 2.8m/s | -27.3°C | 59.3% | 0hPa | 2.9V | 00:00:00 | 00:00:00 | 00:00:00 | |
| PETON7-10 | 2026-09-01 02:36:19 | 48.20448 | 14.50198 | 92° | 104km/h | 7791m | 4.6m/s | -27.2°C | 59.8% | 0hPa | 2.9V | 00:00:00 | 00:47:17 | 00:00:00 | |
| DO3MHA-12 | 2026-09-01 02:36:18 | 48.20449 | 14.50159 | 90° | 104km/h | 7787m | 3.1m/s | -27.2°C | 60.1% | 0hPa | 2.9V | 00:00:00 | 00:47:16 | 08:30:00 | |
| OE5DRO-10 | 2026-09-01 02:36:17 | 48.20448 | 14.50119 | 89° | 104km/h | 7783m | 5.3m/s | -27.1°C | 59.5% | 0hPa | 2.9V | 00:00:00 | 00:00:00 | 00:00:00 | |
| OE5MMP-10 | 2026-09-01 02:36:10 | 48.20445 | 14.49842 | 95° | 104km/h | 7752m | 5.4m/s | -26.9°C | 60.6% | 0hPa | 2.9V | 00:00:00 | 00:47:08 | 00:00:00 | |
| DO3MHA-12 | 2026-09-01 02:36:08 | 48.20450 | 14.49764 | 96° | 104km/h | 7740m | 7.4m/s | -26.8°C | 60.6% | 0hPa | 2.9V | 00:00:00 | 00:47:06 | 00:00:00 | |
| OE5DXL-15 | 2026-09-01 02:36:04 | 48.20457 | 14.49609 | 93° | 100km/h | 7714m | 6.4m/s | -26.6°C | 58.3% | 0hPa | 2.9V | 00:00:00 | 00:00:00 | 08:30:00 | |
| OE5MMP-10 | 2026-09-01 02:36:00 | 48.20462 | 14.49449 | 91° | 102km/h | 7693m | 3.5m/s | -26.5°C | 58.2% | 0hPa | 2.9V | 00:00:00 | 00:46:58 | 00:00:00 | |
| OE5WHR-10 | 2026-09-01 02:35:59 | 48.20462 | 14.49408 | 92° | 100km/h | 7689m | 5.3m/s | -26.4°C | 58.1% | 0hPa | 2.9V | 00:00:00 | 00:00:00 | 00:00:00 | |
| DO3MHA-12 | 2026-09-01 02:35:58 | 48.20462 | 14.49369 | 92° | 100km/h | 7684m | 3.6m/s | -26.4°C | 58.4% | 0hPa | 2.9V | 00:00:00 | 00:46:56 | 00:00:00 | |
| OE3JTB-15 | 2026-09-01 02:35:56 | 48.20465 | 14.49292 | 95° | 102km/h | 7674m | 5.4m/s | -26.3°C | 58.1% | 0hPa | 2.9V | 00:00:00 | 00:00:00 | 00:00:00 | |
| OE5MMP-10 | 2026-09-01 02:35:50 | 48.20474 | 14.49063 | 94° | 99km/h | 7648m | 5.5m/s | -26.3°C | 57.7% | 0hPa | 2.9V | 00:00:00 | 00:46:48 | 00:00:00 | |
| PETON7-10 | 2026-09-01 02:35:49 | 48.20476 | 14.49027 | 94° | 99km/h | 7643m | 4.7m/s | -26.3°C | 58.0% | 0hPa | 2.9V | 00:00:00 | 00:00:00 | 00:00:00 | |
| DO3MHA-12 | 2026-09-01 02:35:48 | 48.20477 | 14.48990 | 93° | 100km/h | 7638m | 4.8m/s | -26.3°C | 57.9% | 0hPa | 2.9V | 00:00:00 | 00:46:46 | 00:00:00 | |
| OE5FHM-15 | 2026-09-01 02:35:46 | 48.20479 | 14.48914 | 91° | 102km/h | 7630m | 3.8m/s | -26.2°C | 57.7% | 0hPa | 2.9V | 00:00:00 | 00:46:44 | 00:00:00 | |
| S52SK | 2026-09-01 02:35:45 | 48.20479 | 14.48914 | 92° | 102km/h | 7630m | 3.9m/s | 0°C | 0% | 0hPa | 2.9V | 00:00:00 | 00:00:00 | 00:00:00 | |
| OE5MMP-10 | 2026-09-01 02:35:40 | 48.20488 | 14.48689 | 95° | 100km/h | 7602m | 6.3m/s | -26.0°C | 55.9% | 0hPa | 2.9V | 00:00:00 | 00:46:38 | 00:00:00 | |
| PG1ADW-2 | 2026-09-01 02:35:39 | 48.20490 | 14.48651 | 93° | 102km/h | 7597m | 4.6m/s | -26.0°C | 55.3% | 0hPa | 2.9V | 00:00:00 | 00:46:37 | 00:00:00 | |
| OE5WHR-10 | 2026-09-01 02:35:38 | 48.20490 | 14.48612 | 91° | 102km/h | 7592m | 6.1m/s | -25.9°C | 54.7% | 0hPa | 2.9V | 00:00:00 | 00:46:36 | 00:00:00 | |
| PETON7-10 | 2026-09-01 02:35:34 | 48.20497 | 14.48462 | 99° | 102km/h | 7568m | 5.2m/s | 0°C | 0% | 0hPa | 2.9V | 00:00:00 | 00:46:32 | 00:00:00 | |
| OE5MMP-10 | 2026-09-01 02:35:30 | 48.20510 | 14.48307 | 94° | 104km/h | 7547m | 6.3m/s | -25.6°C | 53.4% | 0hPa | 2.9V | 00:00:00 | 00:46:28 | 00:00:00 | |
| OE5HKT-10 | 2026-09-01 02:35:29 | 48.20511 | 14.48267 | 92° | 100km/h | 7540m | 7.1m/s | -25.6°C | 53.0% | 0hPa | 2.9V | 00:00:00 | 00:46:27 | 00:00:00 | |
| DO3MHA-12 | 2026-09-01 02:35:28 | 48.20511 | 14.48226 | 91° | 102km/h | 7533m | 7.2m/s | -25.5°C | 53.2% | 0hPa | 2.9V | 00:00:00 | 00:46:26 | 00:00:00 | |
| OE3JTB-15 | 2026-09-01 02:35:26 | 48.20513 | 14.48145 | 93° | 99km/h | 7522m | 2.3m/s | -25.4°C | 54.3% | 0hPa | 2.9V | 00:00:00 | 00:00:00 | 00:00:00 | |
| OE5MMP-10 | 2026-09-01 02:35:20 | 48.20515 | 14.47917 | 93° | 99km/h | 7490m | 3.7m/s | -25.2°C | 56.6% | 0hPa | 2.9V | 00:00:00 | 00:46:18 | 08:30:00 | |
| PETON7-10 | 2026-09-01 02:35:19 | 48.20517 | 14.47879 | 94° | 97km/h | 7485m | 5.0m/s | -25.2°C | 56.4% | 0hPa | 2.9V | 00:00:00 | 00:00:00 | 00:00:00 | |
| DO3MHA-12 | 2026-09-01 02:35:18 | 48.20518 | 14.47840 | 94° | 99km/h | 7481m | 3.6m/s | -25.2°C | 56.5% | 0hPa | 2.9V | 00:00:00 | 00:46:16 | 00:00:00 | |
| OE5WHR-10 | 2026-09-01 02:35:17 | 48.20520 | 14.47803 | 93° | 97km/h | 7476m | 6.1m/s | -25.1°C | 56.0% | 0hPa | 2.9V | 00:00:00 | 00:00:00 | 00:00:00 | |
| OE5FHM-15 | 2026-09-01 02:35:16 | 48.20521 | 14.47765 | 92° | 99km/h | 7471m | 3.7m/s | -25.1°C | 55.7% | 0hPa | 2.7V | 00:00:00 | 00:46:14 | 00:00:00 | |
| OE5MMP-10 | 2026-09-01 02:35:10 | 48.20528 | 14.47544 | 97° | 95km/h | 7432m | 5.9m/s | -24.7°C | 51.7% | 0hPa | 2.7V | 00:00:00 | 00:46:08 | 00:00:00 | |
| DO3MHA-12 | 2026-09-01 02:35:08 | 48.20532 | 14.47471 | 94° | 95km/h | 7422m | 3.6m/s | -24.6°C | 51.9% | 0hPa | 2.7V | 00:00:00 | 00:46:06 | 00:00:00 | |
| PETON7-10 | 2026-09-01 02:35:04 | 48.20533 | 14.47332 | 90° | 99km/h | 7401m | 5.1m/s | -24.4°C | 51.7% | 0hPa | 2.7V | 00:00:00 | 00:00:00 | 00:00:00 | |
| OE5DRO-10 | 2026-09-01 02:35:01 | 48.20536 | 14.47223 | 96° | 100km/h | 7380m | 8.0m/s | -24.3°C | 51.7% | 0hPa | 2.7V | 00:00:00 | 00:00:00 | 08:30:00 | |
| OE5MMP-10 | 2026-09-01 02:35:00 | 48.20538 | 14.47186 | 97° | 99km/h | 7373m | 8.0m/s | -24.2°C | 51.7% | 0hPa | 2.9V | 00:00:00 | 00:45:58 | 00:00:00 | |
| PG1ADW-2 | 2026-09-01 02:34:59 | 48.20541 | 14.47148 | 98° | 99km/h | 7365m | 6.3m/s | -24.1°C | 51.8% | 0hPa | 2.9V | 00:00:00 | 00:00:00 | 00:00:00 | |
| DO3MHA-12 | 2026-09-01 02:34:58 | 48.20545 | 14.47110 | 97° | 102km/h | 7360m | 4.0m/s | -24.1°C | 52.1% | 0hPa | 2.9V | 00:00:00 | 00:45:56 | 00:00:00 | |
| OE3JTB-15 | 2026-09-01 02:34:57 | 48.20547 | 14.47073 | 97° | 100km/h | 7355m | 6.1m/s | -24.0°C | 51.5% | 0hPa | 2.9V | 00:00:00 | 00:45:55 | 00:00:00 | |
| OE5WHR-10 | 2026-09-01 02:34:56 | 48.20550 | 14.47038 | 96° | 99km/h | 7348m | 8.2m/s | -24.0°C | 51.2% | 0hPa | 2.9V | 00:00:00 | 00:00:00 | 00:00:00 | |
| OE5MMP-10 | 2026-09-01 02:34:50 | 48.20561 | 14.46811 | 94° | 100km/h | 7312m | 5.6m/s | -23.6°C | 50.2% | 0hPa | 2.9V | 00:00:00 | 00:45:48 | 00:00:00 | |
| PETON7-10 | 2026-09-01 02:34:49 | 48.20563 | 14.46773 | 92° | 99km/h | 7306m | 6.0m/s | -23.6°C | 50.1% | 0hPa | 2.9V | 00:00:00 | 00:45:47 | 00:00:00 | |
| OE5HKT-10 | 2026-09-01 02:34:47 | 48.20564 | 14.46696 | 92° | 100km/h | 7295m | 4.7m/s | -23.5°C | 50.0% | 0hPa | 2.9V | 00:00:00 | 00:00:00 | 00:00:00 | |
| DO3MHA-12 | 2026-09-01 02:34:46 | 48.20565 | 14.46657 | 93° | 99km/h | 7291m | 4.9m/s | -23.4°C | 50.0% | 0hPa | 2.9V | 00:00:00 | 00:45:44 | 08:30:00 | |
| OE5FHM-15 | 2026-09-01 02:34:45 | 48.20566 | 14.46618 | 93° | 100km/h | 7285m | 5.1m/s | -23.4°C | 49.7% | 0hPa | 2.9V | 00:00:00 | 00:45:43 | 00:00:00 | |
| OE5DRO-10 | 2026-09-01 02:34:42 | 48.20566 | 14.46506 | 88° | 100km/h | 7265m | 7.3m/s | -23.2°C | 48.4% | 0hPa | 2.9V | 00:00:00 | 00:00:00 | 00:00:00 | |
| OE5MMP-10 | 2026-09-01 02:34:40 | 48.20566 | 14.46434 | 93° | 100km/h | 7253m | 4.8m/s | -23.1°C | 48.3% | 0hPa | 2.9V | 00:00:00 | 00:45:38 | 00:00:00 | |
| PG1ADW-2 | 2026-09-01 02:34:39 | 48.20568 | 14.46398 | 96° | 100km/h | 7247m | 7.6m/s | -23.0°C | 47.8% | 0hPa | 2.9V | 00:00:00 | 00:00:00 | 00:00:00 | |
| DO3MHA-12 | 2026-09-01 02:34:36 | 48.20577 | 14.46288 | 99° | 100km/h | 7228m | 6.1m/s | -22.8°C | 47.6% | 0hPa | 2.9V | 00:00:00 | 00:45:34 | 00:00:00 | |
| OE5WHR-10 | 2026-09-01 02:34:35 | 48.20580 | 14.46250 | 98° | 100km/h | 7223m | 4.1m/s | -22.8°C | 47.6% | 0hPa | 2.9V | 00:00:00 | 00:45:33 | 00:00:00 | |
| PETON7-10 | 2026-09-01 02:34:34 | 48.20584 | 14.46211 | 96° | 100km/h | 7218m | 6.5m/s | -22.7°C | 47.1% | 0hPa | 2.9V | 00:00:00 | 00:00:00 | 00:00:00 | |
| OE5MMP-10 | 2026-09-01 02:34:30 | 48.20589 | 14.46057 | 92° | 100km/h | 7198m | 7.9m/s | -22.5°C | 45.7% | 0hPa | 2.9V | 00:00:00 | 00:45:28 | 00:00:00 | |
| OE3JTB-15 | 2026-09-01 02:34:28 | 48.20592 | 14.45981 | 97° | 99km/h | 7183m | 5.9m/s | -22.4°C | 45.9% | 0hPa | 2.9V | 00:00:00 | 00:00:00 | 08:30:00 | |
| DO3MHA-12 | 2026-09-01 02:34:26 | 48.20598 | 14.45904 | 97° | 100km/h | 7171m | 7.1m/s | -22.3°C | 45.7% | 0hPa | 2.9V | 00:00:00 | 00:45:24 | 00:00:00 | |
| S52SK | 2026-09-01 02:34:25 | 48.20598 | 14.45904 | 97° | 102km/h | 7171m | 7.1m/s | 0°C | 0% | 0hPa | 2.9V | 00:00:00 | 00:00:00 | 00:00:00 | |
| OE5DRO-10 | 2026-09-01 02:34:23 | 48.20603 | 14.45789 | 93° | 99km/h | 7150m | 4.5m/s | -22.1°C | 46.3% | 0hPa | 2.9V | 00:00:00 | 00:00:00 | 00:00:00 | |
| OE5MMP-10 | 2026-09-01 02:34:20 | 48.20607 | 14.45679 | 96° | 100km/h | 7130m | 5.6m/s | -22.0°C | 45.9% | 0hPa | 2.9V | 00:00:00 | 00:45:18 | 00:00:00 | |
| PETON7-10 | 2026-09-01 02:34:19 | 48.20610 | 14.45642 | 97° | 99km/h | 7125m | 6.5m/s | -21.9°C | 45.8% | 0hPa | 2.9V | 00:00:00 | 00:00:00 | 00:00:00 | |
| DO3MHA-12 | 2026-09-01 02:34:16 | 48.20617 | 14.45527 | 94° | 99km/h | 7106m | 6.5m/s | -21.7°C | 45.1% | 0hPa | 2.9V | 00:00:00 | 00:45:14 | 00:00:00 | |
| OE5WHR-10 | 2026-09-01 02:34:14 | 48.20621 | 14.45449 | 96° | 97km/h | 7095m | 4.6m/s | -21.7°C | 44.7% | 0hPa | 2.9V | 00:00:00 | 00:00:00 | 08:30:00 | |
| OE5MMP-10 | 2026-09-01 02:34:10 | 48.20634 | 14.45300 | 98° | 95km/h | 7077m | 4.5m/s | -21.5°C | 43.0% | 0hPa | 2.9V | 00:00:00 | 00:45:08 | 00:00:00 | |
| DO3MHA-12 | 2026-09-01 02:34:06 | 48.20651 | 14.45159 | 104° | 73km/h | 7061m | 4.3m/s | -21.4°C | 41.6% | 0hPa | 2.9V | 00:00:00 | 00:45:04 | 00:00:00 | |
| OE5HKT-10 | 2026-09-01 02:34:05 | 48.20656 | 14.45125 | 103° | 97km/h | 7057m | 3.9m/s | -21.3°C | 41.4% | 0hPa | 2.9V | 00:00:00 | 00:00:00 | 00:00:00 | |
| PETON7-10 | 2026-09-01 02:34:04 | 48.20661 | 14.45091 | 102° | 97km/h | 7053m | 4.7m/s | -21.3°C | 40.9% | 0hPa | 2.7V | 00:00:00 | 00:45:02 | 00:00:00 | |
| OE5MMP-10 | 2026-09-01 02:34:00 | 48.20674 | 14.44946 | 97° | 99km/h | 7030m | 6.2m/s | -21.1°C | 35.5% | 0hPa | 2.7V | 00:00:00 | 00:44:58 | 00:00:00 | |
| OE3JTB-15 | 2026-09-01 02:33:59 | 48.20677 | 14.44909 | 99° | 99km/h | 7023m | 7.5m/s | -21.1°C | 34.8% | 0hPa | 2.7V | 00:00:00 | 00:00:00 | 00:00:00 | |
| OE5WHR-10 | 2026-09-01 02:33:53 | 48.20692 | 14.44683 | 95° | 97km/h | 6989m | 5.6m/s | -20.8°C | 34.1% | 0hPa | 2.7V | 00:00:00 | 00:00:00 | 00:00:00 | |
| OE5MMP-10 | 2026-09-01 02:33:50 | 48.20699 | 14.44578 | 96° | 99km/h | 6974m | 4.8m/s | -20.7°C | 33.7% | 0hPa | 2.7V | 00:00:00 | 00:44:48 | 08:30:00 | |
| PETON7-10 | 2026-09-01 02:33:49 | 48.20701 | 14.44543 | 96° | 99km/h | 6969m | 4.9m/s | -20.6°C | 33.6% | 0hPa | 2.9V | 00:00:00 | 00:00:00 | 08:30:00 | |
| OE5FHM-15 | 2026-09-01 02:33:45 | 48.20705 | 14.44397 | 90° | 99km/h | 6946m | 7.2m/s | -20.4°C | 32.2% | 0hPa | 2.9V | 00:00:00 | 00:44:43 | 00:00:00 | |
| OE5HKT-10 | 2026-09-01 02:33:44 | 48.20705 | 14.44357 | 93° | 99km/h | 6939m | 6.4m/s | -20.3°C | 31.8% | 0hPa | 2.9V | 00:00:00 | 00:00:00 | 00:00:00 | |
| OE5MMP-10 | 2026-09-01 02:33:40 | 48.20709 | 14.44202 | 92° | 99km/h | 6908m | 7.0m/s | -20.0°C | 27.8% | 0hPa | 2.9V | 00:00:00 | 00:44:38 | 00:00:00 | |
| PG1ADW-2 | 2026-09-01 02:33:39 | 48.20710 | 14.44165 | 95° | 97km/h | 6902m | 5.7m/s | -20.0°C | 24.6% | 0hPa | 2.9V | 00:00:00 | 00:00:00 | 00:00:00 | |
| PETON7-10 | 2026-09-01 02:33:34 | 48.20722 | 14.43985 | 93° | 99km/h | 6870m | 7.4m/s | -19.7°C | 17.8% | 0hPa | 2.9V | 00:00:00 | 00:00:00 | 00:00:00 | |
| OE5WHR-10 | 2026-09-01 02:33:32 | 48.20723 | 14.43909 | 90° | 97km/h | 6856m | 5.8m/s | -19.6°C | 16.0% | 0hPa | 2.9V | 00:00:00 | 00:44:30 | 00:00:00 | |
| OE5MMP-10 | 2026-09-01 02:33:30 | 48.20722 | 14.43829 | 89° | 97km/h | 6843m | 6.5m/s | -19.5°C | 14.5% | 0hPa | 2.9V | 00:00:00 | 00:44:28 | 00:00:00 | |
| OE5DRO-10 | 2026-09-01 02:33:26 | 48.20720 | 14.43680 | 92° | 93km/h | 6819m | 6.1m/s | -19.3°C | 12.1% | 0hPa | 2.9V | 00:00:00 | 00:00:00 | 00:00:00 | |
| OE5HKT-10 | 2026-09-01 02:33:23 | 48.20725 | 14.43573 | 93° | 91km/h | 6799m | 8.4m/s | -19.2°C | 10.6% | 0hPa | 2.9V | 00:00:00 | 00:44:21 | 00:00:00 | |
| OE5MMP-10 | 2026-09-01 02:33:20 | 48.20726 | 14.43466 | 91° | 93km/h | 6781m | 5.3m/s | -19.1°C | 10.4% | 0hPa | 2.9V | 00:00:00 | 00:44:18 | 00:00:00 | |
| PETON7-10 | 2026-09-01 02:33:19 | 48.20726 | 14.43431 | 90° | 91km/h | 6775m | 5.0m/s | -19.0°C | 10.4% | 0hPa | 2.9V | 00:00:00 | 00:44:17 | 00:00:00 | |
| OE5FHM-15 | 2026-09-01 02:33:15 | 48.20726 | 14.43289 | 94° | 91km/h | 6755m | 5.7m/s | -18.9°C | 10.7% | 0hPa | 2.9V | 00:00:00 | 00:44:13 | 00:00:00 | |
| OE5WHR-10 | 2026-09-01 02:33:11 | 48.20736 | 14.43148 | 96° | 89km/h | 6734m | 4.5m/s | -18.8°C | 10.8% | 0hPa | 2.9V | 00:00:00 | 00:00:00 | 00:00:00 | |
| OE5MMP-10 | 2026-09-01 02:33:10 | 48.20738 | 14.43114 | 93° | 89km/h | 6729m | 4.4m/s | -18.7°C | 11.0% | 0hPa | 2.7V | 00:00:00 | 00:44:08 | 00:00:00 | |
| OE5DRO-10 | 2026-09-01 02:33:07 | 48.20737 | 14.43014 | 90° | 89km/h | 6713m | 3.6m/s | -18.7°C | 11.4% | 0hPa | 2.7V | 00:00:00 | 00:00:00 | 00:00:00 | |
| PETON7-10 | 2026-09-01 02:33:04 | 48.20743 | 14.42914 | 99° | 91km/h | 6696m | 5.3m/s | -18.5°C | 11.3% | 0hPa | 2.9V | 00:00:00 | 00:00:00 | 00:00:00 | |
| OE3JTB-15 | 2026-09-01 02:33:01 | 48.20749 | 14.42810 | 92° | 89km/h | 6673m | 6.0m/s | -18.3°C | 11.1% | 0hPa | 2.9V | 00:00:00 | 00:00:00 | 00:00:00 | |
| OE5MMP-10 | 2026-09-01 02:33:00 | 48.20749 | 14.42775 | 92° | 89km/h | 6665m | 9.2m/s | -18.3°C | 10.9% | 0hPa | 2.9V | 00:00:00 | 00:43:58 | 00:00:00 | |
| PG1ADW-2 | 2026-09-01 02:32:59 | 48.20750 | 14.42740 | 93° | 89km/h | 6655m | 10.1m/s | -18.2°C | 10.8% | 0hPa | 2.9V | 00:00:00 | 00:43:57 | 00:00:00 | |
| OE5HKT-10 | 2026-09-01 02:32:58 | 48.20751 | 14.42706 | 95° | 89km/h | 6647m | 5.8m/s | -18.1°C | 10.9% | 0hPa | 2.9V | 00:00:00 | 00:00:00 | 00:00:00 | |
| S52SK | 2026-09-01 02:32:52 | 48.20761 | 14.42539 | 94° | 89km/h | 6614m | 5.1m/s | 0°C | 0% | 0hPa | 2.9V | 00:00:00 | 00:00:00 | 00:00:00 | |
| OE5MMP-10 | 2026-09-01 02:32:50 | 48.20762 | 14.42438 | 92° | 89km/h | 6592m | 6.5m/s | -17.7°C | 10.3% | 0hPa | 2.9V | 00:00:00 | 00:43:48 | 00:00:00 | |
| PETON7-10 | 2026-09-01 02:32:49 | 48.20763 | 14.42404 | 95° | 89km/h | 6587m | 2.9m/s | -17.7°C | 10.4% | 0hPa | 2.9V | 00:00:00 | 00:00:00 | 00:00:00 | |
| OE5DRO-10 | 2026-09-01 02:32:48 | 48.20766 | 14.42369 | 97° | 89km/h | 6582m | 7.6m/s | -17.6°C | 10.3% | 0hPa | 2.9V | 00:00:00 | 00:00:00 | 00:00:00 | |
| OE5FHM-15 | 2026-09-01 02:32:45 | 48.20774 | 14.42266 | 98° | 89km/h | 6563m | 6.1m/s | -17.5°C | 10.2% | 0hPa | 2.9V | 00:00:00 | 00:43:43 | 08:30:00 | |
| OE5MMP-10 | 2026-09-01 02:32:40 | 48.20790 | 14.42104 | 97° | 89km/h | 6537m | 4.7m/s | -17.3°C | 10.1% | 0hPa | 2.7V | 00:00:00 | 00:43:38 | 00:00:00 | |
| PG1ADW-2 | 2026-09-01 02:32:39 | 48.20792 | 14.42070 | 97° | 89km/h | 6531m | 6.1m/s | -17.3°C | 9.9% | 0hPa | 2.7V | 00:00:00 | 00:00:00 | 00:00:00 | |
| PETON7-10 | 2026-09-01 02:32:34 | 48.20806 | 14.41906 | 97° | 89km/h | 6502m | 6.3m/s | -17.0°C | 9.7% | 0hPa | 2.7V | 00:00:00 | 00:43:32 | 00:00:00 | |
| OE5MMP-10 | 2026-09-01 02:32:30 | 48.20822 | 14.41768 | 101° | 89km/h | 6476m | 7.8m/s | -16.7°C | 9.3% | 0hPa | 2.7V | 00:00:00 | 00:43:28 | 00:00:00 | |
| OE5WHR-10 | 2026-09-01 02:32:29 | 48.20827 | 14.41734 | 102° | 88km/h | 6468m | 6.8m/s | -16.7°C | 9.3% | 0hPa | 2.7V | 00:00:00 | 00:43:27 | 00:00:00 | |
| OE5MMP-10 | 2026-09-01 02:32:20 | 48.20860 | 14.41436 | 101° | 89km/h | 6414m | 6.2m/s | -16.2°C | 8.7% | 0hPa | 2.7V | 00:00:00 | 00:43:18 | 08:30:00 | |
| PG1ADW-2 | 2026-09-01 02:32:19 | 48.20866 | 14.41401 | 103° | 86km/h | 6409m | 3.3m/s | -16.2°C | 8.6% | 0hPa | 2.9V | 00:00:00 | 00:00:00 | 00:00:00 | |
| PETON7-10 | 2026-09-01 02:32:18 | 48.20871 | 14.41367 | 104° | 86km/h | 6404m | 5.0m/s | -16.1°C | 8.4% | 0hPa | 2.9V | 00:00:00 | 00:00:00 | 00:00:00 | |
| OE5HKT-10 | 2026-09-01 02:32:16 | 48.20884 | 14.41299 | 109° | 86km/h | 6395m | 5.7m/s | -16.0°C | 8.1% | 0hPa | 2.9V | 00:00:00 | 00:43:14 | 00:00:00 | |
| OE5FHM-15 | 2026-09-01 02:32:15 | 48.20891 | 14.41268 | 109° | 86km/h | 6390m | 2.9m/s | -16.0°C | 8.0% | 0hPa | 2.9V | 00:00:00 | 00:43:13 | 00:00:00 | |
| OE5MMP-10 | 2026-09-01 02:32:10 | 48.20916 | 14.41114 | 98° | 84km/h | 6363m | 5.4m/s | -15.8°C | 6.9% | 0hPa | 2.9V | 00:00:00 | 00:43:08 | 00:00:00 | |
| OE5WHR-10 | 2026-09-01 02:32:08 | 48.20923 | 14.41049 | 101° | 88km/h | 6351m | 5.1m/s | -15.8°C | 5.6% | 0hPa | 2.9V | 00:00:00 | 00:00:00 | 00:00:00 | |
| OE5DXL-15 | 2026-09-01 02:32:04 | 48.20938 | 14.40924 | 104° | 84km/h | 6323m | 7.8m/s | -15.8°C | 3.1% | 0hPa | 2.9V | 00:00:00 | 00:00:00 | 00:00:00 | |
| PETON7-10 | 2026-09-01 02:32:03 | 48.20943 | 14.40894 | 105° | 84km/h | 6316m | 5.9m/s | -15.8°C | 3.0% | 0hPa | 2.9V | 00:00:00 | 00:00:00 | 00:00:00 | |
| OE5MMP-10 | 2026-09-01 02:32:00 | 48.20958 | 14.40799 | 102° | 89km/h | 6299m | 5.8m/s | -15.7°C | 2.9% | 0hPa | 2.9V | 00:00:00 | 00:42:58 | 00:00:00 | |
| PG1ADW-2 | 2026-09-01 02:31:59 | 48.20963 | 14.40765 | 101° | 86km/h | 6294m | 3.7m/s | -15.7°C | 2.9% | 0hPa | 2.9V | 00:00:00 | 00:00:00 | 00:00:00 | |
| OE5HKT-10 | 2026-09-01 02:31:55 | 48.20979 | 14.40631 | 102° | 84km/h | 6273m | 5.1m/s | -15.7°C | 3.1% | 0hPa | 2.9V | 00:00:00 | 00:00:00 | 08:30:00 | |
| OE5DRO-10 | 2026-09-01 02:31:51 | 48.21000 | 14.40501 | 102° | 80km/h | 6253m | 5.4m/s | -15.8°C | 4.1% | 0hPa | 2.9V | 00:00:00 | 00:00:00 | 00:00:00 | |
| OE5MMP-10 | 2026-09-01 02:31:50 | 48.21004 | 14.40468 | 100° | 82km/h | 6247m | 6.7m/s | -15.8°C | 4.1% | 0hPa | 2.9V | 00:00:00 | 00:42:48 | 00:00:00 | |
| OE5WHR-10 | 2026-09-01 02:31:47 | 48.21014 | 14.40374 | 102° | 77km/h | 6232m | 3.8m/s | -15.8°C | 4.2% | 0hPa | 2.7V | 00:00:00 | 00:00:00 | 00:00:00 | |
| PETON7-10 | 2026-09-01 02:31:46 | 48.21019 | 14.40343 | 104° | 78km/h | 6227m | 5.8m/s | -15.8°C | 4.2% | 0hPa | 2.7V | 00:00:00 | 00:42:44 | 00:00:00 | |
| OE5FHM-15 | 2026-09-01 02:31:45 | 48.21024 | 14.40312 | 106° | 77km/h | 6221m | 5.9m/s | -15.7°C | 4.3% | 0hPa | 2.7V | 00:00:00 | 00:42:43 | 00:00:00 | |
| OE5MMP-10 | 2026-09-01 02:31:40 | 48.21058 | 14.40170 | 112° | 75km/h | 6192m | 6.4m/s | -15.6°C | 4.2% | 0hPa | 2.7V | 00:00:00 | 00:42:38 | 00:00:00 | |
| PG1ADW-2 | 2026-09-01 02:31:39 | 48.21064 | 14.40143 | 109° | 73km/h | 6185m | 7.1m/s | -15.6°C | 4.1% | 0hPa | 2.7V | 00:00:00 | 00:42:37 | 00:00:00 | |
| OE5HKT-10 | 2026-09-01 02:31:34 | 48.21094 | 14.39999 | 109° | 73km/h | 6149m | 7.1m/s | -15.4°C | 3.9% | 0hPa | 2.7V | 00:00:00 | 00:00:00 | 00:00:00 | |
| OE5DRO-10 | 2026-09-01 02:31:32 | 48.21105 | 14.39948 | 108° | 71km/h | 6138m | 7.1m/s | -15.3°C | 3.8% | 0hPa | 2.7V | 00:00:00 | 00:00:00 | 00:00:00 | |
| PETON7-10 | 2026-09-01 02:31:30 | 48.21114 | 14.39900 | 107° | 71km/h | 6124m | 5.8m/s | -15.2°C | 3.7% | 0hPa | 2.7V | 00:00:00 | 00:00:00 | 08:30:00 | |
| S52SK | 2026-09-01 02:31:28 | 48.21119 | 14.39875 | 107° | 71km/h | 6119m | 5.4m/s | 0°C | 0% | 0hPa | 2.9V | 00:00:00 | 00:00:00 | 00:00:00 | |
| OE5WHR-10 | 2026-09-01 02:31:26 | 48.21135 | 14.39793 | 107° | 71km/h | 6102m | 4.9m/s | -15.1°C | 3.6% | 0hPa | 2.9V | 00:00:00 | 00:42:24 | 00:00:00 | |
| S52SK | 2026-09-01 02:31:22 | 48.21149 | 14.39717 | 105° | 68km/h | 6087m | 6.1m/s | 0°C | 0% | 0hPa | 2.9V | 00:00:00 | 00:00:00 | 00:00:00 | |
| OE5MMP-10 | 2026-09-01 02:31:20 | 48.21163 | 14.39638 | 105° | 73km/h | 6073m | 2.3m/s | -15.1°C | 3.5% | 0hPa | 2.9V | 00:00:00 | 00:42:18 | 00:00:00 | |
| PG1ADW-2 | 2026-09-01 02:31:19 | 48.21168 | 14.39610 | 104° | 71km/h | 6069m | 5.9m/s | -15.0°C | 3.4% | 0hPa | 2.9V | 00:00:00 | 00:00:00 | 08:30:00 | |
| OE5FHM-15 | 2026-09-01 02:31:15 | 48.21184 | 14.39498 | 99° | 69km/h | 6050m | 5.1m/s | -15.0°C | 3.2% | 0hPa | 2.9V | 00:00:00 | 00:42:13 | 00:00:00 | |
| OE5DRO-10 | 2026-09-01 02:31:13 | 48.21187 | 14.39449 | 95° | 71km/h | 6040m | 6.9m/s | -14.9°C | 3.1% | 0hPa | 2.9V | 00:00:00 | 00:00:00 | 00:00:00 | |
| OE5HKT-10 | 2026-09-01 02:31:12 | 48.21188 | 14.39423 | 96° | 71km/h | 6033m | 6.9m/s | -14.9°C | 3.1% | 0hPa | 2.7V | 00:00:00 | 00:42:10 | 00:00:00 | |
| OE5MMP-10 | 2026-09-01 02:31:10 | 48.21193 | 14.39367 | 99° | 69km/h | 6022m | 6.4m/s | -14.8°C | 3.0% | 0hPa | 2.7V | 00:00:00 | 00:42:08 | 00:00:00 | |
| OE3JTB-15 | 2026-09-01 02:31:05 | 48.21213 | 14.39240 | 107° | 69km/h | 5991m | 6.5m/s | -14.7°C | 2.7% | 0hPa | 2.7V | 00:00:00 | 00:00:00 | 00:00:00 | |
| OE5DXL-15 | 2026-09-01 02:31:04 | 48.21218 | 14.39214 | 107° | 69km/h | 5986m | 3.2m/s | -14.7°C | 2.7% | 0hPa | 2.7V | 00:00:00 | 00:00:00 | 00:00:00 | |
| PETON7-10 | 2026-09-01 02:31:01 | 48.21235 | 14.39138 | 110° | 73km/h | 5972m | 5.7m/s | -14.6°C | 2.6% | 0hPa | 2.7V | 00:00:00 | 00:00:00 | 00:00:00 | |
| OE5MMP-10 | 2026-09-01 02:31:00 | 48.21241 | 14.39111 | 109° | 69km/h | 5966m | 6.2m/s | -14.6°C | 2.6% | 0hPa | 2.7V | 00:00:00 | 00:41:58 | 00:00:00 | |
| PG1ADW-2 | 2026-09-01 02:30:59 | 48.21247 | 14.39082 | 108° | 69km/h | 5962m | 3.1m/s | -14.6°C | 2.6% | 0hPa | 2.7V | 00:00:00 | 00:00:00 | 00:00:00 | |
| OE5HKT-10 | 2026-09-01 02:30:51 | 48.21273 | 14.38879 | 100° | 69km/h | 5916m | 8.2m/s | -14.3°C | 2.7% | 0hPa | 2.7V | 00:00:00 | 00:00:00 | 00:00:00 | |
| OE5MMP-10 | 2026-09-01 02:30:50 | 48.21276 | 14.38853 | 103° | 69km/h | 5909m | 6.6m/s | -14.3°C | 2.7% | 0hPa | 2.9V | 00:00:00 | 00:41:48 | 08:30:00 | |
| PETON7-10 | 2026-09-01 02:30:46 | 48.21291 | 14.38744 | 103° | 69km/h | 5885m | 6.3m/s | -14.2°C | 2.8% | 0hPa | 2.9V | 00:00:00 | 00:41:44 | 00:00:00 | |
| OE5WHR-10 | 2026-09-01 02:30:43 | 48.21303 | 14.38670 | 107° | 69km/h | 5871m | 4.3m/s | -14.2°C | 2.8% | 0hPa | 2.9V | 00:00:00 | 00:00:00 | 00:00:00 | |
| OE5MMP-10 | 2026-09-01 02:30:40 | 48.21317 | 14.38598 | 102° | 69km/h | 5857m | 4.5m/s | -14.0°C | 2.8% | 0hPa | 2.9V | 00:00:00 | 00:41:38 | 00:00:00 | |
| PG1ADW-2 | 2026-09-01 02:30:39 | 48.21319 | 14.38575 | 99° | 69km/h | 5853m | 4.0m/s | -14.0°C | 2.8% | 0hPa | 2.9V | 00:00:00 | 00:00:00 | 00:00:00 | |
| OE3JTB-15 | 2026-09-01 02:30:36 | 48.21327 | 14.38502 | 100° | 66km/h | 5839m | 4.5m/s | -13.9°C | 2.8% | 0hPa | 2.9V | 00:00:00 | 00:41:34 | 00:00:00 | |
| OE5DRO-10 | 2026-09-01 02:30:35 | 48.21329 | 14.38475 | 98° | 69km/h | 5834m | 5.5m/s | -13.9°C | 2.8% | 0hPa | 2.9V | 00:00:00 | 00:00:00 | 00:00:00 | |
| OE5DXL-15 | 2026-09-01 02:30:34 | 48.21332 | 14.38446 | 99° | 64km/h | 5830m | 3.3m/s | -13.9°C | 2.8% | 0hPa | 2.9V | 00:00:00 | 00:00:00 | 00:00:00 | |
| PETON7-10 | 2026-09-01 02:30:31 | 48.21341 | 14.38362 | 103° | 68km/h | 5812m | 5.7m/s | 0°C | 0% | 0hPa | 2.9V | 00:00:00 | 00:00:00 | 00:00:00 | |
| OE5WHR-10 | 2026-09-01 02:30:22 | 48.21373 | 14.38132 | 104° | 60km/h | 5759m | 5.8m/s | -13.9°C | 3.3% | 0hPa | 2.9V | 00:00:00 | 00:41:20 | 00:00:00 | |
| OE5MMP-10 | 2026-09-01 02:30:20 | 48.21381 | 14.38083 | 104° | 58km/h | 5744m | 10.1m/s | -13.9°C | 3.6% | 0hPa | 2.9V | 00:00:00 | 00:41:18 | 00:00:00 | |
| PG1ADW-2 | 2026-09-01 02:30:19 | 48.21384 | 14.38059 | 100° | 58km/h | 5735m | 6.8m/s | -14.0°C | 3.8% | 0hPa | 2.9V | 00:00:00 | 00:41:17 | 00:00:00 | |
| PETON7-10 | 2026-09-01 02:30:16 | 48.21392 | 14.37993 | 102° | 58km/h | 5718m | 9.6m/s | 0°C | 0% | 0hPa | 2.9V | 00:00:00 | 00:00:00 | 00:00:00 | |
| OE5FHM-15 | 2026-09-01 02:30:12 | 48.21400 | 14.37911 | 97° | 60km/h | 5693m | 5.9m/s | -13.7°C | 4.1% | 0hPa | 2.9V | 00:00:00 | 00:41:10 | 00:00:00 | |
| OE5MMP-10 | 2026-09-01 02:30:10 | 48.21404 | 14.37868 | 97° | 60km/h | 5684m | 4.2m/s | -13.7°C | 4.1% | 0hPa | 2.9V | 00:00:00 | 00:41:08 | 00:00:00 | |
| OE5HKT-10 | 2026-09-01 02:30:09 | 48.21406 | 14.37845 | 97° | 60km/h | 5679m | 5.4m/s | -13.6°C | 4.2% | 0hPa | 2.9V | 00:00:00 | 00:41:07 | 00:00:00 | |
| DO3MHA-12 | 2026-09-01 02:30:07 | 48.21412 | 14.37798 | 104° | 58km/h | 5669m | 4.5m/s | -13.6°C | 4.3% | 0hPa | 2.9V | 00:00:00 | 00:41:05 | 00:00:00 | |
| S52SK | 2026-09-01 02:30:05 | 48.21416 | 14.37775 | 106° | 64km/h | 5664m | 4.2m/s | 0°C | 0% | 0hPa | 2.9V | 00:00:00 | 00:00:00 | 00:00:00 | |
| OE5DXL-15 | 2026-09-01 02:30:03 | 48.21428 | 14.37709 | 108° | 62km/h | 5650m | 7.4m/s | -13.5°C | 4.5% | 0hPa | 2.9V | 00:00:00 | 00:00:00 | 00:00:00 | |
| PETON7-10 | 2026-09-01 02:30:01 | 48.21436 | 14.37669 | 105° | 60km/h | 5641m | 5.5m/s | 0°C | 0% | 0hPa | 2.9V | 00:00:00 | 00:40:59 | 00:00:00 | |
| OE5MMP-10 | 2026-09-01 02:30:00 | 48.21438 | 14.37650 | 102° | 60km/h | 5636m | 3.5m/s | -13.4°C | 4.5% | 0hPa | 2.9V | 00:00:00 | 00:40:58 | 00:00:00 | |
| PG1ADW-2 | 2026-09-01 02:29:59 | 48.21441 | 14.37630 | 103° | 62km/h | 5632m | 5.0m/s | -13.3°C | 4.5% | 0hPa | 2.9V | 00:00:00 | 00:00:00 | 00:00:00 | |
| DO3MHA-12 | 2026-09-01 02:29:57 | 48.21449 | 14.37591 | 110° | 62km/h | 5622m | 5.0m/s | -13.3°C | 4.4% | 0hPa | 2.9V | 00:00:00 | 00:40:55 | 00:00:00 | |
| S52SK | 2026-09-01 02:29:54 | 48.21458 | 14.37545 | 103° | 64km/h | 5611m | 7.5m/s | 0°C | 0% | 0hPa | 2.9V | 00:00:00 | 00:00:00 | 00:00:00 | |
| OE5MMP-10 | 2026-09-01 02:29:50 | 48.21468 | 14.37426 | 94° | 64km/h | 5578m | 8.7m/s | -12.9°C | 4.4% | 0hPa | 2.9V | 00:00:00 | 00:40:48 | 00:00:00 | |
| OE5HKT-10 | 2026-09-01 02:29:48 | 48.21470 | 14.37378 | 96° | 66km/h | 5560m | 7.5m/s | -12.7°C | 4.3% | 0hPa | 2.9V | 00:00:00 | 00:00:00 | 00:00:00 | |
| PETON7-10 | 2026-09-01 02:29:46 | 48.21473 | 14.37327 | 98° | 66km/h | 5548m | 6.0m/s | 0°C | 0% | 0hPa | 2.9V | 00:00:00 | 00:00:00 | 00:00:00 | |
| OE5FHM-15 | 2026-09-01 02:29:42 | 48.21487 | 14.37234 | 107° | 64km/h | 5523m | 5.5m/s | -12.4°C | 4.2% | 0hPa | 2.9V | 00:00:00 | 00:40:40 | 00:00:00 | |
| DO3MHA-12 | 2026-09-01 02:29:41 | 48.21490 | 14.37213 | 102° | 64km/h | 5519m | 3.4m/s | -12.4°C | 4.2% | 0hPa | 2.9V | 00:00:00 | 00:40:39 | 00:00:00 | |
| OE5WHR-10 | 2026-09-01 02:29:40 | 48.21493 | 14.37190 | 99° | 64km/h | 5514m | 6.6m/s | -12.3°C | 4.1% | 0hPa | 2.9V | 00:00:00 | 00:00:00 | 00:00:00 | |
| PG1ADW-2 | 2026-09-01 02:29:39 | 48.21495 | 14.37167 | 96° | 64km/h | 5507m | 5.8m/s | -12.3°C | 4.1% | 0hPa | 2.9V | 00:00:00 | 00:00:00 | 00:00:00 | |
| OE5DRO-10 | 2026-09-01 02:29:38 | 48.21497 | 14.37142 | 96° | 66km/h | 5502m | 4.4m/s | -12.2°C | 4.1% | 0hPa | 2.9V | 00:00:00 | 00:00:00 | 00:00:00 | |
| OE5DXL-15 | 2026-09-01 02:29:33 | 48.21508 | 14.37020 | 104° | 62km/h | 5475m | 5.8m/s | -12.0°C | 4.1% | 0hPa | 2.9V | 00:00:00 | 00:00:00 | 00:00:00 | |
| DO3MHA-12 | 2026-09-01 02:29:31 | 48.21517 | 14.36971 | 106° | 66km/h | 5464m | 6.0m/s | -12.0°C | 4.1% | 0hPa | 2.9V | 00:00:00 | 00:40:29 | 00:00:00 | |
| OE5MMP-10 | 2026-09-01 02:29:30 | 48.21521 | 14.36947 | 105° | 64km/h | 5460m | 3.1m/s | -11.9°C | 4.1% | 0hPa | 2.9V | 00:00:00 | 00:40:28 | 00:00:00 | |
| OE5HKT-10 | 2026-09-01 02:29:27 | 48.21531 | 14.36870 | 96° | 60km/h | 5444m | 6.6m/s | -11.8°C | 4.3% | 0hPa | 2.9V | 00:00:00 | 00:00:00 | 00:00:00 | |
| PETON7-10 | 2026-09-01 02:29:25 | 48.21534 | 14.36822 | 94° | 62km/h | 5432m | 4.8m/s | 0°C | 0% | 0hPa | 2.9V | 00:00:00 | 00:00:00 | 00:00:00 | |
| DO3MHA-12 | 2026-09-01 02:29:21 | 48.21537 | 14.36730 | 98° | 60km/h | 5405m | 5.9m/s | -11.6°C | 4.5% | 0hPa | 2.9V | 00:00:00 | 00:40:19 | 08:30:00 | |
| OE5MMP-10 | 2026-09-01 02:29:20 | 48.21539 | 14.36706 | 101° | 60km/h | 5398m | 7.9m/s | -11.5°C | 4.5% | 0hPa | 2.9V | 00:00:00 | 00:40:18 | 08:30:00 | |
| OE5WHR-10 | 2026-09-01 02:29:19 | 48.21542 | 14.36683 | 103° | 58km/h | 5390m | 6.9m/s | -11.5°C | 4.5% | 0hPa | 2.9V | 00:00:00 | 00:40:17 | 00:00:00 | |
| OE5FHM-15 | 2026-09-01 02:29:12 | 48.21556 | 14.36525 | 96° | 58km/h | 5343m | 8.7m/s | -11.2°C | 4.6% | 0hPa | 2.9V | 00:00:00 | 00:40:10 | 00:00:00 | |
| DO3MHA-12 | 2026-09-01 02:29:11 | 48.21558 | 14.36504 | 101° | 60km/h | 5336m | 6.3m/s | -11.1°C | 4.7% | 0hPa | 2.9V | 00:00:00 | 00:40:09 | 00:00:00 | |
| OE5MMP-10 | 2026-09-01 02:29:10 | 48.21560 | 14.36483 | 105° | 60km/h | 5329m | 5.7m/s | -11.1°C | 4.7% | 0hPa | 2.9V | 00:00:00 | 00:40:08 | 00:00:00 | |
| OE3JTB-15 | 2026-09-01 02:29:09 | 48.21564 | 14.36461 | 107° | 60km/h | 5323m | 6.2m/s | -11.1°C | 4.7% | 0hPa | 2.9V | 00:00:00 | 00:40:07 | 00:00:00 | |
| OE5HKT-10 | 2026-09-01 02:29:06 | 48.21582 | 14.36395 | 113° | 58km/h | 5307m | 8.3m/s | -10.9°C | 4.8% | 0hPa | 2.9V | 00:00:00 | 00:40:04 | 00:00:00 | |
| OE5DXL-15 | 2026-09-01 02:29:03 | 48.21596 | 14.36330 | 103° | 58km/h | 5286m | 7.2m/s | -10.9°C | 5.6% | 0hPa | 2.9V | 00:00:00 | 00:00:00 | 00:00:00 | |
| DO3MHA-12 | 2026-09-01 02:29:01 | 48.21601 | 14.36289 | 102° | 57km/h | 5273m | 7.1m/s | -10.8°C | 6.4% | 0hPa | 2.9V | 00:00:00 | 00:39:59 | 00:00:00 | |
| OE5MMP-10 | 2026-09-01 02:29:00 | 48.21604 | 14.36270 | 106° | 58km/h | 5265m | 7.2m/s | -10.8°C | 7.0% | 0hPa | 2.9V | 00:00:00 | 00:39:58 | 00:00:00 | |
| PG1ADW-2 | 2026-09-01 02:28:59 | 48.21608 | 14.36251 | 109° | 60km/h | 5259m | 5.4m/s | -10.7°C | 7.5% | 0hPa | 2.9V | 00:00:00 | 00:39:57 | 00:00:00 | |
| OE5WHR-10 | 2026-09-01 02:28:58 | 48.21612 | 14.36232 | 109° | 60km/h | 5253m | 7.4m/s | -10.7°C | 7.6% | 0hPa | 2.9V | 00:00:00 | 00:00:00 | 00:00:00 | |
| DO3MHA-12 | 2026-09-01 02:28:51 | 48.21646 | 14.36083 | 112° | 60km/h | 5208m | 5.3m/s | -10.5°C | 13.4% | 0hPa | 2.9V | 00:00:00 | 00:39:49 | 00:00:00 | |
| OE5MMP-10 | 2026-09-01 02:28:50 | 48.21652 | 14.36061 | 109° | 60km/h | 5202m | 6.7m/s | -10.4°C | 16.9% | 0hPa | 2.9V | 00:00:00 | 00:39:48 | 00:00:00 | |
| OE5HKT-10 | 2026-09-01 02:28:45 | 48.21669 | 14.35951 | 101° | 57km/h | 5167m | 6.2m/s | -10.3°C | 22.0% | 0hPa | 2.9V | 00:00:00 | 00:00:00 | 08:30:00 | |
| OE5FHM-15 | 2026-09-01 02:28:42 | 48.21680 | 14.35882 | 103° | 57km/h | 5151m | 6.4m/s | -10.1°C | 19.3% | 0hPa | 2.9V | 00:00:00 | 00:39:40 | 00:00:00 | |
| DO3MHA-12 | 2026-09-01 02:28:41 | 48.21683 | 14.35859 | 101° | 57km/h | 5144m | 6.0m/s | -10.1°C | 17.2% | 0hPa | 2.9V | 00:00:00 | 00:39:39 | 00:00:00 | |
| OE5MMP-10 | 2026-09-01 02:28:40 | 48.21686 | 14.35836 | 102° | 55km/h | 5138m | 7.0m/s | -10.0°C | 15.6% | 0hPa | 2.9V | 00:00:00 | 00:39:38 | 00:00:00 | |
| PG1ADW-2 | 2026-09-01 02:28:39 | 48.21690 | 14.35812 | 104° | 55km/h | 5130m | 8.6m/s | -9.9°C | 15.1% | 0hPa | 2.9V | 00:00:00 | 00:00:00 | 00:00:00 | |
| OE5WHR-10 | 2026-09-01 02:28:37 | 48.21695 | 14.35768 | 98° | 55km/h | 5119m | 4.4m/s | -9.8°C | 11.8% | 0hPa | 2.9V | 00:00:00 | 00:00:00 | 00:00:00 | |
| S52SK | 2026-09-01 02:28:34 | 48.21699 | 14.35728 | 100° | 51km/h | 5108m | 6.3m/s | 0°C | 0% | 0hPa | 2.9V | 00:00:00 | 00:00:00 | 00:00:00 | |
| OE5DXL-15 | 2026-09-01 02:28:33 | 48.21702 | 14.35690 | 93° | 57km/h | 5097m | 7.1m/s | -9.6°C | 9.9% | 0hPa | 2.9V | 00:00:00 | 00:00:00 | 00:00:00 | |
| DO3MHA-12 | 2026-09-01 02:28:31 | 48.21703 | 14.35649 | 93° | 53km/h | 5083m | 10.3m/s | -9.5°C | 11.7% | 0hPa | 2.9V | 00:00:00 | 00:39:29 | 00:00:00 | |
| OE5MMP-10 | 2026-09-01 02:28:30 | 48.21704 | 14.35630 | 97° | 55km/h | 5073m | 9.2m/s | -9.5°C | 12.2% | 0hPa | 2.9V | 00:00:00 | 00:39:28 | 00:00:00 | |
| S52SK | 2026-09-01 02:28:28 | 48.21706 | 14.35611 | 102° | 51km/h | 5065m | 8.0m/s | 0°C | 0% | 0hPa | 2.9V | 00:00:00 | 00:00:00 | 00:00:00 | |
| OE5HKT-10 | 2026-09-01 02:28:24 | 48.21720 | 14.35511 | 100° | 58km/h | 5035m | 5.7m/s | -9.3°C | 14.5% | 0hPa | 2.9V | 00:00:00 | 00:00:00 | 00:00:00 | |
| OE5DRO-10 | 2026-09-01 02:28:22 | 48.21724 | 14.35469 | 99° | 58km/h | 5022m | 7.0m/s | -9.2°C | 11.3% | 0hPa | 2.9V | 00:00:00 | 00:00:00 | 00:00:00 | |
| DO3MHA-12 | 2026-09-01 02:28:21 | 48.21726 | 14.35448 | 102° | 58km/h | 5014m | 8.4m/s | -9.1°C | 7.3% | 0hPa | 2.7V | 00:00:00 | 00:39:19 | 00:00:00 | |
| OE5MMP-10 | 2026-09-01 02:28:20 | 48.21729 | 14.35429 | 102° | 60km/h | 5007m | 4.7m/s | -9.0°C | 6.2% | 0hPa | 2.9V | 00:00:00 | 00:39:18 | 00:00:00 | |
| PG1ADW-2 | 2026-09-01 02:28:19 | 48.21732 | 14.35408 | 101° | 58km/h | 5002m | 6.3m/s | -9.0°C | 5.6% | 0hPa | 2.9V | 00:00:00 | 00:00:00 | 08:30:00 | |
| OE5WHR-10 | 2026-09-01 02:28:16 | 48.21740 | 14.35342 | 100° | 57km/h | 4985m | 7.0m/s | -8.8°C | 5.7% | 0hPa | 2.9V | 00:00:00 | 00:39:14 | 00:00:00 | |
| OE5FHM-15 | 2026-09-01 02:28:12 | 48.21745 | 14.35248 | 93° | 55km/h | 4956m | 5.8m/s | -8.7°C | 6.3% | 0hPa | 2.9V | 00:00:00 | 00:39:10 | 08:30:00 | |
| DO3MHA-12 | 2026-09-01 02:28:11 | 48.21745 | 14.35226 | 89° | 57km/h | 4950m | 6.1m/s | -8.7°C | 6.4% | 0hPa | 2.9V | 00:00:00 | 00:39:09 | 00:00:00 | |
| OE5MMP-10 | 2026-09-01 02:28:10 | 48.21745 | 14.35205 | 86° | 57km/h | 4943m | 6.7m/s | -8.6°C | 6.4% | 0hPa | 2.9V | 00:00:00 | 00:39:08 | 00:00:00 | |
| OE5HKT-10 | 2026-09-01 02:28:01 | 48.21757 | 14.35012 | 100° | 55km/h | 4889m | 6.3m/s | -8.3°C | 8.0% | 0hPa | 2.9V | 00:00:00 | 00:38:59 | 00:00:00 | |
| OE5MMP-10 | 2026-09-01 02:28:00 | 48.21759 | 14.34992 | 102° | 53km/h | 4882m | 6.1m/s | -8.3°C | 8.2% | 0hPa | 2.9V | 00:00:00 | 00:38:58 | 00:00:00 | |
| PG1ADW-2 | 2026-09-01 02:27:59 | 48.21762 | 14.34972 | 100° | 55km/h | 4877m | 4.0m/s | -8.3°C | 8.3% | 0hPa | 2.9V | 00:00:00 | 00:00:00 | 00:00:00 | |
| OE5WHR-10 | 2026-09-01 02:27:55 | 48.21765 | 14.34893 | 92° | 55km/h | 4856m | 4.2m/s | -8.2°C | 8.6% | 0hPa | 2.9V | 00:00:00 | 00:00:00 | 08:30:00 | |
| DO3MHA-12 | 2026-09-01 02:27:50 | 48.21781 | 14.34795 | 110° | 57km/h | 4827m | 8.4m/s | -7.9°C | 8.5% | 0hPa | 2.9V | 00:00:00 | 00:38:48 | 08:30:00 | |
| OE5DRO-10 | 2026-09-01 02:27:44 | 48.21806 | 14.34674 | 104° | 53km/h | 4791m | 5.4m/s | -7.7°C | 8.5% | 0hPa | 2.9V | 00:00:00 | 00:00:00 | 00:00:00 | |
| OE5FHM-15 | 2026-09-01 02:27:42 | 48.21811 | 14.34630 | 98° | 53km/h | 4779m | 6.3m/s | -7.6°C | 8.6% | 0hPa | 2.9V | 00:00:00 | 00:38:40 | 00:00:00 | |
| PG1ADW-2 | 2026-09-01 02:27:39 | 48.21816 | 14.34567 | 94° | 51km/h | 4758m | 7.7m/s | -7.5°C | 8.7% | 0hPa | 2.9V | 00:00:00 | 00:38:37 | 00:00:00 | |
| OE5WHR-10 | 2026-09-01 02:27:34 | 48.21819 | 14.34469 | 97° | 53km/h | 4728m | 8.6m/s | -7.3°C | 8.6% | 0hPa | 2.9V | 00:00:00 | 00:00:00 | 00:00:00 | |
| OE5DXL-15 | 2026-09-01 02:27:33 | 48.21821 | 14.34450 | 101° | 53km/h | 4720m | 7.2m/s | -7.2°C | 8.7% | 0hPa | 2.9V | 00:00:00 | 00:00:00 | 00:00:00 | |
| OE5MMP-10 | 2026-09-01 02:27:30 | 48.21826 | 14.34397 | 93° | 51km/h | 4698m | 7.6m/s | -7.2°C | 9.5% | 0hPa | 2.9V | 00:00:00 | 00:38:28 | 00:00:00 | |
| OE5DRO-10 | 2026-09-01 02:27:25 | 48.21833 | 14.34303 | 105° | 55km/h | 4669m | 5.9m/s | -7.0°C | 9.8% | 0hPa | 2.9V | 00:00:00 | 00:00:00 | 00:00:00 | |
| OE5MMP-10 | 2026-09-01 02:27:20 | 48.21843 | 14.34203 | 99° | 55km/h | 4639m | 9.4m/s | -6.8°C | 10.5% | 0hPa | 2.9V | 00:00:00 | 00:38:18 | 00:00:00 | |
| OE5HKT-10 | 2026-09-01 02:27:19 | 48.21845 | 14.34182 | 100° | 53km/h | 4630m | 8.3m/s | -6.9°C | 11.2% | 0hPa | 2.9V | 00:00:00 | 00:00:00 | 00:00:00 | |
| PETON7-10 | 2026-09-01 02:27:15 | 48.21854 | 14.34096 | 99° | 53km/h | 4602m | 3.1m/s | 0°C | 0% | 0hPa | 2.9V | 00:00:00 | 00:00:00 | 00:00:00 | |
| OE5WHR-10 | 2026-09-01 02:27:13 | 48.21858 | 14.34056 | 103° | 53km/h | 4592m | 3.9m/s | -6.7°C | 10.9% | 0hPa | 2.9V | 00:00:00 | 00:38:11 | 00:00:00 | |
| OE5FHM-15 | 2026-09-01 02:27:12 | 48.21861 | 14.34037 | 106° | 55km/h | 4587m | 7.3m/s | -6.6°C | 10.5% | 0hPa | 2.9V | 00:00:00 | 00:38:10 | 00:00:00 | |
| DO3MHA-12 | 2026-09-01 02:27:10 | 48.21870 | 14.33997 | 110° | 53km/h | 4574m | 5.9m/s | -6.6°C | 9.8% | 0hPa | 2.9V | 00:00:00 | 00:38:08 | 00:00:00 | |
| S52SK | 2026-09-01 02:27:08 | 48.21875 | 14.33977 | 111° | 60km/h | 4568m | 5.7m/s | 0°C | 0% | 0hPa | 2.9V | 00:00:00 | 00:00:00 | 00:00:00 | |
| OE5DRO-10 | 2026-09-01 02:27:06 | 48.21891 | 14.33916 | 110° | 53km/h | 4553m | 3.4m/s | -6.4°C | 9.3% | 0hPa | 2.9V | 00:00:00 | 00:00:00 | 00:00:00 | |
| S52SK | 2026-09-01 02:27:02 | 48.21901 | 14.33861 | 105° | 46km/h | 4541m | 5.0m/s | 0°C | 0% | 0hPa | 2.9V | 00:00:00 | 00:00:00 | 00:00:00 | |
| DO3MHA-12 | 2026-09-01 02:27:00 | 48.21913 | 14.33812 | 113° | 53km/h | 4523m | 5.0m/s | -6.2°C | 11.0% | 0hPa | 2.9V | 00:00:00 | 00:37:58 | 00:00:00 | |
| PG1ADW-2 | 2026-09-01 02:26:59 | 48.21918 | 14.33793 | 109° | 55km/h | 4515m | 9.2m/s | -6.2°C | 11.5% | 0hPa | 2.9V | 00:00:00 | 00:00:00 | 00:00:00 | |
| OE5HKT-10 | 2026-09-01 02:26:57 | 48.21925 | 14.33753 | 104° | 55km/h | 4501m | 7.2m/s | -6.1°C | 11.7% | 0hPa | 2.9V | 00:00:00 | 00:37:55 | 00:00:00 | |
| OE5WHR-10 | 2026-09-01 02:26:52 | 48.21934 | 14.33655 | 98° | 57km/h | 4468m | 4.3m/s | -6.1°C | 14.2% | 0hPa | 2.9V | 00:00:00 | 00:00:00 | 00:00:00 | |
| DO3MHA-12 | 2026-09-01 02:26:50 | 48.21939 | 14.33614 | 100° | 55km/h | 4456m | 6.5m/s | -6.0°C | 14.5% | 0hPa | 2.9V | 00:00:00 | 00:37:48 | 00:00:00 | |
| OE5DRO-10 | 2026-09-01 02:26:47 | 48.21949 | 14.33551 | 111° | 57km/h | 4437m | 5.1m/s | -5.9°C | 15.4% | 0hPa | 2.9V | 00:00:00 | 00:00:00 | 00:00:00 | |
| OE3JTB-15 | 2026-09-01 02:26:44 | 48.21964 | 14.33492 | 109° | 55km/h | 4421m | 5.5m/s | -5.8°C | 15.5% | 0hPa | 2.9V | 00:00:00 | 00:00:00 | 00:00:00 | |
| OE5FHM-15 | 2026-09-01 02:26:42 | 48.21972 | 14.33452 | 106° | 55km/h | 4409m | 5.6m/s | -5.7°C | 15.4% | 0hPa | 2.9V | 00:00:00 | 00:37:40 | 00:00:00 | |
| OE5MMP-10 | 2026-09-01 02:26:40 | 48.21980 | 14.33413 | 107° | 55km/h | 4396m | 5.7m/s | -5.6°C | 15.6% | 0hPa | 2.9V | 00:00:00 | 00:37:38 | 00:00:00 | |
| PG1ADW-2 | 2026-09-01 02:26:39 | 48.21984 | 14.33393 | 105° | 57km/h | 4389m | 6.6m/s | -5.5°C | 15.4% | 0hPa | 2.9V | 00:00:00 | 00:00:00 | 00:00:00 | |
| OE5HKT-10 | 2026-09-01 02:26:36 | 48.21995 | 14.33331 | 106° | 55km/h | 4370m | 7.5m/s | -5.4°C | 14.9% | 0hPa | 2.9V | 00:00:00 | 00:00:00 | 00:00:00 | |
| OE5DXL-15 | 2026-09-01 02:26:33 | 48.22005 | 14.33269 | 103° | 55km/h | 4351m | 7.0m/s | -5.2°C | 14.7% | 0hPa | 2.9V | 00:00:00 | 00:00:00 | 00:00:00 | |
| OE5WHR-10 | 2026-09-01 02:26:31 | 48.22010 | 14.33228 | 100° | 55km/h | 4339m | 6.0m/s | -5.0°C | 14.5% | 0hPa | 2.9V | 00:00:00 | 00:00:00 | 00:00:00 | |
| DO3MHA-12 | 2026-09-01 02:26:30 | 48.22013 | 14.33207 | 100° | 55km/h | 4333m | 6.1m/s | -5.0°C | 14.5% | 0hPa | 2.9V | 00:00:00 | 00:37:28 | 00:00:00 | |
| OE5DRO-10 | 2026-09-01 02:26:28 | 48.22019 | 14.33164 | 108° | 55km/h | 4321m | 6.0m/s | -4.9°C | 14.3% | 0hPa | 2.9V | 00:00:00 | 00:00:00 | 08:30:00 | |
| DO3MHA-12 | 2026-09-01 02:26:20 | 48.22047 | 14.33004 | 105° | 57km/h | 4268m | 6.4m/s | -4.4°C | 14.6% | 0hPa | 2.9V | 00:00:00 | 00:37:18 | 08:30:00 | |
| PG1ADW-2 | 2026-09-01 02:26:19 | 48.22050 | 14.32984 | 107° | 55km/h | 4262m | 5.0m/s | -4.4°C | 14.9% | 0hPa | 2.9V | 00:00:00 | 00:37:17 | 00:00:00 | |
| OE5HKT-10 | 2026-09-01 02:26:15 | 48.22057 | 14.32908 | 92° | 57km/h | 4237m | 4.9m/s | -4.3°C | 16.6% | 0hPa | 2.9V | 00:00:00 | 00:00:00 | 00:00:00 | |
| OE5FHM-15 | 2026-09-01 02:26:12 | 48.22060 | 14.32839 | 95° | 55km/h | 4218m | 7.0m/s | -4.2°C | 16.4% | 0hPa | 2.9V | 00:00:00 | 00:37:10 | 00:00:00 | |
| OE5MMP-10 | 2026-09-01 02:26:10 | 48.22063 | 14.32794 | 97° | 55km/h | 4206m | 4.8m/s | -4.1°C | 16.3% | 0hPa | 2.9V | 00:00:00 | 00:37:08 | 00:00:00 | |
| OE5DRO-10 | 2026-09-01 02:26:09 | 48.22065 | 14.32773 | 100° | 53km/h | 4200m | 6.5m/s | -4.0°C | 15.9% | 0hPa | 2.9V | 00:00:00 | 00:00:00 | 00:00:00 | |
| DO3MHA-12 | 2026-09-01 02:26:06 | 48.22077 | 14.32716 | 107° | 57km/h | 4184m | 5.5m/s | -3.9°C | 15.8% | 0hPa | 2.9V | 00:00:00 | 00:37:04 | 00:00:00 | |
| OE5DXL-15 | 2026-09-01 02:26:03 | 48.22085 | 14.32655 | 102° | 53km/h | 4166m | 6.0m/s | -3.8°C | 16.6% | 0hPa | 2.9V | 00:00:00 | 00:00:00 | 00:00:00 | |
| OE5MMP-10 | 2026-09-01 02:26:00 | 48.22095 | 14.32593 | 103° | 53km/h | 4146m | 9.8m/s | -3.8°C | 18.3% | 0hPa | 2.9V | 00:00:00 | 00:36:58 | 00:00:00 | |
| PG1ADW-2 | 2026-09-01 02:25:59 | 48.22098 | 14.32572 | 101° | 53km/h | 4137m | 7.9m/s | -3.8°C | 20.6% | 0hPa | 2.9V | 00:00:00 | 00:00:00 | 00:00:00 | |
| DO3MHA-12 | 2026-09-01 02:25:56 | 48.22106 | 14.32508 | 101° | 49km/h | 4120m | 3.2m/s | 0°C | 0% | 0hPa | 2.9V | 00:00:00 | 00:36:54 | 00:00:00 | |
| OE5HKT-10 | 2026-09-01 02:25:54 | 48.22109 | 14.32470 | 95° | 53km/h | 4109m | 4.1m/s | -3.9°C | 24.0% | 0hPa | 2.9V | 00:00:00 | 00:36:52 | 00:00:00 | |
| OE5MMP-10 | 2026-09-01 02:25:50 | 48.22115 | 14.32399 | 99° | 53km/h | 4091m | 5.6m/s | -3.8°C | 25.0% | 0hPa | 2.9V | 00:00:00 | 00:36:48 | 00:00:00 | |
| OE5WHR-10 | 2026-09-01 02:25:49 | 48.22116 | 14.32381 | 98° | 55km/h | 4085m | 5.2m/s | -3.8°C | 25.0% | 0hPa | 2.9V | 00:00:00 | 00:00:00 | 00:00:00 | |
| DO3MHA-12 | 2026-09-01 02:25:46 | 48.22123 | 14.32321 | 103° | 55km/h | 4069m | 8.0m/s | 0°C | 0% | 0hPa | 2.9V | 00:00:00 | 00:36:44 | 00:00:00 | |
| OE5FHM-15 | 2026-09-01 02:25:42 | 48.22139 | 14.32241 | 108° | 51km/h | 4041m | 6.4m/s | -3.9°C | 28.1% | 0hPa | 2.9V | 00:00:00 | 00:36:40 | 00:00:00 | |
| OE5MMP-10 | 2026-09-01 02:25:40 | 48.22145 | 14.32201 | 101° | 55km/h | 4031m | 5.2m/s | -3.8°C | 28.1% | 0hPa | 2.9V | 00:00:00 | 00:36:38 | 00:00:00 | |
| PG1ADW-2 | 2026-09-01 02:25:39 | 48.22148 | 14.32180 | 100° | 53km/h | 4025m | 4.7m/s | -3.9°C | 29.0% | 0hPa | 2.9V | 00:00:00 | 00:00:00 | 00:00:00 | |
| DO3MHA-12 | 2026-09-01 02:25:35 | 48.22155 | 14.32103 | 98° | 55km/h | 4002m | 10.0m/s | 0°C | 0% | 0hPa | 2.9V | 00:00:00 | 00:36:33 | 00:00:00 | |
| OE5DXL-15 | 2026-09-01 02:25:33 | 48.22158 | 14.32061 | 95° | 55km/h | 3985m | 5.5m/s | -3.7°C | 29.0% | 0hPa | 2.9V | 00:00:00 | 00:00:00 | 00:00:00 | |
| OE5DRO-10 | 2026-09-01 02:25:31 | 48.22160 | 14.32019 | 96° | 51km/h | 3975m | 3.9m/s | -3.6°C | 28.6% | 0hPa | 2.9V | 00:00:00 | 00:00:00 | 00:00:00 | |
| OE5MMP-10 | 2026-09-01 02:25:30 | 48.22162 | 14.31997 | 100° | 55km/h | 3970m | 5.9m/s | -3.6°C | 28.8% | 0hPa | 2.9V | 00:00:00 | 00:36:28 | 00:00:00 | |
| OE5WHR-10 | 2026-09-01 02:25:28 | 48.22167 | 14.31956 | 98° | 53km/h | 3961m | 5.3m/s | -3.6°C | 29.8% | 0hPa | 2.9V | 00:00:00 | 00:00:00 | 00:00:00 | |
| DO3MHA-12 | 2026-09-01 02:25:25 | 48.22170 | 14.31891 | 97° | 49km/h | 3944m | 6.4m/s | 0°C | 0% | 0hPa | 2.9V | 00:00:00 | 00:36:23 | 00:00:00 | |
| OE5MMP-10 | 2026-09-01 02:25:20 | 48.22184 | 14.31796 | 97° | 49km/h | 3916m | 5.4m/s | -3.4°C | 30.6% | 0hPa | 2.9V | 00:00:00 | 00:36:18 | 00:00:00 | |
| PG1ADW-2 | 2026-09-01 02:25:19 | 48.22185 | 14.31778 | 94° | 55km/h | 3909m | 7.9m/s | -3.3°C | 29.9% | 0hPa | 2.9V | 00:00:00 | 00:00:00 | 08:30:00 | |
| OE3JTB-15 | 2026-09-01 02:25:17 | 48.22187 | 14.31742 | 98° | 55km/h | 3898m | 4.2m/s | -3.3°C | 31.1% | 0hPa | 2.9V | 00:00:00 | 00:00:00 | 00:00:00 | |
| DO3MHA-12 | 2026-09-01 02:25:15 | 48.22190 | 14.31710 | 97° | 58km/h | 3887m | 4.4m/s | 0°C | 0% | 0hPa | 2.9V | 00:00:00 | 00:36:13 | 00:00:00 | |
| OE5HKT-10 | 2026-09-01 02:25:12 | 48.22195 | 14.31654 | 103° | 57km/h | 3873m | 5.3m/s | -3.2°C | 35.5% | 0hPa | 2.9V | 00:00:00 | 00:00:00 | 00:00:00 | |
| OE5FHM-15 | 2026-09-01 02:25:11 | 48.22198 | 14.31634 | 105° | 57km/h | 3868m | 5.9m/s | -3.2°C | 35.7% | 0hPa | 2.9V | 00:00:00 | 00:36:09 | 00:00:00 | |
| OE5MMP-10 | 2026-09-01 02:25:10 | 48.22202 | 14.31612 | 105° | 60km/h | 3862m | 5.1m/s | -3.2°C | 36.0% | 0hPa | 2.9V | 00:00:00 | 00:36:08 | 00:00:00 | |
| OE5WHR-10 | 2026-09-01 02:25:07 | 48.22213 | 14.31545 | 105° | 57km/h | 3848m | 3.8m/s | -3.1°C | 38.3% | 0hPa | 2.9V | 00:00:00 | 00:36:05 | 00:00:00 | |
| DO3MHA-12 | 2026-09-01 02:25:04 | 48.22224 | 14.31473 | 101° | 57km/h | 3835m | 2.2m/s | 0°C | 0% | 0hPa | 2.9V | 00:00:00 | 00:36:02 | 00:00:00 | |
| OE5DXL-15 | 2026-09-01 02:25:03 | 48.22227 | 14.31450 | 101° | 55km/h | 3832m | 4.8m/s | -2.9°C | 38.1% | 0hPa | 2.9V | 00:00:00 | 00:00:00 | 00:00:00 | |
| OE5MMP-10 | 2026-09-01 02:25:00 | 48.22232 | 14.31389 | 97° | 55km/h | 3816m | 4.0m/s | -2.7°C | 37.8% | 0hPa | 2.9V | 00:00:00 | 00:35:58 | 00:00:00 | |
| PG1ADW-2 | 2026-09-01 02:24:59 | 48.22234 | 14.31371 | 99° | 55km/h | 3811m | 5.8m/s | -2.7°C | 37.4% | 0hPa | 2.9V | 00:00:00 | 00:35:57 | 00:00:00 | |
| OE5DRO-10 | 2026-09-01 02:24:53 | 48.22250 | 14.31248 | 101° | 55km/h | 3776m | 5.6m/s | -2.4°C | 38.5% | 0hPa | 2.9V | 00:00:00 | 00:00:00 | 00:00:00 | |
| OE5HKT-10 | 2026-09-01 02:24:51 | 48.22253 | 14.31206 | 95° | 55km/h | 3764m | 5.6m/s | -2.4°C | 41.4% | 0hPa | 2.9V | 00:00:00 | 00:35:49 | 00:00:00 | |
| OE5MMP-10 | 2026-09-01 02:24:50 | 48.22255 | 14.31184 | 98° | 55km/h | 3758m | 6.5m/s | -2.5°C | 42.8% | 0hPa | 2.9V | 00:00:00 | 00:35:48 | 08:30:00 | |
| DO3MHA-12 | 2026-09-01 02:24:48 | 48.22259 | 14.31142 | 100° | 57km/h | 3747m | 4.3m/s | 0°C | 0% | 0hPa | 2.9V | 00:00:00 | 00:35:46 | 00:00:00 | |
| OE5WHR-10 | 2026-09-01 02:24:46 | 48.22264 | 14.31099 | 100° | 55km/h | 3736m | 8.2m/s | -2.6°C | 45.3% | 0hPa | 2.9V | 00:00:00 | 00:00:00 | 08:30:00 | |
| OE5FHM-15 | 2026-09-01 02:24:41 | 48.22277 | 14.30996 | 102° | 57km/h | 3707m | 6.8m/s | -2.7°C | 46.2% | 0hPa | 2.9V | 00:00:00 | 00:35:39 | 00:00:00 | |
| OE5MMP-10 | 2026-09-01 02:24:40 | 48.22280 | 14.30979 | 99° | 55km/h | 3701m | 5.6m/s | -2.7°C | 45.4% | 0hPa | 2.9V | 00:00:00 | 00:35:38 | 00:00:00 | |
| PG1ADW-2 | 2026-09-01 02:24:39 | 48.22282 | 14.30961 | 100° | 55km/h | 3695m | 6.4m/s | -2.7°C | 45.5% | 0hPa | 2.9V | 00:00:00 | 00:00:00 | 00:00:00 | |
| DO3MHA-12 | 2026-09-01 02:24:38 | 48.22283 | 14.30944 | 99° | 55km/h | 3688m | 7.7m/s | 0°C | 0% | 0hPa | 2.9V | 00:00:00 | 00:35:36 | 00:00:00 | |
| OE5DRO-10 | 2026-09-01 02:24:34 | 48.22287 | 14.30859 | 95° | 57km/h | 3665m | 5.7m/s | -2.6°C | 44.3% | 0hPa | 2.9V | 00:00:00 | 00:00:00 | 00:00:00 | |
| OE5DXL-15 | 2026-09-01 02:24:33 | 48.22289 | 14.30837 | 97° | 57km/h | 3660m | 4.0m/s | -2.6°C | 42.2% | 0hPa | 2.9V | 00:00:00 | 00:00:00 | 00:00:00 | |
| OE5MMP-10 | 2026-09-01 02:24:30 | 48.22296 | 14.30771 | 103° | 55km/h | 3647m | 2.7m/s | -2.5°C | 39.8% | 0hPa | 2.9V | 00:00:00 | 00:35:28 | 00:00:00 | |
| OE5WHR-10 | 2026-09-01 02:24:25 | 48.22314 | 14.30673 | 106° | 58km/h | 3629m | 4.8m/s | -2.4°C | 36.8% | 0hPa | 2.9V | 00:00:00 | 00:00:00 | 00:00:00 | |
| OE5MMP-10 | 2026-09-01 02:24:20 | 48.22331 | 14.30572 | 99° | 60km/h | 3598m | 6.1m/s | -2.2°C | 36.3% | 0hPa | 2.9V | 00:00:00 | 00:35:18 | 00:00:00 | |
| OE3JTB-15 | 2026-09-01 02:24:19 | 48.22333 | 14.30548 | 96° | 60km/h | 3592m | 4.6m/s | -2.1°C | 36.5% | 0hPa | 2.9V | 00:00:00 | 00:00:00 | 00:00:00 | |
| OE5DRO-10 | 2026-09-01 02:24:15 | 48.22343 | 14.30458 | 104° | 57km/h | 3570m | 5.9m/s | -1.9°C | 36.1% | 0hPa | 2.9V | 00:00:00 | 00:00:00 | 00:00:00 | |
| OE5MMP-10 | 2026-09-01 02:24:10 | 48.22352 | 14.30344 | 98° | 57km/h | 3539m | 4.6m/s | -1.7°C | 37.2% | 0hPa | 2.9V | 00:00:00 | 00:35:08 | 00:00:00 | |
| OE5HKT-10 | 2026-09-01 02:24:09 | 48.22355 | 14.30321 | 100° | 60km/h | 3534m | 5.3m/s | -1.7°C | 36.5% | 0hPa | 2.9V | 00:00:00 | 00:00:00 | 00:00:00 | |
| OE5WHR-10 | 2026-09-01 02:24:04 | 48.22371 | 14.30220 | 106° | 62km/h | 3508m | 3.2m/s | -1.8°C | 33.2% | 0hPa | 2.9V | 00:00:00 | 00:35:02 | 00:00:00 | |
| OE5DXL-15 | 2026-09-01 02:24:03 | 48.22375 | 14.30200 | 106° | 64km/h | 3505m | 3.4m/s | -1.8°C | 33.6% | 0hPa | 2.9V | 00:00:00 | 00:00:00 | 00:00:00 | |
| OE5MMP-10 | 2026-09-01 02:24:00 | 48.22385 | 14.30139 | 105° | 62km/h | 3493m | 5.3m/s | -2.0°C | 33.4% | 0hPa | 2.9V | 00:00:00 | 00:34:58 | 00:00:00 | |
| PG1ADW-2 | 2026-09-01 02:23:59 | 48.22388 | 14.30118 | 102° | 66km/h | 3488m | 4.3m/s | -2.1°C | 35.0% | 0hPa | 2.9V | 00:00:00 | 00:00:00 | 00:00:00 | |
| OE5DRO-10 | 2026-09-01 02:23:56 | 48.22395 | 14.30051 | 99° | 68km/h | 3472m | 6.7m/s | -2.4°C | 45.5% | 0hPa | 2.9V | 00:00:00 | 00:00:00 | 00:00:00 | |
| OE5MMP-10 | 2026-09-01 02:23:50 | 48.22407 | 14.29906 | 96° | 68km/h | 3436m | 4.8m/s | -2.6°C | 61.1% | 0hPa | 2.9V | 00:00:00 | 00:34:48 | 00:00:00 | |
| OE5HKT-10 | 2026-09-01 02:23:48 | 48.22410 | 14.29855 | 98° | 68km/h | 3425m | 5.5m/s | -2.5°C | 62.6% | 0hPa | 2.9V | 00:00:00 | 00:34:46 | 00:00:00 | |
| OE5WHR-10 | 2026-09-01 02:23:43 | 48.22419 | 14.29726 | 97° | 68km/h | 3399m | 5.3m/s | -2.5°C | 66.2% | 0hPa | 2.9V | 00:00:00 | 00:00:00 | 00:00:00 | |
| OE5MMP-10 | 2026-09-01 02:23:40 | 48.22424 | 14.29649 | 97° | 68km/h | 3382m | 6.1m/s | -2.3°C | 67.0% | 0hPa | 2.9V | 00:00:00 | 00:34:38 | 00:00:00 | |
| OE5FHM-15 | 2026-09-01 02:23:39 | 48.22426 | 14.29623 | 98° | 66km/h | 3377m | 5.1m/s | -2.3°C | 67.0% | 0hPa | 2.9V | 00:00:00 | 00:34:37 | 08:30:00 | |
| OE5DRO-10 | 2026-09-01 02:23:37 | 48.22430 | 14.29573 | 97° | 66km/h | 3365m | 5.0m/s | -2.2°C | 67.4% | 0hPa | 2.9V | 00:00:00 | 00:00:00 | 08:30:00 | |
| OE5DXL-15 | 2026-09-01 02:23:33 | 48.22438 | 14.29470 | 93° | 66km/h | 3340m | 5.6m/s | -2.0°C | 68.0% | 0hPa | 2.9V | 00:00:00 | 00:00:00 | 00:00:00 | |
| OE5MMP-10 | 2026-09-01 02:23:30 | 48.22441 | 14.29397 | 99° | 66km/h | 3321m | 6.4m/s | -1.8°C | 68.2% | 0hPa | 2.9V | 00:00:00 | 00:34:28 | 00:00:00 | |
| OE5HKT-10 | 2026-09-01 02:23:27 | 48.22450 | 14.29323 | 99° | 66km/h | 3302m | 7.5m/s | -1.6°C | 68.1% | 0hPa | 2.9V | 00:00:00 | 00:00:00 | 00:00:00 | |
| OE5WHR-10 | 2026-09-01 02:23:22 | 48.22462 | 14.29201 | 99° | 66km/h | 3274m | 4.3m/s | -1.6°C | 75.3% | 0hPa | 2.9V | 00:00:00 | 00:00:00 | 00:00:00 | |
| OE3JTB-15 | 2026-09-01 02:23:21 | 48.22465 | 14.29175 | 102° | 66km/h | 3268m | 5.4m/s | -1.6°C | 78.8% | 0hPa | 2.9V | 00:00:00 | 00:34:19 | 00:00:00 | |
| OE5MMP-10 | 2026-09-01 02:23:20 | 48.22469 | 14.29151 | 104° | 66km/h | 3263m | 6.1m/s | -1.5°C | 79.4% | 0hPa | 2.9V | 00:00:00 | 00:34:18 | 08:30:00 | |
| PG1ADW-2 | 2026-09-01 02:23:19 | 48.22472 | 14.29127 | 102° | 66km/h | 3257m | 5.0m/s | -1.5°C | 79.3% | 0hPa | 2.9V | 00:00:00 | 00:00:00 | 00:00:00 | |
| OE5DRO-10 | 2026-09-01 02:23:18 | 48.22475 | 14.29103 | 101° | 66km/h | 3252m | 5.5m/s | -1.5°C | 80.3% | 0hPa | 2.9V | 00:00:00 | 00:00:00 | 00:00:00 | |
| OE5MMP-10 | 2026-09-01 02:23:10 | 48.22499 | 14.28909 | 101° | 66km/h | 3208m | 5.4m/s | -1.2°C | 78.9% | 0hPa | 2.9V | 00:00:00 | 00:34:08 | 00:00:00 | |
| OE5FHM-15 | 2026-09-01 02:23:09 | 48.22502 | 14.28885 | 98° | 64km/h | 3203m | 5.8m/s | -1.2°C | 78.3% | 0hPa | 2.9V | 00:00:00 | 00:34:07 | 00:00:00 | |
| OE5HKT-10 | 2026-09-01 02:23:06 | 48.22510 | 14.28812 | 101° | 66km/h | 3185m | 5.2m/s | -1.0°C | 78.0% | 0hPa | 2.9V | 00:00:00 | 00:00:00 | 00:00:00 | |
| OE5WHR-10 | 2026-09-01 02:23:01 | 48.22520 | 14.28688 | 100° | 66km/h | 3157m | 5.3m/s | -0.7°C | 76.9% | 0hPa | 2.9V | 00:00:00 | 00:33:59 | 00:00:00 | |
| OE5MMP-10 | 2026-09-01 02:23:00 | 48.22523 | 14.28664 | 100° | 66km/h | 3151m | 5.4m/s | -0.7°C | 76.8% | 0hPa | 2.9V | 00:00:00 | 00:33:58 | 00:00:00 | |
| PG1ADW-2 | 2026-09-01 02:22:59 | 48.22525 | 14.28640 | 101° | 68km/h | 3145m | 7.2m/s | -0.6°C | 76.3% | 0hPa | 2.9V | 00:00:00 | 00:00:00 | 00:00:00 | |
| OE3JTB-15 | 2026-09-01 02:22:52 | 48.22546 | 14.28467 | 96° | 64km/h | 3104m | 5.1m/s | -0.3°C | 78.1% | 0hPa | 2.9V | 00:00:00 | 00:00:00 | 00:00:00 | |
| OE5MMP-10 | 2026-09-01 02:22:50 | 48.22550 | 14.28414 | 99° | 66km/h | 3093m | 5.9m/s | -0.3°C | 77.9% | 0hPa | 2.9V | 00:00:00 | 00:33:48 | 00:00:00 | |
| OE5HKT-10 | 2026-09-01 02:22:45 | 48.22563 | 14.28290 | 101° | 62km/h | 3065m | 5.5m/s | -0.1°C | 78.3% | 0hPa | 2.9V | 00:00:00 | 00:33:43 | 00:00:00 | |
| OE5MMP-10 | 2026-09-01 02:22:40 | 48.22576 | 14.28166 | 99° | 62km/h | 3036m | 5.4m/s | 0.0°C | 77.6% | 0hPa | 2.9V | 00:00:00 | 00:33:38 | 00:00:00 | |
| PG1ADW-2 | 2026-09-01 02:22:39 | 48.22578 | 14.28141 | 97° | 60km/h | 3030m | 6.8m/s | 0.1°C | 77.0% | 0hPa | 2.9V | 00:00:00 | 00:00:00 | 00:00:00 | |
| OE5DXL-15 | 2026-09-01 02:22:33 | 48.22586 | 14.27998 | 93° | 62km/h | 2996m | 5.1m/s | 0.4°C | 75.6% | 0hPa | 2.9V | 00:00:00 | 00:00:00 | 08:30:00 | |
| OE5MMP-10 | 2026-09-01 02:22:30 | 48.22591 | 14.27930 | 95° | 60km/h | 2979m | 5.9m/s | 0.5°C | 75.1% | 0hPa | 2.9V | 00:00:00 | 00:33:28 | 00:00:00 | |
| OE5HKT-10 | 2026-09-01 02:22:24 | 48.22599 | 14.27797 | 92° | 62km/h | 2945m | 5.3m/s | 0.8°C | 74.1% | 0hPa | 2.9V | 00:00:00 | 00:00:00 | 08:30:00 | |
| OE5FHM-15 | 2026-09-01 02:22:23 | 48.22600 | 14.27775 | 96° | 62km/h | 2939m | 7.2m/s | 0.8°C | 73.8% | 0hPa | 2.9V | 00:00:00 | 00:33:21 | 00:00:00 | |
| OE5DRO-10 | 2026-09-01 02:22:21 | 48.22603 | 14.27729 | 96° | 64km/h | 2925m | 5.5m/s | 0.9°C | 74.3% | 0hPa | 2.9V | 00:00:00 | 00:00:00 | 00:00:00 | |
| OE5MMP-10 | 2026-09-01 02:22:20 | 48.22605 | 14.27706 | 94° | 62km/h | 2920m | 4.6m/s | 0.9°C | 74.3% | 0hPa | 2.9V | 00:00:00 | 00:33:18 | 00:00:00 | |
| OE5WHR-10 | 2026-09-01 02:22:19 | 48.22606 | 14.27684 | 95° | 62km/h | 2914m | 6.2m/s | 0.9°C | 74.2% | 0hPa | 2.9V | 00:00:00 | 00:00:00 | 00:00:00 | |
| OE5MMP-10 | 2026-09-01 02:22:10 | 48.22614 | 14.27467 | 91° | 64km/h | 2868m | 7.3m/s | 1.0°C | 77.1% | 0hPa | 2.9V | 00:00:00 | 00:33:08 | 00:00:00 | |
| OE5DRO-10 | 2026-09-01 02:22:02 | 48.22618 | 14.27275 | 93° | 60km/h | 2821m | 5.4m/s | 1.3°C | 79.4% | 0hPa | 2.9V | 00:00:00 | 00:00:00 | 00:00:00 | |
| OE5MMP-10 | 2026-09-01 02:22:00 | 48.22618 | 14.27229 | 89° | 60km/h | 2807m | 5.1m/s | 1.4°C | 78.8% | 0hPa | 2.9V | 00:00:00 | 00:32:58 | 00:00:00 | |
| PG1ADW-2 | 2026-09-01 02:21:59 | 48.22618 | 14.27206 | 91° | 58km/h | 2801m | 6.5m/s | 1.5°C | 78.6% | 0hPa | 2.9V | 00:00:00 | 00:00:00 | 00:00:00 | |
| OE5WHR-10 | 2026-09-01 02:21:58 | 48.22619 | 14.27182 | 94° | 57km/h | 2795m | 6.4m/s | 1.5°C | 78.7% | 0hPa | 2.9V | 00:00:00 | 00:32:56 | 00:00:00 | |
| OE3JTB-15 | 2026-09-01 02:21:54 | 48.22621 | 14.27090 | 92° | 55km/h | 2772m | 7.6m/s | 1.7°C | 78.6% | 0hPa | 2.9V | 00:00:00 | 00:32:52 | 00:00:00 | |
| OE5MMP-10 | 2026-09-01 02:21:50 | 48.22624 | 14.27004 | 91° | 57km/h | 2749m | 5.7m/s | 1.8°C | 78.2% | 0hPa | 2.9V | 00:00:00 | 00:32:48 | 08:30:00 | |
| OE5DRO-10 | 2026-09-01 02:21:43 | 48.22628 | 14.26848 | 94° | 51km/h | 2711m | 7.9m/s | 2.2°C | 76.4% | 0hPa | 3.0V | 00:00:00 | 00:00:00 | 00:00:00 | |
| OE5HKT-10 | 2026-09-01 02:21:42 | 48.22630 | 14.26829 | 100° | 51km/h | 2704m | 5.6m/s | 2.2°C | 76.1% | 0hPa | 2.9V | 00:00:00 | 00:32:40 | 00:00:00 | |
| OE5MMP-10 | 2026-09-01 02:21:40 | 48.22633 | 14.26791 | 98° | 53km/h | 2692m | 8.1m/s | 2.3°C | 75.5% | 0hPa | 2.9V | 00:00:00 | 00:32:38 | 00:00:00 | |
| PG1ADW-2 | 2026-09-01 02:21:39 | 48.22635 | 14.26770 | 98° | 51km/h | 2685m | 4.4m/s | 2.4°C | 75.4% | 0hPa | 2.9V | 00:00:00 | 00:00:00 | 00:00:00 | |
| OE5WHR-10 | 2026-09-01 02:21:37 | 48.22639 | 14.26729 | 97° | 51km/h | 2672m | 8.8m/s | 2.5°C | 74.2% | 0hPa | 2.9V | 00:00:00 | 00:00:00 | 08:30:00 | |
| OE5DXL-15 | 2026-09-01 02:21:33 | 48.22647 | 14.26652 | 107° | 51km/h | 2647m | 5.3m/s | 2.7°C | 73.2% | 0hPa | 2.9V | 00:00:00 | 00:00:00 | 00:00:00 | |
| OE5MMP-10 | 2026-09-01 02:21:30 | 48.22655 | 14.26595 | 97° | 49km/h | 2630m | 4.6m/s | 2.8°C | 73.2% | 0hPa | 2.9V | 00:00:00 | 00:32:28 | 00:00:00 | |
| OE3JTB-15 | 2026-09-01 02:21:25 | 48.22663 | 14.26498 | 95° | 49km/h | 2600m | 6.0m/s | 3.0°C | 71.9% | 0hPa | 2.9V | 00:00:00 | 00:00:00 | 08:30:00 | |
| OE5DRO-10 | 2026-09-01 02:21:24 | 48.22664 | 14.26481 | 98° | 51km/h | 2595m | 5.0m/s | 3.1°C | 71.9% | 0hPa | 2.9V | 00:00:00 | 00:00:00 | 00:00:00 | |
| OE5FHM-15 | 2026-09-01 02:21:23 | 48.22666 | 14.26464 | 101° | 49km/h | 2589m | 5.8m/s | 3.1°C | 71.7% | 0hPa | 2.9V | 00:00:00 | 00:32:21 | 00:00:00 | |
| OE5HKT-10 | 2026-09-01 02:21:21 | 48.22671 | 14.26427 | 100° | 49km/h | 2578m | 4.9m/s | 3.2°C | 71.6% | 0hPa | 2.9V | 00:00:00 | 00:00:00 | 00:00:00 | |
| OE5MMP-10 | 2026-09-01 02:21:20 | 48.22673 | 14.26408 | 99° | 53km/h | 2573m | 5.9m/s | 3.3°C | 71.2% | 0hPa | 2.9V | 00:00:00 | 00:32:18 | 00:00:00 | |
| PG1ADW-2 | 2026-09-01 02:21:19 | 48.22675 | 14.26389 | 100° | 49km/h | 2566m | 6.5m/s | 3.3°C | 70.9% | 0hPa | 2.9V | 00:00:00 | 00:00:00 | 00:00:00 | |
| OE5WHR-10 | 2026-09-01 02:21:16 | 48.22682 | 14.26329 | 97° | 47km/h | 2550m | 5.4m/s | 3.5°C | 70.4% | 0hPa | 3.0V | 00:00:00 | 00:00:00 | 00:00:00 | |
| OE5MMP-10 | 2026-09-01 02:21:10 | 48.22699 | 14.26215 | 105° | 46km/h | 2516m | 5.2m/s | 3.7°C | 68.9% | 0hPa | 3.0V | 00:00:00 | 00:32:08 | 00:00:00 | |
| OE5DRO-10 | 2026-09-01 02:21:05 | 48.22714 | 14.26127 | 106° | 47km/h | 2489m | 4.8m/s | 3.9°C | 62.6% | 0hPa | 3.0V | 00:00:00 | 00:00:00 | 00:00:00 | |
| OE5DXL-15 | 2026-09-01 02:21:03 | 48.22721 | 14.26093 | 105° | 51km/h | 2479m | 5.6m/s | 4.0°C | 61.0% | 0hPa | 3.0V | 00:00:00 | 00:00:00 | 00:00:00 | |
| OE5MMP-10 | 2026-09-01 02:21:00 | 48.22729 | 14.26046 | 104° | 47km/h | 2462m | 5.1m/s | 3.8°C | 61.3% | 0hPa | 3.0V | 00:00:00 | 00:31:58 | 00:00:00 | |
| PG1ADW-2 | 2026-09-01 02:20:59 | 48.22731 | 14.26029 | 99° | 51km/h | 2457m | 4.4m/s | 3.9°C | 61.1% | 0hPa | 3.0V | 00:00:00 | 00:31:57 | 00:00:00 | |
| OE3JTB-15 | 2026-09-01 02:20:56 | 48.22735 | 14.25978 | 97° | 51km/h | 2440m | 6.0m/s | 3.9°C | 62.5% | 0hPa | 3.0V | 00:00:00 | 00:00:00 | 00:00:00 | |
| OE5WHR-10 | 2026-09-01 02:20:55 | 48.22736 | 14.25960 | 100° | 53km/h | 2434m | 7.1m/s | 3.9°C | 63.2% | 0hPa | 3.0V | 00:00:00 | 00:31:53 | 00:00:00 | |
| OE5FHM-15 | 2026-09-01 02:20:53 | 48.22740 | 14.25925 | 95° | 51km/h | 2421m | 6.9m/s | 0°C | 0% | 0hPa | 3.0V | 00:00:00 | 00:31:51 | 00:00:00 | |
| OE5MMP-10 | 2026-09-01 02:20:50 | 48.22743 | 14.25864 | 99° | 55km/h | 2402m | 5.8m/s | 3.7°C | 84.8% | 0hPa | 3.0V | 00:00:00 | 00:31:48 | 00:00:00 | |
| OE5DRO-10 | 2026-09-01 02:20:46 | 48.22748 | 14.25783 | 95° | 51km/h | 2380m | 7.1m/s | 3.8°C | 85.4% | 0hPa | 2.9V | 00:00:00 | 00:00:00 | 08:30:00 | |
| OE5MMP-10 | 2026-09-01 02:20:40 | 48.22751 | 14.25656 | 90° | 51km/h | 2344m | 7.0m/s | 4.2°C | 83.8% | 0hPa | 2.9V | 00:00:00 | 00:31:38 | 00:00:00 | |
| OE5HKT-10 | 2026-09-01 02:20:39 | 48.22750 | 14.25636 | 87° | 49km/h | 2338m | 5.4m/s | 4.2°C | 83.6% | 0hPa | 2.9V | 00:00:00 | 00:31:37 | 00:00:00 | |
| OE5DXL-15 | 2026-09-01 02:20:33 | 48.22745 | 14.25522 | 84° | 49km/h | 2301m | 6.9m/s | 4.6°C | 81.8% | 0hPa | 2.9V | 00:00:00 | 00:00:00 | 00:00:00 | |
| OE5WHR-10 | 2026-09-01 02:20:32 | 48.22744 | 14.25503 | 90° | 49km/h | 2294m | 6.8m/s | 4.7°C | 81.5% | 0hPa | 2.9V | 00:00:00 | 00:00:00 | 00:00:00 | |
| OE5MMP-10 | 2026-09-01 02:20:30 | 48.22745 | 14.25464 | 92° | 49km/h | 2282m | 7.4m/s | 4.8°C | 81.0% | 0hPa | 2.9V | 00:00:00 | 00:31:28 | 00:00:00 | |
| OE5DRO-10 | 2026-09-01 02:20:27 | 48.22744 | 14.25411 | 86° | 49km/h | 2263m | 7.8m/s | 5.0°C | 80.0% | 0hPa | 2.9V | 00:00:00 | 00:00:00 | 00:00:00 | |
| OE5FHM-15 | 2026-09-01 02:20:23 | 48.22740 | 14.25335 | 88° | 49km/h | 2239m | 4.7m/s | 0°C | 0% | 0hPa | 2.9V | 00:00:00 | 00:31:21 | 00:00:00 | |
| OE5MMP-10 | 2026-09-01 02:20:20 | 48.22738 | 14.25278 | 88° | 47km/h | 2221m | 7.0m/s | 5.1°C | 82.0% | 0hPa | 2.9V | 00:00:00 | 00:31:18 | 08:30:00 | |
| PG1ADW-2 | 2026-09-01 02:20:19 | 48.22737 | 14.25258 | 85° | 47km/h | 2215m | 5.1m/s | 5.2°C | 82.1% | 0hPa | 2.9V | 00:00:00 | 00:00:00 | 00:00:00 | |
| OE5HKT-10 | 2026-09-01 02:20:18 | 48.22735 | 14.25239 | 82° | 47km/h | 2209m | 6.5m/s | 5.2°C | 81.7% | 0hPa | 3.0V | 00:00:00 | 00:00:00 | 00:00:00 | |
| OE5WHR-10 | 2026-09-01 02:20:11 | 48.22727 | 14.25118 | 88° | 49km/h | 2169m | 6.0m/s | 5.5°C | 80.7% | 0hPa | 2.9V | 00:00:00 | 00:00:00 | 00:00:00 | |
| OE5MMP-10 | 2026-09-01 02:20:10 | 48.22727 | 14.25100 | 87° | 47km/h | 2163m | 6.0m/s | 5.5°C | 80.7% | 0hPa | 2.9V | 00:00:00 | 00:31:08 | 00:00:00 | |
| OE5DRO-10 | 2026-09-01 02:20:08 | 48.22724 | 14.25063 | 83° | 49km/h | 2151m | 6.3m/s | 5.6°C | 81.3% | 0hPa | 2.9V | 00:00:00 | 00:00:00 | 00:00:00 | |
| OE5DXL-15 | 2026-09-01 02:20:03 | 48.22717 | 14.24974 | 84° | 49km/h | 2121m | 5.7m/s | 5.8°C | 81.5% | 0hPa | 2.9V | 00:00:00 | 00:00:00 | 00:00:00 | |
| OE5MMP-10 | 2026-09-01 02:20:00 | 48.22710 | 14.24919 | 76° | 51km/h | 2103m | 6.2m/s | 5.9°C | 80.7% | 0hPa | 2.9V | 00:00:00 | 00:30:58 | 00:00:00 | |
| PG1ADW-2 | 2026-09-01 02:19:59 | 48.22708 | 14.24900 | 79° | 49km/h | 2097m | 6.6m/s | 6.0°C | 80.4% | 0hPa | 2.9V | 00:00:00 | 00:00:00 | 00:00:00 | |
| OE3JTB-15 | 2026-09-01 02:19:58 | 48.22706 | 14.24882 | 83° | 49km/h | 2091m | 5.9m/s | 6.0°C | 80.3% | 0hPa | 2.9V | 00:00:00 | 00:00:00 | 00:00:00 | |
| OE5HKT-10 | 2026-09-01 02:19:57 | 48.22704 | 14.24862 | 82° | 49km/h | 2085m | 5.6m/s | 6.1°C | 80.1% | 0hPa | 3.0V | 00:00:00 | 00:00:00 | 00:00:00 | |
| OE5FHM-15 | 2026-09-01 02:19:53 | 48.22693 | 14.24787 | 82° | 49km/h | 2062m | 5.5m/s | 0°C | 0% | 0hPa | 3.0V | 00:00:00 | 00:30:51 | 00:00:00 | |
| OE5WHR-10 | 2026-09-01 02:19:50 | 48.22688 | 14.24731 | 84° | 47km/h | 2042m | 6.2m/s | 6.5°C | 78.0% | 0hPa | 3.0V | 00:00:00 | 00:30:48 | 00:00:00 | |
| OE5DRO-10 | 2026-09-01 02:19:49 | 48.22687 | 14.24714 | 88° | 47km/h | 2036m | 5.7m/s | 6.5°C | 77.9% | 0hPa | 3.0V | 00:00:00 | 00:00:00 | 00:00:00 | |
| OE5MMP-10 | 2026-09-01 02:19:40 | 48.22678 | 14.24550 | 84° | 47km/h | 1985m | 6.5m/s | 0°C | 0% | 0hPa | 2.9V | 00:00:00 | 00:30:38 | 00:00:00 | |
| PG1ADW-2 | 2026-09-01 02:19:39 | 48.22677 | 14.24532 | 86° | 49km/h | 1979m | 6.2m/s | 7.1°C | 76.3% | 0hPa | 2.9V | 00:00:00 | 00:30:37 | 00:00:00 | |
| OE5HKT-10 | 2026-09-01 02:19:36 | 48.22672 | 14.24479 | 82° | 49km/h | 1961m | 5.2m/s | 7.2°C | 75.8% | 0hPa | 2.9V | 00:00:00 | 00:30:34 | 00:00:00 | |
| OE5DXL-15 | 2026-09-01 02:19:33 | 48.22666 | 14.24423 | 79° | 51km/h | 1943m | 5.2m/s | 7.4°C | 75.6% | 0hPa | 2.9V | 00:00:00 | 00:00:00 | 00:00:00 | |
| OE5DRO-10 | 2026-09-01 02:19:30 | 48.22662 | 14.24368 | 90° | 49km/h | 1926m | 5.1m/s | 7.5°C | 74.8% | 0hPa | 2.9V | 00:00:00 | 00:00:00 | 00:00:00 | |
| OE5MMP-10 | 2026-09-01 02:19:30 | 48.22662 | 14.24368 | 90° | 49km/h | 1926m | 5.1m/s | 0°C | 0% | 0hPa | 2.9V | 00:00:00 | 00:30:28 | 00:00:00 | |
| OE3JTB-15 | 2026-09-01 02:19:29 | 48.22662 | 14.24349 | 89° | 51km/h | 1920m | 5.4m/s | 7.6°C | 74.6% | 0hPa | 2.9V | 00:00:00 | 00:00:00 | 00:00:00 | |
| OE5WHR-10 | 2026-09-01 02:19:29 | 48.22662 | 14.24349 | 89° | 51km/h | 1920m | 5.4m/s | 7.6°C | 74.6% | 0hPa | 2.9V | 00:00:00 | 00:00:00 | 00:00:00 | |
| OE5FHM-15 | 2026-09-01 02:19:23 | 48.22652 | 14.24234 | 85° | 47km/h | 1885m | 5.2m/s | 0°C | 0% | 0hPa | 2.9V | 00:00:00 | 00:30:21 | 00:00:00 | |
| OE5MMP-10 | 2026-09-01 02:19:20 | 48.22647 | 14.24180 | 81° | 49km/h | 1867m | 5.5m/s | 0°C | 0% | 0hPa | 2.9V | 00:00:00 | 00:30:18 | 00:00:00 | |
| PG1ADW-2 | 2026-09-01 02:19:19 | 48.22645 | 14.24161 | 84° | 51km/h | 1860m | 7.5m/s | 8.1°C | 72.6% | 0hPa | 2.9V | 00:00:00 | 00:00:00 | 08:30:00 | |
| OE5DRO-10 | 2026-09-01 02:19:11 | 48.22629 | 14.24011 | 81° | 51km/h | 1810m | 5.5m/s | 8.5°C | 71.3% | 0hPa | 3.0V | 00:00:00 | 00:00:00 | 00:00:00 | |
| OE5MMP-10 | 2026-09-01 02:19:10 | 48.22627 | 14.23992 | 83° | 53km/h | 1804m | 6.4m/s | 0°C | 0% | 0hPa | 3.0V | 00:00:00 | 00:30:08 | 00:00:00 | |
| OE5WHR-10 | 2026-09-01 02:19:08 | 48.22623 | 14.23954 | 80° | 51km/h | 1791m | 5.9m/s | 8.7°C | 71.4% | 0hPa | 3.0V | 00:00:00 | 00:00:00 | 00:00:00 | |
| OE5DXL-15 | 2026-09-01 02:19:03 | 48.22612 | 14.23853 | 82° | 49km/h | 1761m | 4.7m/s | 8.8°C | 73.2% | 0hPa | 3.0V | 00:00:00 | 00:00:00 | 00:00:00 | |
| OE3JTB-15 | 2026-09-01 02:19:00 | 48.22608 | 14.23791 | 86° | 47km/h | 1743m | 5.5m/s | 8.8°C | 74.2% | 0hPa | 3.0V | 00:00:00 | 00:29:58 | 00:00:00 | |
| OE5MMP-10 | 2026-09-01 02:19:00 | 48.22608 | 14.23791 | 86° | 51km/h | 1743m | 5.5m/s | 0°C | 0% | 0hPa | 3.0V | 00:00:00 | 00:29:58 | 00:00:00 | |
| PG1ADW-2 | 2026-09-01 02:18:59 | 48.22607 | 14.23772 | 84° | 49km/h | 1737m | 6.1m/s | 8.8°C | 74.1% | 0hPa | 3.0V | 00:00:00 | 00:00:00 | 00:00:00 | |
| OE5HKT-10 | 2026-09-01 02:18:54 | 48.22602 | 14.23680 | 85° | 47km/h | 1708m | 5.4m/s | 9.1°C | 73.0% | 0hPa | 3.0V | 00:00:00 | 00:00:00 | 00:00:00 | |
| OE5DRO-10 | 2026-09-01 02:18:52 | 48.22601 | 14.23640 | 91° | 47km/h | 1696m | 5.9m/s | 9.2°C | 72.6% | 0hPa | 3.0V | 00:00:00 | 00:00:00 | 00:00:00 | |
| OE5WHR-10 | 2026-09-01 02:18:47 | 48.22601 | 14.23546 | 93° | 46km/h | 1664m | 6.5m/s | 9.5°C | 71.4% | 0hPa | 2.9V | 00:00:00 | 00:29:45 | 00:00:00 | |
| OE5MMP-10 | 2026-09-01 02:18:47 | 48.22601 | 14.23546 | 93° | 46km/h | 1664m | 6.5m/s | 0°C | 0% | 0hPa | 2.9V | 00:00:00 | 00:29:45 | 00:00:00 | |
| PG1ADW-2 | 2026-09-01 02:18:39 | 48.22603 | 14.23401 | 90° | 44km/h | 1616m | 6.6m/s | 9.9°C | 70.7% | 0hPa | 2.9V | 00:00:00 | 00:00:00 | 00:00:00 | |
| OE5HKT-10 | 2026-09-01 02:18:33 | 48.22605 | 14.23305 | 96° | 44km/h | 1581m | 6.0m/s | 10.1°C | 71.4% | 0hPa | 2.9V | 00:00:00 | 00:29:31 | 00:00:00 | |
| OE5DXL-15 | 2026-09-01 02:18:33 | 48.22605 | 14.23305 | 96° | 42km/h | 1581m | 6.0m/s | 0°C | 0% | 0hPa | 2.9V | 00:00:00 | 00:29:31 | 00:00:00 | |
| OE5DRO-10 | 2026-09-01 02:18:33 | 48.22605 | 14.23305 | 96° | 44km/h | 1581m | 6.0m/s | 10.1°C | 71.4% | 0hPa | 2.9V | 00:00:00 | 00:00:00 | 00:00:00 | |
| OE3JTB-15 | 2026-09-01 02:18:31 | 48.22607 | 14.23273 | 93° | 42km/h | 1568m | 6.2m/s | 10.1°C | 72.7% | 0hPa | 2.9V | 00:00:00 | 00:00:00 | 00:00:00 | |
| OE5FHM-15 | 2026-09-01 02:18:27 | 48.22613 | 14.23205 | 100° | 46km/h | 1544m | 6.4m/s | 0°C | 0% | 0hPa | 2.9V | 00:00:00 | 00:29:25 | 00:00:00 | |
| OE5WHR-10 | 2026-09-01 02:18:26 | 48.22615 | 14.23189 | 98° | 42km/h | 1537m | 6.4m/s | 10.3°C | 74.0% | 0hPa | 2.9V | 00:00:00 | 00:00:00 | 08:30:00 | |
| PG1ADW-2 | 2026-09-01 02:18:19 | 48.22627 | 14.23069 | 99° | 42km/h | 1492m | 7.3m/s | 10.7°C | 73.1% | 0hPa | 2.9V | 00:00:00 | 00:29:17 | 00:00:00 | |
| OE5DRO-10 | 2026-09-01 02:18:14 | 48.22638 | 14.22997 | 106° | 42km/h | 1458m | 6.4m/s | 10.9°C | 73.0% | 0hPa | 2.9V | 00:00:00 | 00:00:00 | 00:00:00 | |
| OE5HKT-10 | 2026-09-01 02:18:12 | 48.22643 | 14.22967 | 108° | 42km/h | 1446m | 7.2m/s | 11.0°C | 73.3% | 0hPa | 2.9V | 00:00:00 | 00:00:00 | 00:00:00 | |
| OE5WHR-10 | 2026-09-01 02:18:05 | 48.22665 | 14.22862 | 104° | 44km/h | 1401m | 6.3m/s | 11.3°C | 73.7% | 0hPa | 3.0V | 00:00:00 | 00:00:00 | 00:00:00 | |
| OE3JTB-15 | 2026-09-01 02:18:02 | 48.22674 | 14.22816 | 105° | 44km/h | 1383m | 5.4m/s | 11.5°C | 72.7% | 0hPa | 3.0V | 00:00:00 | 00:00:00 | 00:00:00 | |
| PG1ADW-2 | 2026-09-01 02:17:59 | 48.22683 | 14.22768 | 110° | 42km/h | 1364m | 5.8m/s | 11.6°C | 73.0% | 0hPa | 3.0V | 00:00:00 | 00:00:00 | 00:00:00 | |
| OE5HKT-10 | 2026-09-01 02:17:51 | 48.22706 | 14.22642 | 101° | 42km/h | 1318m | 6.2m/s | 12.0°C | 72.7% | 0hPa | 3.0V | 00:00:00 | 00:00:00 | 00:00:00 | |
| OE5WHR-10 | 2026-09-01 02:17:44 | 48.22727 | 14.22533 | 107° | 44km/h | 1275m | 7.1m/s | 12.4°C | 71.3% | 0hPa | 3.0V | 00:00:00 | 00:28:42 | 00:00:00 | |
| PG1ADW-2 | 2026-09-01 02:17:39 | 48.22740 | 14.22456 | 107° | 44km/h | 1246m | 5.0m/s | 12.6°C | 71.3% | 0hPa | 3.0V | 00:00:00 | 00:00:00 | 00:00:00 | |
| OE5DRO-10 | 2026-09-01 02:17:36 | 48.22751 | 14.22409 | 111° | 44km/h | 1229m | 3.6m/s | 12.7°C | 71.6% | 0hPa | 3.0V | 00:00:00 | 00:00:00 | 00:00:00 | |
| OE3JTB-15 | 2026-09-01 02:17:33 | 48.22761 | 14.22362 | 108° | 44km/h | 1211m | 4.7m/s | 0°C | 0% | 0hPa | 3.0V | 00:00:00 | 00:28:31 | 00:00:00 | |
| OE5HKT-10 | 2026-09-01 02:17:30 | 48.22773 | 14.22317 | 110° | 44km/h | 1192m | 5.9m/s | 0°C | 0% | 0hPa | 3.0V | 00:00:00 | 00:28:28 | 00:00:00 | |
| OE5WHR-10 | 2026-09-01 02:17:23 | 48.22800 | 14.22204 | 110° | 44km/h | 1150m | 6.5m/s | 13.3°C | 71.2% | 0hPa | 3.0V | 00:00:00 | 00:00:00 | 00:00:00 | |
| PG1ADW-2 | 2026-09-01 02:17:19 | 48.22814 | 14.22140 | 109° | 42km/h | 1127m | 6.7m/s | 0°C | 0% | 0hPa | 2.9V | 00:00:00 | 00:00:00 | 00:00:00 | |
| OE5DRO-10 | 2026-09-01 02:17:17 | 48.22822 | 14.22110 | 112° | 42km/h | 1115m | 6.2m/s | 13.5°C | 72.3% | 0hPa | 2.9V | 00:00:00 | 00:00:00 | 00:00:00 | |
| OE5HKT-10 | 2026-09-01 02:17:09 | 48.22856 | 14.21990 | 120° | 40km/h | 1068m | 4.8m/s | 0°C | 0% | 0hPa | 2.9V | 00:00:00 | 00:00:00 | 00:00:00 | |
| OE3JTB-15 | 2026-09-01 02:17:04 | 48.22879 | 14.21916 | 119° | 40km/h | 1038m | 6.1m/s | 0°C | 0% | 0hPa | 2.9V | 00:00:00 | 00:00:00 | 00:00:00 | |
| OE5WHR-10 | 2026-09-01 02:17:02 | 48.22886 | 14.21888 | 109° | 42km/h | 1027m | 6.3m/s | 13.9°C | 73.8% | 0hPa | 2.9V | 00:00:00 | 00:00:00 | 00:00:00 | |
| PG1ADW-2 | 2026-09-01 02:16:59 | 48.22899 | 14.21845 | 115° | 42km/h | 1010m | 5.1m/s | 0°C | 0% | 0hPa | 2.9V | 00:00:00 | 00:27:57 | 00:00:00 | |
| OE5DRO-10 | 2026-09-01 02:16:58 | 48.22902 | 14.21833 | 107° | 42km/h | 1005m | 6.4m/s | 14.0°C | 73.9% | 0hPa | 2.9V | 00:00:00 | 00:00:00 | 00:00:00 | |
| OE5HKT-10 | 2026-09-01 02:16:48 | 48.22935 | 14.21688 | 109° | 46km/h | 945m | 5.7m/s | 0°C | 0% | 0hPa | 3.0V | 00:00:00 | 00:00:00 | 00:00:00 | |
| OE5WHR-10 | 2026-09-01 02:16:41 | 48.22962 | 14.21573 | 110° | 46km/h | 905m | 6.2m/s | 14.6°C | 72.9% | 0hPa | 3.0V | 00:00:00 | 00:27:39 | 00:00:00 | |
| OE5DRO-10 | 2026-09-01 02:16:39 | 48.22970 | 14.21540 | 113° | 46km/h | 893m | 7.4m/s | 14.7°C | 72.3% | 0hPa | 3.0V | 00:00:00 | 00:00:00 | 00:00:00 | |
| PG1ADW-2 | 2026-09-01 02:16:39 | 48.22970 | 14.21540 | 113° | 46km/h | 893m | 7.4m/s | 0°C | 0% | 0hPa | 3.0V | 00:00:00 | 00:00:00 | 00:00:00 | |
| OE5HKT-10 | 2026-09-01 02:16:24 | 48.23029 | 14.21297 | 109° | 51km/h | 806m | 7.8m/s | 0°C | 0% | 0hPa | 3.0V | 00:00:00 | 00:27:22 | 00:00:00 | |
| OE5DRO-10 | 2026-09-01 02:16:20 | 48.23044 | 14.21225 | 111° | 49km/h | 781m | 5.2m/s | 15.7°C | 68.6% | 0hPa | 3.0V | 00:00:00 | 00:00:00 | 00:00:00 | |
| OE5WHR-10 | 2026-09-01 02:16:20 | 48.23044 | 14.21225 | 111° | 49km/h | 781m | 5.2m/s | 15.7°C | 68.6% | 0hPa | 3.0V | 00:00:00 | 00:00:00 | 00:00:00 | |
| PG1ADW-2 | 2026-09-01 02:16:19 | 48.23048 | 14.21207 | 110° | 49km/h | 775m | 6.7m/s | 0°C | 0% | 0hPa | 2.9V | 00:00:00 | 00:00:00 | 00:00:00 | |
| OE5HKT-10 | 2026-09-01 02:16:02 | 48.23123 | 14.20914 | 118° | 37km/h | 679m | 7.0m/s | 0°C | 0% | 0hPa | 2.9V | 00:00:00 | 00:00:00 | 00:00:00 | |
| OE5DRO-10 | 2026-09-01 02:16:01 | 48.23126 | 14.20898 | 98° | 46km/h | 673m | 5.5m/s | 16.7°C | 64.3% | 0hPa | 2.9V | 00:00:00 | 00:00:00 | 00:00:00 | |
| OE5WHR-10 | 2026-09-01 02:15:59 | 48.23130 | 14.20859 | 108° | 47km/h | 661m | 5.5m/s | 0°C | 0% | 0hPa | 0V | 00:00:00 | 00:00:00 | 00:00:00 | |
| OE5DRO-10 | 2026-09-01 02:15:42 | 48.23186 | 14.20586 | 82° | 44km/h | 565m | 5.9m/s | 0°C | 0% | 0hPa | 0V | 00:00:00 | 00:00:00 | 00:00:00 | |
| OE5WHR-10 | 2026-09-01 02:15:38 | 48.23194 | 14.20518 | 99° | 42km/h | 543m | 6.5m/s | 0°C | 0% | 0hPa | 0V | 00:00:00 | 00:26:36 | 00:00:00 | |
| OE5DRO-10 | 2026-09-01 02:15:23 | 48.23210 | 14.20289 | 135° | 31km/h | 460m | 5.5m/s | 0°C | 0% | 0hPa | 0V | 00:00:00 | 00:00:00 | 00:00:00 | |
| OE5WHR-10 | 2026-09-01 02:15:17 | 48.23210 | 14.20219 | 55° | 37km/h | 422m | 4.6m/s | 0°C | 0% | 0hPa | 0V | 00:00:00 | 00:00:00 | 00:00:00 | |
| OE5DRO-10 | 2026-09-01 02:15:04 | 48.23203 | 14.20095 | 88° | 11km/h | 352m | 5.2m/s | 0°C | 0% | 0hPa | 0V | 00:00:00 | 00:00:00 | 00:00:00 |